<?xml version="1.0" encoding="UTF-8" standalone="no" ?>
<gpx xmlns="http://www.topografix.com/GPX/1/1" xmlns:xsi="http://www.w3.org/2001/XMLSchema-instance" xsi:schemaLocation="http://www.topografix.com/GPX/1/1 http://www.topografix.com/GPX/1/1/gpx.xsd" version="1.1" creator="VisuGPX - https://www.visugpx.com">
  <metadata>
    <name>traversée bareges -refuge de l'oule-bareges </name>
    <desc><![CDATA[jour 1  depart de bareges skis aux pieds vers aygues cluses puis col de bareges
neige excellente dans la descente vers l'oule - quelques dechaussages dans le bois
apres l'abri de port bielh puis portage le long du lac de l'oule . nuit au refuge de l'oule]]></desc>
  </metadata>
  <trk>
    <name><![CDATA[traversée bareges -refuge de l'oule-bareges _1]]></name>
    <trkseg>
      <trkpt lat="42.90391" lon="0.10197">
        <ele>1405</ele>
        <time>2019-03-20T08:42:57Z</time>
      </trkpt>
      <trkpt lat="42.90391" lon="0.10198">
        <ele>1403</ele>
        <time>2019-03-20T08:42:58Z</time>
      </trkpt>
      <trkpt lat="42.90379" lon="0.10207">
        <ele>1424</ele>
        <time>2019-03-20T08:43:15Z</time>
      </trkpt>
      <trkpt lat="42.90381" lon="0.10211">
        <ele>1438</ele>
        <time>2019-03-20T08:43:24Z</time>
      </trkpt>
      <trkpt lat="42.90379" lon="0.10208">
        <ele>1450</ele>
        <time>2019-03-20T08:43:55Z</time>
      </trkpt>
      <trkpt lat="42.90375" lon="0.10214">
        <ele>1453</ele>
        <time>2019-03-20T08:44:45Z</time>
      </trkpt>
      <trkpt lat="42.90372" lon="0.10217">
        <ele>1455</ele>
        <time>2019-03-20T08:44:48Z</time>
      </trkpt>
      <trkpt lat="42.90365" lon="0.1023">
        <ele>1455</ele>
        <time>2019-03-20T08:45:00Z</time>
      </trkpt>
      <trkpt lat="42.9036" lon="0.10237">
        <ele>1454</ele>
        <time>2019-03-20T08:45:08Z</time>
      </trkpt>
      <trkpt lat="42.90356" lon="0.10241">
        <ele>1454</ele>
        <time>2019-03-20T08:45:13Z</time>
      </trkpt>
      <trkpt lat="42.90349" lon="0.10244">
        <ele>1453</ele>
        <time>2019-03-20T08:45:20Z</time>
      </trkpt>
      <trkpt lat="42.9032" lon="0.10234">
        <ele>1451</ele>
        <time>2019-03-20T08:45:45Z</time>
      </trkpt>
      <trkpt lat="42.90316" lon="0.10233">
        <ele>1451</ele>
        <time>2019-03-20T08:45:48Z</time>
      </trkpt>
      <trkpt lat="42.90313" lon="0.10231">
        <ele>1451</ele>
        <time>2019-03-20T08:45:52Z</time>
      </trkpt>
      <trkpt lat="42.90311" lon="0.10228">
        <ele>1450</ele>
        <time>2019-03-20T08:45:56Z</time>
      </trkpt>
      <trkpt lat="42.90308" lon="0.10227">
        <ele>1450</ele>
        <time>2019-03-20T08:46:00Z</time>
      </trkpt>
      <trkpt lat="42.90307" lon="0.10228">
        <ele>1450</ele>
        <time>2019-03-20T08:46:05Z</time>
      </trkpt>
      <trkpt lat="42.90302" lon="0.10233">
        <ele>1449</ele>
        <time>2019-03-20T08:46:12Z</time>
      </trkpt>
      <trkpt lat="42.903" lon="0.10235">
        <ele>1449</ele>
        <time>2019-03-20T08:46:15Z</time>
      </trkpt>
      <trkpt lat="42.90299" lon="0.10239">
        <ele>1449</ele>
        <time>2019-03-20T08:46:18Z</time>
      </trkpt>
      <trkpt lat="42.903" lon="0.10244">
        <ele>1448</ele>
        <time>2019-03-20T08:46:23Z</time>
      </trkpt>
      <trkpt lat="42.90299" lon="0.10249">
        <ele>1448</ele>
        <time>2019-03-20T08:46:25Z</time>
      </trkpt>
      <trkpt lat="42.90298" lon="0.10253">
        <ele>1448</ele>
        <time>2019-03-20T08:46:27Z</time>
      </trkpt>
      <trkpt lat="42.90299" lon="0.10252">
        <ele>1447</ele>
        <time>2019-03-20T08:46:45Z</time>
      </trkpt>
      <trkpt lat="42.90302" lon="0.10248">
        <ele>1447</ele>
        <time>2019-03-20T08:47:00Z</time>
      </trkpt>
      <trkpt lat="42.90304" lon="0.10243">
        <ele>1447</ele>
        <time>2019-03-20T08:47:18Z</time>
      </trkpt>
      <trkpt lat="42.90298" lon="0.10246">
        <ele>1447</ele>
        <time>2019-03-20T08:48:24Z</time>
      </trkpt>
      <trkpt lat="42.90293" lon="0.1025">
        <ele>1447</ele>
        <time>2019-03-20T08:48:27Z</time>
      </trkpt>
      <trkpt lat="42.90289" lon="0.10258">
        <ele>1449</ele>
        <time>2019-03-20T08:48:30Z</time>
      </trkpt>
      <trkpt lat="42.90286" lon="0.10262">
        <ele>1450</ele>
        <time>2019-03-20T08:48:33Z</time>
      </trkpt>
      <trkpt lat="42.90282" lon="0.10273">
        <ele>1450</ele>
        <time>2019-03-20T08:48:40Z</time>
      </trkpt>
      <trkpt lat="42.90266" lon="0.10301">
        <ele>1452</ele>
        <time>2019-03-20T08:48:59Z</time>
      </trkpt>
      <trkpt lat="42.90265" lon="0.10304">
        <ele>1452</ele>
        <time>2019-03-20T08:49:00Z</time>
      </trkpt>
      <trkpt lat="42.90257" lon="0.10318">
        <ele>1455</ele>
        <time>2019-03-20T08:49:08Z</time>
      </trkpt>
      <trkpt lat="42.90256" lon="0.1032">
        <ele>1455</ele>
        <time>2019-03-20T08:49:09Z</time>
      </trkpt>
      <trkpt lat="42.90265" lon="0.10318">
        <ele>1459</ele>
        <time>2019-03-20T08:49:21Z</time>
      </trkpt>
      <trkpt lat="42.90271" lon="0.10321">
        <ele>1459</ele>
        <time>2019-03-20T08:49:23Z</time>
      </trkpt>
      <trkpt lat="42.90261" lon="0.10335">
        <ele>1462</ele>
        <time>2019-03-20T08:49:30Z</time>
      </trkpt>
      <trkpt lat="42.90268" lon="0.10335">
        <ele>1462</ele>
        <time>2019-03-20T08:49:31Z</time>
      </trkpt>
      <trkpt lat="42.90266" lon="0.10338">
        <ele>1465</ele>
        <time>2019-03-20T08:50:15Z</time>
      </trkpt>
      <trkpt lat="42.90261" lon="0.10339">
        <ele>1466</ele>
        <time>2019-03-20T08:51:02Z</time>
      </trkpt>
      <trkpt lat="42.90257" lon="0.10339">
        <ele>1468</ele>
        <time>2019-03-20T08:51:05Z</time>
      </trkpt>
      <trkpt lat="42.90254" lon="0.1034">
        <ele>1469</ele>
        <time>2019-03-20T08:51:08Z</time>
      </trkpt>
      <trkpt lat="42.90251" lon="0.10344">
        <ele>1470</ele>
        <time>2019-03-20T08:51:37Z</time>
      </trkpt>
      <trkpt lat="42.90243" lon="0.10341">
        <ele>1472</ele>
        <time>2019-03-20T08:51:50Z</time>
      </trkpt>
      <trkpt lat="42.90238" lon="0.10339">
        <ele>1472</ele>
        <time>2019-03-20T08:51:53Z</time>
      </trkpt>
      <trkpt lat="42.90234" lon="0.10339">
        <ele>1472</ele>
        <time>2019-03-20T08:51:55Z</time>
      </trkpt>
      <trkpt lat="42.9023" lon="0.10338">
        <ele>1472</ele>
        <time>2019-03-20T08:51:58Z</time>
      </trkpt>
      <trkpt lat="42.90226" lon="0.10338">
        <ele>1473</ele>
        <time>2019-03-20T08:52:01Z</time>
      </trkpt>
      <trkpt lat="42.90221" lon="0.10338">
        <ele>1473</ele>
        <time>2019-03-20T08:52:06Z</time>
      </trkpt>
      <trkpt lat="42.90214" lon="0.10338">
        <ele>1473</ele>
        <time>2019-03-20T08:52:16Z</time>
      </trkpt>
      <trkpt lat="42.9019" lon="0.1034">
        <ele>1474</ele>
        <time>2019-03-20T08:52:43Z</time>
      </trkpt>
      <trkpt lat="42.90186" lon="0.10342">
        <ele>1474</ele>
        <time>2019-03-20T08:52:46Z</time>
      </trkpt>
      <trkpt lat="42.90182" lon="0.10344">
        <ele>1474</ele>
        <time>2019-03-20T08:52:49Z</time>
      </trkpt>
      <trkpt lat="42.90177" lon="0.10345">
        <ele>1474</ele>
        <time>2019-03-20T08:52:53Z</time>
      </trkpt>
      <trkpt lat="42.90173" lon="0.10344">
        <ele>1474</ele>
        <time>2019-03-20T08:52:58Z</time>
      </trkpt>
      <trkpt lat="42.90169" lon="0.10344">
        <ele>1474</ele>
        <time>2019-03-20T08:53:03Z</time>
      </trkpt>
      <trkpt lat="42.90165" lon="0.10345">
        <ele>1474</ele>
        <time>2019-03-20T08:53:07Z</time>
      </trkpt>
      <trkpt lat="42.90162" lon="0.10346">
        <ele>1474</ele>
        <time>2019-03-20T08:53:12Z</time>
      </trkpt>
      <trkpt lat="42.90153" lon="0.10351">
        <ele>1474</ele>
        <time>2019-03-20T08:53:23Z</time>
      </trkpt>
      <trkpt lat="42.90147" lon="0.10354">
        <ele>1474</ele>
        <time>2019-03-20T08:53:30Z</time>
      </trkpt>
      <trkpt lat="42.90142" lon="0.10355">
        <ele>1474</ele>
        <time>2019-03-20T08:53:37Z</time>
      </trkpt>
      <trkpt lat="42.90128" lon="0.10383">
        <ele>1474</ele>
        <time>2019-03-20T08:54:08Z</time>
      </trkpt>
      <trkpt lat="42.90124" lon="0.10403">
        <ele>1474</ele>
        <time>2019-03-20T08:54:23Z</time>
      </trkpt>
      <trkpt lat="42.90117" lon="0.10413">
        <ele>1474</ele>
        <time>2019-03-20T08:54:31Z</time>
      </trkpt>
      <trkpt lat="42.90111" lon="0.10415">
        <ele>1474</ele>
        <time>2019-03-20T08:54:36Z</time>
      </trkpt>
      <trkpt lat="42.90094" lon="0.10427">
        <ele>1474</ele>
        <time>2019-03-20T08:55:08Z</time>
      </trkpt>
      <trkpt lat="42.90089" lon="0.10429">
        <ele>1474</ele>
        <time>2019-03-20T08:55:13Z</time>
      </trkpt>
      <trkpt lat="42.90074" lon="0.10439">
        <ele>1474</ele>
        <time>2019-03-20T08:55:39Z</time>
      </trkpt>
      <trkpt lat="42.90066" lon="0.10442">
        <ele>1474</ele>
        <time>2019-03-20T08:55:47Z</time>
      </trkpt>
      <trkpt lat="42.90063" lon="0.10444">
        <ele>1474</ele>
        <time>2019-03-20T08:55:52Z</time>
      </trkpt>
      <trkpt lat="42.90059" lon="0.10444">
        <ele>1474</ele>
        <time>2019-03-20T08:56:00Z</time>
      </trkpt>
      <trkpt lat="42.90052" lon="0.10449">
        <ele>1474</ele>
        <time>2019-03-20T08:56:06Z</time>
      </trkpt>
      <trkpt lat="42.90048" lon="0.10448">
        <ele>1474</ele>
        <time>2019-03-20T08:56:14Z</time>
      </trkpt>
      <trkpt lat="42.90044" lon="0.10447">
        <ele>1474</ele>
        <time>2019-03-20T08:56:23Z</time>
      </trkpt>
      <trkpt lat="42.90041" lon="0.10451">
        <ele>1474</ele>
        <time>2019-03-20T08:56:25Z</time>
      </trkpt>
      <trkpt lat="42.90037" lon="0.10454">
        <ele>1474</ele>
        <time>2019-03-20T08:56:29Z</time>
      </trkpt>
      <trkpt lat="42.90029" lon="0.10457">
        <ele>1474</ele>
        <time>2019-03-20T08:56:40Z</time>
      </trkpt>
      <trkpt lat="42.90021" lon="0.10462">
        <ele>1475</ele>
        <time>2019-03-20T08:56:50Z</time>
      </trkpt>
      <trkpt lat="42.90018" lon="0.10465">
        <ele>1475</ele>
        <time>2019-03-20T08:56:59Z</time>
      </trkpt>
      <trkpt lat="42.90013" lon="0.10466">
        <ele>1475</ele>
        <time>2019-03-20T08:57:06Z</time>
      </trkpt>
      <trkpt lat="42.90005" lon="0.1047">
        <ele>1475</ele>
        <time>2019-03-20T08:57:18Z</time>
      </trkpt>
      <trkpt lat="42.89999" lon="0.10476">
        <ele>1475</ele>
        <time>2019-03-20T08:57:27Z</time>
      </trkpt>
      <trkpt lat="42.89987" lon="0.10479">
        <ele>1475</ele>
        <time>2019-03-20T08:57:44Z</time>
      </trkpt>
      <trkpt lat="42.8998" lon="0.10483">
        <ele>1475</ele>
        <time>2019-03-20T08:57:56Z</time>
      </trkpt>
      <trkpt lat="42.89978" lon="0.10489">
        <ele>1475</ele>
        <time>2019-03-20T08:58:00Z</time>
      </trkpt>
      <trkpt lat="42.8997" lon="0.10493">
        <ele>1476</ele>
        <time>2019-03-20T08:58:18Z</time>
      </trkpt>
      <trkpt lat="42.89967" lon="0.10495">
        <ele>1476</ele>
        <time>2019-03-20T08:58:22Z</time>
      </trkpt>
      <trkpt lat="42.89964" lon="0.10497">
        <ele>1476</ele>
        <time>2019-03-20T08:58:27Z</time>
      </trkpt>
      <trkpt lat="42.8996" lon="0.105">
        <ele>1476</ele>
        <time>2019-03-20T08:58:31Z</time>
      </trkpt>
      <trkpt lat="42.89956" lon="0.10502">
        <ele>1476</ele>
        <time>2019-03-20T08:58:35Z</time>
      </trkpt>
      <trkpt lat="42.89952" lon="0.10503">
        <ele>1476</ele>
        <time>2019-03-20T08:58:41Z</time>
      </trkpt>
      <trkpt lat="42.89931" lon="0.10522">
        <ele>1477</ele>
        <time>2019-03-20T08:59:22Z</time>
      </trkpt>
      <trkpt lat="42.89905" lon="0.10539">
        <ele>1478</ele>
        <time>2019-03-20T08:59:59Z</time>
      </trkpt>
      <trkpt lat="42.89901" lon="0.10545">
        <ele>1478</ele>
        <time>2019-03-20T09:00:08Z</time>
      </trkpt>
      <trkpt lat="42.89897" lon="0.1055">
        <ele>1478</ele>
        <time>2019-03-20T09:00:17Z</time>
      </trkpt>
      <trkpt lat="42.89892" lon="0.10556">
        <ele>1479</ele>
        <time>2019-03-20T09:00:24Z</time>
      </trkpt>
      <trkpt lat="42.89888" lon="0.10563">
        <ele>1479</ele>
        <time>2019-03-20T09:00:26Z</time>
      </trkpt>
      <trkpt lat="42.89883" lon="0.10565">
        <ele>1480</ele>
        <time>2019-03-20T09:00:42Z</time>
      </trkpt>
      <trkpt lat="42.89865" lon="0.10585">
        <ele>1482</ele>
        <time>2019-03-20T09:01:13Z</time>
      </trkpt>
      <trkpt lat="42.89859" lon="0.10585">
        <ele>1483</ele>
        <time>2019-03-20T09:01:19Z</time>
      </trkpt>
      <trkpt lat="42.89844" lon="0.10601">
        <ele>1486</ele>
        <time>2019-03-20T09:01:52Z</time>
      </trkpt>
      <trkpt lat="42.89834" lon="0.10611">
        <ele>1488</ele>
        <time>2019-03-20T09:02:08Z</time>
      </trkpt>
      <trkpt lat="42.89832" lon="0.10615">
        <ele>1489</ele>
        <time>2019-03-20T09:02:11Z</time>
      </trkpt>
      <trkpt lat="42.89816" lon="0.10637">
        <ele>1495</ele>
        <time>2019-03-20T09:02:44Z</time>
      </trkpt>
      <trkpt lat="42.89813" lon="0.10641">
        <ele>1496</ele>
        <time>2019-03-20T09:02:50Z</time>
      </trkpt>
      <trkpt lat="42.8981" lon="0.10644">
        <ele>1499</ele>
        <time>2019-03-20T09:03:00Z</time>
      </trkpt>
      <trkpt lat="42.89807" lon="0.10649">
        <ele>1499</ele>
        <time>2019-03-20T09:03:05Z</time>
      </trkpt>
      <trkpt lat="42.89804" lon="0.10652">
        <ele>1501</ele>
        <time>2019-03-20T09:03:09Z</time>
      </trkpt>
      <trkpt lat="42.89801" lon="0.10656">
        <ele>1503</ele>
        <time>2019-03-20T09:03:16Z</time>
      </trkpt>
      <trkpt lat="42.89799" lon="0.1066">
        <ele>1504</ele>
        <time>2019-03-20T09:03:19Z</time>
      </trkpt>
      <trkpt lat="42.89787" lon="0.10675">
        <ele>1513</ele>
        <time>2019-03-20T09:03:53Z</time>
      </trkpt>
      <trkpt lat="42.89781" lon="0.10682">
        <ele>1516</ele>
        <time>2019-03-20T09:04:04Z</time>
      </trkpt>
      <trkpt lat="42.89777" lon="0.10691">
        <ele>1518</ele>
        <time>2019-03-20T09:04:15Z</time>
      </trkpt>
      <trkpt lat="42.89773" lon="0.107">
        <ele>1521</ele>
        <time>2019-03-20T09:04:25Z</time>
      </trkpt>
      <trkpt lat="42.89771" lon="0.10704">
        <ele>1522</ele>
        <time>2019-03-20T09:04:30Z</time>
      </trkpt>
      <trkpt lat="42.89767" lon="0.10706">
        <ele>1522</ele>
        <time>2019-03-20T09:04:33Z</time>
      </trkpt>
      <trkpt lat="42.89757" lon="0.10715">
        <ele>1525</ele>
        <time>2019-03-20T09:04:45Z</time>
      </trkpt>
      <trkpt lat="42.89742" lon="0.10733">
        <ele>1530</ele>
        <time>2019-03-20T09:05:19Z</time>
      </trkpt>
      <trkpt lat="42.89729" lon="0.10743">
        <ele>1534</ele>
        <time>2019-03-20T09:05:41Z</time>
      </trkpt>
      <trkpt lat="42.89722" lon="0.10746">
        <ele>1537</ele>
        <time>2019-03-20T09:05:57Z</time>
      </trkpt>
      <trkpt lat="42.8972" lon="0.10747">
        <ele>1537</ele>
        <time>2019-03-20T09:06:01Z</time>
      </trkpt>
      <trkpt lat="42.89718" lon="0.10748">
        <ele>1538</ele>
        <time>2019-03-20T09:06:05Z</time>
      </trkpt>
      <trkpt lat="42.89716" lon="0.10748">
        <ele>1538</ele>
        <time>2019-03-20T09:06:08Z</time>
      </trkpt>
      <trkpt lat="42.89714" lon="0.1075">
        <ele>1539</ele>
        <time>2019-03-20T09:06:11Z</time>
      </trkpt>
      <trkpt lat="42.8971" lon="0.10751">
        <ele>1540</ele>
        <time>2019-03-20T09:06:16Z</time>
      </trkpt>
      <trkpt lat="42.89709" lon="0.10753">
        <ele>1540</ele>
        <time>2019-03-20T09:06:19Z</time>
      </trkpt>
      <trkpt lat="42.89707" lon="0.10754">
        <ele>1541</ele>
        <time>2019-03-20T09:06:23Z</time>
      </trkpt>
      <trkpt lat="42.89705" lon="0.10755">
        <ele>1541</ele>
        <time>2019-03-20T09:06:26Z</time>
      </trkpt>
      <trkpt lat="42.897" lon="0.10758">
        <ele>1543</ele>
        <time>2019-03-20T09:06:33Z</time>
      </trkpt>
      <trkpt lat="42.89697" lon="0.1076">
        <ele>1544</ele>
        <time>2019-03-20T09:06:38Z</time>
      </trkpt>
      <trkpt lat="42.89693" lon="0.10762">
        <ele>1545</ele>
        <time>2019-03-20T09:06:44Z</time>
      </trkpt>
      <trkpt lat="42.8969" lon="0.10763">
        <ele>1545</ele>
        <time>2019-03-20T09:06:48Z</time>
      </trkpt>
      <trkpt lat="42.89686" lon="0.10763">
        <ele>1546</ele>
        <time>2019-03-20T09:06:56Z</time>
      </trkpt>
      <trkpt lat="42.89684" lon="0.10763">
        <ele>1547</ele>
        <time>2019-03-20T09:07:00Z</time>
      </trkpt>
      <trkpt lat="42.89682" lon="0.10765">
        <ele>1548</ele>
        <time>2019-03-20T09:07:04Z</time>
      </trkpt>
      <trkpt lat="42.8968" lon="0.10765">
        <ele>1548</ele>
        <time>2019-03-20T09:07:08Z</time>
      </trkpt>
      <trkpt lat="42.89678" lon="0.10764">
        <ele>1549</ele>
        <time>2019-03-20T09:07:13Z</time>
      </trkpt>
      <trkpt lat="42.89676" lon="0.10766">
        <ele>1549</ele>
        <time>2019-03-20T09:07:16Z</time>
      </trkpt>
      <trkpt lat="42.89674" lon="0.10765">
        <ele>1550</ele>
        <time>2019-03-20T09:07:18Z</time>
      </trkpt>
      <trkpt lat="42.89671" lon="0.10766">
        <ele>1550</ele>
        <time>2019-03-20T09:07:22Z</time>
      </trkpt>
      <trkpt lat="42.89669" lon="0.10768">
        <ele>1551</ele>
        <time>2019-03-20T09:07:25Z</time>
      </trkpt>
      <trkpt lat="42.89667" lon="0.1077">
        <ele>1551</ele>
        <time>2019-03-20T09:07:28Z</time>
      </trkpt>
      <trkpt lat="42.89666" lon="0.10771">
        <ele>1551</ele>
        <time>2019-03-20T09:07:32Z</time>
      </trkpt>
      <trkpt lat="42.89662" lon="0.10774">
        <ele>1552</ele>
        <time>2019-03-20T09:07:37Z</time>
      </trkpt>
      <trkpt lat="42.8966" lon="0.10774">
        <ele>1552</ele>
        <time>2019-03-20T09:07:40Z</time>
      </trkpt>
      <trkpt lat="42.89657" lon="0.10774">
        <ele>1553</ele>
        <time>2019-03-20T09:07:43Z</time>
      </trkpt>
      <trkpt lat="42.89643" lon="0.10774">
        <ele>1555</ele>
        <time>2019-03-20T09:08:01Z</time>
      </trkpt>
      <trkpt lat="42.89637" lon="0.10775">
        <ele>1555</ele>
        <time>2019-03-20T09:08:07Z</time>
      </trkpt>
      <trkpt lat="42.89635" lon="0.10775">
        <ele>1556</ele>
        <time>2019-03-20T09:08:10Z</time>
      </trkpt>
      <trkpt lat="42.89633" lon="0.10774">
        <ele>1556</ele>
        <time>2019-03-20T09:08:15Z</time>
      </trkpt>
      <trkpt lat="42.89631" lon="0.10774">
        <ele>1556</ele>
        <time>2019-03-20T09:08:17Z</time>
      </trkpt>
      <trkpt lat="42.89618" lon="0.10775">
        <ele>1558</ele>
        <time>2019-03-20T09:08:32Z</time>
      </trkpt>
      <trkpt lat="42.89617" lon="0.10776">
        <ele>1558</ele>
        <time>2019-03-20T09:08:35Z</time>
      </trkpt>
      <trkpt lat="42.89615" lon="0.10777">
        <ele>1558</ele>
        <time>2019-03-20T09:08:37Z</time>
      </trkpt>
      <trkpt lat="42.89611" lon="0.10777">
        <ele>1559</ele>
        <time>2019-03-20T09:08:44Z</time>
      </trkpt>
      <trkpt lat="42.89609" lon="0.10777">
        <ele>1559</ele>
        <time>2019-03-20T09:08:47Z</time>
      </trkpt>
      <trkpt lat="42.89607" lon="0.10778">
        <ele>1560</ele>
        <time>2019-03-20T09:08:50Z</time>
      </trkpt>
      <trkpt lat="42.89604" lon="0.10779">
        <ele>1560</ele>
        <time>2019-03-20T09:08:55Z</time>
      </trkpt>
      <trkpt lat="42.89601" lon="0.10781">
        <ele>1561</ele>
        <time>2019-03-20T09:09:01Z</time>
      </trkpt>
      <trkpt lat="42.89599" lon="0.10782">
        <ele>1561</ele>
        <time>2019-03-20T09:09:04Z</time>
      </trkpt>
      <trkpt lat="42.89597" lon="0.10783">
        <ele>1561</ele>
        <time>2019-03-20T09:09:07Z</time>
      </trkpt>
      <trkpt lat="42.89593" lon="0.10785">
        <ele>1561</ele>
        <time>2019-03-20T09:09:13Z</time>
      </trkpt>
      <trkpt lat="42.89589" lon="0.10785">
        <ele>1562</ele>
        <time>2019-03-20T09:09:20Z</time>
      </trkpt>
      <trkpt lat="42.89585" lon="0.10784">
        <ele>1562</ele>
        <time>2019-03-20T09:09:25Z</time>
      </trkpt>
      <trkpt lat="42.89566" lon="0.10784">
        <ele>1565</ele>
        <time>2019-03-20T09:09:56Z</time>
      </trkpt>
      <trkpt lat="42.89564" lon="0.10787">
        <ele>1565</ele>
        <time>2019-03-20T09:10:00Z</time>
      </trkpt>
      <trkpt lat="42.89552" lon="0.10786">
        <ele>1567</ele>
        <time>2019-03-20T09:10:18Z</time>
      </trkpt>
      <trkpt lat="42.89543" lon="0.10783">
        <ele>1568</ele>
        <time>2019-03-20T09:10:27Z</time>
      </trkpt>
      <trkpt lat="42.89537" lon="0.10782">
        <ele>1568</ele>
        <time>2019-03-20T09:10:32Z</time>
      </trkpt>
      <trkpt lat="42.89538" lon="0.10779">
        <ele>1569</ele>
        <time>2019-03-20T09:10:47Z</time>
      </trkpt>
      <trkpt lat="42.89535" lon="0.10777">
        <ele>1569</ele>
        <time>2019-03-20T09:10:51Z</time>
      </trkpt>
      <trkpt lat="42.89533" lon="0.10777">
        <ele>1569</ele>
        <time>2019-03-20T09:10:55Z</time>
      </trkpt>
      <trkpt lat="42.8953" lon="0.10775">
        <ele>1570</ele>
        <time>2019-03-20T09:11:00Z</time>
      </trkpt>
      <trkpt lat="42.89527" lon="0.10774">
        <ele>1571</ele>
        <time>2019-03-20T09:11:05Z</time>
      </trkpt>
      <trkpt lat="42.89526" lon="0.10773">
        <ele>1571</ele>
        <time>2019-03-20T09:11:09Z</time>
      </trkpt>
      <trkpt lat="42.89523" lon="0.10775">
        <ele>1571</ele>
        <time>2019-03-20T09:11:12Z</time>
      </trkpt>
      <trkpt lat="42.8952" lon="0.10773">
        <ele>1572</ele>
        <time>2019-03-20T09:11:17Z</time>
      </trkpt>
      <trkpt lat="42.89518" lon="0.1077">
        <ele>1572</ele>
        <time>2019-03-20T09:11:20Z</time>
      </trkpt>
      <trkpt lat="42.89515" lon="0.10768">
        <ele>1573</ele>
        <time>2019-03-20T09:11:22Z</time>
      </trkpt>
      <trkpt lat="42.89512" lon="0.10765">
        <ele>1573</ele>
        <time>2019-03-20T09:11:25Z</time>
      </trkpt>
      <trkpt lat="42.89511" lon="0.10761">
        <ele>1573</ele>
        <time>2019-03-20T09:11:30Z</time>
      </trkpt>
      <trkpt lat="42.89508" lon="0.1076">
        <ele>1573</ele>
        <time>2019-03-20T09:11:36Z</time>
      </trkpt>
      <trkpt lat="42.89505" lon="0.10759">
        <ele>1574</ele>
        <time>2019-03-20T09:11:41Z</time>
      </trkpt>
      <trkpt lat="42.895" lon="0.10758">
        <ele>1575</ele>
        <time>2019-03-20T09:11:49Z</time>
      </trkpt>
      <trkpt lat="42.89484" lon="0.10752">
        <ele>1576</ele>
        <time>2019-03-20T09:12:04Z</time>
      </trkpt>
      <trkpt lat="42.89481" lon="0.10752">
        <ele>1576</ele>
        <time>2019-03-20T09:12:09Z</time>
      </trkpt>
      <trkpt lat="42.89477" lon="0.10752">
        <ele>1576</ele>
        <time>2019-03-20T09:12:14Z</time>
      </trkpt>
      <trkpt lat="42.89458" lon="0.10758">
        <ele>1578</ele>
        <time>2019-03-20T09:12:44Z</time>
      </trkpt>
      <trkpt lat="42.89456" lon="0.10759">
        <ele>1578</ele>
        <time>2019-03-20T09:12:46Z</time>
      </trkpt>
      <trkpt lat="42.8945" lon="0.10759">
        <ele>1579</ele>
        <time>2019-03-20T09:12:53Z</time>
      </trkpt>
      <trkpt lat="42.89447" lon="0.1076">
        <ele>1579</ele>
        <time>2019-03-20T09:12:57Z</time>
      </trkpt>
      <trkpt lat="42.89441" lon="0.10761">
        <ele>1579</ele>
        <time>2019-03-20T09:13:05Z</time>
      </trkpt>
      <trkpt lat="42.89439" lon="0.10761">
        <ele>1579</ele>
        <time>2019-03-20T09:13:08Z</time>
      </trkpt>
      <trkpt lat="42.89437" lon="0.1076">
        <ele>1580</ele>
        <time>2019-03-20T09:13:10Z</time>
      </trkpt>
      <trkpt lat="42.89435" lon="0.10759">
        <ele>1580</ele>
        <time>2019-03-20T09:13:13Z</time>
      </trkpt>
      <trkpt lat="42.89433" lon="0.10759">
        <ele>1580</ele>
        <time>2019-03-20T09:13:15Z</time>
      </trkpt>
      <trkpt lat="42.89432" lon="0.10755">
        <ele>1580</ele>
        <time>2019-03-20T09:13:22Z</time>
      </trkpt>
      <trkpt lat="42.89423" lon="0.10757">
        <ele>1581</ele>
        <time>2019-03-20T09:13:37Z</time>
      </trkpt>
      <trkpt lat="42.8942" lon="0.10758">
        <ele>1582</ele>
        <time>2019-03-20T09:13:43Z</time>
      </trkpt>
      <trkpt lat="42.89417" lon="0.10759">
        <ele>1582</ele>
        <time>2019-03-20T09:13:46Z</time>
      </trkpt>
      <trkpt lat="42.89411" lon="0.10758">
        <ele>1583</ele>
        <time>2019-03-20T09:13:57Z</time>
      </trkpt>
      <trkpt lat="42.89397" lon="0.10757">
        <ele>1584</ele>
        <time>2019-03-20T09:14:18Z</time>
      </trkpt>
      <trkpt lat="42.89393" lon="0.10755">
        <ele>1584</ele>
        <time>2019-03-20T09:14:24Z</time>
      </trkpt>
      <trkpt lat="42.8939" lon="0.10756">
        <ele>1585</ele>
        <time>2019-03-20T09:14:29Z</time>
      </trkpt>
      <trkpt lat="42.89388" lon="0.10758">
        <ele>1585</ele>
        <time>2019-03-20T09:14:33Z</time>
      </trkpt>
      <trkpt lat="42.89378" lon="0.10754">
        <ele>1585</ele>
        <time>2019-03-20T09:14:45Z</time>
      </trkpt>
      <trkpt lat="42.89375" lon="0.10754">
        <ele>1586</ele>
        <time>2019-03-20T09:14:49Z</time>
      </trkpt>
      <trkpt lat="42.89368" lon="0.10755">
        <ele>1586</ele>
        <time>2019-03-20T09:14:57Z</time>
      </trkpt>
      <trkpt lat="42.89361" lon="0.10758">
        <ele>1587</ele>
        <time>2019-03-20T09:15:08Z</time>
      </trkpt>
      <trkpt lat="42.89358" lon="0.10759">
        <ele>1587</ele>
        <time>2019-03-20T09:15:13Z</time>
      </trkpt>
      <trkpt lat="42.89355" lon="0.10761">
        <ele>1587</ele>
        <time>2019-03-20T09:15:18Z</time>
      </trkpt>
      <trkpt lat="42.89352" lon="0.10761">
        <ele>1588</ele>
        <time>2019-03-20T09:15:25Z</time>
      </trkpt>
      <trkpt lat="42.89349" lon="0.10763">
        <ele>1588</ele>
        <time>2019-03-20T09:15:32Z</time>
      </trkpt>
      <trkpt lat="42.89347" lon="0.1076">
        <ele>1589</ele>
        <time>2019-03-20T09:15:36Z</time>
      </trkpt>
      <trkpt lat="42.8934" lon="0.10762">
        <ele>1589</ele>
        <time>2019-03-20T09:15:43Z</time>
      </trkpt>
      <trkpt lat="42.89336" lon="0.10763">
        <ele>1590</ele>
        <time>2019-03-20T09:15:48Z</time>
      </trkpt>
      <trkpt lat="42.89335" lon="0.1076">
        <ele>1590</ele>
        <time>2019-03-20T09:15:51Z</time>
      </trkpt>
      <trkpt lat="42.89331" lon="0.10758">
        <ele>1590</ele>
        <time>2019-03-20T09:15:55Z</time>
      </trkpt>
      <trkpt lat="42.89328" lon="0.10755">
        <ele>1591</ele>
        <time>2019-03-20T09:15:58Z</time>
      </trkpt>
      <trkpt lat="42.89324" lon="0.10755">
        <ele>1591</ele>
        <time>2019-03-20T09:16:03Z</time>
      </trkpt>
      <trkpt lat="42.89322" lon="0.10753">
        <ele>1591</ele>
        <time>2019-03-20T09:16:16Z</time>
      </trkpt>
      <trkpt lat="42.8932" lon="0.1075">
        <ele>1592</ele>
        <time>2019-03-20T09:16:19Z</time>
      </trkpt>
      <trkpt lat="42.89317" lon="0.10749">
        <ele>1592</ele>
        <time>2019-03-20T09:16:23Z</time>
      </trkpt>
      <trkpt lat="42.89313" lon="0.10748">
        <ele>1592</ele>
        <time>2019-03-20T09:16:29Z</time>
      </trkpt>
      <trkpt lat="42.89301" lon="0.10745">
        <ele>1594</ele>
        <time>2019-03-20T09:16:47Z</time>
      </trkpt>
      <trkpt lat="42.89285" lon="0.10741">
        <ele>1595</ele>
        <time>2019-03-20T09:17:14Z</time>
      </trkpt>
      <trkpt lat="42.89281" lon="0.1074">
        <ele>1596</ele>
        <time>2019-03-20T09:17:19Z</time>
      </trkpt>
      <trkpt lat="42.89277" lon="0.1074">
        <ele>1596</ele>
        <time>2019-03-20T09:17:24Z</time>
      </trkpt>
      <trkpt lat="42.89273" lon="0.10739">
        <ele>1596</ele>
        <time>2019-03-20T09:17:31Z</time>
      </trkpt>
      <trkpt lat="42.89269" lon="0.10737">
        <ele>1597</ele>
        <time>2019-03-20T09:17:36Z</time>
      </trkpt>
      <trkpt lat="42.89254" lon="0.10731">
        <ele>1599</ele>
        <time>2019-03-20T09:17:58Z</time>
      </trkpt>
      <trkpt lat="42.89252" lon="0.10727">
        <ele>1601</ele>
        <time>2019-03-20T09:19:05Z</time>
      </trkpt>
      <trkpt lat="42.89251" lon="0.10726">
        <ele>1604</ele>
        <time>2019-03-20T09:19:59Z</time>
      </trkpt>
      <trkpt lat="42.89248" lon="0.10726">
        <ele>1604</ele>
        <time>2019-03-20T09:20:02Z</time>
      </trkpt>
      <trkpt lat="42.89245" lon="0.10726">
        <ele>1606</ele>
        <time>2019-03-20T09:20:05Z</time>
      </trkpt>
      <trkpt lat="42.89239" lon="0.10725">
        <ele>1609</ele>
        <time>2019-03-20T09:20:12Z</time>
      </trkpt>
      <trkpt lat="42.89236" lon="0.10725">
        <ele>1611</ele>
        <time>2019-03-20T09:20:41Z</time>
      </trkpt>
      <trkpt lat="42.89236" lon="0.10723">
        <ele>1613</ele>
        <time>2019-03-20T09:20:53Z</time>
      </trkpt>
      <trkpt lat="42.89235" lon="0.10721">
        <ele>1614</ele>
        <time>2019-03-20T09:21:24Z</time>
      </trkpt>
      <trkpt lat="42.89238" lon="0.1072">
        <ele>1615</ele>
        <time>2019-03-20T09:21:33Z</time>
      </trkpt>
      <trkpt lat="42.89237" lon="0.1072">
        <ele>1617</ele>
        <time>2019-03-20T09:23:17Z</time>
      </trkpt>
      <trkpt lat="42.89236" lon="0.10721">
        <ele>1618</ele>
        <time>2019-03-20T09:23:32Z</time>
      </trkpt>
      <trkpt lat="42.89237" lon="0.10723">
        <ele>1618</ele>
        <time>2019-03-20T09:23:48Z</time>
      </trkpt>
      <trkpt lat="42.89236" lon="0.10724">
        <ele>1619</ele>
        <time>2019-03-20T09:24:58Z</time>
      </trkpt>
      <trkpt lat="42.89234" lon="0.10725">
        <ele>1620</ele>
        <time>2019-03-20T09:25:10Z</time>
      </trkpt>
      <trkpt lat="42.8923" lon="0.10724">
        <ele>1625</ele>
        <time>2019-03-20T09:25:13Z</time>
      </trkpt>
      <trkpt lat="42.89227" lon="0.10725">
        <ele>1627</ele>
        <time>2019-03-20T09:25:17Z</time>
      </trkpt>
      <trkpt lat="42.89224" lon="0.10724">
        <ele>1628</ele>
        <time>2019-03-20T09:25:20Z</time>
      </trkpt>
      <trkpt lat="42.89221" lon="0.10725">
        <ele>1630</ele>
        <time>2019-03-20T09:25:23Z</time>
      </trkpt>
      <trkpt lat="42.89219" lon="0.10726">
        <ele>1630</ele>
        <time>2019-03-20T09:25:26Z</time>
      </trkpt>
      <trkpt lat="42.89215" lon="0.10725">
        <ele>1632</ele>
        <time>2019-03-20T09:25:32Z</time>
      </trkpt>
      <trkpt lat="42.89211" lon="0.10726">
        <ele>1633</ele>
        <time>2019-03-20T09:25:37Z</time>
      </trkpt>
      <trkpt lat="42.89192" lon="0.10718">
        <ele>1637</ele>
        <time>2019-03-20T09:26:03Z</time>
      </trkpt>
      <trkpt lat="42.89181" lon="0.10722">
        <ele>1639</ele>
        <time>2019-03-20T09:26:18Z</time>
      </trkpt>
      <trkpt lat="42.89175" lon="0.1072">
        <ele>1640</ele>
        <time>2019-03-20T09:26:30Z</time>
      </trkpt>
      <trkpt lat="42.89172" lon="0.10719">
        <ele>1641</ele>
        <time>2019-03-20T09:26:33Z</time>
      </trkpt>
      <trkpt lat="42.89168" lon="0.10718">
        <ele>1641</ele>
        <time>2019-03-20T09:26:38Z</time>
      </trkpt>
      <trkpt lat="42.89166" lon="0.10718">
        <ele>1641</ele>
        <time>2019-03-20T09:26:40Z</time>
      </trkpt>
      <trkpt lat="42.89163" lon="0.10719">
        <ele>1641</ele>
        <time>2019-03-20T09:26:43Z</time>
      </trkpt>
      <trkpt lat="42.8915" lon="0.1072">
        <ele>1643</ele>
        <time>2019-03-20T09:27:02Z</time>
      </trkpt>
      <trkpt lat="42.89143" lon="0.10722">
        <ele>1644</ele>
        <time>2019-03-20T09:27:13Z</time>
      </trkpt>
      <trkpt lat="42.89141" lon="0.10722">
        <ele>1644</ele>
        <time>2019-03-20T09:27:16Z</time>
      </trkpt>
      <trkpt lat="42.89139" lon="0.10722">
        <ele>1644</ele>
        <time>2019-03-20T09:27:20Z</time>
      </trkpt>
      <trkpt lat="42.89137" lon="0.10723">
        <ele>1644</ele>
        <time>2019-03-20T09:27:23Z</time>
      </trkpt>
      <trkpt lat="42.89135" lon="0.10724">
        <ele>1644</ele>
        <time>2019-03-20T09:27:26Z</time>
      </trkpt>
      <trkpt lat="42.89119" lon="0.10728">
        <ele>1646</ele>
        <time>2019-03-20T09:27:48Z</time>
      </trkpt>
      <trkpt lat="42.89117" lon="0.10729">
        <ele>1646</ele>
        <time>2019-03-20T09:27:51Z</time>
      </trkpt>
      <trkpt lat="42.89113" lon="0.1073">
        <ele>1647</ele>
        <time>2019-03-20T09:27:57Z</time>
      </trkpt>
      <trkpt lat="42.89111" lon="0.10731">
        <ele>1647</ele>
        <time>2019-03-20T09:28:00Z</time>
      </trkpt>
      <trkpt lat="42.89108" lon="0.10731">
        <ele>1647</ele>
        <time>2019-03-20T09:28:03Z</time>
      </trkpt>
      <trkpt lat="42.89106" lon="0.10732">
        <ele>1647</ele>
        <time>2019-03-20T09:28:05Z</time>
      </trkpt>
      <trkpt lat="42.89096" lon="0.10732">
        <ele>1648</ele>
        <time>2019-03-20T09:28:19Z</time>
      </trkpt>
      <trkpt lat="42.89093" lon="0.10731">
        <ele>1648</ele>
        <time>2019-03-20T09:28:21Z</time>
      </trkpt>
      <trkpt lat="42.89088" lon="0.10734">
        <ele>1648</ele>
        <time>2019-03-20T09:28:26Z</time>
      </trkpt>
      <trkpt lat="42.89086" lon="0.1073">
        <ele>1649</ele>
        <time>2019-03-20T09:28:35Z</time>
      </trkpt>
      <trkpt lat="42.89084" lon="0.10729">
        <ele>1649</ele>
        <time>2019-03-20T09:28:38Z</time>
      </trkpt>
      <trkpt lat="42.8908" lon="0.10727">
        <ele>1650</ele>
        <time>2019-03-20T09:28:45Z</time>
      </trkpt>
      <trkpt lat="42.89076" lon="0.10729">
        <ele>1650</ele>
        <time>2019-03-20T09:28:52Z</time>
      </trkpt>
      <trkpt lat="42.8907" lon="0.10733">
        <ele>1650</ele>
        <time>2019-03-20T09:28:59Z</time>
      </trkpt>
      <trkpt lat="42.89068" lon="0.10735">
        <ele>1651</ele>
        <time>2019-03-20T09:29:02Z</time>
      </trkpt>
      <trkpt lat="42.89066" lon="0.10736">
        <ele>1651</ele>
        <time>2019-03-20T09:29:05Z</time>
      </trkpt>
      <trkpt lat="42.89064" lon="0.10737">
        <ele>1651</ele>
        <time>2019-03-20T09:29:08Z</time>
      </trkpt>
      <trkpt lat="42.89056" lon="0.10745">
        <ele>1652</ele>
        <time>2019-03-20T09:29:19Z</time>
      </trkpt>
      <trkpt lat="42.89048" lon="0.10749">
        <ele>1653</ele>
        <time>2019-03-20T09:29:32Z</time>
      </trkpt>
      <trkpt lat="42.89046" lon="0.1075">
        <ele>1653</ele>
        <time>2019-03-20T09:29:35Z</time>
      </trkpt>
      <trkpt lat="42.89043" lon="0.10751">
        <ele>1653</ele>
        <time>2019-03-20T09:29:39Z</time>
      </trkpt>
      <trkpt lat="42.89041" lon="0.10752">
        <ele>1653</ele>
        <time>2019-03-20T09:29:42Z</time>
      </trkpt>
      <trkpt lat="42.89038" lon="0.10752">
        <ele>1653</ele>
        <time>2019-03-20T09:29:45Z</time>
      </trkpt>
      <trkpt lat="42.89037" lon="0.10753">
        <ele>1654</ele>
        <time>2019-03-20T09:29:47Z</time>
      </trkpt>
      <trkpt lat="42.89021" lon="0.10756">
        <ele>1655</ele>
        <time>2019-03-20T09:30:06Z</time>
      </trkpt>
      <trkpt lat="42.89018" lon="0.10756">
        <ele>1655</ele>
        <time>2019-03-20T09:30:09Z</time>
      </trkpt>
      <trkpt lat="42.89014" lon="0.10755">
        <ele>1656</ele>
        <time>2019-03-20T09:30:16Z</time>
      </trkpt>
      <trkpt lat="42.8901" lon="0.10755">
        <ele>1656</ele>
        <time>2019-03-20T09:30:22Z</time>
      </trkpt>
      <trkpt lat="42.89008" lon="0.10755">
        <ele>1656</ele>
        <time>2019-03-20T09:30:25Z</time>
      </trkpt>
      <trkpt lat="42.89004" lon="0.10755">
        <ele>1657</ele>
        <time>2019-03-20T09:30:29Z</time>
      </trkpt>
      <trkpt lat="42.89002" lon="0.10756">
        <ele>1657</ele>
        <time>2019-03-20T09:30:32Z</time>
      </trkpt>
      <trkpt lat="42.88998" lon="0.10756">
        <ele>1657</ele>
        <time>2019-03-20T09:30:36Z</time>
      </trkpt>
      <trkpt lat="42.88988" lon="0.10756">
        <ele>1658</ele>
        <time>2019-03-20T09:30:47Z</time>
      </trkpt>
      <trkpt lat="42.88987" lon="0.10755">
        <ele>1658</ele>
        <time>2019-03-20T09:30:49Z</time>
      </trkpt>
      <trkpt lat="42.88984" lon="0.10755">
        <ele>1658</ele>
        <time>2019-03-20T09:30:52Z</time>
      </trkpt>
      <trkpt lat="42.88982" lon="0.10754">
        <ele>1658</ele>
        <time>2019-03-20T09:30:54Z</time>
      </trkpt>
      <trkpt lat="42.8898" lon="0.10755">
        <ele>1659</ele>
        <time>2019-03-20T09:30:56Z</time>
      </trkpt>
      <trkpt lat="42.88978" lon="0.10754">
        <ele>1659</ele>
        <time>2019-03-20T09:30:58Z</time>
      </trkpt>
      <trkpt lat="42.88976" lon="0.10755">
        <ele>1659</ele>
        <time>2019-03-20T09:31:01Z</time>
      </trkpt>
      <trkpt lat="42.88973" lon="0.10755">
        <ele>1659</ele>
        <time>2019-03-20T09:31:06Z</time>
      </trkpt>
      <trkpt lat="42.8897" lon="0.10755">
        <ele>1660</ele>
        <time>2019-03-20T09:31:09Z</time>
      </trkpt>
      <trkpt lat="42.88968" lon="0.10755">
        <ele>1660</ele>
        <time>2019-03-20T09:31:12Z</time>
      </trkpt>
      <trkpt lat="42.88963" lon="0.10756">
        <ele>1660</ele>
        <time>2019-03-20T09:31:17Z</time>
      </trkpt>
      <trkpt lat="42.88956" lon="0.10757">
        <ele>1661</ele>
        <time>2019-03-20T09:31:26Z</time>
      </trkpt>
      <trkpt lat="42.88951" lon="0.10758">
        <ele>1662</ele>
        <time>2019-03-20T09:31:32Z</time>
      </trkpt>
      <trkpt lat="42.88947" lon="0.10757">
        <ele>1662</ele>
        <time>2019-03-20T09:31:38Z</time>
      </trkpt>
      <trkpt lat="42.88945" lon="0.10757">
        <ele>1662</ele>
        <time>2019-03-20T09:31:41Z</time>
      </trkpt>
      <trkpt lat="42.88942" lon="0.10758">
        <ele>1663</ele>
        <time>2019-03-20T09:31:45Z</time>
      </trkpt>
      <trkpt lat="42.8893" lon="0.10764">
        <ele>1664</ele>
        <time>2019-03-20T09:32:01Z</time>
      </trkpt>
      <trkpt lat="42.88928" lon="0.10765">
        <ele>1664</ele>
        <time>2019-03-20T09:32:04Z</time>
      </trkpt>
      <trkpt lat="42.88926" lon="0.10766">
        <ele>1664</ele>
        <time>2019-03-20T09:32:07Z</time>
      </trkpt>
      <trkpt lat="42.88916" lon="0.10772">
        <ele>1665</ele>
        <time>2019-03-20T09:32:20Z</time>
      </trkpt>
      <trkpt lat="42.88906" lon="0.10781">
        <ele>1666</ele>
        <time>2019-03-20T09:32:34Z</time>
      </trkpt>
      <trkpt lat="42.88902" lon="0.10785">
        <ele>1666</ele>
        <time>2019-03-20T09:32:39Z</time>
      </trkpt>
      <trkpt lat="42.88887" lon="0.10797">
        <ele>1668</ele>
        <time>2019-03-20T09:32:57Z</time>
      </trkpt>
      <trkpt lat="42.88877" lon="0.10802">
        <ele>1669</ele>
        <time>2019-03-20T09:33:11Z</time>
      </trkpt>
      <trkpt lat="42.88875" lon="0.10803">
        <ele>1669</ele>
        <time>2019-03-20T09:33:14Z</time>
      </trkpt>
      <trkpt lat="42.88873" lon="0.10803">
        <ele>1669</ele>
        <time>2019-03-20T09:33:17Z</time>
      </trkpt>
      <trkpt lat="42.8886" lon="0.10806">
        <ele>1670</ele>
        <time>2019-03-20T09:33:33Z</time>
      </trkpt>
      <trkpt lat="42.88858" lon="0.10806">
        <ele>1670</ele>
        <time>2019-03-20T09:33:36Z</time>
      </trkpt>
      <trkpt lat="42.88854" lon="0.10808">
        <ele>1671</ele>
        <time>2019-03-20T09:33:41Z</time>
      </trkpt>
      <trkpt lat="42.88843" lon="0.10813">
        <ele>1671</ele>
        <time>2019-03-20T09:33:53Z</time>
      </trkpt>
      <trkpt lat="42.88842" lon="0.10813">
        <ele>1672</ele>
        <time>2019-03-20T09:33:56Z</time>
      </trkpt>
      <trkpt lat="42.88826" lon="0.10821">
        <ele>1673</ele>
        <time>2019-03-20T09:34:17Z</time>
      </trkpt>
      <trkpt lat="42.88821" lon="0.10823">
        <ele>1673</ele>
        <time>2019-03-20T09:34:23Z</time>
      </trkpt>
      <trkpt lat="42.88818" lon="0.10825">
        <ele>1674</ele>
        <time>2019-03-20T09:34:54Z</time>
      </trkpt>
      <trkpt lat="42.88816" lon="0.10826">
        <ele>1674</ele>
        <time>2019-03-20T09:34:56Z</time>
      </trkpt>
      <trkpt lat="42.88811" lon="0.10827">
        <ele>1675</ele>
        <time>2019-03-20T09:35:03Z</time>
      </trkpt>
      <trkpt lat="42.8881" lon="0.10829">
        <ele>1675</ele>
        <time>2019-03-20T09:35:05Z</time>
      </trkpt>
      <trkpt lat="42.88808" lon="0.10829">
        <ele>1675</ele>
        <time>2019-03-20T09:35:07Z</time>
      </trkpt>
      <trkpt lat="42.88784" lon="0.10837">
        <ele>1678</ele>
        <time>2019-03-20T09:35:36Z</time>
      </trkpt>
      <trkpt lat="42.88782" lon="0.10838">
        <ele>1678</ele>
        <time>2019-03-20T09:35:39Z</time>
      </trkpt>
      <trkpt lat="42.8878" lon="0.10839">
        <ele>1679</ele>
        <time>2019-03-20T09:35:41Z</time>
      </trkpt>
      <trkpt lat="42.88775" lon="0.10844">
        <ele>1679</ele>
        <time>2019-03-20T09:35:48Z</time>
      </trkpt>
      <trkpt lat="42.88767" lon="0.10845">
        <ele>1680</ele>
        <time>2019-03-20T09:35:57Z</time>
      </trkpt>
      <trkpt lat="42.88765" lon="0.10845">
        <ele>1680</ele>
        <time>2019-03-20T09:35:59Z</time>
      </trkpt>
      <trkpt lat="42.88763" lon="0.10845">
        <ele>1680</ele>
        <time>2019-03-20T09:36:01Z</time>
      </trkpt>
      <trkpt lat="42.88762" lon="0.10844">
        <ele>1681</ele>
        <time>2019-03-20T09:36:04Z</time>
      </trkpt>
      <trkpt lat="42.8876" lon="0.10845">
        <ele>1681</ele>
        <time>2019-03-20T09:36:06Z</time>
      </trkpt>
      <trkpt lat="42.88756" lon="0.10845">
        <ele>1681</ele>
        <time>2019-03-20T09:36:13Z</time>
      </trkpt>
      <trkpt lat="42.88756" lon="0.10843">
        <ele>1682</ele>
        <time>2019-03-20T09:36:23Z</time>
      </trkpt>
      <trkpt lat="42.88754" lon="0.10841">
        <ele>1682</ele>
        <time>2019-03-20T09:36:26Z</time>
      </trkpt>
      <trkpt lat="42.88752" lon="0.10841">
        <ele>1682</ele>
        <time>2019-03-20T09:36:49Z</time>
      </trkpt>
      <trkpt lat="42.8875" lon="0.10843">
        <ele>1683</ele>
        <time>2019-03-20T09:36:52Z</time>
      </trkpt>
      <trkpt lat="42.88747" lon="0.10846">
        <ele>1684</ele>
        <time>2019-03-20T09:37:01Z</time>
      </trkpt>
      <trkpt lat="42.88745" lon="0.10847">
        <ele>1684</ele>
        <time>2019-03-20T09:37:06Z</time>
      </trkpt>
      <trkpt lat="42.88743" lon="0.10847">
        <ele>1684</ele>
        <time>2019-03-20T09:37:33Z</time>
      </trkpt>
      <trkpt lat="42.88739" lon="0.10849">
        <ele>1686</ele>
        <time>2019-03-20T09:37:51Z</time>
      </trkpt>
      <trkpt lat="42.88737" lon="0.1085">
        <ele>1687</ele>
        <time>2019-03-20T09:38:11Z</time>
      </trkpt>
      <trkpt lat="42.88736" lon="0.10852">
        <ele>1688</ele>
        <time>2019-03-20T09:38:27Z</time>
      </trkpt>
      <trkpt lat="42.88734" lon="0.10853">
        <ele>1689</ele>
        <time>2019-03-20T09:38:46Z</time>
      </trkpt>
      <trkpt lat="42.88728" lon="0.10854">
        <ele>1690</ele>
        <time>2019-03-20T09:39:04Z</time>
      </trkpt>
      <trkpt lat="42.88726" lon="0.10854">
        <ele>1691</ele>
        <time>2019-03-20T09:39:07Z</time>
      </trkpt>
      <trkpt lat="42.88724" lon="0.10854">
        <ele>1691</ele>
        <time>2019-03-20T09:39:11Z</time>
      </trkpt>
      <trkpt lat="42.88722" lon="0.10855">
        <ele>1692</ele>
        <time>2019-03-20T09:39:17Z</time>
      </trkpt>
      <trkpt lat="42.8872" lon="0.10856">
        <ele>1692</ele>
        <time>2019-03-20T09:39:20Z</time>
      </trkpt>
      <trkpt lat="42.88718" lon="0.10857">
        <ele>1692</ele>
        <time>2019-03-20T09:39:24Z</time>
      </trkpt>
      <trkpt lat="42.88716" lon="0.10858">
        <ele>1693</ele>
        <time>2019-03-20T09:39:28Z</time>
      </trkpt>
      <trkpt lat="42.88712" lon="0.10857">
        <ele>1693</ele>
        <time>2019-03-20T09:39:33Z</time>
      </trkpt>
      <trkpt lat="42.8871" lon="0.10857">
        <ele>1693</ele>
        <time>2019-03-20T09:39:36Z</time>
      </trkpt>
      <trkpt lat="42.88703" lon="0.10859">
        <ele>1694</ele>
        <time>2019-03-20T09:39:45Z</time>
      </trkpt>
      <trkpt lat="42.88701" lon="0.1086">
        <ele>1694</ele>
        <time>2019-03-20T09:39:47Z</time>
      </trkpt>
      <trkpt lat="42.887" lon="0.10861">
        <ele>1694</ele>
        <time>2019-03-20T09:39:50Z</time>
      </trkpt>
      <trkpt lat="42.88698" lon="0.10862">
        <ele>1694</ele>
        <time>2019-03-20T09:39:53Z</time>
      </trkpt>
      <trkpt lat="42.88696" lon="0.10863">
        <ele>1694</ele>
        <time>2019-03-20T09:39:57Z</time>
      </trkpt>
      <trkpt lat="42.88693" lon="0.10869">
        <ele>1695</ele>
        <time>2019-03-20T09:40:03Z</time>
      </trkpt>
      <trkpt lat="42.88691" lon="0.1087">
        <ele>1695</ele>
        <time>2019-03-20T09:40:07Z</time>
      </trkpt>
      <trkpt lat="42.88686" lon="0.10875">
        <ele>1695</ele>
        <time>2019-03-20T09:40:19Z</time>
      </trkpt>
      <trkpt lat="42.88679" lon="0.10876">
        <ele>1696</ele>
        <time>2019-03-20T09:40:30Z</time>
      </trkpt>
      <trkpt lat="42.88677" lon="0.10876">
        <ele>1696</ele>
        <time>2019-03-20T09:40:32Z</time>
      </trkpt>
      <trkpt lat="42.88668" lon="0.10884">
        <ele>1697</ele>
        <time>2019-03-20T09:40:48Z</time>
      </trkpt>
      <trkpt lat="42.88666" lon="0.10886">
        <ele>1697</ele>
        <time>2019-03-20T09:40:51Z</time>
      </trkpt>
      <trkpt lat="42.88659" lon="0.1089">
        <ele>1698</ele>
        <time>2019-03-20T09:41:04Z</time>
      </trkpt>
      <trkpt lat="42.88647" lon="0.10899">
        <ele>1699</ele>
        <time>2019-03-20T09:41:35Z</time>
      </trkpt>
      <trkpt lat="42.88645" lon="0.10897">
        <ele>1700</ele>
        <time>2019-03-20T09:42:57Z</time>
      </trkpt>
      <trkpt lat="42.88642" lon="0.10901">
        <ele>1700</ele>
        <time>2019-03-20T09:44:01Z</time>
      </trkpt>
      <trkpt lat="42.88634" lon="0.10903">
        <ele>1701</ele>
        <time>2019-03-20T09:44:11Z</time>
      </trkpt>
      <trkpt lat="42.88632" lon="0.10901">
        <ele>1701</ele>
        <time>2019-03-20T09:44:28Z</time>
      </trkpt>
      <trkpt lat="42.88627" lon="0.10903">
        <ele>1702</ele>
        <time>2019-03-20T09:44:34Z</time>
      </trkpt>
      <trkpt lat="42.88619" lon="0.10904">
        <ele>1702</ele>
        <time>2019-03-20T09:44:43Z</time>
      </trkpt>
      <trkpt lat="42.88615" lon="0.10905">
        <ele>1702</ele>
        <time>2019-03-20T09:46:42Z</time>
      </trkpt>
      <trkpt lat="42.88612" lon="0.10907">
        <ele>1703</ele>
        <time>2019-03-20T09:46:46Z</time>
      </trkpt>
      <trkpt lat="42.88604" lon="0.10912">
        <ele>1704</ele>
        <time>2019-03-20T09:46:57Z</time>
      </trkpt>
      <trkpt lat="42.8859" lon="0.10921">
        <ele>1705</ele>
        <time>2019-03-20T09:47:19Z</time>
      </trkpt>
      <trkpt lat="42.88582" lon="0.10925">
        <ele>1705</ele>
        <time>2019-03-20T09:47:29Z</time>
      </trkpt>
      <trkpt lat="42.88553" lon="0.10947">
        <ele>1706</ele>
        <time>2019-03-20T09:48:00Z</time>
      </trkpt>
      <trkpt lat="42.8853" lon="0.1097">
        <ele>1707</ele>
        <time>2019-03-20T09:48:31Z</time>
      </trkpt>
      <trkpt lat="42.88527" lon="0.10974">
        <ele>1707</ele>
        <time>2019-03-20T09:48:36Z</time>
      </trkpt>
      <trkpt lat="42.88521" lon="0.1098">
        <ele>1707</ele>
        <time>2019-03-20T09:48:45Z</time>
      </trkpt>
      <trkpt lat="42.88518" lon="0.10984">
        <ele>1708</ele>
        <time>2019-03-20T09:48:50Z</time>
      </trkpt>
      <trkpt lat="42.88519" lon="0.10989">
        <ele>1708</ele>
        <time>2019-03-20T09:49:00Z</time>
      </trkpt>
      <trkpt lat="42.88513" lon="0.10996">
        <ele>1710</ele>
        <time>2019-03-20T09:49:11Z</time>
      </trkpt>
      <trkpt lat="42.88494" lon="0.11017">
        <ele>1717</ele>
        <time>2019-03-20T09:49:40Z</time>
      </trkpt>
      <trkpt lat="42.88483" lon="0.11023">
        <ele>1720</ele>
        <time>2019-03-20T09:49:49Z</time>
      </trkpt>
      <trkpt lat="42.88476" lon="0.11027">
        <ele>1722</ele>
        <time>2019-03-20T09:49:56Z</time>
      </trkpt>
      <trkpt lat="42.88462" lon="0.11036">
        <ele>1726</ele>
        <time>2019-03-20T09:50:14Z</time>
      </trkpt>
      <trkpt lat="42.88457" lon="0.11044">
        <ele>1728</ele>
        <time>2019-03-20T09:50:26Z</time>
      </trkpt>
      <trkpt lat="42.88454" lon="0.11047">
        <ele>1728</ele>
        <time>2019-03-20T09:50:31Z</time>
      </trkpt>
      <trkpt lat="42.88444" lon="0.1107">
        <ele>1732</ele>
        <time>2019-03-20T09:50:56Z</time>
      </trkpt>
      <trkpt lat="42.88441" lon="0.1108">
        <ele>1733</ele>
        <time>2019-03-20T09:51:06Z</time>
      </trkpt>
      <trkpt lat="42.88439" lon="0.11084">
        <ele>1734</ele>
        <time>2019-03-20T09:51:12Z</time>
      </trkpt>
      <trkpt lat="42.88435" lon="0.11087">
        <ele>1735</ele>
        <time>2019-03-20T09:51:15Z</time>
      </trkpt>
      <trkpt lat="42.88432" lon="0.1109">
        <ele>1735</ele>
        <time>2019-03-20T09:51:19Z</time>
      </trkpt>
      <trkpt lat="42.88422" lon="0.111">
        <ele>1736</ele>
        <time>2019-03-20T09:51:31Z</time>
      </trkpt>
      <trkpt lat="42.88417" lon="0.11109">
        <ele>1737</ele>
        <time>2019-03-20T09:51:41Z</time>
      </trkpt>
      <trkpt lat="42.884" lon="0.11126">
        <ele>1740</ele>
        <time>2019-03-20T09:52:02Z</time>
      </trkpt>
      <trkpt lat="42.88397" lon="0.11127">
        <ele>1740</ele>
        <time>2019-03-20T09:52:06Z</time>
      </trkpt>
      <trkpt lat="42.88393" lon="0.11131">
        <ele>1743</ele>
        <time>2019-03-20T09:55:08Z</time>
      </trkpt>
      <trkpt lat="42.8839" lon="0.11136">
        <ele>1744</ele>
        <time>2019-03-20T09:55:11Z</time>
      </trkpt>
      <trkpt lat="42.88388" lon="0.11139">
        <ele>1744</ele>
        <time>2019-03-20T09:55:14Z</time>
      </trkpt>
      <trkpt lat="42.88382" lon="0.11149">
        <ele>1746</ele>
        <time>2019-03-20T09:55:27Z</time>
      </trkpt>
      <trkpt lat="42.88376" lon="0.11164">
        <ele>1747</ele>
        <time>2019-03-20T09:55:39Z</time>
      </trkpt>
      <trkpt lat="42.88374" lon="0.11167">
        <ele>1747</ele>
        <time>2019-03-20T09:55:41Z</time>
      </trkpt>
      <trkpt lat="42.88371" lon="0.11169">
        <ele>1747</ele>
        <time>2019-03-20T09:55:45Z</time>
      </trkpt>
      <trkpt lat="42.88368" lon="0.11168">
        <ele>1747</ele>
        <time>2019-03-20T09:55:55Z</time>
      </trkpt>
      <trkpt lat="42.88366" lon="0.11168">
        <ele>1748</ele>
        <time>2019-03-20T09:56:01Z</time>
      </trkpt>
      <trkpt lat="42.88362" lon="0.11168">
        <ele>1748</ele>
        <time>2019-03-20T09:56:05Z</time>
      </trkpt>
      <trkpt lat="42.8836" lon="0.11169">
        <ele>1748</ele>
        <time>2019-03-20T09:56:07Z</time>
      </trkpt>
      <trkpt lat="42.88356" lon="0.11169">
        <ele>1748</ele>
        <time>2019-03-20T09:56:11Z</time>
      </trkpt>
      <trkpt lat="42.88354" lon="0.11171">
        <ele>1748</ele>
        <time>2019-03-20T09:56:13Z</time>
      </trkpt>
      <trkpt lat="42.88351" lon="0.11173">
        <ele>1748</ele>
        <time>2019-03-20T09:56:16Z</time>
      </trkpt>
      <trkpt lat="42.88348" lon="0.11173">
        <ele>1748</ele>
        <time>2019-03-20T09:56:19Z</time>
      </trkpt>
      <trkpt lat="42.88338" lon="0.11183">
        <ele>1748</ele>
        <time>2019-03-20T09:56:25Z</time>
      </trkpt>
      <trkpt lat="42.88327" lon="0.11197">
        <ele>1748</ele>
        <time>2019-03-20T09:56:34Z</time>
      </trkpt>
      <trkpt lat="42.88322" lon="0.11207">
        <ele>1748</ele>
        <time>2019-03-20T09:56:48Z</time>
      </trkpt>
      <trkpt lat="42.8832" lon="0.11211">
        <ele>1748</ele>
        <time>2019-03-20T09:56:55Z</time>
      </trkpt>
      <trkpt lat="42.88317" lon="0.11215">
        <ele>1748</ele>
        <time>2019-03-20T09:57:02Z</time>
      </trkpt>
      <trkpt lat="42.88302" lon="0.11221">
        <ele>1747</ele>
        <time>2019-03-20T09:58:16Z</time>
      </trkpt>
      <trkpt lat="42.88299" lon="0.11224">
        <ele>1747</ele>
        <time>2019-03-20T09:58:18Z</time>
      </trkpt>
      <trkpt lat="42.88294" lon="0.1123">
        <ele>1748</ele>
        <time>2019-03-20T09:58:25Z</time>
      </trkpt>
      <trkpt lat="42.8829" lon="0.11237">
        <ele>1748</ele>
        <time>2019-03-20T09:58:33Z</time>
      </trkpt>
      <trkpt lat="42.88286" lon="0.11246">
        <ele>1748</ele>
        <time>2019-03-20T09:58:41Z</time>
      </trkpt>
      <trkpt lat="42.88283" lon="0.1125">
        <ele>1748</ele>
        <time>2019-03-20T09:58:43Z</time>
      </trkpt>
      <trkpt lat="42.88281" lon="0.11253">
        <ele>1748</ele>
        <time>2019-03-20T09:58:45Z</time>
      </trkpt>
      <trkpt lat="42.8828" lon="0.11256">
        <ele>1748</ele>
        <time>2019-03-20T09:58:48Z</time>
      </trkpt>
      <trkpt lat="42.88279" lon="0.11264">
        <ele>1748</ele>
        <time>2019-03-20T09:58:56Z</time>
      </trkpt>
      <trkpt lat="42.88282" lon="0.11271">
        <ele>1748</ele>
        <time>2019-03-20T09:59:06Z</time>
      </trkpt>
      <trkpt lat="42.88281" lon="0.11284">
        <ele>1748</ele>
        <time>2019-03-20T09:59:28Z</time>
      </trkpt>
      <trkpt lat="42.8828" lon="0.11292">
        <ele>1749</ele>
        <time>2019-03-20T09:59:53Z</time>
      </trkpt>
      <trkpt lat="42.8828" lon="0.11297">
        <ele>1749</ele>
        <time>2019-03-20T09:59:56Z</time>
      </trkpt>
      <trkpt lat="42.88281" lon="0.11305">
        <ele>1749</ele>
        <time>2019-03-20T10:00:00Z</time>
      </trkpt>
      <trkpt lat="42.88281" lon="0.11316">
        <ele>1750</ele>
        <time>2019-03-20T10:00:04Z</time>
      </trkpt>
      <trkpt lat="42.8828" lon="0.11327">
        <ele>1750</ele>
        <time>2019-03-20T10:00:10Z</time>
      </trkpt>
      <trkpt lat="42.8828" lon="0.11338">
        <ele>1750</ele>
        <time>2019-03-20T10:00:17Z</time>
      </trkpt>
      <trkpt lat="42.8828" lon="0.11343">
        <ele>1751</ele>
        <time>2019-03-20T10:00:23Z</time>
      </trkpt>
      <trkpt lat="42.88279" lon="0.11348">
        <ele>1751</ele>
        <time>2019-03-20T10:00:30Z</time>
      </trkpt>
      <trkpt lat="42.88276" lon="0.11364">
        <ele>1752</ele>
        <time>2019-03-20T10:00:44Z</time>
      </trkpt>
      <trkpt lat="42.88274" lon="0.11369">
        <ele>1752</ele>
        <time>2019-03-20T10:00:50Z</time>
      </trkpt>
      <trkpt lat="42.88274" lon="0.11374">
        <ele>1752</ele>
        <time>2019-03-20T10:00:53Z</time>
      </trkpt>
      <trkpt lat="42.88274" lon="0.11381">
        <ele>1752</ele>
        <time>2019-03-20T10:00:57Z</time>
      </trkpt>
      <trkpt lat="42.88275" lon="0.11386">
        <ele>1752</ele>
        <time>2019-03-20T10:01:03Z</time>
      </trkpt>
      <trkpt lat="42.88275" lon="0.11391">
        <ele>1753</ele>
        <time>2019-03-20T10:01:07Z</time>
      </trkpt>
      <trkpt lat="42.88277" lon="0.11397">
        <ele>1753</ele>
        <time>2019-03-20T10:01:13Z</time>
      </trkpt>
      <trkpt lat="42.88278" lon="0.11413">
        <ele>1754</ele>
        <time>2019-03-20T10:01:31Z</time>
      </trkpt>
      <trkpt lat="42.88276" lon="0.11423">
        <ele>1754</ele>
        <time>2019-03-20T10:01:40Z</time>
      </trkpt>
      <trkpt lat="42.88272" lon="0.11433">
        <ele>1755</ele>
        <time>2019-03-20T10:01:54Z</time>
      </trkpt>
      <trkpt lat="42.8827" lon="0.11439">
        <ele>1755</ele>
        <time>2019-03-20T10:02:01Z</time>
      </trkpt>
      <trkpt lat="42.88267" lon="0.11442">
        <ele>1755</ele>
        <time>2019-03-20T10:02:06Z</time>
      </trkpt>
      <trkpt lat="42.88263" lon="0.11444">
        <ele>1756</ele>
        <time>2019-03-20T10:02:10Z</time>
      </trkpt>
      <trkpt lat="42.88263" lon="0.11449">
        <ele>1756</ele>
        <time>2019-03-20T10:02:17Z</time>
      </trkpt>
      <trkpt lat="42.88263" lon="0.11454">
        <ele>1756</ele>
        <time>2019-03-20T10:02:24Z</time>
      </trkpt>
      <trkpt lat="42.88258" lon="0.11459">
        <ele>1756</ele>
        <time>2019-03-20T10:02:29Z</time>
      </trkpt>
      <trkpt lat="42.88256" lon="0.11466">
        <ele>1757</ele>
        <time>2019-03-20T10:02:37Z</time>
      </trkpt>
      <trkpt lat="42.88257" lon="0.11471">
        <ele>1757</ele>
        <time>2019-03-20T10:02:42Z</time>
      </trkpt>
      <trkpt lat="42.88253" lon="0.11478">
        <ele>1757</ele>
        <time>2019-03-20T10:02:51Z</time>
      </trkpt>
      <trkpt lat="42.88251" lon="0.11486">
        <ele>1758</ele>
        <time>2019-03-20T10:02:58Z</time>
      </trkpt>
      <trkpt lat="42.88248" lon="0.11502">
        <ele>1760</ele>
        <time>2019-03-20T10:03:15Z</time>
      </trkpt>
      <trkpt lat="42.88248" lon="0.11509">
        <ele>1760</ele>
        <time>2019-03-20T10:03:23Z</time>
      </trkpt>
      <trkpt lat="42.88248" lon="0.11517">
        <ele>1762</ele>
        <time>2019-03-20T10:03:31Z</time>
      </trkpt>
      <trkpt lat="42.88252" lon="0.11518">
        <ele>1762</ele>
        <time>2019-03-20T10:03:37Z</time>
      </trkpt>
      <trkpt lat="42.88256" lon="0.11518">
        <ele>1763</ele>
        <time>2019-03-20T10:03:41Z</time>
      </trkpt>
      <trkpt lat="42.88259" lon="0.11521">
        <ele>1764</ele>
        <time>2019-03-20T10:03:45Z</time>
      </trkpt>
      <trkpt lat="42.88262" lon="0.11525">
        <ele>1765</ele>
        <time>2019-03-20T10:03:50Z</time>
      </trkpt>
      <trkpt lat="42.88262" lon="0.11531">
        <ele>1765</ele>
        <time>2019-03-20T10:03:53Z</time>
      </trkpt>
      <trkpt lat="42.88261" lon="0.11541">
        <ele>1766</ele>
        <time>2019-03-20T10:03:59Z</time>
      </trkpt>
      <trkpt lat="42.88259" lon="0.11545">
        <ele>1767</ele>
        <time>2019-03-20T10:04:03Z</time>
      </trkpt>
      <trkpt lat="42.88253" lon="0.1156">
        <ele>1768</ele>
        <time>2019-03-20T10:04:18Z</time>
      </trkpt>
      <trkpt lat="42.88255" lon="0.11564">
        <ele>1770</ele>
        <time>2019-03-20T10:05:01Z</time>
      </trkpt>
      <trkpt lat="42.88253" lon="0.1158">
        <ele>1771</ele>
        <time>2019-03-20T10:05:12Z</time>
      </trkpt>
      <trkpt lat="42.88247" lon="0.11594">
        <ele>1773</ele>
        <time>2019-03-20T10:05:23Z</time>
      </trkpt>
      <trkpt lat="42.88245" lon="0.11598">
        <ele>1774</ele>
        <time>2019-03-20T10:05:29Z</time>
      </trkpt>
      <trkpt lat="42.88246" lon="0.1161">
        <ele>1775</ele>
        <time>2019-03-20T10:05:45Z</time>
      </trkpt>
      <trkpt lat="42.88248" lon="0.11616">
        <ele>1776</ele>
        <time>2019-03-20T10:05:52Z</time>
      </trkpt>
      <trkpt lat="42.88248" lon="0.11621">
        <ele>1777</ele>
        <time>2019-03-20T10:05:56Z</time>
      </trkpt>
      <trkpt lat="42.8825" lon="0.11627">
        <ele>1777</ele>
        <time>2019-03-20T10:06:04Z</time>
      </trkpt>
      <trkpt lat="42.8825" lon="0.11632">
        <ele>1778</ele>
        <time>2019-03-20T10:06:09Z</time>
      </trkpt>
      <trkpt lat="42.8825" lon="0.11643">
        <ele>1779</ele>
        <time>2019-03-20T10:06:16Z</time>
      </trkpt>
      <trkpt lat="42.8825" lon="0.11649">
        <ele>1779</ele>
        <time>2019-03-20T10:06:21Z</time>
      </trkpt>
      <trkpt lat="42.88249" lon="0.11654">
        <ele>1780</ele>
        <time>2019-03-20T10:06:27Z</time>
      </trkpt>
      <trkpt lat="42.88248" lon="0.1166">
        <ele>1780</ele>
        <time>2019-03-20T10:06:31Z</time>
      </trkpt>
      <trkpt lat="42.88246" lon="0.11666">
        <ele>1781</ele>
        <time>2019-03-20T10:06:35Z</time>
      </trkpt>
      <trkpt lat="42.88245" lon="0.11671">
        <ele>1781</ele>
        <time>2019-03-20T10:06:39Z</time>
      </trkpt>
      <trkpt lat="42.88244" lon="0.11675">
        <ele>1782</ele>
        <time>2019-03-20T10:06:43Z</time>
      </trkpt>
      <trkpt lat="42.88242" lon="0.1168">
        <ele>1782</ele>
        <time>2019-03-20T10:06:48Z</time>
      </trkpt>
      <trkpt lat="42.8824" lon="0.11685">
        <ele>1782</ele>
        <time>2019-03-20T10:06:53Z</time>
      </trkpt>
      <trkpt lat="42.88239" lon="0.11696">
        <ele>1783</ele>
        <time>2019-03-20T10:07:06Z</time>
      </trkpt>
      <trkpt lat="42.88235" lon="0.11697">
        <ele>1784</ele>
        <time>2019-03-20T10:07:10Z</time>
      </trkpt>
      <trkpt lat="42.88233" lon="0.11704">
        <ele>1785</ele>
        <time>2019-03-20T10:07:18Z</time>
      </trkpt>
      <trkpt lat="42.88232" lon="0.11709">
        <ele>1786</ele>
        <time>2019-03-20T10:07:24Z</time>
      </trkpt>
      <trkpt lat="42.88235" lon="0.11714">
        <ele>1787</ele>
        <time>2019-03-20T10:07:41Z</time>
      </trkpt>
      <trkpt lat="42.88233" lon="0.11728">
        <ele>1791</ele>
        <time>2019-03-20T10:07:54Z</time>
      </trkpt>
      <trkpt lat="42.88233" lon="0.11734">
        <ele>1792</ele>
        <time>2019-03-20T10:08:00Z</time>
      </trkpt>
      <trkpt lat="42.88228" lon="0.11744">
        <ele>1794</ele>
        <time>2019-03-20T10:08:09Z</time>
      </trkpt>
      <trkpt lat="42.88227" lon="0.11749">
        <ele>1795</ele>
        <time>2019-03-20T10:08:16Z</time>
      </trkpt>
      <trkpt lat="42.88229" lon="0.11754">
        <ele>1798</ele>
        <time>2019-03-20T10:09:09Z</time>
      </trkpt>
      <trkpt lat="42.88229" lon="0.1176">
        <ele>1799</ele>
        <time>2019-03-20T10:09:17Z</time>
      </trkpt>
      <trkpt lat="42.88225" lon="0.11762">
        <ele>1802</ele>
        <time>2019-03-20T10:09:23Z</time>
      </trkpt>
      <trkpt lat="42.88222" lon="0.1176">
        <ele>1803</ele>
        <time>2019-03-20T10:09:29Z</time>
      </trkpt>
      <trkpt lat="42.88219" lon="0.11764">
        <ele>1805</ele>
        <time>2019-03-20T10:09:41Z</time>
      </trkpt>
      <trkpt lat="42.88219" lon="0.11769">
        <ele>1806</ele>
        <time>2019-03-20T10:09:47Z</time>
      </trkpt>
      <trkpt lat="42.88219" lon="0.11785">
        <ele>1809</ele>
        <time>2019-03-20T10:10:18Z</time>
      </trkpt>
      <trkpt lat="42.88217" lon="0.11794">
        <ele>1812</ele>
        <time>2019-03-20T10:10:38Z</time>
      </trkpt>
      <trkpt lat="42.88213" lon="0.11808">
        <ele>1814</ele>
        <time>2019-03-20T10:10:56Z</time>
      </trkpt>
      <trkpt lat="42.88215" lon="0.11816">
        <ele>1814</ele>
        <time>2019-03-20T10:11:10Z</time>
      </trkpt>
      <trkpt lat="42.88214" lon="0.11823">
        <ele>1816</ele>
        <time>2019-03-20T10:11:17Z</time>
      </trkpt>
      <trkpt lat="42.88213" lon="0.11827">
        <ele>1816</ele>
        <time>2019-03-20T10:11:23Z</time>
      </trkpt>
      <trkpt lat="42.88213" lon="0.11835">
        <ele>1818</ele>
        <time>2019-03-20T10:11:36Z</time>
      </trkpt>
      <trkpt lat="42.88215" lon="0.11838">
        <ele>1819</ele>
        <time>2019-03-20T10:11:47Z</time>
      </trkpt>
      <trkpt lat="42.88213" lon="0.11849">
        <ele>1820</ele>
        <time>2019-03-20T10:11:58Z</time>
      </trkpt>
      <trkpt lat="42.88214" lon="0.11858">
        <ele>1822</ele>
        <time>2019-03-20T10:12:06Z</time>
      </trkpt>
      <trkpt lat="42.88211" lon="0.11868">
        <ele>1823</ele>
        <time>2019-03-20T10:12:17Z</time>
      </trkpt>
      <trkpt lat="42.88212" lon="0.11874">
        <ele>1824</ele>
        <time>2019-03-20T10:12:27Z</time>
      </trkpt>
      <trkpt lat="42.88213" lon="0.11891">
        <ele>1826</ele>
        <time>2019-03-20T10:12:51Z</time>
      </trkpt>
      <trkpt lat="42.88213" lon="0.11898">
        <ele>1827</ele>
        <time>2019-03-20T10:13:03Z</time>
      </trkpt>
      <trkpt lat="42.88211" lon="0.11903">
        <ele>1827</ele>
        <time>2019-03-20T10:13:08Z</time>
      </trkpt>
      <trkpt lat="42.8821" lon="0.11907">
        <ele>1828</ele>
        <time>2019-03-20T10:13:14Z</time>
      </trkpt>
      <trkpt lat="42.88208" lon="0.11913">
        <ele>1828</ele>
        <time>2019-03-20T10:13:20Z</time>
      </trkpt>
      <trkpt lat="42.88209" lon="0.11917">
        <ele>1829</ele>
        <time>2019-03-20T10:13:25Z</time>
      </trkpt>
      <trkpt lat="42.8821" lon="0.11922">
        <ele>1829</ele>
        <time>2019-03-20T10:13:30Z</time>
      </trkpt>
      <trkpt lat="42.88215" lon="0.11931">
        <ele>1831</ele>
        <time>2019-03-20T10:13:55Z</time>
      </trkpt>
      <trkpt lat="42.88217" lon="0.11936">
        <ele>1833</ele>
        <time>2019-03-20T10:14:02Z</time>
      </trkpt>
      <trkpt lat="42.88217" lon="0.11941">
        <ele>1833</ele>
        <time>2019-03-20T10:14:07Z</time>
      </trkpt>
      <trkpt lat="42.88217" lon="0.11947">
        <ele>1834</ele>
        <time>2019-03-20T10:14:13Z</time>
      </trkpt>
      <trkpt lat="42.88214" lon="0.11957">
        <ele>1836</ele>
        <time>2019-03-20T10:14:26Z</time>
      </trkpt>
      <trkpt lat="42.88217" lon="0.11953">
        <ele>1839</ele>
        <time>2019-03-20T10:16:05Z</time>
      </trkpt>
      <trkpt lat="42.8822" lon="0.11953">
        <ele>1844</ele>
        <time>2019-03-20T10:19:47Z</time>
      </trkpt>
      <trkpt lat="42.8822" lon="0.1195">
        <ele>1857</ele>
        <time>2019-03-20T10:22:12Z</time>
      </trkpt>
      <trkpt lat="42.88219" lon="0.11947">
        <ele>1861</ele>
        <time>2019-03-20T10:23:01Z</time>
      </trkpt>
      <trkpt lat="42.88219" lon="0.11947">
        <ele>1863</ele>
        <time>2019-03-20T10:23:53Z</time>
      </trkpt>
      <trkpt lat="42.88219" lon="0.11959">
        <ele>1866</ele>
        <time>2019-03-20T10:24:25Z</time>
      </trkpt>
      <trkpt lat="42.88219" lon="0.11965">
        <ele>1867</ele>
        <time>2019-03-20T10:24:29Z</time>
      </trkpt>
      <trkpt lat="42.88219" lon="0.11975">
        <ele>1868</ele>
        <time>2019-03-20T10:24:38Z</time>
      </trkpt>
      <trkpt lat="42.88218" lon="0.11978">
        <ele>1868</ele>
        <time>2019-03-20T10:24:40Z</time>
      </trkpt>
      <trkpt lat="42.88218" lon="0.11981">
        <ele>1869</ele>
        <time>2019-03-20T10:24:43Z</time>
      </trkpt>
      <trkpt lat="42.88218" lon="0.11992">
        <ele>1870</ele>
        <time>2019-03-20T10:24:55Z</time>
      </trkpt>
      <trkpt lat="42.88216" lon="0.11998">
        <ele>1870</ele>
        <time>2019-03-20T10:25:06Z</time>
      </trkpt>
      <trkpt lat="42.88217" lon="0.12003">
        <ele>1871</ele>
        <time>2019-03-20T10:25:18Z</time>
      </trkpt>
      <trkpt lat="42.88219" lon="0.12006">
        <ele>1872</ele>
        <time>2019-03-20T10:25:24Z</time>
      </trkpt>
      <trkpt lat="42.88222" lon="0.12007">
        <ele>1872</ele>
        <time>2019-03-20T10:25:30Z</time>
      </trkpt>
      <trkpt lat="42.88223" lon="0.12009">
        <ele>1872</ele>
        <time>2019-03-20T10:25:34Z</time>
      </trkpt>
      <trkpt lat="42.88228" lon="0.12011">
        <ele>1873</ele>
        <time>2019-03-20T10:25:48Z</time>
      </trkpt>
      <trkpt lat="42.88229" lon="0.12013">
        <ele>1873</ele>
        <time>2019-03-20T10:25:53Z</time>
      </trkpt>
      <trkpt lat="42.8823" lon="0.12019">
        <ele>1874</ele>
        <time>2019-03-20T10:26:01Z</time>
      </trkpt>
      <trkpt lat="42.8823" lon="0.12023">
        <ele>1874</ele>
        <time>2019-03-20T10:26:03Z</time>
      </trkpt>
      <trkpt lat="42.88232" lon="0.12024">
        <ele>1874</ele>
        <time>2019-03-20T10:26:12Z</time>
      </trkpt>
      <trkpt lat="42.88233" lon="0.12027">
        <ele>1874</ele>
        <time>2019-03-20T10:26:17Z</time>
      </trkpt>
      <trkpt lat="42.88234" lon="0.12038">
        <ele>1874</ele>
        <time>2019-03-20T10:26:29Z</time>
      </trkpt>
      <trkpt lat="42.88235" lon="0.12044">
        <ele>1875</ele>
        <time>2019-03-20T10:26:35Z</time>
      </trkpt>
      <trkpt lat="42.88235" lon="0.12049">
        <ele>1875</ele>
        <time>2019-03-20T10:26:42Z</time>
      </trkpt>
      <trkpt lat="42.88234" lon="0.12054">
        <ele>1875</ele>
        <time>2019-03-20T10:26:46Z</time>
      </trkpt>
      <trkpt lat="42.88234" lon="0.1206">
        <ele>1875</ele>
        <time>2019-03-20T10:26:55Z</time>
      </trkpt>
      <trkpt lat="42.88233" lon="0.12065">
        <ele>1875</ele>
        <time>2019-03-20T10:26:59Z</time>
      </trkpt>
      <trkpt lat="42.88233" lon="0.12067">
        <ele>1876</ele>
        <time>2019-03-20T10:27:02Z</time>
      </trkpt>
      <trkpt lat="42.88231" lon="0.12069">
        <ele>1876</ele>
        <time>2019-03-20T10:27:04Z</time>
      </trkpt>
      <trkpt lat="42.88229" lon="0.1207">
        <ele>1876</ele>
        <time>2019-03-20T10:27:09Z</time>
      </trkpt>
      <trkpt lat="42.88227" lon="0.1207">
        <ele>1876</ele>
        <time>2019-03-20T10:27:15Z</time>
      </trkpt>
      <trkpt lat="42.88224" lon="0.12073">
        <ele>1876</ele>
        <time>2019-03-20T10:27:23Z</time>
      </trkpt>
      <trkpt lat="42.88222" lon="0.12074">
        <ele>1877</ele>
        <time>2019-03-20T10:27:28Z</time>
      </trkpt>
      <trkpt lat="42.88217" lon="0.12077">
        <ele>1877</ele>
        <time>2019-03-20T10:27:40Z</time>
      </trkpt>
      <trkpt lat="42.88213" lon="0.12078">
        <ele>1878</ele>
        <time>2019-03-20T10:27:51Z</time>
      </trkpt>
      <trkpt lat="42.88211" lon="0.1208">
        <ele>1878</ele>
        <time>2019-03-20T10:27:54Z</time>
      </trkpt>
      <trkpt lat="42.8821" lon="0.12081">
        <ele>1878</ele>
        <time>2019-03-20T10:27:57Z</time>
      </trkpt>
      <trkpt lat="42.88205" lon="0.12083">
        <ele>1878</ele>
        <time>2019-03-20T10:28:14Z</time>
      </trkpt>
      <trkpt lat="42.88203" lon="0.12086">
        <ele>1879</ele>
        <time>2019-03-20T10:28:18Z</time>
      </trkpt>
      <trkpt lat="42.88203" lon="0.12089">
        <ele>1879</ele>
        <time>2019-03-20T10:28:21Z</time>
      </trkpt>
      <trkpt lat="42.88204" lon="0.12094">
        <ele>1879</ele>
        <time>2019-03-20T10:28:30Z</time>
      </trkpt>
      <trkpt lat="42.88205" lon="0.12101">
        <ele>1880</ele>
        <time>2019-03-20T10:28:39Z</time>
      </trkpt>
      <trkpt lat="42.88207" lon="0.12099">
        <ele>1880</ele>
        <time>2019-03-20T10:28:45Z</time>
      </trkpt>
      <trkpt lat="42.88209" lon="0.12103">
        <ele>1881</ele>
        <time>2019-03-20T10:28:52Z</time>
      </trkpt>
      <trkpt lat="42.88209" lon="0.12108">
        <ele>1881</ele>
        <time>2019-03-20T10:28:55Z</time>
      </trkpt>
      <trkpt lat="42.88215" lon="0.12119">
        <ele>1882</ele>
        <time>2019-03-20T10:29:12Z</time>
      </trkpt>
      <trkpt lat="42.88221" lon="0.12138">
        <ele>1883</ele>
        <time>2019-03-20T10:29:39Z</time>
      </trkpt>
      <trkpt lat="42.88227" lon="0.12181">
        <ele>1885</ele>
        <time>2019-03-20T10:30:10Z</time>
      </trkpt>
      <trkpt lat="42.88229" lon="0.12187">
        <ele>1886</ele>
        <time>2019-03-20T10:30:14Z</time>
      </trkpt>
      <trkpt lat="42.8823" lon="0.12193">
        <ele>1886</ele>
        <time>2019-03-20T10:30:18Z</time>
      </trkpt>
      <trkpt lat="42.88232" lon="0.12205">
        <ele>1886</ele>
        <time>2019-03-20T10:30:23Z</time>
      </trkpt>
      <trkpt lat="42.88229" lon="0.12217">
        <ele>1887</ele>
        <time>2019-03-20T10:30:26Z</time>
      </trkpt>
      <trkpt lat="42.88225" lon="0.1223">
        <ele>1888</ele>
        <time>2019-03-20T10:30:28Z</time>
      </trkpt>
      <trkpt lat="42.88223" lon="0.12236">
        <ele>1888</ele>
        <time>2019-03-20T10:30:29Z</time>
      </trkpt>
      <trkpt lat="42.88221" lon="0.12244">
        <ele>1888</ele>
        <time>2019-03-20T10:30:31Z</time>
      </trkpt>
      <trkpt lat="42.88221" lon="0.12249">
        <ele>1888</ele>
        <time>2019-03-20T10:30:33Z</time>
      </trkpt>
      <trkpt lat="42.88217" lon="0.1227">
        <ele>1889</ele>
        <time>2019-03-20T10:30:47Z</time>
      </trkpt>
      <trkpt lat="42.88217" lon="0.12274">
        <ele>1889</ele>
        <time>2019-03-20T10:30:50Z</time>
      </trkpt>
      <trkpt lat="42.88215" lon="0.12279">
        <ele>1889</ele>
        <time>2019-03-20T10:30:53Z</time>
      </trkpt>
      <trkpt lat="42.88215" lon="0.12284">
        <ele>1889</ele>
        <time>2019-03-20T10:30:56Z</time>
      </trkpt>
      <trkpt lat="42.88215" lon="0.12288">
        <ele>1889</ele>
        <time>2019-03-20T10:31:01Z</time>
      </trkpt>
      <trkpt lat="42.88215" lon="0.12292">
        <ele>1889</ele>
        <time>2019-03-20T10:31:37Z</time>
      </trkpt>
      <trkpt lat="42.88213" lon="0.12305">
        <ele>1890</ele>
        <time>2019-03-20T10:31:45Z</time>
      </trkpt>
      <trkpt lat="42.88211" lon="0.12309">
        <ele>1890</ele>
        <time>2019-03-20T10:31:47Z</time>
      </trkpt>
      <trkpt lat="42.88209" lon="0.12335">
        <ele>1891</ele>
        <time>2019-03-20T10:32:02Z</time>
      </trkpt>
      <trkpt lat="42.88207" lon="0.12351">
        <ele>1891</ele>
        <time>2019-03-20T10:32:11Z</time>
      </trkpt>
      <trkpt lat="42.88207" lon="0.12357">
        <ele>1891</ele>
        <time>2019-03-20T10:32:15Z</time>
      </trkpt>
      <trkpt lat="42.88207" lon="0.12362">
        <ele>1891</ele>
        <time>2019-03-20T10:32:19Z</time>
      </trkpt>
      <trkpt lat="42.88208" lon="0.12368">
        <ele>1891</ele>
        <time>2019-03-20T10:32:23Z</time>
      </trkpt>
      <trkpt lat="42.88207" lon="0.12379">
        <ele>1891</ele>
        <time>2019-03-20T10:32:29Z</time>
      </trkpt>
      <trkpt lat="42.88203" lon="0.12403">
        <ele>1892</ele>
        <time>2019-03-20T10:32:44Z</time>
      </trkpt>
      <trkpt lat="42.88203" lon="0.12412">
        <ele>1892</ele>
        <time>2019-03-20T10:32:50Z</time>
      </trkpt>
      <trkpt lat="42.882" lon="0.1242">
        <ele>1892</ele>
        <time>2019-03-20T10:32:56Z</time>
      </trkpt>
      <trkpt lat="42.88198" lon="0.12424">
        <ele>1892</ele>
        <time>2019-03-20T10:32:59Z</time>
      </trkpt>
      <trkpt lat="42.88193" lon="0.12438">
        <ele>1892</ele>
        <time>2019-03-20T10:33:10Z</time>
      </trkpt>
      <trkpt lat="42.88189" lon="0.12451">
        <ele>1892</ele>
        <time>2019-03-20T10:33:19Z</time>
      </trkpt>
      <trkpt lat="42.88186" lon="0.12459">
        <ele>1893</ele>
        <time>2019-03-20T10:33:25Z</time>
      </trkpt>
      <trkpt lat="42.88186" lon="0.12465">
        <ele>1893</ele>
        <time>2019-03-20T10:33:30Z</time>
      </trkpt>
      <trkpt lat="42.88186" lon="0.1247">
        <ele>1893</ele>
        <time>2019-03-20T10:33:34Z</time>
      </trkpt>
      <trkpt lat="42.8819" lon="0.12491">
        <ele>1893</ele>
        <time>2019-03-20T10:33:54Z</time>
      </trkpt>
      <trkpt lat="42.88191" lon="0.12498">
        <ele>1893</ele>
        <time>2019-03-20T10:33:58Z</time>
      </trkpt>
      <trkpt lat="42.88191" lon="0.12504">
        <ele>1893</ele>
        <time>2019-03-20T10:34:03Z</time>
      </trkpt>
      <trkpt lat="42.8819" lon="0.12523">
        <ele>1894</ele>
        <time>2019-03-20T10:34:19Z</time>
      </trkpt>
      <trkpt lat="42.88188" lon="0.12557">
        <ele>1895</ele>
        <time>2019-03-20T10:34:53Z</time>
      </trkpt>
      <trkpt lat="42.88187" lon="0.12562">
        <ele>1896</ele>
        <time>2019-03-20T10:34:57Z</time>
      </trkpt>
      <trkpt lat="42.88187" lon="0.12565">
        <ele>1896</ele>
        <time>2019-03-20T10:35:01Z</time>
      </trkpt>
      <trkpt lat="42.88188" lon="0.12582">
        <ele>1897</ele>
        <time>2019-03-20T10:35:15Z</time>
      </trkpt>
      <trkpt lat="42.88189" lon="0.12591">
        <ele>1897</ele>
        <time>2019-03-20T10:35:24Z</time>
      </trkpt>
      <trkpt lat="42.88192" lon="0.12609">
        <ele>1899</ele>
        <time>2019-03-20T10:35:42Z</time>
      </trkpt>
      <trkpt lat="42.88192" lon="0.12613">
        <ele>1899</ele>
        <time>2019-03-20T10:35:46Z</time>
      </trkpt>
      <trkpt lat="42.88193" lon="0.12631">
        <ele>1901</ele>
        <time>2019-03-20T10:36:06Z</time>
      </trkpt>
      <trkpt lat="42.88194" lon="0.12635">
        <ele>1901</ele>
        <time>2019-03-20T10:36:10Z</time>
      </trkpt>
      <trkpt lat="42.88193" lon="0.12639">
        <ele>1901</ele>
        <time>2019-03-20T10:36:13Z</time>
      </trkpt>
      <trkpt lat="42.88194" lon="0.12643">
        <ele>1902</ele>
        <time>2019-03-20T10:36:19Z</time>
      </trkpt>
      <trkpt lat="42.88195" lon="0.12657">
        <ele>1903</ele>
        <time>2019-03-20T10:36:33Z</time>
      </trkpt>
      <trkpt lat="42.88197" lon="0.12661">
        <ele>1903</ele>
        <time>2019-03-20T10:36:38Z</time>
      </trkpt>
      <trkpt lat="42.88196" lon="0.12665">
        <ele>1903</ele>
        <time>2019-03-20T10:36:41Z</time>
      </trkpt>
      <trkpt lat="42.88196" lon="0.1267">
        <ele>1904</ele>
        <time>2019-03-20T10:36:45Z</time>
      </trkpt>
      <trkpt lat="42.88195" lon="0.1268">
        <ele>1905</ele>
        <time>2019-03-20T10:36:58Z</time>
      </trkpt>
      <trkpt lat="42.88195" lon="0.12683">
        <ele>1905</ele>
        <time>2019-03-20T10:37:01Z</time>
      </trkpt>
      <trkpt lat="42.88194" lon="0.12685">
        <ele>1905</ele>
        <time>2019-03-20T10:37:03Z</time>
      </trkpt>
      <trkpt lat="42.88194" lon="0.12691">
        <ele>1906</ele>
        <time>2019-03-20T10:37:10Z</time>
      </trkpt>
      <trkpt lat="42.88192" lon="0.12699">
        <ele>1906</ele>
        <time>2019-03-20T10:37:18Z</time>
      </trkpt>
      <trkpt lat="42.88191" lon="0.12702">
        <ele>1906</ele>
        <time>2019-03-20T10:37:21Z</time>
      </trkpt>
      <trkpt lat="42.88191" lon="0.12709">
        <ele>1907</ele>
        <time>2019-03-20T10:37:28Z</time>
      </trkpt>
      <trkpt lat="42.8819" lon="0.12712">
        <ele>1907</ele>
        <time>2019-03-20T10:37:31Z</time>
      </trkpt>
      <trkpt lat="42.8819" lon="0.12716">
        <ele>1907</ele>
        <time>2019-03-20T10:37:34Z</time>
      </trkpt>
      <trkpt lat="42.88189" lon="0.12718">
        <ele>1907</ele>
        <time>2019-03-20T10:37:37Z</time>
      </trkpt>
      <trkpt lat="42.88188" lon="0.12725">
        <ele>1908</ele>
        <time>2019-03-20T10:37:43Z</time>
      </trkpt>
      <trkpt lat="42.88187" lon="0.12737">
        <ele>1908</ele>
        <time>2019-03-20T10:37:53Z</time>
      </trkpt>
      <trkpt lat="42.88187" lon="0.12744">
        <ele>1909</ele>
        <time>2019-03-20T10:38:00Z</time>
      </trkpt>
      <trkpt lat="42.88186" lon="0.12751">
        <ele>1909</ele>
        <time>2019-03-20T10:38:05Z</time>
      </trkpt>
      <trkpt lat="42.88185" lon="0.12755">
        <ele>1909</ele>
        <time>2019-03-20T10:38:10Z</time>
      </trkpt>
      <trkpt lat="42.88184" lon="0.12759">
        <ele>1910</ele>
        <time>2019-03-20T10:38:50Z</time>
      </trkpt>
      <trkpt lat="42.88183" lon="0.12763">
        <ele>1910</ele>
        <time>2019-03-20T10:38:53Z</time>
      </trkpt>
      <trkpt lat="42.88182" lon="0.12766">
        <ele>1910</ele>
        <time>2019-03-20T10:38:56Z</time>
      </trkpt>
      <trkpt lat="42.88181" lon="0.12773">
        <ele>1911</ele>
        <time>2019-03-20T10:39:02Z</time>
      </trkpt>
      <trkpt lat="42.88179" lon="0.12779">
        <ele>1911</ele>
        <time>2019-03-20T10:39:07Z</time>
      </trkpt>
      <trkpt lat="42.88178" lon="0.12783">
        <ele>1911</ele>
        <time>2019-03-20T10:39:10Z</time>
      </trkpt>
      <trkpt lat="42.88175" lon="0.12792">
        <ele>1912</ele>
        <time>2019-03-20T10:39:18Z</time>
      </trkpt>
      <trkpt lat="42.88174" lon="0.12799">
        <ele>1912</ele>
        <time>2019-03-20T10:39:24Z</time>
      </trkpt>
      <trkpt lat="42.88171" lon="0.12809">
        <ele>1913</ele>
        <time>2019-03-20T10:39:32Z</time>
      </trkpt>
      <trkpt lat="42.88171" lon="0.12825">
        <ele>1913</ele>
        <time>2019-03-20T10:39:47Z</time>
      </trkpt>
      <trkpt lat="42.88171" lon="0.12834">
        <ele>1914</ele>
        <time>2019-03-20T10:39:55Z</time>
      </trkpt>
      <trkpt lat="42.88171" lon="0.12844">
        <ele>1914</ele>
        <time>2019-03-20T10:40:05Z</time>
      </trkpt>
      <trkpt lat="42.88171" lon="0.1285">
        <ele>1915</ele>
        <time>2019-03-20T10:40:10Z</time>
      </trkpt>
      <trkpt lat="42.88171" lon="0.12853">
        <ele>1915</ele>
        <time>2019-03-20T10:40:13Z</time>
      </trkpt>
      <trkpt lat="42.88171" lon="0.12864">
        <ele>1915</ele>
        <time>2019-03-20T10:40:23Z</time>
      </trkpt>
      <trkpt lat="42.88171" lon="0.12868">
        <ele>1916</ele>
        <time>2019-03-20T10:40:26Z</time>
      </trkpt>
      <trkpt lat="42.88172" lon="0.12872">
        <ele>1916</ele>
        <time>2019-03-20T10:40:30Z</time>
      </trkpt>
      <trkpt lat="42.88173" lon="0.12876">
        <ele>1916</ele>
        <time>2019-03-20T10:40:37Z</time>
      </trkpt>
      <trkpt lat="42.88172" lon="0.12885">
        <ele>1916</ele>
        <time>2019-03-20T10:40:45Z</time>
      </trkpt>
      <trkpt lat="42.88172" lon="0.12888">
        <ele>1917</ele>
        <time>2019-03-20T10:40:48Z</time>
      </trkpt>
      <trkpt lat="42.88171" lon="0.12893">
        <ele>1917</ele>
        <time>2019-03-20T10:40:52Z</time>
      </trkpt>
      <trkpt lat="42.88169" lon="0.12902">
        <ele>1917</ele>
        <time>2019-03-20T10:41:00Z</time>
      </trkpt>
      <trkpt lat="42.88171" lon="0.12901">
        <ele>1918</ele>
        <time>2019-03-20T10:41:24Z</time>
      </trkpt>
      <trkpt lat="42.88172" lon="0.12905">
        <ele>1918</ele>
        <time>2019-03-20T10:41:29Z</time>
      </trkpt>
      <trkpt lat="42.88173" lon="0.12918">
        <ele>1919</ele>
        <time>2019-03-20T10:41:53Z</time>
      </trkpt>
      <trkpt lat="42.88175" lon="0.1292">
        <ele>1919</ele>
        <time>2019-03-20T10:42:23Z</time>
      </trkpt>
      <trkpt lat="42.88174" lon="0.12922">
        <ele>1920</ele>
        <time>2019-03-20T10:43:02Z</time>
      </trkpt>
      <trkpt lat="42.88171" lon="0.12918">
        <ele>1920</ele>
        <time>2019-03-20T10:43:22Z</time>
      </trkpt>
      <trkpt lat="42.8817" lon="0.12916">
        <ele>1920</ele>
        <time>2019-03-20T10:43:32Z</time>
      </trkpt>
      <trkpt lat="42.88169" lon="0.12918">
        <ele>1921</ele>
        <time>2019-03-20T10:43:36Z</time>
      </trkpt>
      <trkpt lat="42.88162" lon="0.12932">
        <ele>1922</ele>
        <time>2019-03-20T10:43:49Z</time>
      </trkpt>
      <trkpt lat="42.88161" lon="0.12934">
        <ele>1923</ele>
        <time>2019-03-20T10:43:51Z</time>
      </trkpt>
      <trkpt lat="42.88153" lon="0.12961">
        <ele>1924</ele>
        <time>2019-03-20T10:44:14Z</time>
      </trkpt>
      <trkpt lat="42.88153" lon="0.12963">
        <ele>1924</ele>
        <time>2019-03-20T10:44:16Z</time>
      </trkpt>
      <trkpt lat="42.88152" lon="0.12966">
        <ele>1925</ele>
        <time>2019-03-20T10:44:18Z</time>
      </trkpt>
      <trkpt lat="42.88151" lon="0.12971">
        <ele>1925</ele>
        <time>2019-03-20T10:44:22Z</time>
      </trkpt>
      <trkpt lat="42.8815" lon="0.12978">
        <ele>1925</ele>
        <time>2019-03-20T10:44:27Z</time>
      </trkpt>
      <trkpt lat="42.88149" lon="0.12988">
        <ele>1926</ele>
        <time>2019-03-20T10:44:35Z</time>
      </trkpt>
      <trkpt lat="42.88148" lon="0.13">
        <ele>1926</ele>
        <time>2019-03-20T10:44:44Z</time>
      </trkpt>
      <trkpt lat="42.88144" lon="0.13012">
        <ele>1926</ele>
        <time>2019-03-20T10:44:54Z</time>
      </trkpt>
      <trkpt lat="42.88144" lon="0.13015">
        <ele>1927</ele>
        <time>2019-03-20T10:44:57Z</time>
      </trkpt>
      <trkpt lat="42.88144" lon="0.13029">
        <ele>1927</ele>
        <time>2019-03-20T10:45:06Z</time>
      </trkpt>
      <trkpt lat="42.88144" lon="0.13033">
        <ele>1927</ele>
        <time>2019-03-20T10:45:08Z</time>
      </trkpt>
      <trkpt lat="42.88144" lon="0.13039">
        <ele>1927</ele>
        <time>2019-03-20T10:45:13Z</time>
      </trkpt>
      <trkpt lat="42.88144" lon="0.13052">
        <ele>1928</ele>
        <time>2019-03-20T10:45:23Z</time>
      </trkpt>
      <trkpt lat="42.88145" lon="0.13055">
        <ele>1928</ele>
        <time>2019-03-20T10:45:26Z</time>
      </trkpt>
      <trkpt lat="42.88145" lon="0.13058">
        <ele>1928</ele>
        <time>2019-03-20T10:45:28Z</time>
      </trkpt>
      <trkpt lat="42.88146" lon="0.13069">
        <ele>1928</ele>
        <time>2019-03-20T10:45:35Z</time>
      </trkpt>
      <trkpt lat="42.88142" lon="0.13095">
        <ele>1929</ele>
        <time>2019-03-20T10:45:54Z</time>
      </trkpt>
      <trkpt lat="42.88142" lon="0.13098">
        <ele>1929</ele>
        <time>2019-03-20T10:45:56Z</time>
      </trkpt>
      <trkpt lat="42.8814" lon="0.13101">
        <ele>1929</ele>
        <time>2019-03-20T10:45:59Z</time>
      </trkpt>
      <trkpt lat="42.88137" lon="0.13106">
        <ele>1929</ele>
        <time>2019-03-20T10:46:04Z</time>
      </trkpt>
      <trkpt lat="42.88136" lon="0.13108">
        <ele>1930</ele>
        <time>2019-03-20T10:46:07Z</time>
      </trkpt>
      <trkpt lat="42.88134" lon="0.13113">
        <ele>1930</ele>
        <time>2019-03-20T10:46:13Z</time>
      </trkpt>
      <trkpt lat="42.88133" lon="0.13114">
        <ele>1930</ele>
        <time>2019-03-20T10:46:15Z</time>
      </trkpt>
      <trkpt lat="42.88129" lon="0.13118">
        <ele>1930</ele>
        <time>2019-03-20T10:46:21Z</time>
      </trkpt>
      <trkpt lat="42.88127" lon="0.1312">
        <ele>1930</ele>
        <time>2019-03-20T10:46:24Z</time>
      </trkpt>
      <trkpt lat="42.88126" lon="0.13122">
        <ele>1930</ele>
        <time>2019-03-20T10:46:26Z</time>
      </trkpt>
      <trkpt lat="42.88121" lon="0.13141">
        <ele>1931</ele>
        <time>2019-03-20T10:46:44Z</time>
      </trkpt>
      <trkpt lat="42.88121" lon="0.13145">
        <ele>1931</ele>
        <time>2019-03-20T10:46:47Z</time>
      </trkpt>
      <trkpt lat="42.88119" lon="0.13161">
        <ele>1932</ele>
        <time>2019-03-20T10:47:03Z</time>
      </trkpt>
      <trkpt lat="42.88119" lon="0.13164">
        <ele>1932</ele>
        <time>2019-03-20T10:47:06Z</time>
      </trkpt>
      <trkpt lat="42.88118" lon="0.1317">
        <ele>1932</ele>
        <time>2019-03-20T10:47:12Z</time>
      </trkpt>
      <trkpt lat="42.88118" lon="0.13172">
        <ele>1932</ele>
        <time>2019-03-20T10:47:15Z</time>
      </trkpt>
      <trkpt lat="42.88118" lon="0.13183">
        <ele>1933</ele>
        <time>2019-03-20T10:47:27Z</time>
      </trkpt>
      <trkpt lat="42.88118" lon="0.13186">
        <ele>1933</ele>
        <time>2019-03-20T10:47:31Z</time>
      </trkpt>
      <trkpt lat="42.88118" lon="0.13189">
        <ele>1933</ele>
        <time>2019-03-20T10:47:35Z</time>
      </trkpt>
      <trkpt lat="42.88118" lon="0.13192">
        <ele>1934</ele>
        <time>2019-03-20T10:47:57Z</time>
      </trkpt>
      <trkpt lat="42.88118" lon="0.13195">
        <ele>1934</ele>
        <time>2019-03-20T10:48:00Z</time>
      </trkpt>
      <trkpt lat="42.88118" lon="0.13199">
        <ele>1934</ele>
        <time>2019-03-20T10:48:04Z</time>
      </trkpt>
      <trkpt lat="42.88118" lon="0.13205">
        <ele>1934</ele>
        <time>2019-03-20T10:48:11Z</time>
      </trkpt>
      <trkpt lat="42.88118" lon="0.13209">
        <ele>1935</ele>
        <time>2019-03-20T10:48:16Z</time>
      </trkpt>
      <trkpt lat="42.8812" lon="0.13217">
        <ele>1935</ele>
        <time>2019-03-20T10:48:23Z</time>
      </trkpt>
      <trkpt lat="42.88119" lon="0.13225">
        <ele>1935</ele>
        <time>2019-03-20T10:48:29Z</time>
      </trkpt>
      <trkpt lat="42.88119" lon="0.13227">
        <ele>1935</ele>
        <time>2019-03-20T10:48:31Z</time>
      </trkpt>
      <trkpt lat="42.88119" lon="0.1323">
        <ele>1935</ele>
        <time>2019-03-20T10:48:33Z</time>
      </trkpt>
      <trkpt lat="42.88119" lon="0.13233">
        <ele>1936</ele>
        <time>2019-03-20T10:48:36Z</time>
      </trkpt>
      <trkpt lat="42.88119" lon="0.13235">
        <ele>1936</ele>
        <time>2019-03-20T10:48:39Z</time>
      </trkpt>
      <trkpt lat="42.88119" lon="0.13239">
        <ele>1936</ele>
        <time>2019-03-20T10:48:43Z</time>
      </trkpt>
      <trkpt lat="42.88118" lon="0.13241">
        <ele>1936</ele>
        <time>2019-03-20T10:48:47Z</time>
      </trkpt>
      <trkpt lat="42.88117" lon="0.13243">
        <ele>1936</ele>
        <time>2019-03-20T10:48:49Z</time>
      </trkpt>
      <trkpt lat="42.88116" lon="0.13246">
        <ele>1936</ele>
        <time>2019-03-20T10:48:54Z</time>
      </trkpt>
      <trkpt lat="42.88113" lon="0.13251">
        <ele>1937</ele>
        <time>2019-03-20T10:49:02Z</time>
      </trkpt>
      <trkpt lat="42.88113" lon="0.13254">
        <ele>1937</ele>
        <time>2019-03-20T10:49:05Z</time>
      </trkpt>
      <trkpt lat="42.88112" lon="0.13256">
        <ele>1937</ele>
        <time>2019-03-20T10:49:09Z</time>
      </trkpt>
      <trkpt lat="42.88112" lon="0.13259">
        <ele>1937</ele>
        <time>2019-03-20T10:49:11Z</time>
      </trkpt>
      <trkpt lat="42.88111" lon="0.13262">
        <ele>1937</ele>
        <time>2019-03-20T10:49:14Z</time>
      </trkpt>
      <trkpt lat="42.88109" lon="0.13272">
        <ele>1938</ele>
        <time>2019-03-20T10:49:25Z</time>
      </trkpt>
      <trkpt lat="42.88109" lon="0.13275">
        <ele>1938</ele>
        <time>2019-03-20T10:49:28Z</time>
      </trkpt>
      <trkpt lat="42.88108" lon="0.13279">
        <ele>1938</ele>
        <time>2019-03-20T10:49:31Z</time>
      </trkpt>
      <trkpt lat="42.88107" lon="0.13285">
        <ele>1938</ele>
        <time>2019-03-20T10:49:37Z</time>
      </trkpt>
      <trkpt lat="42.88105" lon="0.13295">
        <ele>1939</ele>
        <time>2019-03-20T10:49:47Z</time>
      </trkpt>
      <trkpt lat="42.88105" lon="0.13298">
        <ele>1939</ele>
        <time>2019-03-20T10:49:50Z</time>
      </trkpt>
      <trkpt lat="42.88104" lon="0.13301">
        <ele>1939</ele>
        <time>2019-03-20T10:49:53Z</time>
      </trkpt>
      <trkpt lat="42.88104" lon="0.13304">
        <ele>1939</ele>
        <time>2019-03-20T10:49:55Z</time>
      </trkpt>
      <trkpt lat="42.88104" lon="0.13307">
        <ele>1939</ele>
        <time>2019-03-20T10:49:57Z</time>
      </trkpt>
      <trkpt lat="42.88104" lon="0.13311">
        <ele>1939</ele>
        <time>2019-03-20T10:49:59Z</time>
      </trkpt>
      <trkpt lat="42.88104" lon="0.13314">
        <ele>1939</ele>
        <time>2019-03-20T10:50:02Z</time>
      </trkpt>
      <trkpt lat="42.88104" lon="0.1332">
        <ele>1940</ele>
        <time>2019-03-20T10:50:08Z</time>
      </trkpt>
      <trkpt lat="42.88104" lon="0.13322">
        <ele>1940</ele>
        <time>2019-03-20T10:50:11Z</time>
      </trkpt>
      <trkpt lat="42.88103" lon="0.13326">
        <ele>1940</ele>
        <time>2019-03-20T10:50:14Z</time>
      </trkpt>
      <trkpt lat="42.88103" lon="0.13328">
        <ele>1940</ele>
        <time>2019-03-20T10:50:16Z</time>
      </trkpt>
      <trkpt lat="42.881" lon="0.13347">
        <ele>1941</ele>
        <time>2019-03-20T10:50:32Z</time>
      </trkpt>
      <trkpt lat="42.88099" lon="0.1335">
        <ele>1941</ele>
        <time>2019-03-20T10:50:35Z</time>
      </trkpt>
      <trkpt lat="42.88098" lon="0.13352">
        <ele>1941</ele>
        <time>2019-03-20T10:50:38Z</time>
      </trkpt>
      <trkpt lat="42.88098" lon="0.13355">
        <ele>1941</ele>
        <time>2019-03-20T10:50:40Z</time>
      </trkpt>
      <trkpt lat="42.88097" lon="0.13358">
        <ele>1941</ele>
        <time>2019-03-20T10:50:42Z</time>
      </trkpt>
      <trkpt lat="42.88096" lon="0.13369">
        <ele>1942</ele>
        <time>2019-03-20T10:50:50Z</time>
      </trkpt>
      <trkpt lat="42.88095" lon="0.13371">
        <ele>1942</ele>
        <time>2019-03-20T10:50:52Z</time>
      </trkpt>
      <trkpt lat="42.88095" lon="0.13376">
        <ele>1942</ele>
        <time>2019-03-20T10:50:55Z</time>
      </trkpt>
      <trkpt lat="42.88094" lon="0.13378">
        <ele>1942</ele>
        <time>2019-03-20T10:50:57Z</time>
      </trkpt>
      <trkpt lat="42.88094" lon="0.13384">
        <ele>1942</ele>
        <time>2019-03-20T10:51:03Z</time>
      </trkpt>
      <trkpt lat="42.88094" lon="0.13387">
        <ele>1942</ele>
        <time>2019-03-20T10:51:05Z</time>
      </trkpt>
      <trkpt lat="42.88094" lon="0.1339">
        <ele>1942</ele>
        <time>2019-03-20T10:51:08Z</time>
      </trkpt>
      <trkpt lat="42.88094" lon="0.13393">
        <ele>1943</ele>
        <time>2019-03-20T10:51:11Z</time>
      </trkpt>
      <trkpt lat="42.88094" lon="0.13399">
        <ele>1943</ele>
        <time>2019-03-20T10:51:17Z</time>
      </trkpt>
      <trkpt lat="42.88094" lon="0.13403">
        <ele>1943</ele>
        <time>2019-03-20T10:51:20Z</time>
      </trkpt>
      <trkpt lat="42.88094" lon="0.13406">
        <ele>1943</ele>
        <time>2019-03-20T10:51:22Z</time>
      </trkpt>
      <trkpt lat="42.88094" lon="0.13408">
        <ele>1943</ele>
        <time>2019-03-20T10:51:25Z</time>
      </trkpt>
      <trkpt lat="42.88094" lon="0.13411">
        <ele>1943</ele>
        <time>2019-03-20T10:51:28Z</time>
      </trkpt>
      <trkpt lat="42.88093" lon="0.13414">
        <ele>1943</ele>
        <time>2019-03-20T10:51:30Z</time>
      </trkpt>
      <trkpt lat="42.88093" lon="0.13417">
        <ele>1944</ele>
        <time>2019-03-20T10:51:32Z</time>
      </trkpt>
      <trkpt lat="42.88092" lon="0.1343">
        <ele>1944</ele>
        <time>2019-03-20T10:51:44Z</time>
      </trkpt>
      <trkpt lat="42.88092" lon="0.13433">
        <ele>1944</ele>
        <time>2019-03-20T10:51:48Z</time>
      </trkpt>
      <trkpt lat="42.88091" lon="0.13436">
        <ele>1945</ele>
        <time>2019-03-20T10:51:53Z</time>
      </trkpt>
      <trkpt lat="42.88089" lon="0.13444">
        <ele>1945</ele>
        <time>2019-03-20T10:52:08Z</time>
      </trkpt>
      <trkpt lat="42.88086" lon="0.13449">
        <ele>1946</ele>
        <time>2019-03-20T10:52:17Z</time>
      </trkpt>
      <trkpt lat="42.88085" lon="0.13452">
        <ele>1946</ele>
        <time>2019-03-20T10:52:21Z</time>
      </trkpt>
      <trkpt lat="42.88083" lon="0.13453">
        <ele>1946</ele>
        <time>2019-03-20T10:52:23Z</time>
      </trkpt>
      <trkpt lat="42.88083" lon="0.1346">
        <ele>1946</ele>
        <time>2019-03-20T10:52:28Z</time>
      </trkpt>
      <trkpt lat="42.88083" lon="0.13462">
        <ele>1946</ele>
        <time>2019-03-20T10:52:30Z</time>
      </trkpt>
      <trkpt lat="42.88083" lon="0.13466">
        <ele>1947</ele>
        <time>2019-03-20T10:52:35Z</time>
      </trkpt>
      <trkpt lat="42.88085" lon="0.13468">
        <ele>1947</ele>
        <time>2019-03-20T10:52:39Z</time>
      </trkpt>
      <trkpt lat="42.88085" lon="0.13472">
        <ele>1947</ele>
        <time>2019-03-20T10:52:41Z</time>
      </trkpt>
      <trkpt lat="42.88088" lon="0.13492">
        <ele>1948</ele>
        <time>2019-03-20T10:53:00Z</time>
      </trkpt>
      <trkpt lat="42.88088" lon="0.13495">
        <ele>1948</ele>
        <time>2019-03-20T10:53:03Z</time>
      </trkpt>
      <trkpt lat="42.88085" lon="0.13502">
        <ele>1948</ele>
        <time>2019-03-20T10:53:11Z</time>
      </trkpt>
      <trkpt lat="42.88083" lon="0.13508">
        <ele>1949</ele>
        <time>2019-03-20T10:53:18Z</time>
      </trkpt>
      <trkpt lat="42.88083" lon="0.1351">
        <ele>1949</ele>
        <time>2019-03-20T10:53:22Z</time>
      </trkpt>
      <trkpt lat="42.88083" lon="0.13513">
        <ele>1949</ele>
        <time>2019-03-20T10:53:26Z</time>
      </trkpt>
      <trkpt lat="42.88081" lon="0.13521">
        <ele>1950</ele>
        <time>2019-03-20T10:53:37Z</time>
      </trkpt>
      <trkpt lat="42.88081" lon="0.13525">
        <ele>1950</ele>
        <time>2019-03-20T10:54:29Z</time>
      </trkpt>
      <trkpt lat="42.88076" lon="0.1353">
        <ele>1951</ele>
        <time>2019-03-20T10:54:40Z</time>
      </trkpt>
      <trkpt lat="42.88073" lon="0.13532">
        <ele>1951</ele>
        <time>2019-03-20T10:54:43Z</time>
      </trkpt>
      <trkpt lat="42.88069" lon="0.13535">
        <ele>1953</ele>
        <time>2019-03-20T10:55:46Z</time>
      </trkpt>
      <trkpt lat="42.88068" lon="0.13533">
        <ele>1953</ele>
        <time>2019-03-20T10:56:18Z</time>
      </trkpt>
      <trkpt lat="42.88067" lon="0.13536">
        <ele>1954</ele>
        <time>2019-03-20T10:56:37Z</time>
      </trkpt>
      <trkpt lat="42.88063" lon="0.13543">
        <ele>1956</ele>
        <time>2019-03-20T10:56:58Z</time>
      </trkpt>
      <trkpt lat="42.88061" lon="0.13559">
        <ele>1958</ele>
        <time>2019-03-20T10:57:13Z</time>
      </trkpt>
      <trkpt lat="42.88061" lon="0.13562">
        <ele>1958</ele>
        <time>2019-03-20T10:57:17Z</time>
      </trkpt>
      <trkpt lat="42.8806" lon="0.13564">
        <ele>1959</ele>
        <time>2019-03-20T10:57:20Z</time>
      </trkpt>
      <trkpt lat="42.8806" lon="0.13567">
        <ele>1959</ele>
        <time>2019-03-20T10:57:26Z</time>
      </trkpt>
      <trkpt lat="42.8806" lon="0.1357">
        <ele>1960</ele>
        <time>2019-03-20T10:57:29Z</time>
      </trkpt>
      <trkpt lat="42.88055" lon="0.13584">
        <ele>1962</ele>
        <time>2019-03-20T10:58:04Z</time>
      </trkpt>
      <trkpt lat="42.88054" lon="0.13586">
        <ele>1963</ele>
        <time>2019-03-20T10:58:10Z</time>
      </trkpt>
      <trkpt lat="42.88053" lon="0.13589">
        <ele>1963</ele>
        <time>2019-03-20T10:58:16Z</time>
      </trkpt>
      <trkpt lat="42.88052" lon="0.13592">
        <ele>1963</ele>
        <time>2019-03-20T10:58:21Z</time>
      </trkpt>
      <trkpt lat="42.88049" lon="0.13602">
        <ele>1965</ele>
        <time>2019-03-20T10:58:44Z</time>
      </trkpt>
      <trkpt lat="42.88048" lon="0.13604">
        <ele>1965</ele>
        <time>2019-03-20T10:58:47Z</time>
      </trkpt>
      <trkpt lat="42.88044" lon="0.13611">
        <ele>1966</ele>
        <time>2019-03-20T10:59:00Z</time>
      </trkpt>
      <trkpt lat="42.88043" lon="0.13614">
        <ele>1966</ele>
        <time>2019-03-20T10:59:05Z</time>
      </trkpt>
      <trkpt lat="42.88043" lon="0.13616">
        <ele>1966</ele>
        <time>2019-03-20T10:59:12Z</time>
      </trkpt>
      <trkpt lat="42.88042" lon="0.13619">
        <ele>1967</ele>
        <time>2019-03-20T10:59:17Z</time>
      </trkpt>
      <trkpt lat="42.88041" lon="0.13622">
        <ele>1967</ele>
        <time>2019-03-20T10:59:24Z</time>
      </trkpt>
      <trkpt lat="42.8804" lon="0.13623">
        <ele>1968</ele>
        <time>2019-03-20T10:59:43Z</time>
      </trkpt>
      <trkpt lat="42.88038" lon="0.13623">
        <ele>1968</ele>
        <time>2019-03-20T10:59:58Z</time>
      </trkpt>
      <trkpt lat="42.88036" lon="0.13624">
        <ele>1968</ele>
        <time>2019-03-20T11:00:01Z</time>
      </trkpt>
      <trkpt lat="42.88034" lon="0.13626">
        <ele>1969</ele>
        <time>2019-03-20T11:00:03Z</time>
      </trkpt>
      <trkpt lat="42.88031" lon="0.13638">
        <ele>1970</ele>
        <time>2019-03-20T11:00:14Z</time>
      </trkpt>
      <trkpt lat="42.88026" lon="0.13652">
        <ele>1972</ele>
        <time>2019-03-20T11:00:38Z</time>
      </trkpt>
      <trkpt lat="42.88024" lon="0.13654">
        <ele>1972</ele>
        <time>2019-03-20T11:00:41Z</time>
      </trkpt>
      <trkpt lat="42.88023" lon="0.13655">
        <ele>1972</ele>
        <time>2019-03-20T11:00:45Z</time>
      </trkpt>
      <trkpt lat="42.88021" lon="0.13665">
        <ele>1973</ele>
        <time>2019-03-20T11:00:55Z</time>
      </trkpt>
      <trkpt lat="42.8802" lon="0.13669">
        <ele>1973</ele>
        <time>2019-03-20T11:01:00Z</time>
      </trkpt>
      <trkpt lat="42.88019" lon="0.13682">
        <ele>1975</ele>
        <time>2019-03-20T11:01:14Z</time>
      </trkpt>
      <trkpt lat="42.88019" lon="0.13686">
        <ele>1975</ele>
        <time>2019-03-20T11:01:19Z</time>
      </trkpt>
      <trkpt lat="42.88019" lon="0.1369">
        <ele>1975</ele>
        <time>2019-03-20T11:01:24Z</time>
      </trkpt>
      <trkpt lat="42.8802" lon="0.13694">
        <ele>1976</ele>
        <time>2019-03-20T11:01:29Z</time>
      </trkpt>
      <trkpt lat="42.88023" lon="0.13707">
        <ele>1977</ele>
        <time>2019-03-20T11:01:44Z</time>
      </trkpt>
      <trkpt lat="42.88025" lon="0.13708">
        <ele>1978</ele>
        <time>2019-03-20T11:01:54Z</time>
      </trkpt>
      <trkpt lat="42.88026" lon="0.13712">
        <ele>1979</ele>
        <time>2019-03-20T11:02:00Z</time>
      </trkpt>
      <trkpt lat="42.88025" lon="0.13716">
        <ele>1980</ele>
        <time>2019-03-20T11:02:12Z</time>
      </trkpt>
      <trkpt lat="42.88026" lon="0.13719">
        <ele>1980</ele>
        <time>2019-03-20T11:02:21Z</time>
      </trkpt>
      <trkpt lat="42.88023" lon="0.13728">
        <ele>1982</ele>
        <time>2019-03-20T11:02:43Z</time>
      </trkpt>
      <trkpt lat="42.88022" lon="0.13732">
        <ele>1983</ele>
        <time>2019-03-20T11:02:49Z</time>
      </trkpt>
      <trkpt lat="42.88022" lon="0.13736">
        <ele>1983</ele>
        <time>2019-03-20T11:02:55Z</time>
      </trkpt>
      <trkpt lat="42.88021" lon="0.1374">
        <ele>1984</ele>
        <time>2019-03-20T11:02:58Z</time>
      </trkpt>
      <trkpt lat="42.88019" lon="0.13744">
        <ele>1985</ele>
        <time>2019-03-20T11:03:05Z</time>
      </trkpt>
      <trkpt lat="42.88018" lon="0.13747">
        <ele>1986</ele>
        <time>2019-03-20T11:03:08Z</time>
      </trkpt>
      <trkpt lat="42.88017" lon="0.13749">
        <ele>1987</ele>
        <time>2019-03-20T11:03:16Z</time>
      </trkpt>
      <trkpt lat="42.88016" lon="0.13752">
        <ele>1988</ele>
        <time>2019-03-20T11:03:18Z</time>
      </trkpt>
      <trkpt lat="42.88015" lon="0.13754">
        <ele>1989</ele>
        <time>2019-03-20T11:03:21Z</time>
      </trkpt>
      <trkpt lat="42.88014" lon="0.13756">
        <ele>1989</ele>
        <time>2019-03-20T11:03:26Z</time>
      </trkpt>
      <trkpt lat="42.88013" lon="0.13766">
        <ele>1992</ele>
        <time>2019-03-20T11:03:36Z</time>
      </trkpt>
      <trkpt lat="42.88013" lon="0.13768">
        <ele>1993</ele>
        <time>2019-03-20T11:03:43Z</time>
      </trkpt>
      <trkpt lat="42.88012" lon="0.13771">
        <ele>1994</ele>
        <time>2019-03-20T11:03:48Z</time>
      </trkpt>
      <trkpt lat="42.88012" lon="0.13774">
        <ele>1995</ele>
        <time>2019-03-20T11:03:53Z</time>
      </trkpt>
      <trkpt lat="42.8801" lon="0.13783">
        <ele>1999</ele>
        <time>2019-03-20T11:04:08Z</time>
      </trkpt>
      <trkpt lat="42.88007" lon="0.13791">
        <ele>2002</ele>
        <time>2019-03-20T11:04:21Z</time>
      </trkpt>
      <trkpt lat="42.88006" lon="0.13794">
        <ele>2003</ele>
        <time>2019-03-20T11:04:24Z</time>
      </trkpt>
      <trkpt lat="42.88004" lon="0.13795">
        <ele>2003</ele>
        <time>2019-03-20T11:04:27Z</time>
      </trkpt>
      <trkpt lat="42.88003" lon="0.13797">
        <ele>2004</ele>
        <time>2019-03-20T11:04:33Z</time>
      </trkpt>
      <trkpt lat="42.88001" lon="0.13802">
        <ele>2006</ele>
        <time>2019-03-20T11:04:38Z</time>
      </trkpt>
      <trkpt lat="42.87999" lon="0.13807">
        <ele>2007</ele>
        <time>2019-03-20T11:04:46Z</time>
      </trkpt>
      <trkpt lat="42.87999" lon="0.1381">
        <ele>2007</ele>
        <time>2019-03-20T11:04:49Z</time>
      </trkpt>
      <trkpt lat="42.87999" lon="0.13813">
        <ele>2008</ele>
        <time>2019-03-20T11:04:52Z</time>
      </trkpt>
      <trkpt lat="42.87999" lon="0.13815">
        <ele>2008</ele>
        <time>2019-03-20T11:04:56Z</time>
      </trkpt>
      <trkpt lat="42.88" lon="0.13818">
        <ele>2009</ele>
        <time>2019-03-20T11:04:59Z</time>
      </trkpt>
      <trkpt lat="42.88002" lon="0.13822">
        <ele>2011</ele>
        <time>2019-03-20T11:05:10Z</time>
      </trkpt>
      <trkpt lat="42.88003" lon="0.13824">
        <ele>2011</ele>
        <time>2019-03-20T11:05:13Z</time>
      </trkpt>
      <trkpt lat="42.88004" lon="0.13827">
        <ele>2012</ele>
        <time>2019-03-20T11:05:18Z</time>
      </trkpt>
      <trkpt lat="42.88005" lon="0.13829">
        <ele>2013</ele>
        <time>2019-03-20T11:05:23Z</time>
      </trkpt>
      <trkpt lat="42.88006" lon="0.13831">
        <ele>2014</ele>
        <time>2019-03-20T11:05:29Z</time>
      </trkpt>
      <trkpt lat="42.88007" lon="0.13833">
        <ele>2014</ele>
        <time>2019-03-20T11:05:35Z</time>
      </trkpt>
      <trkpt lat="42.88008" lon="0.13835">
        <ele>2016</ele>
        <time>2019-03-20T11:05:43Z</time>
      </trkpt>
      <trkpt lat="42.88008" lon="0.13839">
        <ele>2017</ele>
        <time>2019-03-20T11:05:49Z</time>
      </trkpt>
      <trkpt lat="42.88009" lon="0.13841">
        <ele>2017</ele>
        <time>2019-03-20T11:05:52Z</time>
      </trkpt>
      <trkpt lat="42.88013" lon="0.13852">
        <ele>2019</ele>
        <time>2019-03-20T11:06:09Z</time>
      </trkpt>
      <trkpt lat="42.88014" lon="0.13854">
        <ele>2020</ele>
        <time>2019-03-20T11:06:14Z</time>
      </trkpt>
      <trkpt lat="42.88014" lon="0.13858">
        <ele>2021</ele>
        <time>2019-03-20T11:06:19Z</time>
      </trkpt>
      <trkpt lat="42.88014" lon="0.1386">
        <ele>2021</ele>
        <time>2019-03-20T11:06:24Z</time>
      </trkpt>
      <trkpt lat="42.88015" lon="0.13863">
        <ele>2022</ele>
        <time>2019-03-20T11:06:30Z</time>
      </trkpt>
      <trkpt lat="42.88013" lon="0.13865">
        <ele>2022</ele>
        <time>2019-03-20T11:06:33Z</time>
      </trkpt>
      <trkpt lat="42.88011" lon="0.13866">
        <ele>2023</ele>
        <time>2019-03-20T11:06:36Z</time>
      </trkpt>
      <trkpt lat="42.8801" lon="0.13867">
        <ele>2023</ele>
        <time>2019-03-20T11:06:41Z</time>
      </trkpt>
      <trkpt lat="42.88009" lon="0.1387">
        <ele>2024</ele>
        <time>2019-03-20T11:06:44Z</time>
      </trkpt>
      <trkpt lat="42.88008" lon="0.13872">
        <ele>2024</ele>
        <time>2019-03-20T11:06:49Z</time>
      </trkpt>
      <trkpt lat="42.88008" lon="0.13875">
        <ele>2025</ele>
        <time>2019-03-20T11:06:53Z</time>
      </trkpt>
      <trkpt lat="42.88009" lon="0.13878">
        <ele>2025</ele>
        <time>2019-03-20T11:06:58Z</time>
      </trkpt>
      <trkpt lat="42.8801" lon="0.13883">
        <ele>2026</ele>
        <time>2019-03-20T11:07:04Z</time>
      </trkpt>
      <trkpt lat="42.88009" lon="0.13886">
        <ele>2027</ele>
        <time>2019-03-20T11:07:11Z</time>
      </trkpt>
      <trkpt lat="42.88008" lon="0.13896">
        <ele>2028</ele>
        <time>2019-03-20T11:07:20Z</time>
      </trkpt>
      <trkpt lat="42.88009" lon="0.13898">
        <ele>2028</ele>
        <time>2019-03-20T11:07:24Z</time>
      </trkpt>
      <trkpt lat="42.88011" lon="0.139">
        <ele>2028</ele>
        <time>2019-03-20T11:07:27Z</time>
      </trkpt>
      <trkpt lat="42.88012" lon="0.13907">
        <ele>2029</ele>
        <time>2019-03-20T11:07:35Z</time>
      </trkpt>
      <trkpt lat="42.88012" lon="0.13909">
        <ele>2029</ele>
        <time>2019-03-20T11:07:39Z</time>
      </trkpt>
      <trkpt lat="42.88011" lon="0.13914">
        <ele>2030</ele>
        <time>2019-03-20T11:07:45Z</time>
      </trkpt>
      <trkpt lat="42.88009" lon="0.1392">
        <ele>2031</ele>
        <time>2019-03-20T11:07:52Z</time>
      </trkpt>
      <trkpt lat="42.88008" lon="0.13922">
        <ele>2031</ele>
        <time>2019-03-20T11:07:55Z</time>
      </trkpt>
      <trkpt lat="42.88006" lon="0.13923">
        <ele>2031</ele>
        <time>2019-03-20T11:07:59Z</time>
      </trkpt>
      <trkpt lat="42.88004" lon="0.13925">
        <ele>2032</ele>
        <time>2019-03-20T11:08:03Z</time>
      </trkpt>
      <trkpt lat="42.88003" lon="0.13927">
        <ele>2032</ele>
        <time>2019-03-20T11:08:07Z</time>
      </trkpt>
      <trkpt lat="42.88001" lon="0.1393">
        <ele>2032</ele>
        <time>2019-03-20T11:08:10Z</time>
      </trkpt>
      <trkpt lat="42.88001" lon="0.13932">
        <ele>2033</ele>
        <time>2019-03-20T11:08:14Z</time>
      </trkpt>
      <trkpt lat="42.88001" lon="0.13941">
        <ele>2034</ele>
        <time>2019-03-20T11:08:29Z</time>
      </trkpt>
      <trkpt lat="42.88002" lon="0.13944">
        <ele>2034</ele>
        <time>2019-03-20T11:08:33Z</time>
      </trkpt>
      <trkpt lat="42.88002" lon="0.13952">
        <ele>2035</ele>
        <time>2019-03-20T11:08:42Z</time>
      </trkpt>
      <trkpt lat="42.88002" lon="0.13958">
        <ele>2036</ele>
        <time>2019-03-20T11:08:49Z</time>
      </trkpt>
      <trkpt lat="42.88" lon="0.13959">
        <ele>2036</ele>
        <time>2019-03-20T11:08:56Z</time>
      </trkpt>
      <trkpt lat="42.87999" lon="0.13961">
        <ele>2037</ele>
        <time>2019-03-20T11:08:59Z</time>
      </trkpt>
      <trkpt lat="42.87997" lon="0.13962">
        <ele>2037</ele>
        <time>2019-03-20T11:09:02Z</time>
      </trkpt>
      <trkpt lat="42.87995" lon="0.13964">
        <ele>2037</ele>
        <time>2019-03-20T11:09:05Z</time>
      </trkpt>
      <trkpt lat="42.87995" lon="0.13967">
        <ele>2038</ele>
        <time>2019-03-20T11:09:08Z</time>
      </trkpt>
      <trkpt lat="42.87993" lon="0.1397">
        <ele>2038</ele>
        <time>2019-03-20T11:09:13Z</time>
      </trkpt>
      <trkpt lat="42.87992" lon="0.1397">
        <ele>2038</ele>
        <time>2019-03-20T11:09:17Z</time>
      </trkpt>
      <trkpt lat="42.8799" lon="0.13972">
        <ele>2039</ele>
        <time>2019-03-20T11:09:28Z</time>
      </trkpt>
      <trkpt lat="42.87989" lon="0.13975">
        <ele>2039</ele>
        <time>2019-03-20T11:09:29Z</time>
      </trkpt>
      <trkpt lat="42.87988" lon="0.13979">
        <ele>2040</ele>
        <time>2019-03-20T11:09:31Z</time>
      </trkpt>
      <trkpt lat="42.87985" lon="0.13985">
        <ele>2041</ele>
        <time>2019-03-20T11:09:43Z</time>
      </trkpt>
      <trkpt lat="42.87983" lon="0.13986">
        <ele>2041</ele>
        <time>2019-03-20T11:09:47Z</time>
      </trkpt>
      <trkpt lat="42.8798" lon="0.13988">
        <ele>2041</ele>
        <time>2019-03-20T11:09:52Z</time>
      </trkpt>
      <trkpt lat="42.87979" lon="0.1399">
        <ele>2042</ele>
        <time>2019-03-20T11:09:58Z</time>
      </trkpt>
      <trkpt lat="42.87978" lon="0.13996">
        <ele>2043</ele>
        <time>2019-03-20T11:10:04Z</time>
      </trkpt>
      <trkpt lat="42.87978" lon="0.13999">
        <ele>2043</ele>
        <time>2019-03-20T11:10:10Z</time>
      </trkpt>
      <trkpt lat="42.87979" lon="0.14002">
        <ele>2043</ele>
        <time>2019-03-20T11:10:14Z</time>
      </trkpt>
      <trkpt lat="42.87983" lon="0.14006">
        <ele>2044</ele>
        <time>2019-03-20T11:10:23Z</time>
      </trkpt>
      <trkpt lat="42.87988" lon="0.14011">
        <ele>2045</ele>
        <time>2019-03-20T11:10:32Z</time>
      </trkpt>
      <trkpt lat="42.87989" lon="0.14013">
        <ele>2045</ele>
        <time>2019-03-20T11:10:35Z</time>
      </trkpt>
      <trkpt lat="42.8799" lon="0.14016">
        <ele>2046</ele>
        <time>2019-03-20T11:10:38Z</time>
      </trkpt>
      <trkpt lat="42.8799" lon="0.14018">
        <ele>2046</ele>
        <time>2019-03-20T11:10:41Z</time>
      </trkpt>
      <trkpt lat="42.87989" lon="0.14021">
        <ele>2046</ele>
        <time>2019-03-20T11:10:45Z</time>
      </trkpt>
      <trkpt lat="42.87989" lon="0.14024">
        <ele>2046</ele>
        <time>2019-03-20T11:10:48Z</time>
      </trkpt>
      <trkpt lat="42.87988" lon="0.14027">
        <ele>2047</ele>
        <time>2019-03-20T11:10:51Z</time>
      </trkpt>
      <trkpt lat="42.87987" lon="0.1403">
        <ele>2047</ele>
        <time>2019-03-20T11:11:00Z</time>
      </trkpt>
      <trkpt lat="42.87989" lon="0.14036">
        <ele>2049</ele>
        <time>2019-03-20T11:11:32Z</time>
      </trkpt>
      <trkpt lat="42.8799" lon="0.14038">
        <ele>2050</ele>
        <time>2019-03-20T11:11:46Z</time>
      </trkpt>
      <trkpt lat="42.8799" lon="0.14039">
        <ele>2051</ele>
        <time>2019-03-20T11:12:51Z</time>
      </trkpt>
      <trkpt lat="42.87989" lon="0.1404">
        <ele>2054</ele>
        <time>2019-03-20T11:14:35Z</time>
      </trkpt>
      <trkpt lat="42.87987" lon="0.14043">
        <ele>2056</ele>
        <time>2019-03-20T11:15:13Z</time>
      </trkpt>
      <trkpt lat="42.87985" lon="0.14049">
        <ele>2058</ele>
        <time>2019-03-20T11:18:26Z</time>
      </trkpt>
      <trkpt lat="42.87983" lon="0.14053">
        <ele>2059</ele>
        <time>2019-03-20T11:18:30Z</time>
      </trkpt>
      <trkpt lat="42.87978" lon="0.14069">
        <ele>2060</ele>
        <time>2019-03-20T11:18:46Z</time>
      </trkpt>
      <trkpt lat="42.87977" lon="0.14082">
        <ele>2060</ele>
        <time>2019-03-20T11:18:59Z</time>
      </trkpt>
      <trkpt lat="42.87977" lon="0.14085">
        <ele>2060</ele>
        <time>2019-03-20T11:19:03Z</time>
      </trkpt>
      <trkpt lat="42.87977" lon="0.14093">
        <ele>2061</ele>
        <time>2019-03-20T11:19:13Z</time>
      </trkpt>
      <trkpt lat="42.87977" lon="0.14105">
        <ele>2061</ele>
        <time>2019-03-20T11:19:23Z</time>
      </trkpt>
      <trkpt lat="42.87977" lon="0.14112">
        <ele>2061</ele>
        <time>2019-03-20T11:19:29Z</time>
      </trkpt>
      <trkpt lat="42.87977" lon="0.14116">
        <ele>2061</ele>
        <time>2019-03-20T11:19:32Z</time>
      </trkpt>
      <trkpt lat="42.87977" lon="0.14122">
        <ele>2061</ele>
        <time>2019-03-20T11:19:38Z</time>
      </trkpt>
      <trkpt lat="42.87976" lon="0.14125">
        <ele>2061</ele>
        <time>2019-03-20T11:19:42Z</time>
      </trkpt>
      <trkpt lat="42.87979" lon="0.14128">
        <ele>2062</ele>
        <time>2019-03-20T11:20:55Z</time>
      </trkpt>
      <trkpt lat="42.8798" lon="0.14134">
        <ele>2062</ele>
        <time>2019-03-20T11:21:13Z</time>
      </trkpt>
      <trkpt lat="42.87981" lon="0.1415">
        <ele>2063</ele>
        <time>2019-03-20T11:21:27Z</time>
      </trkpt>
      <trkpt lat="42.87983" lon="0.14154">
        <ele>2063</ele>
        <time>2019-03-20T11:21:33Z</time>
      </trkpt>
      <trkpt lat="42.87982" lon="0.14171">
        <ele>2064</ele>
        <time>2019-03-20T11:21:47Z</time>
      </trkpt>
      <trkpt lat="42.87984" lon="0.14187">
        <ele>2064</ele>
        <time>2019-03-20T11:22:50Z</time>
      </trkpt>
      <trkpt lat="42.87984" lon="0.14192">
        <ele>2065</ele>
        <time>2019-03-20T11:25:06Z</time>
      </trkpt>
      <trkpt lat="42.87987" lon="0.14196">
        <ele>2067</ele>
        <time>2019-03-20T11:25:44Z</time>
      </trkpt>
      <trkpt lat="42.87985" lon="0.14205">
        <ele>2067</ele>
        <time>2019-03-20T11:25:56Z</time>
      </trkpt>
      <trkpt lat="42.87977" lon="0.142">
        <ele>2069</ele>
        <time>2019-03-20T11:26:08Z</time>
      </trkpt>
      <trkpt lat="42.87972" lon="0.14202">
        <ele>2069</ele>
        <time>2019-03-20T11:26:14Z</time>
      </trkpt>
      <trkpt lat="42.87963" lon="0.1422">
        <ele>2070</ele>
        <time>2019-03-20T11:26:29Z</time>
      </trkpt>
      <trkpt lat="42.8796" lon="0.14223">
        <ele>2070</ele>
        <time>2019-03-20T11:26:34Z</time>
      </trkpt>
      <trkpt lat="42.87959" lon="0.14234">
        <ele>2071</ele>
        <time>2019-03-20T11:26:43Z</time>
      </trkpt>
      <trkpt lat="42.8796" lon="0.14232">
        <ele>2071</ele>
        <time>2019-03-20T11:27:19Z</time>
      </trkpt>
      <trkpt lat="42.87964" lon="0.14229">
        <ele>2072</ele>
        <time>2019-03-20T11:29:50Z</time>
      </trkpt>
      <trkpt lat="42.87965" lon="0.14234">
        <ele>2073</ele>
        <time>2019-03-20T11:31:11Z</time>
      </trkpt>
      <trkpt lat="42.87964" lon="0.14239">
        <ele>2075</ele>
        <time>2019-03-20T11:31:16Z</time>
      </trkpt>
      <trkpt lat="42.87962" lon="0.14261">
        <ele>2077</ele>
        <time>2019-03-20T11:31:30Z</time>
      </trkpt>
      <trkpt lat="42.8796" lon="0.14273">
        <ele>2077</ele>
        <time>2019-03-20T11:31:39Z</time>
      </trkpt>
      <trkpt lat="42.87951" lon="0.14291">
        <ele>2078</ele>
        <time>2019-03-20T11:31:59Z</time>
      </trkpt>
      <trkpt lat="42.8795" lon="0.14296">
        <ele>2078</ele>
        <time>2019-03-20T11:32:03Z</time>
      </trkpt>
      <trkpt lat="42.8795" lon="0.14301">
        <ele>2078</ele>
        <time>2019-03-20T11:32:12Z</time>
      </trkpt>
      <trkpt lat="42.87952" lon="0.14305">
        <ele>2078</ele>
        <time>2019-03-20T11:32:18Z</time>
      </trkpt>
      <trkpt lat="42.87956" lon="0.14305">
        <ele>2079</ele>
        <time>2019-03-20T11:32:23Z</time>
      </trkpt>
      <trkpt lat="42.87958" lon="0.14309">
        <ele>2079</ele>
        <time>2019-03-20T11:32:27Z</time>
      </trkpt>
      <trkpt lat="42.87959" lon="0.14314">
        <ele>2079</ele>
        <time>2019-03-20T11:32:33Z</time>
      </trkpt>
      <trkpt lat="42.87958" lon="0.14318">
        <ele>2079</ele>
        <time>2019-03-20T11:32:36Z</time>
      </trkpt>
      <trkpt lat="42.87956" lon="0.14321">
        <ele>2080</ele>
        <time>2019-03-20T11:32:38Z</time>
      </trkpt>
      <trkpt lat="42.87952" lon="0.14327">
        <ele>2080</ele>
        <time>2019-03-20T11:32:44Z</time>
      </trkpt>
      <trkpt lat="42.87947" lon="0.14335">
        <ele>2081</ele>
        <time>2019-03-20T11:32:57Z</time>
      </trkpt>
      <trkpt lat="42.87946" lon="0.14338">
        <ele>2082</ele>
        <time>2019-03-20T11:34:05Z</time>
      </trkpt>
      <trkpt lat="42.87948" lon="0.14343">
        <ele>2083</ele>
        <time>2019-03-20T11:34:38Z</time>
      </trkpt>
      <trkpt lat="42.87948" lon="0.14349">
        <ele>2084</ele>
        <time>2019-03-20T11:34:42Z</time>
      </trkpt>
      <trkpt lat="42.87946" lon="0.14366">
        <ele>2086</ele>
        <time>2019-03-20T11:34:53Z</time>
      </trkpt>
      <trkpt lat="42.87941" lon="0.14375">
        <ele>2086</ele>
        <time>2019-03-20T11:34:59Z</time>
      </trkpt>
      <trkpt lat="42.8794" lon="0.14381">
        <ele>2086</ele>
        <time>2019-03-20T11:35:04Z</time>
      </trkpt>
      <trkpt lat="42.87939" lon="0.14386">
        <ele>2087</ele>
        <time>2019-03-20T11:35:06Z</time>
      </trkpt>
      <trkpt lat="42.87935" lon="0.1439">
        <ele>2087</ele>
        <time>2019-03-20T11:35:08Z</time>
      </trkpt>
      <trkpt lat="42.87931" lon="0.14393">
        <ele>2087</ele>
        <time>2019-03-20T11:35:11Z</time>
      </trkpt>
      <trkpt lat="42.87928" lon="0.14395">
        <ele>2087</ele>
        <time>2019-03-20T11:35:13Z</time>
      </trkpt>
      <trkpt lat="42.87923" lon="0.14396">
        <ele>2087</ele>
        <time>2019-03-20T11:35:15Z</time>
      </trkpt>
      <trkpt lat="42.87916" lon="0.14402">
        <ele>2088</ele>
        <time>2019-03-20T11:35:19Z</time>
      </trkpt>
      <trkpt lat="42.87911" lon="0.14404">
        <ele>2088</ele>
        <time>2019-03-20T11:35:21Z</time>
      </trkpt>
      <trkpt lat="42.87905" lon="0.14411">
        <ele>2088</ele>
        <time>2019-03-20T11:35:27Z</time>
      </trkpt>
      <trkpt lat="42.87899" lon="0.1442">
        <ele>2088</ele>
        <time>2019-03-20T11:35:34Z</time>
      </trkpt>
      <trkpt lat="42.87898" lon="0.14425">
        <ele>2089</ele>
        <time>2019-03-20T11:35:38Z</time>
      </trkpt>
      <trkpt lat="42.87896" lon="0.14431">
        <ele>2089</ele>
        <time>2019-03-20T11:35:42Z</time>
      </trkpt>
      <trkpt lat="42.87892" lon="0.14441">
        <ele>2089</ele>
        <time>2019-03-20T11:35:52Z</time>
      </trkpt>
      <trkpt lat="42.87889" lon="0.1445">
        <ele>2090</ele>
        <time>2019-03-20T11:36:06Z</time>
      </trkpt>
      <trkpt lat="42.87886" lon="0.14455">
        <ele>2090</ele>
        <time>2019-03-20T11:36:11Z</time>
      </trkpt>
      <trkpt lat="42.87883" lon="0.14459">
        <ele>2090</ele>
        <time>2019-03-20T11:36:14Z</time>
      </trkpt>
      <trkpt lat="42.87879" lon="0.14461">
        <ele>2090</ele>
        <time>2019-03-20T11:36:38Z</time>
      </trkpt>
      <trkpt lat="42.87876" lon="0.14466">
        <ele>2091</ele>
        <time>2019-03-20T11:36:41Z</time>
      </trkpt>
      <trkpt lat="42.87872" lon="0.14475">
        <ele>2091</ele>
        <time>2019-03-20T11:37:03Z</time>
      </trkpt>
      <trkpt lat="42.87868" lon="0.14479">
        <ele>2091</ele>
        <time>2019-03-20T11:37:37Z</time>
      </trkpt>
      <trkpt lat="42.87861" lon="0.14491">
        <ele>2091</ele>
        <time>2019-03-20T11:37:43Z</time>
      </trkpt>
      <trkpt lat="42.87857" lon="0.14495">
        <ele>2092</ele>
        <time>2019-03-20T11:37:46Z</time>
      </trkpt>
      <trkpt lat="42.87854" lon="0.14507">
        <ele>2092</ele>
        <time>2019-03-20T11:37:55Z</time>
      </trkpt>
      <trkpt lat="42.87853" lon="0.14513">
        <ele>2092</ele>
        <time>2019-03-20T11:38:03Z</time>
      </trkpt>
      <trkpt lat="42.8785" lon="0.14517">
        <ele>2092</ele>
        <time>2019-03-20T11:38:09Z</time>
      </trkpt>
      <trkpt lat="42.87846" lon="0.14526">
        <ele>2093</ele>
        <time>2019-03-20T11:38:15Z</time>
      </trkpt>
      <trkpt lat="42.87843" lon="0.14529">
        <ele>2093</ele>
        <time>2019-03-20T11:38:20Z</time>
      </trkpt>
      <trkpt lat="42.87839" lon="0.1453">
        <ele>2093</ele>
        <time>2019-03-20T11:38:46Z</time>
      </trkpt>
      <trkpt lat="42.87837" lon="0.14534">
        <ele>2093</ele>
        <time>2019-03-20T11:39:13Z</time>
      </trkpt>
      <trkpt lat="42.87833" lon="0.14544">
        <ele>2094</ele>
        <time>2019-03-20T11:39:53Z</time>
      </trkpt>
      <trkpt lat="42.87815" lon="0.14568">
        <ele>2095</ele>
        <time>2019-03-20T11:40:06Z</time>
      </trkpt>
      <trkpt lat="42.87811" lon="0.14573">
        <ele>2095</ele>
        <time>2019-03-20T11:40:12Z</time>
      </trkpt>
      <trkpt lat="42.87808" lon="0.14576">
        <ele>2095</ele>
        <time>2019-03-20T11:40:15Z</time>
      </trkpt>
      <trkpt lat="42.87805" lon="0.14578">
        <ele>2095</ele>
        <time>2019-03-20T11:40:18Z</time>
      </trkpt>
      <trkpt lat="42.87794" lon="0.14584">
        <ele>2095</ele>
        <time>2019-03-20T11:40:44Z</time>
      </trkpt>
      <trkpt lat="42.87785" lon="0.14591">
        <ele>2095</ele>
        <time>2019-03-20T11:40:55Z</time>
      </trkpt>
      <trkpt lat="42.87772" lon="0.14597">
        <ele>2096</ele>
        <time>2019-03-20T11:41:09Z</time>
      </trkpt>
      <trkpt lat="42.87761" lon="0.14604">
        <ele>2096</ele>
        <time>2019-03-20T11:42:00Z</time>
      </trkpt>
      <trkpt lat="42.87758" lon="0.14606">
        <ele>2096</ele>
        <time>2019-03-20T11:42:03Z</time>
      </trkpt>
      <trkpt lat="42.87754" lon="0.14605">
        <ele>2097</ele>
        <time>2019-03-20T11:43:44Z</time>
      </trkpt>
      <trkpt lat="42.8775" lon="0.14605">
        <ele>2097</ele>
        <time>2019-03-20T11:43:48Z</time>
      </trkpt>
      <trkpt lat="42.87746" lon="0.14606">
        <ele>2097</ele>
        <time>2019-03-20T11:43:52Z</time>
      </trkpt>
      <trkpt lat="42.87742" lon="0.14606">
        <ele>2097</ele>
        <time>2019-03-20T11:43:55Z</time>
      </trkpt>
      <trkpt lat="42.87735" lon="0.14609">
        <ele>2098</ele>
        <time>2019-03-20T11:44:03Z</time>
      </trkpt>
      <trkpt lat="42.87732" lon="0.1461">
        <ele>2098</ele>
        <time>2019-03-20T11:44:08Z</time>
      </trkpt>
      <trkpt lat="42.87729" lon="0.14611">
        <ele>2098</ele>
        <time>2019-03-20T11:44:13Z</time>
      </trkpt>
      <trkpt lat="42.87726" lon="0.14613">
        <ele>2098</ele>
        <time>2019-03-20T11:44:18Z</time>
      </trkpt>
      <trkpt lat="42.87724" lon="0.14616">
        <ele>2098</ele>
        <time>2019-03-20T11:44:23Z</time>
      </trkpt>
      <trkpt lat="42.87721" lon="0.14617">
        <ele>2098</ele>
        <time>2019-03-20T11:44:29Z</time>
      </trkpt>
      <trkpt lat="42.87718" lon="0.14619">
        <ele>2098</ele>
        <time>2019-03-20T11:44:35Z</time>
      </trkpt>
      <trkpt lat="42.87715" lon="0.1462">
        <ele>2099</ele>
        <time>2019-03-20T11:44:39Z</time>
      </trkpt>
      <trkpt lat="42.87708" lon="0.14626">
        <ele>2099</ele>
        <time>2019-03-20T11:44:52Z</time>
      </trkpt>
      <trkpt lat="42.87706" lon="0.14627">
        <ele>2099</ele>
        <time>2019-03-20T11:44:59Z</time>
      </trkpt>
      <trkpt lat="42.87695" lon="0.14639">
        <ele>2100</ele>
        <time>2019-03-20T11:45:23Z</time>
      </trkpt>
      <trkpt lat="42.87693" lon="0.1464">
        <ele>2100</ele>
        <time>2019-03-20T11:45:28Z</time>
      </trkpt>
      <trkpt lat="42.87688" lon="0.14645">
        <ele>2101</ele>
        <time>2019-03-20T11:45:37Z</time>
      </trkpt>
      <trkpt lat="42.87686" lon="0.14647">
        <ele>2101</ele>
        <time>2019-03-20T11:45:41Z</time>
      </trkpt>
      <trkpt lat="42.87683" lon="0.14649">
        <ele>2101</ele>
        <time>2019-03-20T11:45:46Z</time>
      </trkpt>
      <trkpt lat="42.8768" lon="0.1465">
        <ele>2101</ele>
        <time>2019-03-20T11:45:50Z</time>
      </trkpt>
      <trkpt lat="42.87678" lon="0.14653">
        <ele>2102</ele>
        <time>2019-03-20T11:45:55Z</time>
      </trkpt>
      <trkpt lat="42.87673" lon="0.14663">
        <ele>2102</ele>
        <time>2019-03-20T11:46:11Z</time>
      </trkpt>
      <trkpt lat="42.87671" lon="0.14666">
        <ele>2103</ele>
        <time>2019-03-20T11:46:15Z</time>
      </trkpt>
      <trkpt lat="42.87665" lon="0.14669">
        <ele>2103</ele>
        <time>2019-03-20T11:46:25Z</time>
      </trkpt>
      <trkpt lat="42.87663" lon="0.14672">
        <ele>2103</ele>
        <time>2019-03-20T11:46:31Z</time>
      </trkpt>
      <trkpt lat="42.87645" lon="0.14696">
        <ele>2105</ele>
        <time>2019-03-20T11:47:02Z</time>
      </trkpt>
      <trkpt lat="42.87642" lon="0.14699">
        <ele>2105</ele>
        <time>2019-03-20T11:47:06Z</time>
      </trkpt>
      <trkpt lat="42.8764" lon="0.14702">
        <ele>2105</ele>
        <time>2019-03-20T11:47:13Z</time>
      </trkpt>
      <trkpt lat="42.87637" lon="0.14708">
        <ele>2106</ele>
        <time>2019-03-20T11:47:18Z</time>
      </trkpt>
      <trkpt lat="42.87632" lon="0.14719">
        <ele>2106</ele>
        <time>2019-03-20T11:47:27Z</time>
      </trkpt>
      <trkpt lat="42.87627" lon="0.14727">
        <ele>2107</ele>
        <time>2019-03-20T11:47:36Z</time>
      </trkpt>
      <trkpt lat="42.87625" lon="0.14731">
        <ele>2107</ele>
        <time>2019-03-20T11:47:40Z</time>
      </trkpt>
      <trkpt lat="42.87622" lon="0.14734">
        <ele>2107</ele>
        <time>2019-03-20T11:47:44Z</time>
      </trkpt>
      <trkpt lat="42.87619" lon="0.14739">
        <ele>2107</ele>
        <time>2019-03-20T11:47:48Z</time>
      </trkpt>
      <trkpt lat="42.87616" lon="0.14744">
        <ele>2108</ele>
        <time>2019-03-20T11:47:52Z</time>
      </trkpt>
      <trkpt lat="42.87611" lon="0.14752">
        <ele>2109</ele>
        <time>2019-03-20T11:52:15Z</time>
      </trkpt>
      <trkpt lat="42.87602" lon="0.1477">
        <ele>2110</ele>
        <time>2019-03-20T11:52:27Z</time>
      </trkpt>
      <trkpt lat="42.876" lon="0.14775">
        <ele>2111</ele>
        <time>2019-03-20T11:52:30Z</time>
      </trkpt>
      <trkpt lat="42.87585" lon="0.14804">
        <ele>2112</ele>
        <time>2019-03-20T11:52:57Z</time>
      </trkpt>
      <trkpt lat="42.87572" lon="0.14823">
        <ele>2112</ele>
        <time>2019-03-20T11:53:15Z</time>
      </trkpt>
      <trkpt lat="42.8757" lon="0.14826">
        <ele>2113</ele>
        <time>2019-03-20T11:53:18Z</time>
      </trkpt>
      <trkpt lat="42.87563" lon="0.14836">
        <ele>2113</ele>
        <time>2019-03-20T11:53:27Z</time>
      </trkpt>
      <trkpt lat="42.87546" lon="0.14853">
        <ele>2114</ele>
        <time>2019-03-20T11:53:57Z</time>
      </trkpt>
      <trkpt lat="42.87538" lon="0.14861">
        <ele>2115</ele>
        <time>2019-03-20T11:54:08Z</time>
      </trkpt>
      <trkpt lat="42.87536" lon="0.14863">
        <ele>2115</ele>
        <time>2019-03-20T11:54:11Z</time>
      </trkpt>
      <trkpt lat="42.87534" lon="0.14865">
        <ele>2115</ele>
        <time>2019-03-20T11:54:14Z</time>
      </trkpt>
      <trkpt lat="42.87531" lon="0.14865">
        <ele>2115</ele>
        <time>2019-03-20T11:54:17Z</time>
      </trkpt>
      <trkpt lat="42.87527" lon="0.14872">
        <ele>2115</ele>
        <time>2019-03-20T11:54:26Z</time>
      </trkpt>
      <trkpt lat="42.87524" lon="0.14875">
        <ele>2116</ele>
        <time>2019-03-20T11:54:32Z</time>
      </trkpt>
      <trkpt lat="42.8752" lon="0.14879">
        <ele>2116</ele>
        <time>2019-03-20T11:54:47Z</time>
      </trkpt>
      <trkpt lat="42.87517" lon="0.14881">
        <ele>2116</ele>
        <time>2019-03-20T11:54:52Z</time>
      </trkpt>
      <trkpt lat="42.87514" lon="0.14882">
        <ele>2116</ele>
        <time>2019-03-20T11:54:55Z</time>
      </trkpt>
      <trkpt lat="42.87498" lon="0.14889">
        <ele>2117</ele>
        <time>2019-03-20T11:55:15Z</time>
      </trkpt>
      <trkpt lat="42.87494" lon="0.14893">
        <ele>2118</ele>
        <time>2019-03-20T11:55:24Z</time>
      </trkpt>
      <trkpt lat="42.8749" lon="0.14892">
        <ele>2118</ele>
        <time>2019-03-20T11:55:30Z</time>
      </trkpt>
      <trkpt lat="42.87488" lon="0.14895">
        <ele>2118</ele>
        <time>2019-03-20T11:55:36Z</time>
      </trkpt>
      <trkpt lat="42.87479" lon="0.14904">
        <ele>2119</ele>
        <time>2019-03-20T11:55:56Z</time>
      </trkpt>
      <trkpt lat="42.87476" lon="0.14908">
        <ele>2119</ele>
        <time>2019-03-20T11:56:01Z</time>
      </trkpt>
      <trkpt lat="42.87465" lon="0.14927">
        <ele>2120</ele>
        <time>2019-03-20T11:56:17Z</time>
      </trkpt>
      <trkpt lat="42.87461" lon="0.1493">
        <ele>2120</ele>
        <time>2019-03-20T11:56:22Z</time>
      </trkpt>
      <trkpt lat="42.87458" lon="0.14934">
        <ele>2120</ele>
        <time>2019-03-20T11:56:27Z</time>
      </trkpt>
      <trkpt lat="42.87456" lon="0.14938">
        <ele>2120</ele>
        <time>2019-03-20T11:56:31Z</time>
      </trkpt>
      <trkpt lat="42.87435" lon="0.14966">
        <ele>2121</ele>
        <time>2019-03-20T11:57:04Z</time>
      </trkpt>
      <trkpt lat="42.87425" lon="0.14976">
        <ele>2121</ele>
        <time>2019-03-20T11:57:19Z</time>
      </trkpt>
      <trkpt lat="42.87428" lon="0.14981">
        <ele>2122</ele>
        <time>2019-03-20T11:57:32Z</time>
      </trkpt>
      <trkpt lat="42.87429" lon="0.14987">
        <ele>2122</ele>
        <time>2019-03-20T11:57:39Z</time>
      </trkpt>
      <trkpt lat="42.8743" lon="0.1499">
        <ele>2122</ele>
        <time>2019-03-20T11:57:44Z</time>
      </trkpt>
      <trkpt lat="42.87434" lon="0.14993">
        <ele>2122</ele>
        <time>2019-03-20T11:57:49Z</time>
      </trkpt>
      <trkpt lat="42.87437" lon="0.14995">
        <ele>2122</ele>
        <time>2019-03-20T11:57:54Z</time>
      </trkpt>
      <trkpt lat="42.87436" lon="0.15">
        <ele>2122</ele>
        <time>2019-03-20T11:58:00Z</time>
      </trkpt>
      <trkpt lat="42.87431" lon="0.15007">
        <ele>2123</ele>
        <time>2019-03-20T11:58:11Z</time>
      </trkpt>
      <trkpt lat="42.87431" lon="0.15013">
        <ele>2123</ele>
        <time>2019-03-20T11:59:12Z</time>
      </trkpt>
      <trkpt lat="42.87434" lon="0.15018">
        <ele>2124</ele>
        <time>2019-03-20T11:59:17Z</time>
      </trkpt>
      <trkpt lat="42.87436" lon="0.15023">
        <ele>2124</ele>
        <time>2019-03-20T11:59:25Z</time>
      </trkpt>
      <trkpt lat="42.87439" lon="0.15024">
        <ele>2124</ele>
        <time>2019-03-20T11:59:34Z</time>
      </trkpt>
      <trkpt lat="42.87443" lon="0.1505">
        <ele>2125</ele>
        <time>2019-03-20T11:59:54Z</time>
      </trkpt>
      <trkpt lat="42.87446" lon="0.15068">
        <ele>2126</ele>
        <time>2019-03-20T12:00:11Z</time>
      </trkpt>
      <trkpt lat="42.87447" lon="0.15074">
        <ele>2126</ele>
        <time>2019-03-20T12:00:17Z</time>
      </trkpt>
      <trkpt lat="42.87448" lon="0.15079">
        <ele>2126</ele>
        <time>2019-03-20T12:00:21Z</time>
      </trkpt>
      <trkpt lat="42.87449" lon="0.15084">
        <ele>2126</ele>
        <time>2019-03-20T12:00:29Z</time>
      </trkpt>
      <trkpt lat="42.87448" lon="0.1509">
        <ele>2127</ele>
        <time>2019-03-20T12:01:47Z</time>
      </trkpt>
      <trkpt lat="42.87446" lon="0.151">
        <ele>2128</ele>
        <time>2019-03-20T12:02:03Z</time>
      </trkpt>
      <trkpt lat="42.87443" lon="0.151">
        <ele>2129</ele>
        <time>2019-03-20T12:03:07Z</time>
      </trkpt>
      <trkpt lat="42.87441" lon="0.15103">
        <ele>2136</ele>
        <time>2019-03-20T12:09:24Z</time>
      </trkpt>
      <trkpt lat="42.87443" lon="0.15106">
        <ele>2136</ele>
        <time>2019-03-20T12:09:52Z</time>
      </trkpt>
      <trkpt lat="42.87446" lon="0.15105">
        <ele>2137</ele>
        <time>2019-03-20T12:11:00Z</time>
      </trkpt>
      <trkpt lat="42.87448" lon="0.15102">
        <ele>2142</ele>
        <time>2019-03-20T12:11:40Z</time>
      </trkpt>
      <trkpt lat="42.87447" lon="0.15099">
        <ele>2147</ele>
        <time>2019-03-20T12:14:12Z</time>
      </trkpt>
      <trkpt lat="42.87446" lon="0.15095">
        <ele>2149</ele>
        <time>2019-03-20T12:18:08Z</time>
      </trkpt>
      <trkpt lat="42.87444" lon="0.15097">
        <ele>2152</ele>
        <time>2019-03-20T12:19:49Z</time>
      </trkpt>
      <trkpt lat="42.87443" lon="0.15098">
        <ele>2157</ele>
        <time>2019-03-20T12:29:47Z</time>
      </trkpt>
      <trkpt lat="42.87441" lon="0.15102">
        <ele>2158</ele>
        <time>2019-03-20T12:30:51Z</time>
      </trkpt>
      <trkpt lat="42.87439" lon="0.15099">
        <ele>2160</ele>
        <time>2019-03-20T12:31:26Z</time>
      </trkpt>
      <trkpt lat="42.8744" lon="0.151">
        <ele>2162</ele>
        <time>2019-03-20T12:33:53Z</time>
      </trkpt>
      <trkpt lat="42.87442" lon="0.15099">
        <ele>2162</ele>
        <time>2019-03-20T12:34:16Z</time>
      </trkpt>
      <trkpt lat="42.87441" lon="0.15099">
        <ele>2167</ele>
        <time>2019-03-20T12:46:54Z</time>
      </trkpt>
      <trkpt lat="42.8744" lon="0.15101">
        <ele>2168</ele>
        <time>2019-03-20T12:48:12Z</time>
      </trkpt>
      <trkpt lat="42.87437" lon="0.15103">
        <ele>2168</ele>
        <time>2019-03-20T12:48:37Z</time>
      </trkpt>
      <trkpt lat="42.87435" lon="0.15103">
        <ele>2168</ele>
        <time>2019-03-20T12:48:39Z</time>
      </trkpt>
      <trkpt lat="42.87431" lon="0.15104">
        <ele>2168</ele>
        <time>2019-03-20T12:48:42Z</time>
      </trkpt>
      <trkpt lat="42.87425" lon="0.15105">
        <ele>2168</ele>
        <time>2019-03-20T12:48:48Z</time>
      </trkpt>
      <trkpt lat="42.87422" lon="0.15107">
        <ele>2168</ele>
        <time>2019-03-20T12:48:55Z</time>
      </trkpt>
      <trkpt lat="42.87411" lon="0.15117">
        <ele>2168</ele>
        <time>2019-03-20T12:49:09Z</time>
      </trkpt>
      <trkpt lat="42.87409" lon="0.15119">
        <ele>2168</ele>
        <time>2019-03-20T12:49:13Z</time>
      </trkpt>
      <trkpt lat="42.87407" lon="0.15123">
        <ele>2169</ele>
        <time>2019-03-20T12:49:16Z</time>
      </trkpt>
      <trkpt lat="42.87404" lon="0.15125">
        <ele>2169</ele>
        <time>2019-03-20T12:49:20Z</time>
      </trkpt>
      <trkpt lat="42.87401" lon="0.15128">
        <ele>2169</ele>
        <time>2019-03-20T12:49:24Z</time>
      </trkpt>
      <trkpt lat="42.87399" lon="0.15132">
        <ele>2169</ele>
        <time>2019-03-20T12:49:28Z</time>
      </trkpt>
      <trkpt lat="42.87394" lon="0.15138">
        <ele>2169</ele>
        <time>2019-03-20T12:49:35Z</time>
      </trkpt>
      <trkpt lat="42.87389" lon="0.15144">
        <ele>2169</ele>
        <time>2019-03-20T12:49:43Z</time>
      </trkpt>
      <trkpt lat="42.87379" lon="0.15154">
        <ele>2169</ele>
        <time>2019-03-20T12:49:57Z</time>
      </trkpt>
      <trkpt lat="42.87377" lon="0.15157">
        <ele>2169</ele>
        <time>2019-03-20T12:50:01Z</time>
      </trkpt>
      <trkpt lat="42.87375" lon="0.15159">
        <ele>2169</ele>
        <time>2019-03-20T12:50:04Z</time>
      </trkpt>
      <trkpt lat="42.87372" lon="0.1516">
        <ele>2169</ele>
        <time>2019-03-20T12:50:07Z</time>
      </trkpt>
      <trkpt lat="42.87361" lon="0.15168">
        <ele>2169</ele>
        <time>2019-03-20T12:50:22Z</time>
      </trkpt>
      <trkpt lat="42.87359" lon="0.1517">
        <ele>2169</ele>
        <time>2019-03-20T12:50:26Z</time>
      </trkpt>
      <trkpt lat="42.87356" lon="0.15173">
        <ele>2169</ele>
        <time>2019-03-20T12:50:30Z</time>
      </trkpt>
      <trkpt lat="42.87353" lon="0.15174">
        <ele>2169</ele>
        <time>2019-03-20T12:50:34Z</time>
      </trkpt>
      <trkpt lat="42.8735" lon="0.15176">
        <ele>2169</ele>
        <time>2019-03-20T12:50:38Z</time>
      </trkpt>
      <trkpt lat="42.87347" lon="0.15178">
        <ele>2169</ele>
        <time>2019-03-20T12:50:42Z</time>
      </trkpt>
      <trkpt lat="42.87344" lon="0.15178">
        <ele>2169</ele>
        <time>2019-03-20T12:50:46Z</time>
      </trkpt>
      <trkpt lat="42.87338" lon="0.15173">
        <ele>2169</ele>
        <time>2019-03-20T12:50:54Z</time>
      </trkpt>
      <trkpt lat="42.87332" lon="0.1517">
        <ele>2169</ele>
        <time>2019-03-20T12:51:01Z</time>
      </trkpt>
      <trkpt lat="42.87329" lon="0.15169">
        <ele>2169</ele>
        <time>2019-03-20T12:51:05Z</time>
      </trkpt>
      <trkpt lat="42.87328" lon="0.15171">
        <ele>2169</ele>
        <time>2019-03-20T12:52:08Z</time>
      </trkpt>
      <trkpt lat="42.87307" lon="0.15182">
        <ele>2170</ele>
        <time>2019-03-20T12:52:38Z</time>
      </trkpt>
      <trkpt lat="42.87299" lon="0.15185">
        <ele>2170</ele>
        <time>2019-03-20T12:52:48Z</time>
      </trkpt>
      <trkpt lat="42.87291" lon="0.15193">
        <ele>2170</ele>
        <time>2019-03-20T12:52:59Z</time>
      </trkpt>
      <trkpt lat="42.87284" lon="0.15195">
        <ele>2170</ele>
        <time>2019-03-20T12:53:07Z</time>
      </trkpt>
      <trkpt lat="42.87281" lon="0.15198">
        <ele>2170</ele>
        <time>2019-03-20T12:53:12Z</time>
      </trkpt>
      <trkpt lat="42.8727" lon="0.1521">
        <ele>2170</ele>
        <time>2019-03-20T12:53:34Z</time>
      </trkpt>
      <trkpt lat="42.87265" lon="0.1522">
        <ele>2170</ele>
        <time>2019-03-20T12:53:48Z</time>
      </trkpt>
      <trkpt lat="42.87262" lon="0.15223">
        <ele>2170</ele>
        <time>2019-03-20T12:53:52Z</time>
      </trkpt>
      <trkpt lat="42.87261" lon="0.15227">
        <ele>2170</ele>
        <time>2019-03-20T12:53:58Z</time>
      </trkpt>
      <trkpt lat="42.87255" lon="0.15237">
        <ele>2171</ele>
        <time>2019-03-20T12:54:41Z</time>
      </trkpt>
      <trkpt lat="42.87253" lon="0.1524">
        <ele>2171</ele>
        <time>2019-03-20T12:54:46Z</time>
      </trkpt>
      <trkpt lat="42.87251" lon="0.15242">
        <ele>2171</ele>
        <time>2019-03-20T12:54:50Z</time>
      </trkpt>
      <trkpt lat="42.87248" lon="0.15244">
        <ele>2171</ele>
        <time>2019-03-20T12:54:55Z</time>
      </trkpt>
      <trkpt lat="42.87246" lon="0.15247">
        <ele>2171</ele>
        <time>2019-03-20T12:55:00Z</time>
      </trkpt>
      <trkpt lat="42.87243" lon="0.15248">
        <ele>2171</ele>
        <time>2019-03-20T12:55:11Z</time>
      </trkpt>
      <trkpt lat="42.87241" lon="0.15245">
        <ele>2172</ele>
        <time>2019-03-20T12:55:14Z</time>
      </trkpt>
      <trkpt lat="42.87236" lon="0.15242">
        <ele>2172</ele>
        <time>2019-03-20T12:55:22Z</time>
      </trkpt>
      <trkpt lat="42.87234" lon="0.15243">
        <ele>2172</ele>
        <time>2019-03-20T12:55:28Z</time>
      </trkpt>
      <trkpt lat="42.87235" lon="0.15249">
        <ele>2172</ele>
        <time>2019-03-20T12:55:34Z</time>
      </trkpt>
      <trkpt lat="42.87235" lon="0.15253">
        <ele>2172</ele>
        <time>2019-03-20T12:55:43Z</time>
      </trkpt>
      <trkpt lat="42.87233" lon="0.15256">
        <ele>2172</ele>
        <time>2019-03-20T12:55:51Z</time>
      </trkpt>
      <trkpt lat="42.87232" lon="0.1526">
        <ele>2173</ele>
        <time>2019-03-20T12:55:59Z</time>
      </trkpt>
      <trkpt lat="42.87227" lon="0.15271">
        <ele>2173</ele>
        <time>2019-03-20T12:56:16Z</time>
      </trkpt>
      <trkpt lat="42.87224" lon="0.15277">
        <ele>2174</ele>
        <time>2019-03-20T12:56:24Z</time>
      </trkpt>
      <trkpt lat="42.87216" lon="0.15291">
        <ele>2174</ele>
        <time>2019-03-20T12:56:41Z</time>
      </trkpt>
      <trkpt lat="42.87213" lon="0.15293">
        <ele>2174</ele>
        <time>2019-03-20T12:56:45Z</time>
      </trkpt>
      <trkpt lat="42.8721" lon="0.15294">
        <ele>2174</ele>
        <time>2019-03-20T12:56:49Z</time>
      </trkpt>
      <trkpt lat="42.87208" lon="0.15296">
        <ele>2174</ele>
        <time>2019-03-20T12:56:53Z</time>
      </trkpt>
      <trkpt lat="42.87201" lon="0.15302">
        <ele>2175</ele>
        <time>2019-03-20T12:57:04Z</time>
      </trkpt>
      <trkpt lat="42.87194" lon="0.15307">
        <ele>2175</ele>
        <time>2019-03-20T12:57:14Z</time>
      </trkpt>
      <trkpt lat="42.87196" lon="0.15315">
        <ele>2175</ele>
        <time>2019-03-20T12:57:28Z</time>
      </trkpt>
      <trkpt lat="42.87193" lon="0.15318">
        <ele>2176</ele>
        <time>2019-03-20T12:57:36Z</time>
      </trkpt>
      <trkpt lat="42.87188" lon="0.15319">
        <ele>2176</ele>
        <time>2019-03-20T12:57:45Z</time>
      </trkpt>
      <trkpt lat="42.87184" lon="0.15322">
        <ele>2176</ele>
        <time>2019-03-20T12:57:51Z</time>
      </trkpt>
      <trkpt lat="42.87181" lon="0.15325">
        <ele>2177</ele>
        <time>2019-03-20T12:57:59Z</time>
      </trkpt>
      <trkpt lat="42.87175" lon="0.15332">
        <ele>2177</ele>
        <time>2019-03-20T12:58:17Z</time>
      </trkpt>
      <trkpt lat="42.87172" lon="0.15339">
        <ele>2178</ele>
        <time>2019-03-20T12:58:35Z</time>
      </trkpt>
      <trkpt lat="42.87156" lon="0.15357">
        <ele>2179</ele>
        <time>2019-03-20T12:59:11Z</time>
      </trkpt>
      <trkpt lat="42.87154" lon="0.1536">
        <ele>2180</ele>
        <time>2019-03-20T12:59:17Z</time>
      </trkpt>
      <trkpt lat="42.87151" lon="0.15364">
        <ele>2180</ele>
        <time>2019-03-20T12:59:24Z</time>
      </trkpt>
      <trkpt lat="42.87145" lon="0.1537">
        <ele>2181</ele>
        <time>2019-03-20T12:59:38Z</time>
      </trkpt>
      <trkpt lat="42.87142" lon="0.15372">
        <ele>2181</ele>
        <time>2019-03-20T12:59:45Z</time>
      </trkpt>
      <trkpt lat="42.87141" lon="0.15376">
        <ele>2182</ele>
        <time>2019-03-20T12:59:52Z</time>
      </trkpt>
      <trkpt lat="42.87141" lon="0.1538">
        <ele>2182</ele>
        <time>2019-03-20T12:59:58Z</time>
      </trkpt>
      <trkpt lat="42.87141" lon="0.15384">
        <ele>2183</ele>
        <time>2019-03-20T13:00:10Z</time>
      </trkpt>
      <trkpt lat="42.87139" lon="0.15389">
        <ele>2184</ele>
        <time>2019-03-20T13:00:19Z</time>
      </trkpt>
      <trkpt lat="42.87136" lon="0.1539">
        <ele>2188</ele>
        <time>2019-03-20T13:00:58Z</time>
      </trkpt>
      <trkpt lat="42.87138" lon="0.15394">
        <ele>2192</ele>
        <time>2019-03-20T13:03:35Z</time>
      </trkpt>
      <trkpt lat="42.87137" lon="0.15398">
        <ele>2197</ele>
        <time>2019-03-20T13:03:39Z</time>
      </trkpt>
      <trkpt lat="42.87136" lon="0.15402">
        <ele>2198</ele>
        <time>2019-03-20T13:03:44Z</time>
      </trkpt>
      <trkpt lat="42.87136" lon="0.15407">
        <ele>2200</ele>
        <time>2019-03-20T13:03:48Z</time>
      </trkpt>
      <trkpt lat="42.87137" lon="0.15411">
        <ele>2202</ele>
        <time>2019-03-20T13:03:58Z</time>
      </trkpt>
      <trkpt lat="42.87135" lon="0.15419">
        <ele>2204</ele>
        <time>2019-03-20T13:04:09Z</time>
      </trkpt>
      <trkpt lat="42.87133" lon="0.15422">
        <ele>2206</ele>
        <time>2019-03-20T13:04:16Z</time>
      </trkpt>
      <trkpt lat="42.87126" lon="0.15436">
        <ele>2212</ele>
        <time>2019-03-20T13:05:04Z</time>
      </trkpt>
      <trkpt lat="42.87122" lon="0.15443">
        <ele>2213</ele>
        <time>2019-03-20T13:05:29Z</time>
      </trkpt>
      <trkpt lat="42.87116" lon="0.15448">
        <ele>2215</ele>
        <time>2019-03-20T13:05:41Z</time>
      </trkpt>
      <trkpt lat="42.87114" lon="0.15453">
        <ele>2216</ele>
        <time>2019-03-20T13:05:45Z</time>
      </trkpt>
      <trkpt lat="42.87109" lon="0.15457">
        <ele>2218</ele>
        <time>2019-03-20T13:05:55Z</time>
      </trkpt>
      <trkpt lat="42.87111" lon="0.15462">
        <ele>2218</ele>
        <time>2019-03-20T13:06:03Z</time>
      </trkpt>
      <trkpt lat="42.87109" lon="0.15467">
        <ele>2220</ele>
        <time>2019-03-20T13:06:13Z</time>
      </trkpt>
      <trkpt lat="42.87108" lon="0.1547">
        <ele>2221</ele>
        <time>2019-03-20T13:06:25Z</time>
      </trkpt>
      <trkpt lat="42.87105" lon="0.15471">
        <ele>2222</ele>
        <time>2019-03-20T13:06:31Z</time>
      </trkpt>
      <trkpt lat="42.87102" lon="0.15473">
        <ele>2223</ele>
        <time>2019-03-20T13:06:41Z</time>
      </trkpt>
      <trkpt lat="42.87102" lon="0.15477">
        <ele>2223</ele>
        <time>2019-03-20T13:06:51Z</time>
      </trkpt>
      <trkpt lat="42.87103" lon="0.1548">
        <ele>2225</ele>
        <time>2019-03-20T13:07:01Z</time>
      </trkpt>
      <trkpt lat="42.87101" lon="0.15482">
        <ele>2225</ele>
        <time>2019-03-20T13:07:05Z</time>
      </trkpt>
      <trkpt lat="42.87095" lon="0.15486">
        <ele>2226</ele>
        <time>2019-03-20T13:07:13Z</time>
      </trkpt>
      <trkpt lat="42.87094" lon="0.15489">
        <ele>2227</ele>
        <time>2019-03-20T13:07:19Z</time>
      </trkpt>
      <trkpt lat="42.8709" lon="0.15492">
        <ele>2228</ele>
        <time>2019-03-20T13:07:27Z</time>
      </trkpt>
      <trkpt lat="42.87089" lon="0.15496">
        <ele>2228</ele>
        <time>2019-03-20T13:07:35Z</time>
      </trkpt>
      <trkpt lat="42.87084" lon="0.15501">
        <ele>2229</ele>
        <time>2019-03-20T13:07:41Z</time>
      </trkpt>
      <trkpt lat="42.87081" lon="0.15503">
        <ele>2230</ele>
        <time>2019-03-20T13:07:47Z</time>
      </trkpt>
      <trkpt lat="42.87082" lon="0.15506">
        <ele>2230</ele>
        <time>2019-03-20T13:07:56Z</time>
      </trkpt>
      <trkpt lat="42.87081" lon="0.1551">
        <ele>2232</ele>
        <time>2019-03-20T13:08:05Z</time>
      </trkpt>
      <trkpt lat="42.87081" lon="0.15514">
        <ele>2232</ele>
        <time>2019-03-20T13:08:10Z</time>
      </trkpt>
      <trkpt lat="42.8708" lon="0.15518">
        <ele>2233</ele>
        <time>2019-03-20T13:08:15Z</time>
      </trkpt>
      <trkpt lat="42.8707" lon="0.15522">
        <ele>2234</ele>
        <time>2019-03-20T13:08:26Z</time>
      </trkpt>
      <trkpt lat="42.87071" lon="0.15524">
        <ele>2235</ele>
        <time>2019-03-20T13:08:44Z</time>
      </trkpt>
      <trkpt lat="42.87068" lon="0.15526">
        <ele>2236</ele>
        <time>2019-03-20T13:08:47Z</time>
      </trkpt>
      <trkpt lat="42.87066" lon="0.15528">
        <ele>2236</ele>
        <time>2019-03-20T13:08:54Z</time>
      </trkpt>
      <trkpt lat="42.87064" lon="0.15536">
        <ele>2238</ele>
        <time>2019-03-20T13:09:13Z</time>
      </trkpt>
      <trkpt lat="42.87065" lon="0.15541">
        <ele>2239</ele>
        <time>2019-03-20T13:09:20Z</time>
      </trkpt>
      <trkpt lat="42.87058" lon="0.15546">
        <ele>2241</ele>
        <time>2019-03-20T13:09:33Z</time>
      </trkpt>
      <trkpt lat="42.87052" lon="0.15553">
        <ele>2243</ele>
        <time>2019-03-20T13:09:48Z</time>
      </trkpt>
      <trkpt lat="42.87053" lon="0.15556">
        <ele>2245</ele>
        <time>2019-03-20T13:10:04Z</time>
      </trkpt>
      <trkpt lat="42.87051" lon="0.1556">
        <ele>2248</ele>
        <time>2019-03-20T13:11:26Z</time>
      </trkpt>
      <trkpt lat="42.87051" lon="0.15564">
        <ele>2252</ele>
        <time>2019-03-20T13:11:31Z</time>
      </trkpt>
      <trkpt lat="42.87053" lon="0.15567">
        <ele>2253</ele>
        <time>2019-03-20T13:11:39Z</time>
      </trkpt>
      <trkpt lat="42.87054" lon="0.15571">
        <ele>2255</ele>
        <time>2019-03-20T13:11:47Z</time>
      </trkpt>
      <trkpt lat="42.87055" lon="0.15575">
        <ele>2256</ele>
        <time>2019-03-20T13:11:52Z</time>
      </trkpt>
      <trkpt lat="42.87055" lon="0.15579">
        <ele>2257</ele>
        <time>2019-03-20T13:12:01Z</time>
      </trkpt>
      <trkpt lat="42.87056" lon="0.15582">
        <ele>2258</ele>
        <time>2019-03-20T13:12:08Z</time>
      </trkpt>
      <trkpt lat="42.87054" lon="0.15584">
        <ele>2260</ele>
        <time>2019-03-20T13:12:16Z</time>
      </trkpt>
      <trkpt lat="42.87043" lon="0.15595">
        <ele>2263</ele>
        <time>2019-03-20T13:12:48Z</time>
      </trkpt>
      <trkpt lat="42.87041" lon="0.15597">
        <ele>2264</ele>
        <time>2019-03-20T13:12:53Z</time>
      </trkpt>
      <trkpt lat="42.87038" lon="0.156">
        <ele>2264</ele>
        <time>2019-03-20T13:12:56Z</time>
      </trkpt>
      <trkpt lat="42.87033" lon="0.15604">
        <ele>2265</ele>
        <time>2019-03-20T13:13:07Z</time>
      </trkpt>
      <trkpt lat="42.87029" lon="0.1561">
        <ele>2267</ele>
        <time>2019-03-20T13:13:34Z</time>
      </trkpt>
      <trkpt lat="42.87028" lon="0.15614">
        <ele>2269</ele>
        <time>2019-03-20T13:13:40Z</time>
      </trkpt>
      <trkpt lat="42.87025" lon="0.15617">
        <ele>2270</ele>
        <time>2019-03-20T13:14:03Z</time>
      </trkpt>
      <trkpt lat="42.87025" lon="0.1562">
        <ele>2271</ele>
        <time>2019-03-20T13:14:13Z</time>
      </trkpt>
      <trkpt lat="42.87023" lon="0.15624">
        <ele>2272</ele>
        <time>2019-03-20T13:14:21Z</time>
      </trkpt>
      <trkpt lat="42.87017" lon="0.15627">
        <ele>2273</ele>
        <time>2019-03-20T13:14:34Z</time>
      </trkpt>
      <trkpt lat="42.87015" lon="0.15629">
        <ele>2273</ele>
        <time>2019-03-20T13:14:39Z</time>
      </trkpt>
      <trkpt lat="42.87012" lon="0.15627">
        <ele>2274</ele>
        <time>2019-03-20T13:14:50Z</time>
      </trkpt>
      <trkpt lat="42.8701" lon="0.1563">
        <ele>2275</ele>
        <time>2019-03-20T13:15:06Z</time>
      </trkpt>
      <trkpt lat="42.87009" lon="0.15634">
        <ele>2276</ele>
        <time>2019-03-20T13:15:14Z</time>
      </trkpt>
      <trkpt lat="42.87007" lon="0.15641">
        <ele>2278</ele>
        <time>2019-03-20T13:15:26Z</time>
      </trkpt>
      <trkpt lat="42.87005" lon="0.15644">
        <ele>2279</ele>
        <time>2019-03-20T13:15:34Z</time>
      </trkpt>
      <trkpt lat="42.87003" lon="0.15644">
        <ele>2280</ele>
        <time>2019-03-20T13:15:51Z</time>
      </trkpt>
      <trkpt lat="42.87" lon="0.15644">
        <ele>2281</ele>
        <time>2019-03-20T13:15:54Z</time>
      </trkpt>
      <trkpt lat="42.86997" lon="0.15642">
        <ele>2282</ele>
        <time>2019-03-20T13:16:03Z</time>
      </trkpt>
      <trkpt lat="42.86995" lon="0.15638">
        <ele>2284</ele>
        <time>2019-03-20T13:16:08Z</time>
      </trkpt>
      <trkpt lat="42.86993" lon="0.15636">
        <ele>2285</ele>
        <time>2019-03-20T13:16:14Z</time>
      </trkpt>
      <trkpt lat="42.86989" lon="0.15643">
        <ele>2287</ele>
        <time>2019-03-20T13:16:25Z</time>
      </trkpt>
      <trkpt lat="42.86987" lon="0.15646">
        <ele>2287</ele>
        <time>2019-03-20T13:16:31Z</time>
      </trkpt>
      <trkpt lat="42.86984" lon="0.15648">
        <ele>2289</ele>
        <time>2019-03-20T13:16:37Z</time>
      </trkpt>
      <trkpt lat="42.8698" lon="0.15654">
        <ele>2291</ele>
        <time>2019-03-20T13:16:51Z</time>
      </trkpt>
      <trkpt lat="42.8698" lon="0.15658">
        <ele>2292</ele>
        <time>2019-03-20T13:17:00Z</time>
      </trkpt>
      <trkpt lat="42.8698" lon="0.15662">
        <ele>2293</ele>
        <time>2019-03-20T13:17:08Z</time>
      </trkpt>
      <trkpt lat="42.86978" lon="0.15666">
        <ele>2295</ele>
        <time>2019-03-20T13:17:21Z</time>
      </trkpt>
      <trkpt lat="42.86972" lon="0.15671">
        <ele>2298</ele>
        <time>2019-03-20T13:18:22Z</time>
      </trkpt>
      <trkpt lat="42.86971" lon="0.15679">
        <ele>2301</ele>
        <time>2019-03-20T13:18:34Z</time>
      </trkpt>
      <trkpt lat="42.86963" lon="0.15696">
        <ele>2304</ele>
        <time>2019-03-20T13:18:57Z</time>
      </trkpt>
      <trkpt lat="42.86955" lon="0.15709">
        <ele>2306</ele>
        <time>2019-03-20T13:19:17Z</time>
      </trkpt>
      <trkpt lat="42.86952" lon="0.15717">
        <ele>2307</ele>
        <time>2019-03-20T13:19:29Z</time>
      </trkpt>
      <trkpt lat="42.86951" lon="0.15721">
        <ele>2307</ele>
        <time>2019-03-20T13:19:34Z</time>
      </trkpt>
      <trkpt lat="42.86951" lon="0.15725">
        <ele>2307</ele>
        <time>2019-03-20T13:19:39Z</time>
      </trkpt>
      <trkpt lat="42.86948" lon="0.15732">
        <ele>2308</ele>
        <time>2019-03-20T13:19:49Z</time>
      </trkpt>
      <trkpt lat="42.86946" lon="0.15735">
        <ele>2308</ele>
        <time>2019-03-20T13:19:55Z</time>
      </trkpt>
      <trkpt lat="42.86945" lon="0.15739">
        <ele>2309</ele>
        <time>2019-03-20T13:20:01Z</time>
      </trkpt>
      <trkpt lat="42.86939" lon="0.15748">
        <ele>2310</ele>
        <time>2019-03-20T13:20:23Z</time>
      </trkpt>
      <trkpt lat="42.86936" lon="0.15755">
        <ele>2311</ele>
        <time>2019-03-20T13:20:36Z</time>
      </trkpt>
      <trkpt lat="42.86934" lon="0.15758">
        <ele>2312</ele>
        <time>2019-03-20T13:20:44Z</time>
      </trkpt>
      <trkpt lat="42.86932" lon="0.15762">
        <ele>2312</ele>
        <time>2019-03-20T13:20:50Z</time>
      </trkpt>
      <trkpt lat="42.86931" lon="0.15766">
        <ele>2313</ele>
        <time>2019-03-20T13:20:54Z</time>
      </trkpt>
      <trkpt lat="42.86929" lon="0.15768">
        <ele>2313</ele>
        <time>2019-03-20T13:20:59Z</time>
      </trkpt>
      <trkpt lat="42.86925" lon="0.15774">
        <ele>2315</ele>
        <time>2019-03-20T13:21:15Z</time>
      </trkpt>
      <trkpt lat="42.8692" lon="0.15779">
        <ele>2316</ele>
        <time>2019-03-20T13:21:27Z</time>
      </trkpt>
      <trkpt lat="42.86918" lon="0.15781">
        <ele>2317</ele>
        <time>2019-03-20T13:21:32Z</time>
      </trkpt>
      <trkpt lat="42.86915" lon="0.15785">
        <ele>2317</ele>
        <time>2019-03-20T13:21:36Z</time>
      </trkpt>
      <trkpt lat="42.86913" lon="0.15786">
        <ele>2318</ele>
        <time>2019-03-20T13:21:41Z</time>
      </trkpt>
      <trkpt lat="42.86905" lon="0.15788">
        <ele>2320</ele>
        <time>2019-03-20T13:21:58Z</time>
      </trkpt>
      <trkpt lat="42.86904" lon="0.15791">
        <ele>2321</ele>
        <time>2019-03-20T13:22:07Z</time>
      </trkpt>
      <trkpt lat="42.86903" lon="0.15795">
        <ele>2321</ele>
        <time>2019-03-20T13:22:10Z</time>
      </trkpt>
      <trkpt lat="42.86903" lon="0.15799">
        <ele>2322</ele>
        <time>2019-03-20T13:22:15Z</time>
      </trkpt>
      <trkpt lat="42.86904" lon="0.15802">
        <ele>2323</ele>
        <time>2019-03-20T13:22:22Z</time>
      </trkpt>
      <trkpt lat="42.86906" lon="0.15806">
        <ele>2323</ele>
        <time>2019-03-20T13:22:26Z</time>
      </trkpt>
      <trkpt lat="42.86906" lon="0.15811">
        <ele>2324</ele>
        <time>2019-03-20T13:22:33Z</time>
      </trkpt>
      <trkpt lat="42.86906" lon="0.15818">
        <ele>2325</ele>
        <time>2019-03-20T13:22:44Z</time>
      </trkpt>
      <trkpt lat="42.86908" lon="0.15826">
        <ele>2327</ele>
        <time>2019-03-20T13:23:03Z</time>
      </trkpt>
      <trkpt lat="42.86908" lon="0.15831">
        <ele>2328</ele>
        <time>2019-03-20T13:23:15Z</time>
      </trkpt>
      <trkpt lat="42.86907" lon="0.15834">
        <ele>2329</ele>
        <time>2019-03-20T13:23:24Z</time>
      </trkpt>
      <trkpt lat="42.86902" lon="0.1584">
        <ele>2330</ele>
        <time>2019-03-20T13:23:33Z</time>
      </trkpt>
      <trkpt lat="42.86901" lon="0.15843">
        <ele>2331</ele>
        <time>2019-03-20T13:23:38Z</time>
      </trkpt>
      <trkpt lat="42.86901" lon="0.15849">
        <ele>2333</ele>
        <time>2019-03-20T13:23:50Z</time>
      </trkpt>
      <trkpt lat="42.86901" lon="0.15853">
        <ele>2333</ele>
        <time>2019-03-20T13:23:53Z</time>
      </trkpt>
      <trkpt lat="42.869" lon="0.15857">
        <ele>2335</ele>
        <time>2019-03-20T13:24:24Z</time>
      </trkpt>
      <trkpt lat="42.86899" lon="0.1586">
        <ele>2336</ele>
        <time>2019-03-20T13:24:28Z</time>
      </trkpt>
      <trkpt lat="42.86897" lon="0.15865">
        <ele>2338</ele>
        <time>2019-03-20T13:24:39Z</time>
      </trkpt>
      <trkpt lat="42.86895" lon="0.15866">
        <ele>2338</ele>
        <time>2019-03-20T13:24:41Z</time>
      </trkpt>
      <trkpt lat="42.86893" lon="0.15867">
        <ele>2340</ele>
        <time>2019-03-20T13:24:48Z</time>
      </trkpt>
      <trkpt lat="42.86893" lon="0.1587">
        <ele>2340</ele>
        <time>2019-03-20T13:24:50Z</time>
      </trkpt>
      <trkpt lat="42.86893" lon="0.15873">
        <ele>2341</ele>
        <time>2019-03-20T13:24:52Z</time>
      </trkpt>
      <trkpt lat="42.86893" lon="0.15875">
        <ele>2341</ele>
        <time>2019-03-20T13:24:59Z</time>
      </trkpt>
      <trkpt lat="42.86893" lon="0.1587">
        <ele>2343</ele>
        <time>2019-03-20T13:26:44Z</time>
      </trkpt>
      <trkpt lat="42.86894" lon="0.15871">
        <ele>2346</ele>
        <time>2019-03-20T13:29:03Z</time>
      </trkpt>
      <trkpt lat="42.86895" lon="0.15875">
        <ele>2346</ele>
        <time>2019-03-20T13:29:05Z</time>
      </trkpt>
      <trkpt lat="42.86894" lon="0.15878">
        <ele>2352</ele>
        <time>2019-03-20T13:29:30Z</time>
      </trkpt>
      <trkpt lat="42.86894" lon="0.15881">
        <ele>2352</ele>
        <time>2019-03-20T13:29:35Z</time>
      </trkpt>
      <trkpt lat="42.86893" lon="0.15884">
        <ele>2354</ele>
        <time>2019-03-20T13:29:43Z</time>
      </trkpt>
      <trkpt lat="42.86893" lon="0.15887">
        <ele>2354</ele>
        <time>2019-03-20T13:29:46Z</time>
      </trkpt>
      <trkpt lat="42.86894" lon="0.15885">
        <ele>2354</ele>
        <time>2019-03-20T13:30:03Z</time>
      </trkpt>
      <trkpt lat="42.86896" lon="0.15886">
        <ele>2354</ele>
        <time>2019-03-20T13:30:20Z</time>
      </trkpt>
      <trkpt lat="42.86896" lon="0.15884">
        <ele>2355</ele>
        <time>2019-03-20T13:30:45Z</time>
      </trkpt>
      <trkpt lat="42.86895" lon="0.15888">
        <ele>2355</ele>
        <time>2019-03-20T13:30:48Z</time>
      </trkpt>
      <trkpt lat="42.86895" lon="0.1589">
        <ele>2356</ele>
        <time>2019-03-20T13:30:49Z</time>
      </trkpt>
      <trkpt lat="42.86894" lon="0.15893">
        <ele>2356</ele>
        <time>2019-03-20T13:30:52Z</time>
      </trkpt>
      <trkpt lat="42.86894" lon="0.15896">
        <ele>2356</ele>
        <time>2019-03-20T13:30:56Z</time>
      </trkpt>
      <trkpt lat="42.86893" lon="0.15899">
        <ele>2356</ele>
        <time>2019-03-20T13:30:59Z</time>
      </trkpt>
      <trkpt lat="42.86894" lon="0.15903">
        <ele>2357</ele>
        <time>2019-03-20T13:31:02Z</time>
      </trkpt>
      <trkpt lat="42.86894" lon="0.15905">
        <ele>2357</ele>
        <time>2019-03-20T13:31:06Z</time>
      </trkpt>
      <trkpt lat="42.86894" lon="0.15909">
        <ele>2357</ele>
        <time>2019-03-20T13:31:10Z</time>
      </trkpt>
      <trkpt lat="42.86894" lon="0.15921">
        <ele>2358</ele>
        <time>2019-03-20T13:31:24Z</time>
      </trkpt>
      <trkpt lat="42.86893" lon="0.15924">
        <ele>2358</ele>
        <time>2019-03-20T13:31:27Z</time>
      </trkpt>
      <trkpt lat="42.86891" lon="0.15933">
        <ele>2359</ele>
        <time>2019-03-20T13:31:40Z</time>
      </trkpt>
      <trkpt lat="42.8689" lon="0.15935">
        <ele>2359</ele>
        <time>2019-03-20T13:31:42Z</time>
      </trkpt>
      <trkpt lat="42.86889" lon="0.15939">
        <ele>2360</ele>
        <time>2019-03-20T13:31:49Z</time>
      </trkpt>
      <trkpt lat="42.86888" lon="0.15945">
        <ele>2360</ele>
        <time>2019-03-20T13:31:56Z</time>
      </trkpt>
      <trkpt lat="42.86887" lon="0.15948">
        <ele>2361</ele>
        <time>2019-03-20T13:32:06Z</time>
      </trkpt>
      <trkpt lat="42.86883" lon="0.15958">
        <ele>2362</ele>
        <time>2019-03-20T13:32:22Z</time>
      </trkpt>
      <trkpt lat="42.86882" lon="0.15962">
        <ele>2362</ele>
        <time>2019-03-20T13:32:28Z</time>
      </trkpt>
      <trkpt lat="42.86883" lon="0.15964">
        <ele>2362</ele>
        <time>2019-03-20T13:32:31Z</time>
      </trkpt>
      <trkpt lat="42.86885" lon="0.15964">
        <ele>2363</ele>
        <time>2019-03-20T13:32:36Z</time>
      </trkpt>
      <trkpt lat="42.86888" lon="0.15968">
        <ele>2363</ele>
        <time>2019-03-20T13:32:44Z</time>
      </trkpt>
      <trkpt lat="42.8689" lon="0.15969">
        <ele>2363</ele>
        <time>2019-03-20T13:32:47Z</time>
      </trkpt>
      <trkpt lat="42.86888" lon="0.15971">
        <ele>2364</ele>
        <time>2019-03-20T13:33:19Z</time>
      </trkpt>
      <trkpt lat="42.86886" lon="0.15973">
        <ele>2364</ele>
        <time>2019-03-20T13:33:22Z</time>
      </trkpt>
      <trkpt lat="42.8688" lon="0.15977">
        <ele>2365</ele>
        <time>2019-03-20T13:33:33Z</time>
      </trkpt>
      <trkpt lat="42.86878" lon="0.1598">
        <ele>2365</ele>
        <time>2019-03-20T13:33:36Z</time>
      </trkpt>
      <trkpt lat="42.86873" lon="0.15983">
        <ele>2366</ele>
        <time>2019-03-20T13:33:49Z</time>
      </trkpt>
      <trkpt lat="42.86871" lon="0.15983">
        <ele>2366</ele>
        <time>2019-03-20T13:33:52Z</time>
      </trkpt>
      <trkpt lat="42.86868" lon="0.15986">
        <ele>2367</ele>
        <time>2019-03-20T13:34:07Z</time>
      </trkpt>
      <trkpt lat="42.86866" lon="0.15987">
        <ele>2368</ele>
        <time>2019-03-20T13:34:11Z</time>
      </trkpt>
      <trkpt lat="42.86864" lon="0.15988">
        <ele>2368</ele>
        <time>2019-03-20T13:34:15Z</time>
      </trkpt>
      <trkpt lat="42.86862" lon="0.1599">
        <ele>2369</ele>
        <time>2019-03-20T13:34:21Z</time>
      </trkpt>
      <trkpt lat="42.86861" lon="0.15992">
        <ele>2369</ele>
        <time>2019-03-20T13:34:25Z</time>
      </trkpt>
      <trkpt lat="42.86861" lon="0.15998">
        <ele>2369</ele>
        <time>2019-03-20T13:34:32Z</time>
      </trkpt>
      <trkpt lat="42.86861" lon="0.16001">
        <ele>2370</ele>
        <time>2019-03-20T13:34:54Z</time>
      </trkpt>
      <trkpt lat="42.86861" lon="0.16004">
        <ele>2370</ele>
        <time>2019-03-20T13:35:01Z</time>
      </trkpt>
      <trkpt lat="42.8686" lon="0.16007">
        <ele>2371</ele>
        <time>2019-03-20T13:35:03Z</time>
      </trkpt>
      <trkpt lat="42.8686" lon="0.1601">
        <ele>2371</ele>
        <time>2019-03-20T13:35:06Z</time>
      </trkpt>
      <trkpt lat="42.8686" lon="0.16013">
        <ele>2371</ele>
        <time>2019-03-20T13:35:09Z</time>
      </trkpt>
      <trkpt lat="42.86859" lon="0.16018">
        <ele>2372</ele>
        <time>2019-03-20T13:35:15Z</time>
      </trkpt>
      <trkpt lat="42.86858" lon="0.16024">
        <ele>2372</ele>
        <time>2019-03-20T13:35:21Z</time>
      </trkpt>
      <trkpt lat="42.86855" lon="0.16031">
        <ele>2373</ele>
        <time>2019-03-20T13:35:30Z</time>
      </trkpt>
      <trkpt lat="42.86855" lon="0.16034">
        <ele>2373</ele>
        <time>2019-03-20T13:35:34Z</time>
      </trkpt>
      <trkpt lat="42.86852" lon="0.16047">
        <ele>2374</ele>
        <time>2019-03-20T13:35:48Z</time>
      </trkpt>
      <trkpt lat="42.86852" lon="0.1605">
        <ele>2374</ele>
        <time>2019-03-20T13:35:52Z</time>
      </trkpt>
      <trkpt lat="42.86851" lon="0.16056">
        <ele>2375</ele>
        <time>2019-03-20T13:35:59Z</time>
      </trkpt>
      <trkpt lat="42.86849" lon="0.16064">
        <ele>2376</ele>
        <time>2019-03-20T13:36:12Z</time>
      </trkpt>
      <trkpt lat="42.86845" lon="0.16075">
        <ele>2377</ele>
        <time>2019-03-20T13:36:27Z</time>
      </trkpt>
      <trkpt lat="42.86842" lon="0.16084">
        <ele>2378</ele>
        <time>2019-03-20T13:36:42Z</time>
      </trkpt>
      <trkpt lat="42.86841" lon="0.16086">
        <ele>2379</ele>
        <time>2019-03-20T13:36:45Z</time>
      </trkpt>
      <trkpt lat="42.86839" lon="0.1609">
        <ele>2379</ele>
        <time>2019-03-20T13:36:52Z</time>
      </trkpt>
      <trkpt lat="42.86839" lon="0.16093">
        <ele>2380</ele>
        <time>2019-03-20T13:36:56Z</time>
      </trkpt>
      <trkpt lat="42.86838" lon="0.16099">
        <ele>2380</ele>
        <time>2019-03-20T13:37:02Z</time>
      </trkpt>
      <trkpt lat="42.86838" lon="0.16105">
        <ele>2381</ele>
        <time>2019-03-20T13:37:09Z</time>
      </trkpt>
      <trkpt lat="42.86837" lon="0.16107">
        <ele>2382</ele>
        <time>2019-03-20T13:37:18Z</time>
      </trkpt>
      <trkpt lat="42.86835" lon="0.16112">
        <ele>2383</ele>
        <time>2019-03-20T13:37:34Z</time>
      </trkpt>
      <trkpt lat="42.86834" lon="0.16115">
        <ele>2383</ele>
        <time>2019-03-20T13:37:39Z</time>
      </trkpt>
      <trkpt lat="42.86834" lon="0.16117">
        <ele>2384</ele>
        <time>2019-03-20T13:37:44Z</time>
      </trkpt>
      <trkpt lat="42.86828" lon="0.16133">
        <ele>2387</ele>
        <time>2019-03-20T13:38:14Z</time>
      </trkpt>
      <trkpt lat="42.86818" lon="0.16148">
        <ele>2390</ele>
        <time>2019-03-20T13:38:33Z</time>
      </trkpt>
      <trkpt lat="42.86815" lon="0.16154">
        <ele>2391</ele>
        <time>2019-03-20T13:38:41Z</time>
      </trkpt>
      <trkpt lat="42.86814" lon="0.16158">
        <ele>2392</ele>
        <time>2019-03-20T13:38:46Z</time>
      </trkpt>
      <trkpt lat="42.86812" lon="0.16165">
        <ele>2393</ele>
        <time>2019-03-20T13:38:53Z</time>
      </trkpt>
      <trkpt lat="42.86811" lon="0.16167">
        <ele>2393</ele>
        <time>2019-03-20T13:38:57Z</time>
      </trkpt>
      <trkpt lat="42.86808" lon="0.16173">
        <ele>2394</ele>
        <time>2019-03-20T13:39:05Z</time>
      </trkpt>
      <trkpt lat="42.86808" lon="0.16183">
        <ele>2395</ele>
        <time>2019-03-20T13:39:16Z</time>
      </trkpt>
      <trkpt lat="42.86808" lon="0.16191">
        <ele>2396</ele>
        <time>2019-03-20T13:39:25Z</time>
      </trkpt>
      <trkpt lat="42.86808" lon="0.16196">
        <ele>2396</ele>
        <time>2019-03-20T13:39:31Z</time>
      </trkpt>
      <trkpt lat="42.86806" lon="0.16202">
        <ele>2397</ele>
        <time>2019-03-20T13:39:40Z</time>
      </trkpt>
      <trkpt lat="42.86805" lon="0.1621">
        <ele>2398</ele>
        <time>2019-03-20T13:39:52Z</time>
      </trkpt>
      <trkpt lat="42.86804" lon="0.16216">
        <ele>2399</ele>
        <time>2019-03-20T13:39:59Z</time>
      </trkpt>
      <trkpt lat="42.86807" lon="0.16219">
        <ele>2399</ele>
        <time>2019-03-20T13:40:03Z</time>
      </trkpt>
      <trkpt lat="42.86809" lon="0.16221">
        <ele>2400</ele>
        <time>2019-03-20T13:40:06Z</time>
      </trkpt>
      <trkpt lat="42.86814" lon="0.16227">
        <ele>2401</ele>
        <time>2019-03-20T13:40:23Z</time>
      </trkpt>
      <trkpt lat="42.86819" lon="0.16232">
        <ele>2402</ele>
        <time>2019-03-20T13:40:40Z</time>
      </trkpt>
      <trkpt lat="42.86821" lon="0.16234">
        <ele>2402</ele>
        <time>2019-03-20T13:40:44Z</time>
      </trkpt>
      <trkpt lat="42.86822" lon="0.16236">
        <ele>2403</ele>
        <time>2019-03-20T13:41:04Z</time>
      </trkpt>
      <trkpt lat="42.86825" lon="0.16241">
        <ele>2403</ele>
        <time>2019-03-20T13:41:12Z</time>
      </trkpt>
      <trkpt lat="42.86828" lon="0.16247">
        <ele>2404</ele>
        <time>2019-03-20T13:41:20Z</time>
      </trkpt>
      <trkpt lat="42.8683" lon="0.16252">
        <ele>2404</ele>
        <time>2019-03-20T13:41:26Z</time>
      </trkpt>
      <trkpt lat="42.8683" lon="0.16255">
        <ele>2404</ele>
        <time>2019-03-20T13:41:29Z</time>
      </trkpt>
      <trkpt lat="42.86831" lon="0.16258">
        <ele>2405</ele>
        <time>2019-03-20T13:41:32Z</time>
      </trkpt>
      <trkpt lat="42.86832" lon="0.16268">
        <ele>2405</ele>
        <time>2019-03-20T13:41:41Z</time>
      </trkpt>
      <trkpt lat="42.86834" lon="0.16276">
        <ele>2406</ele>
        <time>2019-03-20T13:41:51Z</time>
      </trkpt>
      <trkpt lat="42.86835" lon="0.16279">
        <ele>2406</ele>
        <time>2019-03-20T13:41:55Z</time>
      </trkpt>
      <trkpt lat="42.86837" lon="0.16282">
        <ele>2406</ele>
        <time>2019-03-20T13:41:58Z</time>
      </trkpt>
      <trkpt lat="42.8684" lon="0.16289">
        <ele>2406</ele>
        <time>2019-03-20T13:42:10Z</time>
      </trkpt>
      <trkpt lat="42.8684" lon="0.16291">
        <ele>2407</ele>
        <time>2019-03-20T13:42:58Z</time>
      </trkpt>
      <trkpt lat="42.86841" lon="0.16295">
        <ele>2408</ele>
        <time>2019-03-20T13:45:04Z</time>
      </trkpt>
      <trkpt lat="42.86839" lon="0.16312">
        <ele>2411</ele>
        <time>2019-03-20T13:45:26Z</time>
      </trkpt>
      <trkpt lat="42.86839" lon="0.16315">
        <ele>2411</ele>
        <time>2019-03-20T13:45:31Z</time>
      </trkpt>
      <trkpt lat="42.86838" lon="0.16317">
        <ele>2411</ele>
        <time>2019-03-20T13:45:35Z</time>
      </trkpt>
      <trkpt lat="42.86836" lon="0.16317">
        <ele>2412</ele>
        <time>2019-03-20T13:45:39Z</time>
      </trkpt>
      <trkpt lat="42.86835" lon="0.16319">
        <ele>2412</ele>
        <time>2019-03-20T13:45:42Z</time>
      </trkpt>
      <trkpt lat="42.86833" lon="0.16321">
        <ele>2412</ele>
        <time>2019-03-20T13:45:47Z</time>
      </trkpt>
      <trkpt lat="42.86832" lon="0.16323">
        <ele>2412</ele>
        <time>2019-03-20T13:45:49Z</time>
      </trkpt>
      <trkpt lat="42.86833" lon="0.16325">
        <ele>2413</ele>
        <time>2019-03-20T13:45:55Z</time>
      </trkpt>
      <trkpt lat="42.86838" lon="0.16335">
        <ele>2414</ele>
        <time>2019-03-20T13:46:17Z</time>
      </trkpt>
      <trkpt lat="42.86839" lon="0.16339">
        <ele>2414</ele>
        <time>2019-03-20T13:46:21Z</time>
      </trkpt>
      <trkpt lat="42.86841" lon="0.16341">
        <ele>2415</ele>
        <time>2019-03-20T13:46:30Z</time>
      </trkpt>
      <trkpt lat="42.86843" lon="0.16342">
        <ele>2415</ele>
        <time>2019-03-20T13:46:32Z</time>
      </trkpt>
      <trkpt lat="42.86845" lon="0.16343">
        <ele>2415</ele>
        <time>2019-03-20T13:46:35Z</time>
      </trkpt>
      <trkpt lat="42.86846" lon="0.16345">
        <ele>2415</ele>
        <time>2019-03-20T13:46:39Z</time>
      </trkpt>
      <trkpt lat="42.86847" lon="0.16348">
        <ele>2415</ele>
        <time>2019-03-20T13:46:48Z</time>
      </trkpt>
      <trkpt lat="42.86847" lon="0.16355">
        <ele>2416</ele>
        <time>2019-03-20T13:46:56Z</time>
      </trkpt>
      <trkpt lat="42.86849" lon="0.1637">
        <ele>2417</ele>
        <time>2019-03-20T13:47:15Z</time>
      </trkpt>
      <trkpt lat="42.86853" lon="0.16373">
        <ele>2417</ele>
        <time>2019-03-20T13:47:23Z</time>
      </trkpt>
      <trkpt lat="42.86855" lon="0.16373">
        <ele>2418</ele>
        <time>2019-03-20T13:47:29Z</time>
      </trkpt>
      <trkpt lat="42.86858" lon="0.16374">
        <ele>2418</ele>
        <time>2019-03-20T13:47:36Z</time>
      </trkpt>
      <trkpt lat="42.8686" lon="0.16378">
        <ele>2419</ele>
        <time>2019-03-20T13:47:41Z</time>
      </trkpt>
      <trkpt lat="42.86862" lon="0.16382">
        <ele>2419</ele>
        <time>2019-03-20T13:47:46Z</time>
      </trkpt>
      <trkpt lat="42.86865" lon="0.16388">
        <ele>2420</ele>
        <time>2019-03-20T13:47:59Z</time>
      </trkpt>
      <trkpt lat="42.86868" lon="0.16394">
        <ele>2421</ele>
        <time>2019-03-20T13:48:15Z</time>
      </trkpt>
      <trkpt lat="42.86869" lon="0.16398">
        <ele>2421</ele>
        <time>2019-03-20T13:48:18Z</time>
      </trkpt>
      <trkpt lat="42.8687" lon="0.16402">
        <ele>2422</ele>
        <time>2019-03-20T13:48:35Z</time>
      </trkpt>
      <trkpt lat="42.86872" lon="0.16404">
        <ele>2423</ele>
        <time>2019-03-20T13:48:49Z</time>
      </trkpt>
      <trkpt lat="42.86874" lon="0.16413">
        <ele>2424</ele>
        <time>2019-03-20T13:49:01Z</time>
      </trkpt>
      <trkpt lat="42.86874" lon="0.16428">
        <ele>2427</ele>
        <time>2019-03-20T13:49:22Z</time>
      </trkpt>
      <trkpt lat="42.86871" lon="0.16436">
        <ele>2429</ele>
        <time>2019-03-20T13:49:34Z</time>
      </trkpt>
      <trkpt lat="42.86873" lon="0.16445">
        <ele>2431</ele>
        <time>2019-03-20T13:49:46Z</time>
      </trkpt>
      <trkpt lat="42.86874" lon="0.16452">
        <ele>2432</ele>
        <time>2019-03-20T13:49:52Z</time>
      </trkpt>
      <trkpt lat="42.86875" lon="0.16455">
        <ele>2433</ele>
        <time>2019-03-20T13:49:56Z</time>
      </trkpt>
      <trkpt lat="42.86874" lon="0.16457">
        <ele>2434</ele>
        <time>2019-03-20T13:49:59Z</time>
      </trkpt>
      <trkpt lat="42.86873" lon="0.1646">
        <ele>2435</ele>
        <time>2019-03-20T13:50:05Z</time>
      </trkpt>
      <trkpt lat="42.86873" lon="0.16463">
        <ele>2436</ele>
        <time>2019-03-20T13:50:10Z</time>
      </trkpt>
      <trkpt lat="42.86872" lon="0.16467">
        <ele>2438</ele>
        <time>2019-03-20T13:50:14Z</time>
      </trkpt>
      <trkpt lat="42.86871" lon="0.1647">
        <ele>2439</ele>
        <time>2019-03-20T13:50:18Z</time>
      </trkpt>
      <trkpt lat="42.86871" lon="0.16474">
        <ele>2440</ele>
        <time>2019-03-20T13:50:28Z</time>
      </trkpt>
      <trkpt lat="42.86871" lon="0.16477">
        <ele>2442</ele>
        <time>2019-03-20T13:50:32Z</time>
      </trkpt>
      <trkpt lat="42.8687" lon="0.16483">
        <ele>2445</ele>
        <time>2019-03-20T13:50:43Z</time>
      </trkpt>
      <trkpt lat="42.8687" lon="0.16485">
        <ele>2446</ele>
        <time>2019-03-20T13:50:54Z</time>
      </trkpt>
      <trkpt lat="42.8687" lon="0.16485">
        <ele>2450</ele>
        <time>2019-03-20T13:51:50Z</time>
      </trkpt>
      <trkpt lat="42.86871" lon="0.16487">
        <ele>2453</ele>
        <time>2019-03-20T13:53:14Z</time>
      </trkpt>
      <trkpt lat="42.86872" lon="0.16488">
        <ele>2454</ele>
        <time>2019-03-20T13:53:34Z</time>
      </trkpt>
      <trkpt lat="42.86871" lon="0.1649">
        <ele>2463</ele>
        <time>2019-03-20T13:54:54Z</time>
      </trkpt>
      <trkpt lat="42.86869" lon="0.1649">
        <ele>2466</ele>
        <time>2019-03-20T13:55:54Z</time>
      </trkpt>
      <trkpt lat="42.86868" lon="0.16487">
        <ele>2467</ele>
        <time>2019-03-20T13:56:12Z</time>
      </trkpt>
      <trkpt lat="42.86871" lon="0.16486">
        <ele>2468</ele>
        <time>2019-03-20T13:57:08Z</time>
      </trkpt>
      <trkpt lat="42.8687" lon="0.16487">
        <ele>2470</ele>
        <time>2019-03-20T13:59:17Z</time>
      </trkpt>
      <trkpt lat="42.86871" lon="0.16489">
        <ele>2470</ele>
        <time>2019-03-20T14:00:38Z</time>
      </trkpt>
      <trkpt lat="42.86872" lon="0.16489">
        <ele>2474</ele>
        <time>2019-03-20T14:05:15Z</time>
      </trkpt>
      <trkpt lat="42.8687" lon="0.16489">
        <ele>2475</ele>
        <time>2019-03-20T14:06:36Z</time>
      </trkpt>
      <trkpt lat="42.86869" lon="0.16488">
        <ele>2477</ele>
        <time>2019-03-20T14:08:52Z</time>
      </trkpt>
      <trkpt lat="42.86869" lon="0.16488">
        <ele>2478</ele>
        <time>2019-03-20T14:10:29Z</time>
      </trkpt>
      <trkpt lat="42.86873" lon="0.16487">
        <ele>2478</ele>
        <time>2019-03-20T14:11:10Z</time>
      </trkpt>
      <trkpt lat="42.86874" lon="0.16487">
        <ele>2479</ele>
        <time>2019-03-20T14:12:32Z</time>
      </trkpt>
      <trkpt lat="42.86874" lon="0.16489">
        <ele>2479</ele>
        <time>2019-03-20T14:12:41Z</time>
      </trkpt>
      <trkpt lat="42.86872" lon="0.1649">
        <ele>2479</ele>
        <time>2019-03-20T14:12:52Z</time>
      </trkpt>
      <trkpt lat="42.86872" lon="0.1649">
        <ele>2479</ele>
        <time>2019-03-20T14:13:38Z</time>
      </trkpt>
      <trkpt lat="42.86873" lon="0.16492">
        <ele>2479</ele>
        <time>2019-03-20T14:13:41Z</time>
      </trkpt>
      <trkpt lat="42.86875" lon="0.16489">
        <ele>2479</ele>
        <time>2019-03-20T14:14:29Z</time>
      </trkpt>
      <trkpt lat="42.86876" lon="0.16491">
        <ele>2479</ele>
        <time>2019-03-20T14:15:59Z</time>
      </trkpt>
      <trkpt lat="42.86874" lon="0.16493">
        <ele>2479</ele>
        <time>2019-03-20T14:16:02Z</time>
      </trkpt>
      <trkpt lat="42.8687" lon="0.16489">
        <ele>2479</ele>
        <time>2019-03-20T14:16:56Z</time>
      </trkpt>
      <trkpt lat="42.8684" lon="0.16507">
        <ele>2479</ele>
        <time>2019-03-20T14:17:21Z</time>
      </trkpt>
      <trkpt lat="42.86838" lon="0.16504">
        <ele>2479</ele>
        <time>2019-03-20T14:17:24Z</time>
      </trkpt>
      <trkpt lat="42.86837" lon="0.16509">
        <ele>2479</ele>
        <time>2019-03-20T14:17:27Z</time>
      </trkpt>
      <trkpt lat="42.8684" lon="0.16514">
        <ele>2479</ele>
        <time>2019-03-20T14:17:29Z</time>
      </trkpt>
      <trkpt lat="42.86843" lon="0.1652">
        <ele>2479</ele>
        <time>2019-03-20T14:17:33Z</time>
      </trkpt>
      <trkpt lat="42.86842" lon="0.16523">
        <ele>2479</ele>
        <time>2019-03-20T14:17:34Z</time>
      </trkpt>
      <trkpt lat="42.86839" lon="0.16524">
        <ele>2479</ele>
        <time>2019-03-20T14:17:35Z</time>
      </trkpt>
      <trkpt lat="42.86838" lon="0.16527">
        <ele>2479</ele>
        <time>2019-03-20T14:17:36Z</time>
      </trkpt>
      <trkpt lat="42.86838" lon="0.16529">
        <ele>2479</ele>
        <time>2019-03-20T14:17:37Z</time>
      </trkpt>
      <trkpt lat="42.86838" lon="0.16533">
        <ele>2479</ele>
        <time>2019-03-20T14:17:38Z</time>
      </trkpt>
      <trkpt lat="42.86836" lon="0.16535">
        <ele>2479</ele>
        <time>2019-03-20T14:17:39Z</time>
      </trkpt>
      <trkpt lat="42.86839" lon="0.16537">
        <ele>2479</ele>
        <time>2019-03-20T14:17:55Z</time>
      </trkpt>
      <trkpt lat="42.86836" lon="0.16546">
        <ele>2477</ele>
        <time>2019-03-20T14:18:25Z</time>
      </trkpt>
      <trkpt lat="42.86834" lon="0.16552">
        <ele>2477</ele>
        <time>2019-03-20T14:18:26Z</time>
      </trkpt>
      <trkpt lat="42.86831" lon="0.16554">
        <ele>2477</ele>
        <time>2019-03-20T14:18:27Z</time>
      </trkpt>
      <trkpt lat="42.86828" lon="0.16557">
        <ele>2477</ele>
        <time>2019-03-20T14:18:28Z</time>
      </trkpt>
      <trkpt lat="42.86826" lon="0.16563">
        <ele>2477</ele>
        <time>2019-03-20T14:18:29Z</time>
      </trkpt>
      <trkpt lat="42.86823" lon="0.16566">
        <ele>2477</ele>
        <time>2019-03-20T14:18:30Z</time>
      </trkpt>
      <trkpt lat="42.8682" lon="0.16569">
        <ele>2477</ele>
        <time>2019-03-20T14:18:31Z</time>
      </trkpt>
      <trkpt lat="42.86818" lon="0.16573">
        <ele>2477</ele>
        <time>2019-03-20T14:18:32Z</time>
      </trkpt>
      <trkpt lat="42.86812" lon="0.16581">
        <ele>2477</ele>
        <time>2019-03-20T14:18:34Z</time>
      </trkpt>
      <trkpt lat="42.86809" lon="0.16586">
        <ele>2477</ele>
        <time>2019-03-20T14:18:35Z</time>
      </trkpt>
      <trkpt lat="42.86805" lon="0.16587">
        <ele>2478</ele>
        <time>2019-03-20T14:18:36Z</time>
      </trkpt>
      <trkpt lat="42.86803" lon="0.16591">
        <ele>2479</ele>
        <time>2019-03-20T14:18:37Z</time>
      </trkpt>
      <trkpt lat="42.86799" lon="0.16595">
        <ele>2480</ele>
        <time>2019-03-20T14:18:38Z</time>
      </trkpt>
      <trkpt lat="42.86796" lon="0.166">
        <ele>2481</ele>
        <time>2019-03-20T14:18:39Z</time>
      </trkpt>
      <trkpt lat="42.86788" lon="0.1661">
        <ele>2483</ele>
        <time>2019-03-20T14:18:41Z</time>
      </trkpt>
      <trkpt lat="42.86778" lon="0.16622">
        <ele>2483</ele>
        <time>2019-03-20T14:18:43Z</time>
      </trkpt>
      <trkpt lat="42.86767" lon="0.16649">
        <ele>2484</ele>
        <time>2019-03-20T14:18:46Z</time>
      </trkpt>
      <trkpt lat="42.86764" lon="0.16658">
        <ele>2484</ele>
        <time>2019-03-20T14:18:47Z</time>
      </trkpt>
      <trkpt lat="42.86761" lon="0.16661">
        <ele>2484</ele>
        <time>2019-03-20T14:18:48Z</time>
      </trkpt>
      <trkpt lat="42.86757" lon="0.16664">
        <ele>2483</ele>
        <time>2019-03-20T14:19:05Z</time>
      </trkpt>
      <trkpt lat="42.86756" lon="0.16659">
        <ele>2480</ele>
        <time>2019-03-20T14:19:30Z</time>
      </trkpt>
      <trkpt lat="42.86757" lon="0.16659">
        <ele>2466</ele>
        <time>2019-03-20T14:20:21Z</time>
      </trkpt>
      <trkpt lat="42.86753" lon="0.1666">
        <ele>2461</ele>
        <time>2019-03-20T14:20:40Z</time>
      </trkpt>
      <trkpt lat="42.86754" lon="0.16661">
        <ele>2441</ele>
        <time>2019-03-20T14:21:38Z</time>
      </trkpt>
      <trkpt lat="42.86754" lon="0.16657">
        <ele>2434</ele>
        <time>2019-03-20T14:22:43Z</time>
      </trkpt>
      <trkpt lat="42.86751" lon="0.16655">
        <ele>2432</ele>
        <time>2019-03-20T14:23:13Z</time>
      </trkpt>
      <trkpt lat="42.86749" lon="0.16654">
        <ele>2431</ele>
        <time>2019-03-20T14:23:26Z</time>
      </trkpt>
      <trkpt lat="42.86747" lon="0.16658">
        <ele>2427</ele>
        <time>2019-03-20T14:25:35Z</time>
      </trkpt>
      <trkpt lat="42.86743" lon="0.16659">
        <ele>2424</ele>
        <time>2019-03-20T14:25:38Z</time>
      </trkpt>
      <trkpt lat="42.86742" lon="0.16663">
        <ele>2420</ele>
        <time>2019-03-20T14:28:25Z</time>
      </trkpt>
      <trkpt lat="42.86746" lon="0.16662">
        <ele>2419</ele>
        <time>2019-03-20T14:30:04Z</time>
      </trkpt>
      <trkpt lat="42.86745" lon="0.16663">
        <ele>2414</ele>
        <time>2019-03-20T14:31:59Z</time>
      </trkpt>
      <trkpt lat="42.86742" lon="0.16659">
        <ele>2413</ele>
        <time>2019-03-20T14:32:20Z</time>
      </trkpt>
      <trkpt lat="42.86732" lon="0.16665">
        <ele>2413</ele>
        <time>2019-03-20T14:32:44Z</time>
      </trkpt>
      <trkpt lat="42.86729" lon="0.16669">
        <ele>2413</ele>
        <time>2019-03-20T14:32:47Z</time>
      </trkpt>
      <trkpt lat="42.86728" lon="0.16674">
        <ele>2412</ele>
        <time>2019-03-20T14:32:49Z</time>
      </trkpt>
      <trkpt lat="42.86727" lon="0.1668">
        <ele>2412</ele>
        <time>2019-03-20T14:32:50Z</time>
      </trkpt>
      <trkpt lat="42.86725" lon="0.16688">
        <ele>2412</ele>
        <time>2019-03-20T14:32:52Z</time>
      </trkpt>
      <trkpt lat="42.86726" lon="0.16693">
        <ele>2412</ele>
        <time>2019-03-20T14:32:53Z</time>
      </trkpt>
      <trkpt lat="42.86723" lon="0.16698">
        <ele>2412</ele>
        <time>2019-03-20T14:32:55Z</time>
      </trkpt>
      <trkpt lat="42.86724" lon="0.16704">
        <ele>2412</ele>
        <time>2019-03-20T14:32:57Z</time>
      </trkpt>
      <trkpt lat="42.86722" lon="0.16708">
        <ele>2412</ele>
        <time>2019-03-20T14:33:02Z</time>
      </trkpt>
      <trkpt lat="42.86718" lon="0.16712">
        <ele>2412</ele>
        <time>2019-03-20T14:33:51Z</time>
      </trkpt>
      <trkpt lat="42.86718" lon="0.16718">
        <ele>2412</ele>
        <time>2019-03-20T14:33:53Z</time>
      </trkpt>
      <trkpt lat="42.86713" lon="0.16724">
        <ele>2412</ele>
        <time>2019-03-20T14:33:55Z</time>
      </trkpt>
      <trkpt lat="42.86712" lon="0.16731">
        <ele>2411</ele>
        <time>2019-03-20T14:33:56Z</time>
      </trkpt>
      <trkpt lat="42.86708" lon="0.16735">
        <ele>2411</ele>
        <time>2019-03-20T14:33:57Z</time>
      </trkpt>
      <trkpt lat="42.86704" lon="0.1674">
        <ele>2411</ele>
        <time>2019-03-20T14:33:58Z</time>
      </trkpt>
      <trkpt lat="42.86703" lon="0.16747">
        <ele>2410</ele>
        <time>2019-03-20T14:33:59Z</time>
      </trkpt>
      <trkpt lat="42.867" lon="0.16751">
        <ele>2410</ele>
        <time>2019-03-20T14:34:00Z</time>
      </trkpt>
      <trkpt lat="42.86696" lon="0.16754">
        <ele>2410</ele>
        <time>2019-03-20T14:34:01Z</time>
      </trkpt>
      <trkpt lat="42.86691" lon="0.16762">
        <ele>2410</ele>
        <time>2019-03-20T14:34:03Z</time>
      </trkpt>
      <trkpt lat="42.86687" lon="0.16767">
        <ele>2409</ele>
        <time>2019-03-20T14:34:04Z</time>
      </trkpt>
      <trkpt lat="42.86685" lon="0.16774">
        <ele>2409</ele>
        <time>2019-03-20T14:34:05Z</time>
      </trkpt>
      <trkpt lat="42.86681" lon="0.1678">
        <ele>2409</ele>
        <time>2019-03-20T14:34:06Z</time>
      </trkpt>
      <trkpt lat="42.86676" lon="0.16785">
        <ele>2409</ele>
        <time>2019-03-20T14:34:08Z</time>
      </trkpt>
      <trkpt lat="42.86675" lon="0.16784">
        <ele>2402</ele>
        <time>2019-03-20T14:35:59Z</time>
      </trkpt>
      <trkpt lat="42.86671" lon="0.16787">
        <ele>2393</ele>
        <time>2019-03-20T14:36:38Z</time>
      </trkpt>
      <trkpt lat="42.8667" lon="0.16794">
        <ele>2391</ele>
        <time>2019-03-20T14:36:40Z</time>
      </trkpt>
      <trkpt lat="42.86665" lon="0.16799">
        <ele>2389</ele>
        <time>2019-03-20T14:36:42Z</time>
      </trkpt>
      <trkpt lat="42.86665" lon="0.16804">
        <ele>2389</ele>
        <time>2019-03-20T14:36:43Z</time>
      </trkpt>
      <trkpt lat="42.8666" lon="0.16809">
        <ele>2388</ele>
        <time>2019-03-20T14:36:45Z</time>
      </trkpt>
      <trkpt lat="42.86659" lon="0.16814">
        <ele>2388</ele>
        <time>2019-03-20T14:36:46Z</time>
      </trkpt>
      <trkpt lat="42.86657" lon="0.16818">
        <ele>2387</ele>
        <time>2019-03-20T14:36:47Z</time>
      </trkpt>
      <trkpt lat="42.86653" lon="0.16824">
        <ele>2387</ele>
        <time>2019-03-20T14:36:49Z</time>
      </trkpt>
      <trkpt lat="42.86652" lon="0.16825">
        <ele>2384</ele>
        <time>2019-03-20T14:37:19Z</time>
      </trkpt>
      <trkpt lat="42.86648" lon="0.1683">
        <ele>2381</ele>
        <time>2019-03-20T14:38:05Z</time>
      </trkpt>
      <trkpt lat="42.86642" lon="0.16835">
        <ele>2377</ele>
        <time>2019-03-20T14:38:07Z</time>
      </trkpt>
      <trkpt lat="42.86637" lon="0.16836">
        <ele>2376</ele>
        <time>2019-03-20T14:38:08Z</time>
      </trkpt>
      <trkpt lat="42.86634" lon="0.16833">
        <ele>2375</ele>
        <time>2019-03-20T14:38:09Z</time>
      </trkpt>
      <trkpt lat="42.86628" lon="0.16833">
        <ele>2374</ele>
        <time>2019-03-20T14:38:11Z</time>
      </trkpt>
      <trkpt lat="42.86624" lon="0.16837">
        <ele>2374</ele>
        <time>2019-03-20T14:38:12Z</time>
      </trkpt>
      <trkpt lat="42.86618" lon="0.1684">
        <ele>2374</ele>
        <time>2019-03-20T14:38:13Z</time>
      </trkpt>
      <trkpt lat="42.86604" lon="0.16839">
        <ele>2373</ele>
        <time>2019-03-20T14:38:15Z</time>
      </trkpt>
      <trkpt lat="42.86594" lon="0.16833">
        <ele>2373</ele>
        <time>2019-03-20T14:38:21Z</time>
      </trkpt>
      <trkpt lat="42.86595" lon="0.16831">
        <ele>2369</ele>
        <time>2019-03-20T14:40:30Z</time>
      </trkpt>
      <trkpt lat="42.86596" lon="0.16837">
        <ele>2368</ele>
        <time>2019-03-20T14:40:40Z</time>
      </trkpt>
      <trkpt lat="42.86595" lon="0.16835">
        <ele>2360</ele>
        <time>2019-03-20T14:42:55Z</time>
      </trkpt>
      <trkpt lat="42.86594" lon="0.16836">
        <ele>2359</ele>
        <time>2019-03-20T14:43:55Z</time>
      </trkpt>
      <trkpt lat="42.86592" lon="0.16841">
        <ele>2359</ele>
        <time>2019-03-20T14:44:09Z</time>
      </trkpt>
      <trkpt lat="42.86589" lon="0.16837">
        <ele>2359</ele>
        <time>2019-03-20T14:44:40Z</time>
      </trkpt>
      <trkpt lat="42.86585" lon="0.16836">
        <ele>2359</ele>
        <time>2019-03-20T14:45:24Z</time>
      </trkpt>
      <trkpt lat="42.86552" lon="0.16847">
        <ele>2357</ele>
        <time>2019-03-20T14:45:34Z</time>
      </trkpt>
      <trkpt lat="42.86536" lon="0.16853">
        <ele>2357</ele>
        <time>2019-03-20T14:45:39Z</time>
      </trkpt>
      <trkpt lat="42.86518" lon="0.16865">
        <ele>2357</ele>
        <time>2019-03-20T14:45:54Z</time>
      </trkpt>
      <trkpt lat="42.86516" lon="0.16868">
        <ele>2357</ele>
        <time>2019-03-20T14:45:55Z</time>
      </trkpt>
      <trkpt lat="42.86516" lon="0.16872">
        <ele>2357</ele>
        <time>2019-03-20T14:45:56Z</time>
      </trkpt>
      <trkpt lat="42.86518" lon="0.16875">
        <ele>2357</ele>
        <time>2019-03-20T14:45:57Z</time>
      </trkpt>
      <trkpt lat="42.86519" lon="0.16878">
        <ele>2357</ele>
        <time>2019-03-20T14:45:58Z</time>
      </trkpt>
      <trkpt lat="42.86517" lon="0.16883">
        <ele>2356</ele>
        <time>2019-03-20T14:46:01Z</time>
      </trkpt>
      <trkpt lat="42.86516" lon="0.16889">
        <ele>2356</ele>
        <time>2019-03-20T14:46:02Z</time>
      </trkpt>
      <trkpt lat="42.86511" lon="0.16893">
        <ele>2356</ele>
        <time>2019-03-20T14:46:03Z</time>
      </trkpt>
      <trkpt lat="42.86505" lon="0.16893">
        <ele>2356</ele>
        <time>2019-03-20T14:46:04Z</time>
      </trkpt>
      <trkpt lat="42.86499" lon="0.16897">
        <ele>2355</ele>
        <time>2019-03-20T14:46:05Z</time>
      </trkpt>
      <trkpt lat="42.86494" lon="0.16903">
        <ele>2355</ele>
        <time>2019-03-20T14:46:06Z</time>
      </trkpt>
      <trkpt lat="42.86481" lon="0.16922">
        <ele>2354</ele>
        <time>2019-03-20T14:46:09Z</time>
      </trkpt>
      <trkpt lat="42.86475" lon="0.16923">
        <ele>2352</ele>
        <time>2019-03-20T14:46:24Z</time>
      </trkpt>
      <trkpt lat="42.86475" lon="0.16934">
        <ele>2352</ele>
        <time>2019-03-20T14:46:26Z</time>
      </trkpt>
      <trkpt lat="42.86478" lon="0.1695">
        <ele>2349</ele>
        <time>2019-03-20T14:46:29Z</time>
      </trkpt>
      <trkpt lat="42.86472" lon="0.16964">
        <ele>2347</ele>
        <time>2019-03-20T14:46:31Z</time>
      </trkpt>
      <trkpt lat="42.86476" lon="0.16983">
        <ele>2344</ele>
        <time>2019-03-20T14:46:35Z</time>
      </trkpt>
      <trkpt lat="42.86473" lon="0.16994">
        <ele>2342</ele>
        <time>2019-03-20T14:46:37Z</time>
      </trkpt>
      <trkpt lat="42.86468" lon="0.17006">
        <ele>2341</ele>
        <time>2019-03-20T14:46:40Z</time>
      </trkpt>
      <trkpt lat="42.86466" lon="0.17008">
        <ele>2341</ele>
        <time>2019-03-20T14:46:41Z</time>
      </trkpt>
      <trkpt lat="42.86466" lon="0.17012">
        <ele>2340</ele>
        <time>2019-03-20T14:46:43Z</time>
      </trkpt>
      <trkpt lat="42.86471" lon="0.17014">
        <ele>2340</ele>
        <time>2019-03-20T14:46:45Z</time>
      </trkpt>
      <trkpt lat="42.86472" lon="0.17017">
        <ele>2335</ele>
        <time>2019-03-20T14:47:38Z</time>
      </trkpt>
      <trkpt lat="42.86468" lon="0.17021">
        <ele>2334</ele>
        <time>2019-03-20T14:47:41Z</time>
      </trkpt>
      <trkpt lat="42.8646" lon="0.17026">
        <ele>2326</ele>
        <time>2019-03-20T14:47:52Z</time>
      </trkpt>
      <trkpt lat="42.86456" lon="0.17026">
        <ele>2325</ele>
        <time>2019-03-20T14:47:53Z</time>
      </trkpt>
      <trkpt lat="42.8645" lon="0.17029">
        <ele>2324</ele>
        <time>2019-03-20T14:47:55Z</time>
      </trkpt>
      <trkpt lat="42.86446" lon="0.17028">
        <ele>2324</ele>
        <time>2019-03-20T14:47:56Z</time>
      </trkpt>
      <trkpt lat="42.86442" lon="0.17029">
        <ele>2324</ele>
        <time>2019-03-20T14:47:57Z</time>
      </trkpt>
      <trkpt lat="42.86432" lon="0.17037">
        <ele>2323</ele>
        <time>2019-03-20T14:47:59Z</time>
      </trkpt>
      <trkpt lat="42.86423" lon="0.1704">
        <ele>2323</ele>
        <time>2019-03-20T14:48:01Z</time>
      </trkpt>
      <trkpt lat="42.86414" lon="0.1704">
        <ele>2323</ele>
        <time>2019-03-20T14:48:04Z</time>
      </trkpt>
      <trkpt lat="42.86408" lon="0.17039">
        <ele>2323</ele>
        <time>2019-03-20T14:48:07Z</time>
      </trkpt>
      <trkpt lat="42.86407" lon="0.17044">
        <ele>2323</ele>
        <time>2019-03-20T14:48:09Z</time>
      </trkpt>
      <trkpt lat="42.86402" lon="0.17046">
        <ele>2323</ele>
        <time>2019-03-20T14:48:11Z</time>
      </trkpt>
      <trkpt lat="42.86401" lon="0.17052">
        <ele>2323</ele>
        <time>2019-03-20T14:48:13Z</time>
      </trkpt>
      <trkpt lat="42.86399" lon="0.17057">
        <ele>2322</ele>
        <time>2019-03-20T14:48:15Z</time>
      </trkpt>
      <trkpt lat="42.86394" lon="0.17061">
        <ele>2322</ele>
        <time>2019-03-20T14:48:17Z</time>
      </trkpt>
      <trkpt lat="42.86391" lon="0.17071">
        <ele>2322</ele>
        <time>2019-03-20T14:48:29Z</time>
      </trkpt>
      <trkpt lat="42.86388" lon="0.17074">
        <ele>2321</ele>
        <time>2019-03-20T14:49:12Z</time>
      </trkpt>
      <trkpt lat="42.86384" lon="0.17077">
        <ele>2321</ele>
        <time>2019-03-20T14:49:14Z</time>
      </trkpt>
      <trkpt lat="42.86382" lon="0.17081">
        <ele>2317</ele>
        <time>2019-03-20T14:49:18Z</time>
      </trkpt>
      <trkpt lat="42.86381" lon="0.17086">
        <ele>2315</ele>
        <time>2019-03-20T14:49:31Z</time>
      </trkpt>
      <trkpt lat="42.86378" lon="0.17092">
        <ele>2313</ele>
        <time>2019-03-20T14:49:34Z</time>
      </trkpt>
      <trkpt lat="42.86376" lon="0.17101">
        <ele>2312</ele>
        <time>2019-03-20T14:49:36Z</time>
      </trkpt>
      <trkpt lat="42.86375" lon="0.17106">
        <ele>2311</ele>
        <time>2019-03-20T14:49:38Z</time>
      </trkpt>
      <trkpt lat="42.86374" lon="0.17111">
        <ele>2311</ele>
        <time>2019-03-20T14:49:39Z</time>
      </trkpt>
      <trkpt lat="42.86371" lon="0.17115">
        <ele>2310</ele>
        <time>2019-03-20T14:49:40Z</time>
      </trkpt>
      <trkpt lat="42.86369" lon="0.17124">
        <ele>2310</ele>
        <time>2019-03-20T14:49:42Z</time>
      </trkpt>
      <trkpt lat="42.86368" lon="0.17131">
        <ele>2310</ele>
        <time>2019-03-20T14:49:44Z</time>
      </trkpt>
      <trkpt lat="42.86365" lon="0.17133">
        <ele>2309</ele>
        <time>2019-03-20T14:49:57Z</time>
      </trkpt>
      <trkpt lat="42.86361" lon="0.17131">
        <ele>2306</ele>
        <time>2019-03-20T14:50:56Z</time>
      </trkpt>
      <trkpt lat="42.86358" lon="0.1713">
        <ele>2297</ele>
        <time>2019-03-20T14:51:11Z</time>
      </trkpt>
      <trkpt lat="42.86359" lon="0.17137">
        <ele>2296</ele>
        <time>2019-03-20T14:51:18Z</time>
      </trkpt>
      <trkpt lat="42.8636" lon="0.17143">
        <ele>2296</ele>
        <time>2019-03-20T14:51:19Z</time>
      </trkpt>
      <trkpt lat="42.86355" lon="0.1715">
        <ele>2296</ele>
        <time>2019-03-20T14:51:21Z</time>
      </trkpt>
      <trkpt lat="42.86343" lon="0.17176">
        <ele>2295</ele>
        <time>2019-03-20T14:51:25Z</time>
      </trkpt>
      <trkpt lat="42.86336" lon="0.17186">
        <ele>2294</ele>
        <time>2019-03-20T14:51:27Z</time>
      </trkpt>
      <trkpt lat="42.86328" lon="0.17193">
        <ele>2294</ele>
        <time>2019-03-20T14:51:31Z</time>
      </trkpt>
      <trkpt lat="42.86323" lon="0.17197">
        <ele>2294</ele>
        <time>2019-03-20T14:51:33Z</time>
      </trkpt>
      <trkpt lat="42.8631" lon="0.17218">
        <ele>2294</ele>
        <time>2019-03-20T14:51:40Z</time>
      </trkpt>
      <trkpt lat="42.86297" lon="0.17252">
        <ele>2293</ele>
        <time>2019-03-20T14:51:48Z</time>
      </trkpt>
      <trkpt lat="42.86286" lon="0.17276">
        <ele>2292</ele>
        <time>2019-03-20T14:51:53Z</time>
      </trkpt>
      <trkpt lat="42.86282" lon="0.17274">
        <ele>2289</ele>
        <time>2019-03-20T14:52:07Z</time>
      </trkpt>
      <trkpt lat="42.86282" lon="0.17281">
        <ele>2288</ele>
        <time>2019-03-20T14:52:19Z</time>
      </trkpt>
      <trkpt lat="42.8628" lon="0.17288">
        <ele>2286</ele>
        <time>2019-03-20T14:52:22Z</time>
      </trkpt>
      <trkpt lat="42.86278" lon="0.17295">
        <ele>2285</ele>
        <time>2019-03-20T14:52:25Z</time>
      </trkpt>
      <trkpt lat="42.86269" lon="0.17307">
        <ele>2283</ele>
        <time>2019-03-20T14:52:29Z</time>
      </trkpt>
      <trkpt lat="42.86257" lon="0.17333">
        <ele>2276</ele>
        <time>2019-03-20T14:52:34Z</time>
      </trkpt>
      <trkpt lat="42.86256" lon="0.17341">
        <ele>2276</ele>
        <time>2019-03-20T14:52:36Z</time>
      </trkpt>
      <trkpt lat="42.86255" lon="0.17346">
        <ele>2275</ele>
        <time>2019-03-20T14:52:53Z</time>
      </trkpt>
      <trkpt lat="42.86252" lon="0.17352">
        <ele>2274</ele>
        <time>2019-03-20T14:53:08Z</time>
      </trkpt>
      <trkpt lat="42.86249" lon="0.17355">
        <ele>2274</ele>
        <time>2019-03-20T14:53:11Z</time>
      </trkpt>
      <trkpt lat="42.86246" lon="0.17359">
        <ele>2273</ele>
        <time>2019-03-20T14:53:13Z</time>
      </trkpt>
      <trkpt lat="42.86245" lon="0.17365">
        <ele>2273</ele>
        <time>2019-03-20T14:53:14Z</time>
      </trkpt>
      <trkpt lat="42.86246" lon="0.17372">
        <ele>2272</ele>
        <time>2019-03-20T14:53:15Z</time>
      </trkpt>
      <trkpt lat="42.86247" lon="0.1738">
        <ele>2272</ele>
        <time>2019-03-20T14:53:16Z</time>
      </trkpt>
      <trkpt lat="42.86246" lon="0.17387">
        <ele>2271</ele>
        <time>2019-03-20T14:53:17Z</time>
      </trkpt>
      <trkpt lat="42.86247" lon="0.17393">
        <ele>2271</ele>
        <time>2019-03-20T14:53:18Z</time>
      </trkpt>
      <trkpt lat="42.86244" lon="0.17398">
        <ele>2270</ele>
        <time>2019-03-20T14:53:19Z</time>
      </trkpt>
      <trkpt lat="42.86242" lon="0.17405">
        <ele>2270</ele>
        <time>2019-03-20T14:53:20Z</time>
      </trkpt>
      <trkpt lat="42.86224" lon="0.17495">
        <ele>2265</ele>
        <time>2019-03-20T14:53:31Z</time>
      </trkpt>
      <trkpt lat="42.86209" lon="0.17543">
        <ele>2261</ele>
        <time>2019-03-20T14:53:37Z</time>
      </trkpt>
      <trkpt lat="42.86202" lon="0.17573">
        <ele>2258</ele>
        <time>2019-03-20T14:53:44Z</time>
      </trkpt>
      <trkpt lat="42.86202" lon="0.17583">
        <ele>2257</ele>
        <time>2019-03-20T14:54:00Z</time>
      </trkpt>
      <trkpt lat="42.86207" lon="0.17584">
        <ele>2256</ele>
        <time>2019-03-20T14:54:28Z</time>
      </trkpt>
      <trkpt lat="42.86206" lon="0.17608">
        <ele>2253</ele>
        <time>2019-03-20T14:54:46Z</time>
      </trkpt>
      <trkpt lat="42.86205" lon="0.17612">
        <ele>2253</ele>
        <time>2019-03-20T14:54:48Z</time>
      </trkpt>
      <trkpt lat="42.86205" lon="0.17614">
        <ele>2252</ele>
        <time>2019-03-20T14:54:52Z</time>
      </trkpt>
      <trkpt lat="42.86204" lon="0.17618">
        <ele>2252</ele>
        <time>2019-03-20T14:54:54Z</time>
      </trkpt>
      <trkpt lat="42.86203" lon="0.17624">
        <ele>2251</ele>
        <time>2019-03-20T14:54:58Z</time>
      </trkpt>
      <trkpt lat="42.86205" lon="0.17626">
        <ele>2250</ele>
        <time>2019-03-20T14:55:01Z</time>
      </trkpt>
      <trkpt lat="42.86205" lon="0.1763">
        <ele>2250</ele>
        <time>2019-03-20T14:55:04Z</time>
      </trkpt>
      <trkpt lat="42.86203" lon="0.17633">
        <ele>2249</ele>
        <time>2019-03-20T14:55:06Z</time>
      </trkpt>
      <trkpt lat="42.86204" lon="0.17636">
        <ele>2249</ele>
        <time>2019-03-20T14:55:11Z</time>
      </trkpt>
      <trkpt lat="42.86202" lon="0.17641">
        <ele>2248</ele>
        <time>2019-03-20T14:55:14Z</time>
      </trkpt>
      <trkpt lat="42.86201" lon="0.17643">
        <ele>2248</ele>
        <time>2019-03-20T14:55:15Z</time>
      </trkpt>
      <trkpt lat="42.86201" lon="0.17646">
        <ele>2247</ele>
        <time>2019-03-20T14:55:20Z</time>
      </trkpt>
      <trkpt lat="42.862" lon="0.17652">
        <ele>2246</ele>
        <time>2019-03-20T14:55:26Z</time>
      </trkpt>
      <trkpt lat="42.86202" lon="0.17658">
        <ele>2245</ele>
        <time>2019-03-20T14:55:35Z</time>
      </trkpt>
      <trkpt lat="42.862" lon="0.17667">
        <ele>2244</ele>
        <time>2019-03-20T14:55:43Z</time>
      </trkpt>
      <trkpt lat="42.862" lon="0.1767">
        <ele>2243</ele>
        <time>2019-03-20T14:55:45Z</time>
      </trkpt>
      <trkpt lat="42.862" lon="0.17683">
        <ele>2242</ele>
        <time>2019-03-20T14:56:02Z</time>
      </trkpt>
      <trkpt lat="42.86206" lon="0.17688">
        <ele>2240</ele>
        <time>2019-03-20T14:56:13Z</time>
      </trkpt>
      <trkpt lat="42.86205" lon="0.17694">
        <ele>2240</ele>
        <time>2019-03-20T14:56:17Z</time>
      </trkpt>
      <trkpt lat="42.86211" lon="0.17703">
        <ele>2239</ele>
        <time>2019-03-20T14:56:28Z</time>
      </trkpt>
      <trkpt lat="42.86215" lon="0.17711">
        <ele>2239</ele>
        <time>2019-03-20T14:56:35Z</time>
      </trkpt>
      <trkpt lat="42.86216" lon="0.17717">
        <ele>2238</ele>
        <time>2019-03-20T14:56:40Z</time>
      </trkpt>
      <trkpt lat="42.86216" lon="0.1772">
        <ele>2238</ele>
        <time>2019-03-20T14:56:43Z</time>
      </trkpt>
      <trkpt lat="42.86218" lon="0.17722">
        <ele>2238</ele>
        <time>2019-03-20T14:56:45Z</time>
      </trkpt>
      <trkpt lat="42.86222" lon="0.17738">
        <ele>2237</ele>
        <time>2019-03-20T14:57:00Z</time>
      </trkpt>
      <trkpt lat="42.86224" lon="0.1774">
        <ele>2237</ele>
        <time>2019-03-20T14:57:02Z</time>
      </trkpt>
      <trkpt lat="42.86224" lon="0.17743">
        <ele>2237</ele>
        <time>2019-03-20T14:57:05Z</time>
      </trkpt>
      <trkpt lat="42.86231" lon="0.17752">
        <ele>2236</ele>
        <time>2019-03-20T14:57:20Z</time>
      </trkpt>
      <trkpt lat="42.86231" lon="0.17756">
        <ele>2236</ele>
        <time>2019-03-20T14:57:23Z</time>
      </trkpt>
      <trkpt lat="42.86232" lon="0.17758">
        <ele>2235</ele>
        <time>2019-03-20T14:57:26Z</time>
      </trkpt>
      <trkpt lat="42.86233" lon="0.17761">
        <ele>2235</ele>
        <time>2019-03-20T14:57:29Z</time>
      </trkpt>
      <trkpt lat="42.86236" lon="0.17765">
        <ele>2235</ele>
        <time>2019-03-20T14:57:34Z</time>
      </trkpt>
      <trkpt lat="42.86237" lon="0.17767">
        <ele>2235</ele>
        <time>2019-03-20T14:57:36Z</time>
      </trkpt>
      <trkpt lat="42.8624" lon="0.17767">
        <ele>2235</ele>
        <time>2019-03-20T14:57:38Z</time>
      </trkpt>
      <trkpt lat="42.86243" lon="0.17772">
        <ele>2235</ele>
        <time>2019-03-20T14:57:42Z</time>
      </trkpt>
      <trkpt lat="42.86243" lon="0.17775">
        <ele>2234</ele>
        <time>2019-03-20T14:57:45Z</time>
      </trkpt>
      <trkpt lat="42.86244" lon="0.17778">
        <ele>2234</ele>
        <time>2019-03-20T14:57:48Z</time>
      </trkpt>
      <trkpt lat="42.86248" lon="0.17788">
        <ele>2234</ele>
        <time>2019-03-20T14:57:59Z</time>
      </trkpt>
      <trkpt lat="42.8625" lon="0.17795">
        <ele>2234</ele>
        <time>2019-03-20T14:58:06Z</time>
      </trkpt>
      <trkpt lat="42.8625" lon="0.17799">
        <ele>2233</ele>
        <time>2019-03-20T14:58:08Z</time>
      </trkpt>
      <trkpt lat="42.8625" lon="0.17802">
        <ele>2233</ele>
        <time>2019-03-20T14:58:11Z</time>
      </trkpt>
      <trkpt lat="42.8625" lon="0.17804">
        <ele>2233</ele>
        <time>2019-03-20T14:58:15Z</time>
      </trkpt>
      <trkpt lat="42.86251" lon="0.17807">
        <ele>2233</ele>
        <time>2019-03-20T14:58:17Z</time>
      </trkpt>
      <trkpt lat="42.86255" lon="0.17813">
        <ele>2233</ele>
        <time>2019-03-20T14:58:22Z</time>
      </trkpt>
      <trkpt lat="42.86255" lon="0.17816">
        <ele>2233</ele>
        <time>2019-03-20T14:58:24Z</time>
      </trkpt>
      <trkpt lat="42.86256" lon="0.1782">
        <ele>2233</ele>
        <time>2019-03-20T14:58:27Z</time>
      </trkpt>
      <trkpt lat="42.86256" lon="0.17825">
        <ele>2232</ele>
        <time>2019-03-20T14:58:34Z</time>
      </trkpt>
      <trkpt lat="42.86255" lon="0.17841">
        <ele>2232</ele>
        <time>2019-03-20T14:58:50Z</time>
      </trkpt>
      <trkpt lat="42.86256" lon="0.17839">
        <ele>2232</ele>
        <time>2019-03-20T14:58:57Z</time>
      </trkpt>
      <trkpt lat="42.86256" lon="0.17845">
        <ele>2232</ele>
        <time>2019-03-20T14:59:12Z</time>
      </trkpt>
      <trkpt lat="42.86255" lon="0.1785">
        <ele>2232</ele>
        <time>2019-03-20T14:59:16Z</time>
      </trkpt>
      <trkpt lat="42.86254" lon="0.17856">
        <ele>2232</ele>
        <time>2019-03-20T14:59:23Z</time>
      </trkpt>
      <trkpt lat="42.86256" lon="0.17859">
        <ele>2232</ele>
        <time>2019-03-20T14:59:27Z</time>
      </trkpt>
      <trkpt lat="42.86256" lon="0.17861">
        <ele>2232</ele>
        <time>2019-03-20T14:59:40Z</time>
      </trkpt>
      <trkpt lat="42.86254" lon="0.17862">
        <ele>2231</ele>
        <time>2019-03-20T15:00:03Z</time>
      </trkpt>
      <trkpt lat="42.86253" lon="0.17862">
        <ele>2231</ele>
        <time>2019-03-20T15:00:21Z</time>
      </trkpt>
      <trkpt lat="42.86253" lon="0.17864">
        <ele>2232</ele>
        <time>2019-03-20T15:02:03Z</time>
      </trkpt>
      <trkpt lat="42.86252" lon="0.17868">
        <ele>2232</ele>
        <time>2019-03-20T15:02:07Z</time>
      </trkpt>
      <trkpt lat="42.86254" lon="0.17877">
        <ele>2232</ele>
        <time>2019-03-20T15:02:17Z</time>
      </trkpt>
      <trkpt lat="42.86256" lon="0.17881">
        <ele>2232</ele>
        <time>2019-03-20T15:02:20Z</time>
      </trkpt>
      <trkpt lat="42.86256" lon="0.17881">
        <ele>2232</ele>
        <time>2019-03-20T15:04:07Z</time>
      </trkpt>
      <trkpt lat="42.86255" lon="0.17885">
        <ele>2232</ele>
        <time>2019-03-20T15:04:09Z</time>
      </trkpt>
      <trkpt lat="42.86253" lon="0.17911">
        <ele>2232</ele>
        <time>2019-03-20T15:04:30Z</time>
      </trkpt>
      <trkpt lat="42.86255" lon="0.17922">
        <ele>2232</ele>
        <time>2019-03-20T15:04:35Z</time>
      </trkpt>
      <trkpt lat="42.86248" lon="0.17973">
        <ele>2232</ele>
        <time>2019-03-20T15:04:57Z</time>
      </trkpt>
      <trkpt lat="42.8625" lon="0.17977">
        <ele>2233</ele>
        <time>2019-03-20T15:05:42Z</time>
      </trkpt>
      <trkpt lat="42.8625" lon="0.17982">
        <ele>2232</ele>
        <time>2019-03-20T15:07:22Z</time>
      </trkpt>
      <trkpt lat="42.8626" lon="0.17992">
        <ele>2232</ele>
        <time>2019-03-20T15:07:38Z</time>
      </trkpt>
      <trkpt lat="42.86271" lon="0.17997">
        <ele>2232</ele>
        <time>2019-03-20T15:07:42Z</time>
      </trkpt>
      <trkpt lat="42.86278" lon="0.18005">
        <ele>2232</ele>
        <time>2019-03-20T15:07:45Z</time>
      </trkpt>
      <trkpt lat="42.8628" lon="0.18008">
        <ele>2232</ele>
        <time>2019-03-20T15:07:46Z</time>
      </trkpt>
      <trkpt lat="42.86286" lon="0.18012">
        <ele>2232</ele>
        <time>2019-03-20T15:07:48Z</time>
      </trkpt>
      <trkpt lat="42.86291" lon="0.18016">
        <ele>2232</ele>
        <time>2019-03-20T15:07:51Z</time>
      </trkpt>
      <trkpt lat="42.86291" lon="0.18022">
        <ele>2232</ele>
        <time>2019-03-20T15:07:53Z</time>
      </trkpt>
      <trkpt lat="42.86288" lon="0.18028">
        <ele>2232</ele>
        <time>2019-03-20T15:07:55Z</time>
      </trkpt>
      <trkpt lat="42.8629" lon="0.18032">
        <ele>2231</ele>
        <time>2019-03-20T15:07:56Z</time>
      </trkpt>
      <trkpt lat="42.86292" lon="0.18039">
        <ele>2231</ele>
        <time>2019-03-20T15:07:57Z</time>
      </trkpt>
      <trkpt lat="42.86293" lon="0.18043">
        <ele>2231</ele>
        <time>2019-03-20T15:07:58Z</time>
      </trkpt>
      <trkpt lat="42.8629" lon="0.18046">
        <ele>2231</ele>
        <time>2019-03-20T15:07:59Z</time>
      </trkpt>
      <trkpt lat="42.86288" lon="0.1805">
        <ele>2231</ele>
        <time>2019-03-20T15:08:00Z</time>
      </trkpt>
      <trkpt lat="42.8629" lon="0.18058">
        <ele>2231</ele>
        <time>2019-03-20T15:08:02Z</time>
      </trkpt>
      <trkpt lat="42.86288" lon="0.18063">
        <ele>2231</ele>
        <time>2019-03-20T15:08:04Z</time>
      </trkpt>
      <trkpt lat="42.86287" lon="0.18068">
        <ele>2231</ele>
        <time>2019-03-20T15:08:21Z</time>
      </trkpt>
      <trkpt lat="42.86285" lon="0.18075">
        <ele>2231</ele>
        <time>2019-03-20T15:08:26Z</time>
      </trkpt>
      <trkpt lat="42.86278" lon="0.18079">
        <ele>2231</ele>
        <time>2019-03-20T15:08:28Z</time>
      </trkpt>
      <trkpt lat="42.86275" lon="0.18086">
        <ele>2231</ele>
        <time>2019-03-20T15:08:29Z</time>
      </trkpt>
      <trkpt lat="42.86275" lon="0.18092">
        <ele>2231</ele>
        <time>2019-03-20T15:08:31Z</time>
      </trkpt>
      <trkpt lat="42.86277" lon="0.18097">
        <ele>2231</ele>
        <time>2019-03-20T15:08:38Z</time>
      </trkpt>
      <trkpt lat="42.86273" lon="0.18098">
        <ele>2230</ele>
        <time>2019-03-20T15:09:35Z</time>
      </trkpt>
      <trkpt lat="42.86269" lon="0.18097">
        <ele>2230</ele>
        <time>2019-03-20T15:10:01Z</time>
      </trkpt>
      <trkpt lat="42.86268" lon="0.18105">
        <ele>2228</ele>
        <time>2019-03-20T15:10:06Z</time>
      </trkpt>
      <trkpt lat="42.86265" lon="0.18113">
        <ele>2228</ele>
        <time>2019-03-20T15:10:08Z</time>
      </trkpt>
      <trkpt lat="42.8626" lon="0.18117">
        <ele>2227</ele>
        <time>2019-03-20T15:10:11Z</time>
      </trkpt>
      <trkpt lat="42.86261" lon="0.18125">
        <ele>2226</ele>
        <time>2019-03-20T15:10:27Z</time>
      </trkpt>
      <trkpt lat="42.8626" lon="0.18135">
        <ele>2225</ele>
        <time>2019-03-20T15:10:29Z</time>
      </trkpt>
      <trkpt lat="42.86259" lon="0.18141">
        <ele>2225</ele>
        <time>2019-03-20T15:10:30Z</time>
      </trkpt>
      <trkpt lat="42.86263" lon="0.18146">
        <ele>2224</ele>
        <time>2019-03-20T15:10:32Z</time>
      </trkpt>
      <trkpt lat="42.86263" lon="0.18153">
        <ele>2224</ele>
        <time>2019-03-20T15:10:34Z</time>
      </trkpt>
      <trkpt lat="42.86263" lon="0.18159">
        <ele>2224</ele>
        <time>2019-03-20T15:10:36Z</time>
      </trkpt>
      <trkpt lat="42.86266" lon="0.18168">
        <ele>2223</ele>
        <time>2019-03-20T15:10:38Z</time>
      </trkpt>
      <trkpt lat="42.86263" lon="0.18172">
        <ele>2223</ele>
        <time>2019-03-20T15:10:40Z</time>
      </trkpt>
      <trkpt lat="42.8626" lon="0.18175">
        <ele>2223</ele>
        <time>2019-03-20T15:10:42Z</time>
      </trkpt>
      <trkpt lat="42.86242" lon="0.18176">
        <ele>2222</ele>
        <time>2019-03-20T15:10:48Z</time>
      </trkpt>
      <trkpt lat="42.86237" lon="0.18176">
        <ele>2222</ele>
        <time>2019-03-20T15:10:54Z</time>
      </trkpt>
      <trkpt lat="42.86236" lon="0.18183">
        <ele>2221</ele>
        <time>2019-03-20T15:11:08Z</time>
      </trkpt>
      <trkpt lat="42.86241" lon="0.18189">
        <ele>2219</ele>
        <time>2019-03-20T15:11:10Z</time>
      </trkpt>
      <trkpt lat="42.86242" lon="0.18194">
        <ele>2218</ele>
        <time>2019-03-20T15:11:12Z</time>
      </trkpt>
      <trkpt lat="42.86241" lon="0.18198">
        <ele>2214</ele>
        <time>2019-03-20T15:12:54Z</time>
      </trkpt>
      <trkpt lat="42.86241" lon="0.18203">
        <ele>2212</ele>
        <time>2019-03-20T15:13:39Z</time>
      </trkpt>
      <trkpt lat="42.8624" lon="0.18207">
        <ele>2207</ele>
        <time>2019-03-20T15:14:42Z</time>
      </trkpt>
      <trkpt lat="42.86237" lon="0.18208">
        <ele>2203</ele>
        <time>2019-03-20T15:15:40Z</time>
      </trkpt>
      <trkpt lat="42.86238" lon="0.18214">
        <ele>2202</ele>
        <time>2019-03-20T15:15:42Z</time>
      </trkpt>
      <trkpt lat="42.86243" lon="0.18219">
        <ele>2201</ele>
        <time>2019-03-20T15:15:45Z</time>
      </trkpt>
      <trkpt lat="42.86246" lon="0.18226">
        <ele>2200</ele>
        <time>2019-03-20T15:15:47Z</time>
      </trkpt>
      <trkpt lat="42.8624" lon="0.18235">
        <ele>2199</ele>
        <time>2019-03-20T15:15:49Z</time>
      </trkpt>
      <trkpt lat="42.86236" lon="0.18242">
        <ele>2199</ele>
        <time>2019-03-20T15:15:51Z</time>
      </trkpt>
      <trkpt lat="42.86236" lon="0.18251">
        <ele>2197</ele>
        <time>2019-03-20T15:15:53Z</time>
      </trkpt>
      <trkpt lat="42.86225" lon="0.18266">
        <ele>2196</ele>
        <time>2019-03-20T15:15:58Z</time>
      </trkpt>
      <trkpt lat="42.86221" lon="0.1827">
        <ele>2196</ele>
        <time>2019-03-20T15:16:00Z</time>
      </trkpt>
      <trkpt lat="42.86223" lon="0.18276">
        <ele>2195</ele>
        <time>2019-03-20T15:16:02Z</time>
      </trkpt>
      <trkpt lat="42.86225" lon="0.1828">
        <ele>2195</ele>
        <time>2019-03-20T15:16:03Z</time>
      </trkpt>
      <trkpt lat="42.86218" lon="0.18288">
        <ele>2194</ele>
        <time>2019-03-20T15:16:29Z</time>
      </trkpt>
      <trkpt lat="42.86215" lon="0.18293">
        <ele>2194</ele>
        <time>2019-03-20T15:16:31Z</time>
      </trkpt>
      <trkpt lat="42.86219" lon="0.18297">
        <ele>2193</ele>
        <time>2019-03-20T15:16:33Z</time>
      </trkpt>
      <trkpt lat="42.86224" lon="0.18299">
        <ele>2193</ele>
        <time>2019-03-20T15:16:35Z</time>
      </trkpt>
      <trkpt lat="42.86223" lon="0.18306">
        <ele>2193</ele>
        <time>2019-03-20T15:16:37Z</time>
      </trkpt>
      <trkpt lat="42.86223" lon="0.18314">
        <ele>2192</ele>
        <time>2019-03-20T15:16:39Z</time>
      </trkpt>
      <trkpt lat="42.86223" lon="0.18319">
        <ele>2192</ele>
        <time>2019-03-20T15:16:40Z</time>
      </trkpt>
      <trkpt lat="42.86223" lon="0.18326">
        <ele>2192</ele>
        <time>2019-03-20T15:16:42Z</time>
      </trkpt>
      <trkpt lat="42.86224" lon="0.18333">
        <ele>2190</ele>
        <time>2019-03-20T15:16:44Z</time>
      </trkpt>
      <trkpt lat="42.86223" lon="0.18339">
        <ele>2189</ele>
        <time>2019-03-20T15:16:45Z</time>
      </trkpt>
      <trkpt lat="42.86224" lon="0.18344">
        <ele>2188</ele>
        <time>2019-03-20T15:16:46Z</time>
      </trkpt>
      <trkpt lat="42.86226" lon="0.18351">
        <ele>2187</ele>
        <time>2019-03-20T15:16:48Z</time>
      </trkpt>
      <trkpt lat="42.86227" lon="0.18357">
        <ele>2186</ele>
        <time>2019-03-20T15:16:50Z</time>
      </trkpt>
      <trkpt lat="42.86228" lon="0.18364">
        <ele>2186</ele>
        <time>2019-03-20T15:16:51Z</time>
      </trkpt>
      <trkpt lat="42.86225" lon="0.18371">
        <ele>2186</ele>
        <time>2019-03-20T15:16:53Z</time>
      </trkpt>
      <trkpt lat="42.86225" lon="0.18377">
        <ele>2185</ele>
        <time>2019-03-20T15:16:55Z</time>
      </trkpt>
      <trkpt lat="42.86229" lon="0.18384">
        <ele>2182</ele>
        <time>2019-03-20T15:16:58Z</time>
      </trkpt>
      <trkpt lat="42.86228" lon="0.18389">
        <ele>2180</ele>
        <time>2019-03-20T15:16:59Z</time>
      </trkpt>
      <trkpt lat="42.86225" lon="0.18394">
        <ele>2178</ele>
        <time>2019-03-20T15:17:00Z</time>
      </trkpt>
      <trkpt lat="42.86224" lon="0.18401">
        <ele>2177</ele>
        <time>2019-03-20T15:17:01Z</time>
      </trkpt>
      <trkpt lat="42.86222" lon="0.18418">
        <ele>2171</ele>
        <time>2019-03-20T15:17:03Z</time>
      </trkpt>
      <trkpt lat="42.86222" lon="0.18427">
        <ele>2168</ele>
        <time>2019-03-20T15:17:04Z</time>
      </trkpt>
      <trkpt lat="42.86224" lon="0.18434">
        <ele>2166</ele>
        <time>2019-03-20T15:17:05Z</time>
      </trkpt>
      <trkpt lat="42.86228" lon="0.18436">
        <ele>2163</ele>
        <time>2019-03-20T15:17:06Z</time>
      </trkpt>
      <trkpt lat="42.86232" lon="0.18437">
        <ele>2162</ele>
        <time>2019-03-20T15:17:07Z</time>
      </trkpt>
      <trkpt lat="42.86236" lon="0.18448">
        <ele>2158</ele>
        <time>2019-03-20T15:17:09Z</time>
      </trkpt>
      <trkpt lat="42.86239" lon="0.18462">
        <ele>2155</ele>
        <time>2019-03-20T15:17:11Z</time>
      </trkpt>
      <trkpt lat="42.86238" lon="0.18484">
        <ele>2151</ele>
        <time>2019-03-20T15:17:46Z</time>
      </trkpt>
      <trkpt lat="42.86237" lon="0.18489">
        <ele>2146</ele>
        <time>2019-03-20T15:19:20Z</time>
      </trkpt>
      <trkpt lat="42.86237" lon="0.18501">
        <ele>2142</ele>
        <time>2019-03-20T15:19:24Z</time>
      </trkpt>
      <trkpt lat="42.86236" lon="0.18506">
        <ele>2140</ele>
        <time>2019-03-20T15:19:27Z</time>
      </trkpt>
      <trkpt lat="42.86237" lon="0.18511">
        <ele>2139</ele>
        <time>2019-03-20T15:19:30Z</time>
      </trkpt>
      <trkpt lat="42.8624" lon="0.18512">
        <ele>2138</ele>
        <time>2019-03-20T15:19:33Z</time>
      </trkpt>
      <trkpt lat="42.86243" lon="0.18516">
        <ele>2137</ele>
        <time>2019-03-20T15:19:36Z</time>
      </trkpt>
      <trkpt lat="42.86245" lon="0.18518">
        <ele>2137</ele>
        <time>2019-03-20T15:19:39Z</time>
      </trkpt>
      <trkpt lat="42.86247" lon="0.18522">
        <ele>2136</ele>
        <time>2019-03-20T15:19:42Z</time>
      </trkpt>
      <trkpt lat="42.86248" lon="0.18526">
        <ele>2135</ele>
        <time>2019-03-20T15:19:45Z</time>
      </trkpt>
      <trkpt lat="42.86257" lon="0.18548">
        <ele>2129</ele>
        <time>2019-03-20T15:20:07Z</time>
      </trkpt>
      <trkpt lat="42.86258" lon="0.18551">
        <ele>2128</ele>
        <time>2019-03-20T15:20:11Z</time>
      </trkpt>
      <trkpt lat="42.86256" lon="0.18561">
        <ele>2126</ele>
        <time>2019-03-20T15:20:16Z</time>
      </trkpt>
      <trkpt lat="42.86255" lon="0.18564">
        <ele>2126</ele>
        <time>2019-03-20T15:20:19Z</time>
      </trkpt>
      <trkpt lat="42.86256" lon="0.18567">
        <ele>2124</ele>
        <time>2019-03-20T15:20:26Z</time>
      </trkpt>
      <trkpt lat="42.86253" lon="0.18572">
        <ele>2123</ele>
        <time>2019-03-20T15:20:31Z</time>
      </trkpt>
      <trkpt lat="42.86251" lon="0.18574">
        <ele>2123</ele>
        <time>2019-03-20T15:20:33Z</time>
      </trkpt>
      <trkpt lat="42.8625" lon="0.18575">
        <ele>2122</ele>
        <time>2019-03-20T15:20:36Z</time>
      </trkpt>
      <trkpt lat="42.86247" lon="0.18578">
        <ele>2122</ele>
        <time>2019-03-20T15:20:40Z</time>
      </trkpt>
      <trkpt lat="42.86245" lon="0.18586">
        <ele>2121</ele>
        <time>2019-03-20T15:20:46Z</time>
      </trkpt>
      <trkpt lat="42.86244" lon="0.18597">
        <ele>2120</ele>
        <time>2019-03-20T15:20:50Z</time>
      </trkpt>
      <trkpt lat="42.86244" lon="0.18598">
        <ele>2119</ele>
        <time>2019-03-20T15:21:44Z</time>
      </trkpt>
      <trkpt lat="42.86243" lon="0.18599">
        <ele>2119</ele>
        <time>2019-03-20T15:21:59Z</time>
      </trkpt>
      <trkpt lat="42.86241" lon="0.18599">
        <ele>2118</ele>
        <time>2019-03-20T15:22:24Z</time>
      </trkpt>
      <trkpt lat="42.86239" lon="0.18598">
        <ele>2117</ele>
        <time>2019-03-20T15:22:29Z</time>
      </trkpt>
      <trkpt lat="42.8624" lon="0.18601">
        <ele>2117</ele>
        <time>2019-03-20T15:22:44Z</time>
      </trkpt>
      <trkpt lat="42.86243" lon="0.186">
        <ele>2117</ele>
        <time>2019-03-20T15:23:20Z</time>
      </trkpt>
      <trkpt lat="42.86244" lon="0.18603">
        <ele>2116</ele>
        <time>2019-03-20T15:23:53Z</time>
      </trkpt>
      <trkpt lat="42.86246" lon="0.18609">
        <ele>2116</ele>
        <time>2019-03-20T15:23:56Z</time>
      </trkpt>
      <trkpt lat="42.86244" lon="0.18612">
        <ele>2116</ele>
        <time>2019-03-20T15:24:00Z</time>
      </trkpt>
      <trkpt lat="42.86239" lon="0.18618">
        <ele>2115</ele>
        <time>2019-03-20T15:24:05Z</time>
      </trkpt>
      <trkpt lat="42.86221" lon="0.18643">
        <ele>2115</ele>
        <time>2019-03-20T15:24:24Z</time>
      </trkpt>
      <trkpt lat="42.86211" lon="0.18651">
        <ele>2115</ele>
        <time>2019-03-20T15:24:30Z</time>
      </trkpt>
      <trkpt lat="42.86203" lon="0.18654">
        <ele>2114</ele>
        <time>2019-03-20T15:24:42Z</time>
      </trkpt>
      <trkpt lat="42.86185" lon="0.18665">
        <ele>2114</ele>
        <time>2019-03-20T15:25:04Z</time>
      </trkpt>
      <trkpt lat="42.86181" lon="0.18668">
        <ele>2114</ele>
        <time>2019-03-20T15:25:10Z</time>
      </trkpt>
      <trkpt lat="42.86164" lon="0.18677">
        <ele>2113</ele>
        <time>2019-03-20T15:25:23Z</time>
      </trkpt>
      <trkpt lat="42.86161" lon="0.18679">
        <ele>2113</ele>
        <time>2019-03-20T15:25:27Z</time>
      </trkpt>
      <trkpt lat="42.86155" lon="0.18682">
        <ele>2113</ele>
        <time>2019-03-20T15:25:34Z</time>
      </trkpt>
      <trkpt lat="42.86153" lon="0.18683">
        <ele>2113</ele>
        <time>2019-03-20T15:25:38Z</time>
      </trkpt>
      <trkpt lat="42.86135" lon="0.18692">
        <ele>2113</ele>
        <time>2019-03-20T15:25:59Z</time>
      </trkpt>
      <trkpt lat="42.86132" lon="0.18693">
        <ele>2113</ele>
        <time>2019-03-20T15:26:03Z</time>
      </trkpt>
      <trkpt lat="42.86129" lon="0.18694">
        <ele>2113</ele>
        <time>2019-03-20T15:26:08Z</time>
      </trkpt>
      <trkpt lat="42.86125" lon="0.187">
        <ele>2113</ele>
        <time>2019-03-20T15:26:17Z</time>
      </trkpt>
      <trkpt lat="42.86123" lon="0.18703">
        <ele>2113</ele>
        <time>2019-03-20T15:26:20Z</time>
      </trkpt>
      <trkpt lat="42.86121" lon="0.18706">
        <ele>2113</ele>
        <time>2019-03-20T15:26:24Z</time>
      </trkpt>
      <trkpt lat="42.86119" lon="0.18708">
        <ele>2113</ele>
        <time>2019-03-20T15:26:26Z</time>
      </trkpt>
      <trkpt lat="42.86117" lon="0.18709">
        <ele>2113</ele>
        <time>2019-03-20T15:26:30Z</time>
      </trkpt>
      <trkpt lat="42.86114" lon="0.18708">
        <ele>2113</ele>
        <time>2019-03-20T15:26:46Z</time>
      </trkpt>
      <trkpt lat="42.86109" lon="0.18711">
        <ele>2113</ele>
        <time>2019-03-20T15:27:09Z</time>
      </trkpt>
      <trkpt lat="42.86106" lon="0.1871">
        <ele>2113</ele>
        <time>2019-03-20T15:27:12Z</time>
      </trkpt>
      <trkpt lat="42.86104" lon="0.18708">
        <ele>2113</ele>
        <time>2019-03-20T15:28:19Z</time>
      </trkpt>
      <trkpt lat="42.86092" lon="0.1871">
        <ele>2113</ele>
        <time>2019-03-20T15:28:26Z</time>
      </trkpt>
      <trkpt lat="42.86084" lon="0.18717">
        <ele>2113</ele>
        <time>2019-03-20T15:28:30Z</time>
      </trkpt>
      <trkpt lat="42.8608" lon="0.1872">
        <ele>2112</ele>
        <time>2019-03-20T15:28:32Z</time>
      </trkpt>
      <trkpt lat="42.86077" lon="0.1872">
        <ele>2112</ele>
        <time>2019-03-20T15:28:33Z</time>
      </trkpt>
      <trkpt lat="42.86074" lon="0.1872">
        <ele>2112</ele>
        <time>2019-03-20T15:28:34Z</time>
      </trkpt>
      <trkpt lat="42.86071" lon="0.18723">
        <ele>2112</ele>
        <time>2019-03-20T15:28:35Z</time>
      </trkpt>
      <trkpt lat="42.86068" lon="0.18725">
        <ele>2112</ele>
        <time>2019-03-20T15:28:36Z</time>
      </trkpt>
      <trkpt lat="42.86065" lon="0.18727">
        <ele>2112</ele>
        <time>2019-03-20T15:28:37Z</time>
      </trkpt>
      <trkpt lat="42.86062" lon="0.18731">
        <ele>2112</ele>
        <time>2019-03-20T15:28:38Z</time>
      </trkpt>
      <trkpt lat="42.86059" lon="0.18733">
        <ele>2112</ele>
        <time>2019-03-20T15:28:39Z</time>
      </trkpt>
      <trkpt lat="42.86057" lon="0.18737">
        <ele>2112</ele>
        <time>2019-03-20T15:28:40Z</time>
      </trkpt>
      <trkpt lat="42.86048" lon="0.18749">
        <ele>2112</ele>
        <time>2019-03-20T15:28:45Z</time>
      </trkpt>
      <trkpt lat="42.86049" lon="0.18754">
        <ele>2112</ele>
        <time>2019-03-20T15:29:34Z</time>
      </trkpt>
      <trkpt lat="42.86049" lon="0.18756">
        <ele>2112</ele>
        <time>2019-03-20T15:30:39Z</time>
      </trkpt>
      <trkpt lat="42.86051" lon="0.18755">
        <ele>2112</ele>
        <time>2019-03-20T15:31:20Z</time>
      </trkpt>
      <trkpt lat="42.86051" lon="0.18752">
        <ele>2112</ele>
        <time>2019-03-20T15:31:36Z</time>
      </trkpt>
      <trkpt lat="42.86049" lon="0.18753">
        <ele>2112</ele>
        <time>2019-03-20T15:31:40Z</time>
      </trkpt>
      <trkpt lat="42.86045" lon="0.18754">
        <ele>2112</ele>
        <time>2019-03-20T15:31:42Z</time>
      </trkpt>
      <trkpt lat="42.86042" lon="0.18756">
        <ele>2112</ele>
        <time>2019-03-20T15:31:43Z</time>
      </trkpt>
      <trkpt lat="42.86038" lon="0.1876">
        <ele>2112</ele>
        <time>2019-03-20T15:31:45Z</time>
      </trkpt>
      <trkpt lat="42.86035" lon="0.1876">
        <ele>2112</ele>
        <time>2019-03-20T15:31:46Z</time>
      </trkpt>
      <trkpt lat="42.86032" lon="0.18762">
        <ele>2112</ele>
        <time>2019-03-20T15:31:47Z</time>
      </trkpt>
      <trkpt lat="42.86027" lon="0.18767">
        <ele>2112</ele>
        <time>2019-03-20T15:31:49Z</time>
      </trkpt>
      <trkpt lat="42.86023" lon="0.18769">
        <ele>2112</ele>
        <time>2019-03-20T15:31:50Z</time>
      </trkpt>
      <trkpt lat="42.86021" lon="0.18772">
        <ele>2112</ele>
        <time>2019-03-20T15:31:51Z</time>
      </trkpt>
      <trkpt lat="42.86021" lon="0.18776">
        <ele>2112</ele>
        <time>2019-03-20T15:31:54Z</time>
      </trkpt>
      <trkpt lat="42.86018" lon="0.18778">
        <ele>2112</ele>
        <time>2019-03-20T15:31:58Z</time>
      </trkpt>
      <trkpt lat="42.86016" lon="0.18782">
        <ele>2111</ele>
        <time>2019-03-20T15:32:00Z</time>
      </trkpt>
      <trkpt lat="42.86013" lon="0.18783">
        <ele>2111</ele>
        <time>2019-03-20T15:32:01Z</time>
      </trkpt>
      <trkpt lat="42.8601" lon="0.18787">
        <ele>2111</ele>
        <time>2019-03-20T15:32:02Z</time>
      </trkpt>
      <trkpt lat="42.86009" lon="0.18791">
        <ele>2111</ele>
        <time>2019-03-20T15:32:03Z</time>
      </trkpt>
      <trkpt lat="42.86009" lon="0.18796">
        <ele>2111</ele>
        <time>2019-03-20T15:32:04Z</time>
      </trkpt>
      <trkpt lat="42.86007" lon="0.18802">
        <ele>2111</ele>
        <time>2019-03-20T15:32:06Z</time>
      </trkpt>
      <trkpt lat="42.86007" lon="0.18805">
        <ele>2111</ele>
        <time>2019-03-20T15:32:09Z</time>
      </trkpt>
      <trkpt lat="42.86006" lon="0.18803">
        <ele>2111</ele>
        <time>2019-03-20T15:32:13Z</time>
      </trkpt>
      <trkpt lat="42.86001" lon="0.18793">
        <ele>2111</ele>
        <time>2019-03-20T15:32:18Z</time>
      </trkpt>
      <trkpt lat="42.85999" lon="0.18793">
        <ele>2111</ele>
        <time>2019-03-20T15:32:34Z</time>
      </trkpt>
      <trkpt lat="42.85996" lon="0.18793">
        <ele>2111</ele>
        <time>2019-03-20T15:32:36Z</time>
      </trkpt>
      <trkpt lat="42.85992" lon="0.18794">
        <ele>2111</ele>
        <time>2019-03-20T15:32:39Z</time>
      </trkpt>
      <trkpt lat="42.8599" lon="0.18796">
        <ele>2110</ele>
        <time>2019-03-20T15:32:44Z</time>
      </trkpt>
      <trkpt lat="42.85987" lon="0.18796">
        <ele>2110</ele>
        <time>2019-03-20T15:32:46Z</time>
      </trkpt>
      <trkpt lat="42.85984" lon="0.18794">
        <ele>2110</ele>
        <time>2019-03-20T15:32:48Z</time>
      </trkpt>
      <trkpt lat="42.85984" lon="0.18797">
        <ele>2110</ele>
        <time>2019-03-20T15:33:26Z</time>
      </trkpt>
      <trkpt lat="42.8598" lon="0.188">
        <ele>2110</ele>
        <time>2019-03-20T15:33:39Z</time>
      </trkpt>
      <trkpt lat="42.85978" lon="0.18804">
        <ele>2108</ele>
        <time>2019-03-20T15:33:46Z</time>
      </trkpt>
      <trkpt lat="42.85973" lon="0.18806">
        <ele>2108</ele>
        <time>2019-03-20T15:33:51Z</time>
      </trkpt>
      <trkpt lat="42.85969" lon="0.18805">
        <ele>2108</ele>
        <time>2019-03-20T15:33:53Z</time>
      </trkpt>
      <trkpt lat="42.8597" lon="0.1881">
        <ele>2108</ele>
        <time>2019-03-20T15:33:55Z</time>
      </trkpt>
      <trkpt lat="42.8597" lon="0.18814">
        <ele>2108</ele>
        <time>2019-03-20T15:33:58Z</time>
      </trkpt>
      <trkpt lat="42.85967" lon="0.18815">
        <ele>2108</ele>
        <time>2019-03-20T15:34:02Z</time>
      </trkpt>
      <trkpt lat="42.85964" lon="0.18816">
        <ele>2107</ele>
        <time>2019-03-20T15:34:04Z</time>
      </trkpt>
      <trkpt lat="42.85961" lon="0.18818">
        <ele>2107</ele>
        <time>2019-03-20T15:34:05Z</time>
      </trkpt>
      <trkpt lat="42.85958" lon="0.18819">
        <ele>2107</ele>
        <time>2019-03-20T15:34:18Z</time>
      </trkpt>
      <trkpt lat="42.85954" lon="0.18821">
        <ele>2107</ele>
        <time>2019-03-20T15:34:36Z</time>
      </trkpt>
      <trkpt lat="42.85951" lon="0.18832">
        <ele>2106</ele>
        <time>2019-03-20T15:34:43Z</time>
      </trkpt>
      <trkpt lat="42.85948" lon="0.18836">
        <ele>2106</ele>
        <time>2019-03-20T15:35:00Z</time>
      </trkpt>
      <trkpt lat="42.8595" lon="0.18854">
        <ele>2105</ele>
        <time>2019-03-20T15:35:26Z</time>
      </trkpt>
      <trkpt lat="42.85949" lon="0.1886">
        <ele>2103</ele>
        <time>2019-03-20T15:36:13Z</time>
      </trkpt>
      <trkpt lat="42.85946" lon="0.1886">
        <ele>2101</ele>
        <time>2019-03-20T15:38:06Z</time>
      </trkpt>
      <trkpt lat="42.85944" lon="0.18864">
        <ele>2101</ele>
        <time>2019-03-20T15:38:44Z</time>
      </trkpt>
      <trkpt lat="42.85944" lon="0.18869">
        <ele>2099</ele>
        <time>2019-03-20T15:38:54Z</time>
      </trkpt>
      <trkpt lat="42.85944" lon="0.18874">
        <ele>2097</ele>
        <time>2019-03-20T15:39:42Z</time>
      </trkpt>
      <trkpt lat="42.85941" lon="0.18877">
        <ele>2095</ele>
        <time>2019-03-20T15:39:54Z</time>
      </trkpt>
      <trkpt lat="42.85939" lon="0.18882">
        <ele>2094</ele>
        <time>2019-03-20T15:40:10Z</time>
      </trkpt>
      <trkpt lat="42.85937" lon="0.18888">
        <ele>2093</ele>
        <time>2019-03-20T15:40:38Z</time>
      </trkpt>
      <trkpt lat="42.85934" lon="0.1889">
        <ele>2093</ele>
        <time>2019-03-20T15:40:44Z</time>
      </trkpt>
      <trkpt lat="42.85931" lon="0.18893">
        <ele>2092</ele>
        <time>2019-03-20T15:40:53Z</time>
      </trkpt>
      <trkpt lat="42.8593" lon="0.18898">
        <ele>2091</ele>
        <time>2019-03-20T15:41:04Z</time>
      </trkpt>
      <trkpt lat="42.85928" lon="0.18902">
        <ele>2091</ele>
        <time>2019-03-20T15:41:44Z</time>
      </trkpt>
      <trkpt lat="42.85929" lon="0.18908">
        <ele>2090</ele>
        <time>2019-03-20T15:41:52Z</time>
      </trkpt>
      <trkpt lat="42.85927" lon="0.18912">
        <ele>2089</ele>
        <time>2019-03-20T15:42:13Z</time>
      </trkpt>
      <trkpt lat="42.85923" lon="0.18913">
        <ele>2088</ele>
        <time>2019-03-20T15:42:25Z</time>
      </trkpt>
      <trkpt lat="42.8592" lon="0.18917">
        <ele>2087</ele>
        <time>2019-03-20T15:42:53Z</time>
      </trkpt>
      <trkpt lat="42.85917" lon="0.18916">
        <ele>2087</ele>
        <time>2019-03-20T15:43:00Z</time>
      </trkpt>
      <trkpt lat="42.85914" lon="0.18916">
        <ele>2086</ele>
        <time>2019-03-20T15:43:12Z</time>
      </trkpt>
      <trkpt lat="42.8591" lon="0.18917">
        <ele>2086</ele>
        <time>2019-03-20T15:43:19Z</time>
      </trkpt>
      <trkpt lat="42.85906" lon="0.18914">
        <ele>2085</ele>
        <time>2019-03-20T15:43:25Z</time>
      </trkpt>
      <trkpt lat="42.85903" lon="0.18915">
        <ele>2084</ele>
        <time>2019-03-20T15:43:44Z</time>
      </trkpt>
      <trkpt lat="42.859" lon="0.18912">
        <ele>2083</ele>
        <time>2019-03-20T15:43:58Z</time>
      </trkpt>
      <trkpt lat="42.85896" lon="0.18916">
        <ele>2082</ele>
        <time>2019-03-20T15:45:30Z</time>
      </trkpt>
      <trkpt lat="42.85891" lon="0.18918">
        <ele>2081</ele>
        <time>2019-03-20T15:45:33Z</time>
      </trkpt>
      <trkpt lat="42.85888" lon="0.18922">
        <ele>2080</ele>
        <time>2019-03-20T15:45:49Z</time>
      </trkpt>
      <trkpt lat="42.85887" lon="0.18928">
        <ele>2079</ele>
        <time>2019-03-20T15:45:55Z</time>
      </trkpt>
      <trkpt lat="42.85886" lon="0.18933">
        <ele>2078</ele>
        <time>2019-03-20T15:46:15Z</time>
      </trkpt>
      <trkpt lat="42.85881" lon="0.18935">
        <ele>2077</ele>
        <time>2019-03-20T15:46:18Z</time>
      </trkpt>
      <trkpt lat="42.85879" lon="0.1894">
        <ele>2077</ele>
        <time>2019-03-20T15:46:20Z</time>
      </trkpt>
      <trkpt lat="42.85872" lon="0.18953">
        <ele>2077</ele>
        <time>2019-03-20T15:46:24Z</time>
      </trkpt>
      <trkpt lat="42.85865" lon="0.18974">
        <ele>2076</ele>
        <time>2019-03-20T15:46:34Z</time>
      </trkpt>
      <trkpt lat="42.85864" lon="0.1898">
        <ele>2076</ele>
        <time>2019-03-20T15:46:37Z</time>
      </trkpt>
      <trkpt lat="42.85861" lon="0.18986">
        <ele>2075</ele>
        <time>2019-03-20T15:46:54Z</time>
      </trkpt>
      <trkpt lat="42.85858" lon="0.18992">
        <ele>2075</ele>
        <time>2019-03-20T15:46:56Z</time>
      </trkpt>
      <trkpt lat="42.85853" lon="0.18994">
        <ele>2074</ele>
        <time>2019-03-20T15:46:58Z</time>
      </trkpt>
      <trkpt lat="42.85855" lon="0.19001">
        <ele>2074</ele>
        <time>2019-03-20T15:47:00Z</time>
      </trkpt>
      <trkpt lat="42.8585" lon="0.19005">
        <ele>2074</ele>
        <time>2019-03-20T15:47:04Z</time>
      </trkpt>
      <trkpt lat="42.85845" lon="0.19008">
        <ele>2073</ele>
        <time>2019-03-20T15:47:06Z</time>
      </trkpt>
      <trkpt lat="42.85844" lon="0.19013">
        <ele>2073</ele>
        <time>2019-03-20T15:47:10Z</time>
      </trkpt>
      <trkpt lat="42.85845" lon="0.19019">
        <ele>2072</ele>
        <time>2019-03-20T15:47:20Z</time>
      </trkpt>
      <trkpt lat="42.85838" lon="0.1904">
        <ele>2070</ele>
        <time>2019-03-20T15:47:26Z</time>
      </trkpt>
      <trkpt lat="42.85834" lon="0.19046">
        <ele>2069</ele>
        <time>2019-03-20T15:47:28Z</time>
      </trkpt>
      <trkpt lat="42.85831" lon="0.19049">
        <ele>2068</ele>
        <time>2019-03-20T15:47:31Z</time>
      </trkpt>
      <trkpt lat="42.85827" lon="0.19051">
        <ele>2068</ele>
        <time>2019-03-20T15:47:33Z</time>
      </trkpt>
      <trkpt lat="42.85822" lon="0.19052">
        <ele>2067</ele>
        <time>2019-03-20T15:47:35Z</time>
      </trkpt>
      <trkpt lat="42.85817" lon="0.19056">
        <ele>2063</ele>
        <time>2019-03-20T15:47:37Z</time>
      </trkpt>
      <trkpt lat="42.8581" lon="0.19063">
        <ele>2058</ele>
        <time>2019-03-20T15:47:39Z</time>
      </trkpt>
      <trkpt lat="42.85808" lon="0.19067">
        <ele>2057</ele>
        <time>2019-03-20T15:47:40Z</time>
      </trkpt>
      <trkpt lat="42.85806" lon="0.19073">
        <ele>2056</ele>
        <time>2019-03-20T15:47:41Z</time>
      </trkpt>
      <trkpt lat="42.85805" lon="0.1908">
        <ele>2055</ele>
        <time>2019-03-20T15:47:43Z</time>
      </trkpt>
      <trkpt lat="42.85801" lon="0.19098">
        <ele>2054</ele>
        <time>2019-03-20T15:47:49Z</time>
      </trkpt>
      <trkpt lat="42.85801" lon="0.19103">
        <ele>2053</ele>
        <time>2019-03-20T15:48:00Z</time>
      </trkpt>
      <trkpt lat="42.85799" lon="0.19107">
        <ele>2052</ele>
        <time>2019-03-20T15:48:03Z</time>
      </trkpt>
      <trkpt lat="42.85794" lon="0.19108">
        <ele>2051</ele>
        <time>2019-03-20T15:48:08Z</time>
      </trkpt>
      <trkpt lat="42.85787" lon="0.19111">
        <ele>2050</ele>
        <time>2019-03-20T15:48:10Z</time>
      </trkpt>
      <trkpt lat="42.85779" lon="0.19114">
        <ele>2049</ele>
        <time>2019-03-20T15:48:14Z</time>
      </trkpt>
      <trkpt lat="42.85774" lon="0.19117">
        <ele>2048</ele>
        <time>2019-03-20T15:48:16Z</time>
      </trkpt>
      <trkpt lat="42.85773" lon="0.19123">
        <ele>2048</ele>
        <time>2019-03-20T15:48:19Z</time>
      </trkpt>
      <trkpt lat="42.85768" lon="0.19126">
        <ele>2047</ele>
        <time>2019-03-20T15:48:24Z</time>
      </trkpt>
      <trkpt lat="42.85763" lon="0.1913">
        <ele>2047</ele>
        <time>2019-03-20T15:48:26Z</time>
      </trkpt>
      <trkpt lat="42.85757" lon="0.19139">
        <ele>2046</ele>
        <time>2019-03-20T15:48:29Z</time>
      </trkpt>
      <trkpt lat="42.85754" lon="0.19141">
        <ele>2046</ele>
        <time>2019-03-20T15:48:33Z</time>
      </trkpt>
      <trkpt lat="42.85754" lon="0.19146">
        <ele>2044</ele>
        <time>2019-03-20T15:49:37Z</time>
      </trkpt>
      <trkpt lat="42.85752" lon="0.19152">
        <ele>2041</ele>
        <time>2019-03-20T15:49:52Z</time>
      </trkpt>
      <trkpt lat="42.85743" lon="0.19161">
        <ele>2038</ele>
        <time>2019-03-20T15:50:12Z</time>
      </trkpt>
      <trkpt lat="42.85739" lon="0.19163">
        <ele>2037</ele>
        <time>2019-03-20T15:50:16Z</time>
      </trkpt>
      <trkpt lat="42.85736" lon="0.19165">
        <ele>2036</ele>
        <time>2019-03-20T15:50:28Z</time>
      </trkpt>
      <trkpt lat="42.85732" lon="0.19166">
        <ele>2035</ele>
        <time>2019-03-20T15:50:52Z</time>
      </trkpt>
      <trkpt lat="42.85728" lon="0.19169">
        <ele>2035</ele>
        <time>2019-03-20T15:51:11Z</time>
      </trkpt>
      <trkpt lat="42.85713" lon="0.19178">
        <ele>2034</ele>
        <time>2019-03-20T15:51:22Z</time>
      </trkpt>
      <trkpt lat="42.85707" lon="0.1918">
        <ele>2034</ele>
        <time>2019-03-20T15:51:24Z</time>
      </trkpt>
      <trkpt lat="42.85704" lon="0.19183">
        <ele>2033</ele>
        <time>2019-03-20T15:51:30Z</time>
      </trkpt>
      <trkpt lat="42.85702" lon="0.19187">
        <ele>2033</ele>
        <time>2019-03-20T15:53:19Z</time>
      </trkpt>
      <trkpt lat="42.85705" lon="0.19189">
        <ele>2032</ele>
        <time>2019-03-20T15:54:23Z</time>
      </trkpt>
      <trkpt lat="42.85703" lon="0.1919">
        <ele>2030</ele>
        <time>2019-03-20T15:56:33Z</time>
      </trkpt>
      <trkpt lat="42.85699" lon="0.19192">
        <ele>2029</ele>
        <time>2019-03-20T15:56:36Z</time>
      </trkpt>
      <trkpt lat="42.85695" lon="0.19195">
        <ele>2029</ele>
        <time>2019-03-20T15:56:39Z</time>
      </trkpt>
      <trkpt lat="42.85692" lon="0.19197">
        <ele>2029</ele>
        <time>2019-03-20T15:56:41Z</time>
      </trkpt>
      <trkpt lat="42.85691" lon="0.19194">
        <ele>2029</ele>
        <time>2019-03-20T15:56:45Z</time>
      </trkpt>
      <trkpt lat="42.85685" lon="0.19194">
        <ele>2028</ele>
        <time>2019-03-20T15:56:54Z</time>
      </trkpt>
      <trkpt lat="42.8568" lon="0.19195">
        <ele>2028</ele>
        <time>2019-03-20T15:57:09Z</time>
      </trkpt>
      <trkpt lat="42.85678" lon="0.19194">
        <ele>2028</ele>
        <time>2019-03-20T15:57:16Z</time>
      </trkpt>
      <trkpt lat="42.85671" lon="0.19195">
        <ele>2028</ele>
        <time>2019-03-20T15:57:35Z</time>
      </trkpt>
      <trkpt lat="42.85668" lon="0.19193">
        <ele>2028</ele>
        <time>2019-03-20T15:57:43Z</time>
      </trkpt>
      <trkpt lat="42.85664" lon="0.19192">
        <ele>2027</ele>
        <time>2019-03-20T15:58:11Z</time>
      </trkpt>
      <trkpt lat="42.85662" lon="0.19187">
        <ele>2027</ele>
        <time>2019-03-20T15:58:29Z</time>
      </trkpt>
      <trkpt lat="42.85658" lon="0.19186">
        <ele>2026</ele>
        <time>2019-03-20T15:58:37Z</time>
      </trkpt>
      <trkpt lat="42.85656" lon="0.19188">
        <ele>2026</ele>
        <time>2019-03-20T15:58:42Z</time>
      </trkpt>
      <trkpt lat="42.85653" lon="0.19192">
        <ele>2026</ele>
        <time>2019-03-20T15:58:46Z</time>
      </trkpt>
      <trkpt lat="42.85649" lon="0.19197">
        <ele>2026</ele>
        <time>2019-03-20T15:58:48Z</time>
      </trkpt>
      <trkpt lat="42.85647" lon="0.19202">
        <ele>2026</ele>
        <time>2019-03-20T15:58:50Z</time>
      </trkpt>
      <trkpt lat="42.85642" lon="0.19202">
        <ele>2026</ele>
        <time>2019-03-20T15:58:52Z</time>
      </trkpt>
      <trkpt lat="42.85639" lon="0.19203">
        <ele>2026</ele>
        <time>2019-03-20T15:59:36Z</time>
      </trkpt>
      <trkpt lat="42.85633" lon="0.19205">
        <ele>2025</ele>
        <time>2019-03-20T15:59:38Z</time>
      </trkpt>
      <trkpt lat="42.85629" lon="0.1921">
        <ele>2025</ele>
        <time>2019-03-20T15:59:42Z</time>
      </trkpt>
      <trkpt lat="42.85626" lon="0.19214">
        <ele>2025</ele>
        <time>2019-03-20T15:59:44Z</time>
      </trkpt>
      <trkpt lat="42.85619" lon="0.19221">
        <ele>2025</ele>
        <time>2019-03-20T15:59:51Z</time>
      </trkpt>
      <trkpt lat="42.85617" lon="0.19225">
        <ele>2025</ele>
        <time>2019-03-20T16:00:05Z</time>
      </trkpt>
      <trkpt lat="42.85614" lon="0.19229">
        <ele>2024</ele>
        <time>2019-03-20T16:00:18Z</time>
      </trkpt>
      <trkpt lat="42.85604" lon="0.19232">
        <ele>2024</ele>
        <time>2019-03-20T16:00:22Z</time>
      </trkpt>
      <trkpt lat="42.85596" lon="0.19236">
        <ele>2024</ele>
        <time>2019-03-20T16:00:26Z</time>
      </trkpt>
      <trkpt lat="42.85592" lon="0.1924">
        <ele>2024</ele>
        <time>2019-03-20T16:00:29Z</time>
      </trkpt>
      <trkpt lat="42.85588" lon="0.19244">
        <ele>2024</ele>
        <time>2019-03-20T16:00:32Z</time>
      </trkpt>
      <trkpt lat="42.85586" lon="0.19248">
        <ele>2024</ele>
        <time>2019-03-20T16:00:34Z</time>
      </trkpt>
      <trkpt lat="42.85581" lon="0.19251">
        <ele>2024</ele>
        <time>2019-03-20T16:00:37Z</time>
      </trkpt>
      <trkpt lat="42.85577" lon="0.19253">
        <ele>2024</ele>
        <time>2019-03-20T16:00:43Z</time>
      </trkpt>
      <trkpt lat="42.85574" lon="0.19258">
        <ele>2023</ele>
        <time>2019-03-20T16:00:52Z</time>
      </trkpt>
      <trkpt lat="42.8557" lon="0.19261">
        <ele>2023</ele>
        <time>2019-03-20T16:00:54Z</time>
      </trkpt>
      <trkpt lat="42.85564" lon="0.19262">
        <ele>2023</ele>
        <time>2019-03-20T16:00:56Z</time>
      </trkpt>
      <trkpt lat="42.85548" lon="0.19264">
        <ele>2023</ele>
        <time>2019-03-20T16:01:03Z</time>
      </trkpt>
      <trkpt lat="42.85545" lon="0.19266">
        <ele>2023</ele>
        <time>2019-03-20T16:01:15Z</time>
      </trkpt>
      <trkpt lat="42.85541" lon="0.19271">
        <ele>2023</ele>
        <time>2019-03-20T16:01:22Z</time>
      </trkpt>
      <trkpt lat="42.85538" lon="0.19271">
        <ele>2023</ele>
        <time>2019-03-20T16:01:29Z</time>
      </trkpt>
      <trkpt lat="42.85525" lon="0.19284">
        <ele>2022</ele>
        <time>2019-03-20T16:02:05Z</time>
      </trkpt>
      <trkpt lat="42.85521" lon="0.19284">
        <ele>2022</ele>
        <time>2019-03-20T16:02:09Z</time>
      </trkpt>
      <trkpt lat="42.85514" lon="0.19288">
        <ele>2022</ele>
        <time>2019-03-20T16:02:20Z</time>
      </trkpt>
      <trkpt lat="42.85509" lon="0.1929">
        <ele>2022</ele>
        <time>2019-03-20T16:02:24Z</time>
      </trkpt>
      <trkpt lat="42.85499" lon="0.1929">
        <ele>2022</ele>
        <time>2019-03-20T16:02:30Z</time>
      </trkpt>
      <trkpt lat="42.85496" lon="0.19294">
        <ele>2021</ele>
        <time>2019-03-20T16:02:34Z</time>
      </trkpt>
      <trkpt lat="42.85487" lon="0.19316">
        <ele>2021</ele>
        <time>2019-03-20T16:02:49Z</time>
      </trkpt>
      <trkpt lat="42.85481" lon="0.19329">
        <ele>2021</ele>
        <time>2019-03-20T16:02:59Z</time>
      </trkpt>
      <trkpt lat="42.85476" lon="0.19337">
        <ele>2020</ele>
        <time>2019-03-20T16:03:03Z</time>
      </trkpt>
      <trkpt lat="42.85472" lon="0.19342">
        <ele>2020</ele>
        <time>2019-03-20T16:03:06Z</time>
      </trkpt>
      <trkpt lat="42.8547" lon="0.19351">
        <ele>2020</ele>
        <time>2019-03-20T16:03:08Z</time>
      </trkpt>
      <trkpt lat="42.85469" lon="0.19356">
        <ele>2020</ele>
        <time>2019-03-20T16:03:10Z</time>
      </trkpt>
      <trkpt lat="42.8547" lon="0.19365">
        <ele>2020</ele>
        <time>2019-03-20T16:03:26Z</time>
      </trkpt>
      <trkpt lat="42.85469" lon="0.19369">
        <ele>2020</ele>
        <time>2019-03-20T16:03:31Z</time>
      </trkpt>
      <trkpt lat="42.85466" lon="0.19371">
        <ele>2019</ele>
        <time>2019-03-20T16:03:34Z</time>
      </trkpt>
      <trkpt lat="42.85463" lon="0.19374">
        <ele>2019</ele>
        <time>2019-03-20T16:03:38Z</time>
      </trkpt>
      <trkpt lat="42.8546" lon="0.19376">
        <ele>2019</ele>
        <time>2019-03-20T16:03:41Z</time>
      </trkpt>
      <trkpt lat="42.85459" lon="0.1938">
        <ele>2019</ele>
        <time>2019-03-20T16:03:50Z</time>
      </trkpt>
      <trkpt lat="42.85448" lon="0.19386">
        <ele>2018</ele>
        <time>2019-03-20T16:04:06Z</time>
      </trkpt>
      <trkpt lat="42.85443" lon="0.19391">
        <ele>2018</ele>
        <time>2019-03-20T16:04:12Z</time>
      </trkpt>
      <trkpt lat="42.85439" lon="0.19396">
        <ele>2017</ele>
        <time>2019-03-20T16:04:21Z</time>
      </trkpt>
      <trkpt lat="42.85437" lon="0.19399">
        <ele>2017</ele>
        <time>2019-03-20T16:04:25Z</time>
      </trkpt>
      <trkpt lat="42.85433" lon="0.19399">
        <ele>2017</ele>
        <time>2019-03-20T16:04:27Z</time>
      </trkpt>
      <trkpt lat="42.85428" lon="0.19402">
        <ele>2016</ele>
        <time>2019-03-20T16:04:36Z</time>
      </trkpt>
      <trkpt lat="42.85423" lon="0.19405">
        <ele>2016</ele>
        <time>2019-03-20T16:04:42Z</time>
      </trkpt>
      <trkpt lat="42.85413" lon="0.19411">
        <ele>2015</ele>
        <time>2019-03-20T16:05:00Z</time>
      </trkpt>
      <trkpt lat="42.85405" lon="0.19412">
        <ele>2014</ele>
        <time>2019-03-20T16:05:17Z</time>
      </trkpt>
      <trkpt lat="42.85402" lon="0.19415">
        <ele>2014</ele>
        <time>2019-03-20T16:05:27Z</time>
      </trkpt>
      <trkpt lat="42.85398" lon="0.19418">
        <ele>2013</ele>
        <time>2019-03-20T16:05:35Z</time>
      </trkpt>
      <trkpt lat="42.85391" lon="0.19419">
        <ele>2013</ele>
        <time>2019-03-20T16:05:44Z</time>
      </trkpt>
      <trkpt lat="42.85387" lon="0.19418">
        <ele>2013</ele>
        <time>2019-03-20T16:05:49Z</time>
      </trkpt>
      <trkpt lat="42.85384" lon="0.19422">
        <ele>2013</ele>
        <time>2019-03-20T16:05:55Z</time>
      </trkpt>
      <trkpt lat="42.85381" lon="0.19423">
        <ele>2013</ele>
        <time>2019-03-20T16:06:02Z</time>
      </trkpt>
      <trkpt lat="42.85354" lon="0.19429">
        <ele>2012</ele>
        <time>2019-03-20T16:06:26Z</time>
      </trkpt>
      <trkpt lat="42.85351" lon="0.19432">
        <ele>2011</ele>
        <time>2019-03-20T16:06:35Z</time>
      </trkpt>
      <trkpt lat="42.85346" lon="0.19437">
        <ele>2011</ele>
        <time>2019-03-20T16:06:40Z</time>
      </trkpt>
      <trkpt lat="42.85277" lon="0.19471">
        <ele>2010</ele>
        <time>2019-03-20T16:07:09Z</time>
      </trkpt>
      <trkpt lat="42.85268" lon="0.19478">
        <ele>2009</ele>
        <time>2019-03-20T16:07:13Z</time>
      </trkpt>
      <trkpt lat="42.85266" lon="0.1948">
        <ele>2009</ele>
        <time>2019-03-20T16:07:15Z</time>
      </trkpt>
      <trkpt lat="42.85263" lon="0.1948">
        <ele>2009</ele>
        <time>2019-03-20T16:07:33Z</time>
      </trkpt>
      <trkpt lat="42.8526" lon="0.19484">
        <ele>2009</ele>
        <time>2019-03-20T16:08:10Z</time>
      </trkpt>
      <trkpt lat="42.85258" lon="0.19487">
        <ele>2008</ele>
        <time>2019-03-20T16:08:12Z</time>
      </trkpt>
      <trkpt lat="42.85254" lon="0.19489">
        <ele>2008</ele>
        <time>2019-03-20T16:08:20Z</time>
      </trkpt>
      <trkpt lat="42.85251" lon="0.1949">
        <ele>2008</ele>
        <time>2019-03-20T16:08:23Z</time>
      </trkpt>
      <trkpt lat="42.8524" lon="0.19491">
        <ele>2007</ele>
        <time>2019-03-20T16:08:32Z</time>
      </trkpt>
      <trkpt lat="42.85223" lon="0.1949">
        <ele>2006</ele>
        <time>2019-03-20T16:08:51Z</time>
      </trkpt>
      <trkpt lat="42.85216" lon="0.19487">
        <ele>2006</ele>
        <time>2019-03-20T16:08:56Z</time>
      </trkpt>
      <trkpt lat="42.85207" lon="0.19479">
        <ele>2005</ele>
        <time>2019-03-20T16:09:04Z</time>
      </trkpt>
      <trkpt lat="42.85203" lon="0.19479">
        <ele>2005</ele>
        <time>2019-03-20T16:09:20Z</time>
      </trkpt>
      <trkpt lat="42.852" lon="0.19476">
        <ele>2005</ele>
        <time>2019-03-20T16:09:26Z</time>
      </trkpt>
      <trkpt lat="42.85197" lon="0.19478">
        <ele>2005</ele>
        <time>2019-03-20T16:09:48Z</time>
      </trkpt>
      <trkpt lat="42.85194" lon="0.19474">
        <ele>2005</ele>
        <time>2019-03-20T16:10:05Z</time>
      </trkpt>
      <trkpt lat="42.8519" lon="0.19473">
        <ele>2004</ele>
        <time>2019-03-20T16:10:12Z</time>
      </trkpt>
      <trkpt lat="42.85188" lon="0.19469">
        <ele>2004</ele>
        <time>2019-03-20T16:10:14Z</time>
      </trkpt>
      <trkpt lat="42.85185" lon="0.19469">
        <ele>2004</ele>
        <time>2019-03-20T16:10:16Z</time>
      </trkpt>
      <trkpt lat="42.85181" lon="0.19463">
        <ele>2004</ele>
        <time>2019-03-20T16:10:21Z</time>
      </trkpt>
      <trkpt lat="42.85176" lon="0.19461">
        <ele>2003</ele>
        <time>2019-03-20T16:10:23Z</time>
      </trkpt>
      <trkpt lat="42.85172" lon="0.19464">
        <ele>2003</ele>
        <time>2019-03-20T16:10:26Z</time>
      </trkpt>
      <trkpt lat="42.85168" lon="0.19465">
        <ele>2003</ele>
        <time>2019-03-20T16:10:29Z</time>
      </trkpt>
      <trkpt lat="42.85165" lon="0.19469">
        <ele>2003</ele>
        <time>2019-03-20T16:10:33Z</time>
      </trkpt>
      <trkpt lat="42.85163" lon="0.19462">
        <ele>2003</ele>
        <time>2019-03-20T16:10:36Z</time>
      </trkpt>
      <trkpt lat="42.85158" lon="0.19459">
        <ele>2003</ele>
        <time>2019-03-20T16:10:38Z</time>
      </trkpt>
      <trkpt lat="42.85153" lon="0.1946">
        <ele>2003</ele>
        <time>2019-03-20T16:10:39Z</time>
      </trkpt>
      <trkpt lat="42.85149" lon="0.19462">
        <ele>2003</ele>
        <time>2019-03-20T16:10:40Z</time>
      </trkpt>
      <trkpt lat="42.85146" lon="0.19463">
        <ele>2002</ele>
        <time>2019-03-20T16:10:41Z</time>
      </trkpt>
      <trkpt lat="42.85142" lon="0.19462">
        <ele>2002</ele>
        <time>2019-03-20T16:10:42Z</time>
      </trkpt>
      <trkpt lat="42.85139" lon="0.1946">
        <ele>2002</ele>
        <time>2019-03-20T16:10:43Z</time>
      </trkpt>
      <trkpt lat="42.85133" lon="0.19462">
        <ele>2002</ele>
        <time>2019-03-20T16:10:45Z</time>
      </trkpt>
      <trkpt lat="42.8513" lon="0.19463">
        <ele>2002</ele>
        <time>2019-03-20T16:10:46Z</time>
      </trkpt>
      <trkpt lat="42.85114" lon="0.19453">
        <ele>2002</ele>
        <time>2019-03-20T16:10:53Z</time>
      </trkpt>
      <trkpt lat="42.85099" lon="0.19446">
        <ele>2002</ele>
        <time>2019-03-20T16:11:02Z</time>
      </trkpt>
      <trkpt lat="42.85096" lon="0.19445">
        <ele>2002</ele>
        <time>2019-03-20T16:11:03Z</time>
      </trkpt>
      <trkpt lat="42.85093" lon="0.19447">
        <ele>2002</ele>
        <time>2019-03-20T16:11:05Z</time>
      </trkpt>
      <trkpt lat="42.85089" lon="0.19449">
        <ele>2002</ele>
        <time>2019-03-20T16:11:18Z</time>
      </trkpt>
      <trkpt lat="42.85085" lon="0.19452">
        <ele>2001</ele>
        <time>2019-03-20T16:11:20Z</time>
      </trkpt>
      <trkpt lat="42.8508" lon="0.19452">
        <ele>2001</ele>
        <time>2019-03-20T16:11:22Z</time>
      </trkpt>
      <trkpt lat="42.85067" lon="0.19454">
        <ele>2001</ele>
        <time>2019-03-20T16:11:31Z</time>
      </trkpt>
      <trkpt lat="42.85064" lon="0.19455">
        <ele>2001</ele>
        <time>2019-03-20T16:11:36Z</time>
      </trkpt>
      <trkpt lat="42.85058" lon="0.19458">
        <ele>2001</ele>
        <time>2019-03-20T16:11:44Z</time>
      </trkpt>
      <trkpt lat="42.85054" lon="0.1946">
        <ele>2000</ele>
        <time>2019-03-20T16:11:47Z</time>
      </trkpt>
      <trkpt lat="42.85045" lon="0.19463">
        <ele>2000</ele>
        <time>2019-03-20T16:11:57Z</time>
      </trkpt>
      <trkpt lat="42.85041" lon="0.19465">
        <ele>2000</ele>
        <time>2019-03-20T16:12:00Z</time>
      </trkpt>
      <trkpt lat="42.85036" lon="0.1947">
        <ele>2000</ele>
        <time>2019-03-20T16:12:03Z</time>
      </trkpt>
      <trkpt lat="42.85032" lon="0.19466">
        <ele>2000</ele>
        <time>2019-03-20T16:12:23Z</time>
      </trkpt>
      <trkpt lat="42.8503" lon="0.1946">
        <ele>1999</ele>
        <time>2019-03-20T16:12:26Z</time>
      </trkpt>
      <trkpt lat="42.85026" lon="0.19458">
        <ele>1999</ele>
        <time>2019-03-20T16:12:33Z</time>
      </trkpt>
      <trkpt lat="42.85022" lon="0.1946">
        <ele>1999</ele>
        <time>2019-03-20T16:12:53Z</time>
      </trkpt>
      <trkpt lat="42.85017" lon="0.19461">
        <ele>1998</ele>
        <time>2019-03-20T16:12:55Z</time>
      </trkpt>
      <trkpt lat="42.85013" lon="0.19462">
        <ele>1998</ele>
        <time>2019-03-20T16:12:58Z</time>
      </trkpt>
      <trkpt lat="42.84988" lon="0.19461">
        <ele>1997</ele>
        <time>2019-03-20T16:13:11Z</time>
      </trkpt>
      <trkpt lat="42.84985" lon="0.19464">
        <ele>1997</ele>
        <time>2019-03-20T16:13:15Z</time>
      </trkpt>
      <trkpt lat="42.84983" lon="0.19466">
        <ele>1997</ele>
        <time>2019-03-20T16:13:20Z</time>
      </trkpt>
      <trkpt lat="42.8498" lon="0.19467">
        <ele>1997</ele>
        <time>2019-03-20T16:13:27Z</time>
      </trkpt>
      <trkpt lat="42.84977" lon="0.19468">
        <ele>1997</ele>
        <time>2019-03-20T16:13:32Z</time>
      </trkpt>
      <trkpt lat="42.84974" lon="0.19466">
        <ele>1996</ele>
        <time>2019-03-20T16:13:42Z</time>
      </trkpt>
      <trkpt lat="42.84971" lon="0.19463">
        <ele>1996</ele>
        <time>2019-03-20T16:13:49Z</time>
      </trkpt>
      <trkpt lat="42.84968" lon="0.19461">
        <ele>1995</ele>
        <time>2019-03-20T16:14:19Z</time>
      </trkpt>
      <trkpt lat="42.84965" lon="0.19457">
        <ele>1995</ele>
        <time>2019-03-20T16:14:28Z</time>
      </trkpt>
      <trkpt lat="42.84959" lon="0.1945">
        <ele>1994</ele>
        <time>2019-03-20T16:14:36Z</time>
      </trkpt>
      <trkpt lat="42.84956" lon="0.19446">
        <ele>1994</ele>
        <time>2019-03-20T16:14:41Z</time>
      </trkpt>
      <trkpt lat="42.84952" lon="0.19444">
        <ele>1994</ele>
        <time>2019-03-20T16:14:45Z</time>
      </trkpt>
      <trkpt lat="42.84948" lon="0.19442">
        <ele>1994</ele>
        <time>2019-03-20T16:14:51Z</time>
      </trkpt>
      <trkpt lat="42.84944" lon="0.19442">
        <ele>1994</ele>
        <time>2019-03-20T16:15:00Z</time>
      </trkpt>
      <trkpt lat="42.8494" lon="0.19444">
        <ele>1994</ele>
        <time>2019-03-20T16:15:09Z</time>
      </trkpt>
      <trkpt lat="42.84932" lon="0.19448">
        <ele>1993</ele>
        <time>2019-03-20T16:15:15Z</time>
      </trkpt>
      <trkpt lat="42.84927" lon="0.19452">
        <ele>1993</ele>
        <time>2019-03-20T16:15:17Z</time>
      </trkpt>
      <trkpt lat="42.84924" lon="0.19449">
        <ele>1993</ele>
        <time>2019-03-20T16:15:19Z</time>
      </trkpt>
      <trkpt lat="42.8492" lon="0.19444">
        <ele>1993</ele>
        <time>2019-03-20T16:15:21Z</time>
      </trkpt>
      <trkpt lat="42.84916" lon="0.19449">
        <ele>1993</ele>
        <time>2019-03-20T16:15:23Z</time>
      </trkpt>
      <trkpt lat="42.84913" lon="0.19449">
        <ele>1993</ele>
        <time>2019-03-20T16:15:24Z</time>
      </trkpt>
      <trkpt lat="42.8491" lon="0.19447">
        <ele>1993</ele>
        <time>2019-03-20T16:15:25Z</time>
      </trkpt>
      <trkpt lat="42.84907" lon="0.19444">
        <ele>1993</ele>
        <time>2019-03-20T16:15:27Z</time>
      </trkpt>
      <trkpt lat="42.84905" lon="0.19438">
        <ele>1993</ele>
        <time>2019-03-20T16:15:29Z</time>
      </trkpt>
      <trkpt lat="42.84901" lon="0.19435">
        <ele>1992</ele>
        <time>2019-03-20T16:15:30Z</time>
      </trkpt>
      <trkpt lat="42.84897" lon="0.19434">
        <ele>1992</ele>
        <time>2019-03-20T16:15:31Z</time>
      </trkpt>
      <trkpt lat="42.84889" lon="0.19439">
        <ele>1992</ele>
        <time>2019-03-20T16:15:33Z</time>
      </trkpt>
      <trkpt lat="42.84886" lon="0.19443">
        <ele>1992</ele>
        <time>2019-03-20T16:15:35Z</time>
      </trkpt>
      <trkpt lat="42.84884" lon="0.19442">
        <ele>1991</ele>
        <time>2019-03-20T16:15:39Z</time>
      </trkpt>
      <trkpt lat="42.84882" lon="0.19437">
        <ele>1991</ele>
        <time>2019-03-20T16:16:02Z</time>
      </trkpt>
      <trkpt lat="42.8488" lon="0.19427">
        <ele>1991</ele>
        <time>2019-03-20T16:16:15Z</time>
      </trkpt>
      <trkpt lat="42.84879" lon="0.19419">
        <ele>1991</ele>
        <time>2019-03-20T16:16:36Z</time>
      </trkpt>
      <trkpt lat="42.84877" lon="0.19415">
        <ele>1990</ele>
        <time>2019-03-20T16:16:38Z</time>
      </trkpt>
      <trkpt lat="42.84874" lon="0.19416">
        <ele>1990</ele>
        <time>2019-03-20T16:16:43Z</time>
      </trkpt>
      <trkpt lat="42.84872" lon="0.19419">
        <ele>1990</ele>
        <time>2019-03-20T16:16:45Z</time>
      </trkpt>
      <trkpt lat="42.84869" lon="0.19422">
        <ele>1990</ele>
        <time>2019-03-20T16:16:47Z</time>
      </trkpt>
      <trkpt lat="42.84865" lon="0.19424">
        <ele>1990</ele>
        <time>2019-03-20T16:16:49Z</time>
      </trkpt>
      <trkpt lat="42.84862" lon="0.19429">
        <ele>1989</ele>
        <time>2019-03-20T16:17:02Z</time>
      </trkpt>
      <trkpt lat="42.84859" lon="0.19439">
        <ele>1988</ele>
        <time>2019-03-20T16:17:12Z</time>
      </trkpt>
      <trkpt lat="42.84857" lon="0.19444">
        <ele>1988</ele>
        <time>2019-03-20T16:17:16Z</time>
      </trkpt>
      <trkpt lat="42.84854" lon="0.19453">
        <ele>1986</ele>
        <time>2019-03-20T16:17:34Z</time>
      </trkpt>
      <trkpt lat="42.84851" lon="0.19457">
        <ele>1986</ele>
        <time>2019-03-20T16:17:41Z</time>
      </trkpt>
      <trkpt lat="42.84848" lon="0.19461">
        <ele>1985</ele>
        <time>2019-03-20T16:17:46Z</time>
      </trkpt>
      <trkpt lat="42.84845" lon="0.19462">
        <ele>1984</ele>
        <time>2019-03-20T16:17:55Z</time>
      </trkpt>
      <trkpt lat="42.84841" lon="0.19463">
        <ele>1983</ele>
        <time>2019-03-20T16:18:04Z</time>
      </trkpt>
      <trkpt lat="42.84834" lon="0.19466">
        <ele>1982</ele>
        <time>2019-03-20T16:18:11Z</time>
      </trkpt>
      <trkpt lat="42.8483" lon="0.19466">
        <ele>1982</ele>
        <time>2019-03-20T16:18:14Z</time>
      </trkpt>
      <trkpt lat="42.84822" lon="0.19468">
        <ele>1982</ele>
        <time>2019-03-20T16:18:23Z</time>
      </trkpt>
      <trkpt lat="42.84815" lon="0.1947">
        <ele>1981</ele>
        <time>2019-03-20T16:18:30Z</time>
      </trkpt>
      <trkpt lat="42.84811" lon="0.19471">
        <ele>1980</ele>
        <time>2019-03-20T16:19:16Z</time>
      </trkpt>
      <trkpt lat="42.84807" lon="0.19474">
        <ele>1979</ele>
        <time>2019-03-20T16:19:28Z</time>
      </trkpt>
      <trkpt lat="42.84803" lon="0.19475">
        <ele>1978</ele>
        <time>2019-03-20T16:19:31Z</time>
      </trkpt>
      <trkpt lat="42.848" lon="0.19475">
        <ele>1978</ele>
        <time>2019-03-20T16:19:37Z</time>
      </trkpt>
      <trkpt lat="42.84796" lon="0.19477">
        <ele>1977</ele>
        <time>2019-03-20T16:19:42Z</time>
      </trkpt>
      <trkpt lat="42.84791" lon="0.19479">
        <ele>1977</ele>
        <time>2019-03-20T16:19:48Z</time>
      </trkpt>
      <trkpt lat="42.84787" lon="0.19478">
        <ele>1977</ele>
        <time>2019-03-20T16:19:50Z</time>
      </trkpt>
      <trkpt lat="42.84783" lon="0.19474">
        <ele>1977</ele>
        <time>2019-03-20T16:19:53Z</time>
      </trkpt>
      <trkpt lat="42.8478" lon="0.19473">
        <ele>1976</ele>
        <time>2019-03-20T16:19:58Z</time>
      </trkpt>
      <trkpt lat="42.84776" lon="0.19474">
        <ele>1976</ele>
        <time>2019-03-20T16:20:33Z</time>
      </trkpt>
      <trkpt lat="42.84774" lon="0.1947">
        <ele>1975</ele>
        <time>2019-03-20T16:20:47Z</time>
      </trkpt>
      <trkpt lat="42.8477" lon="0.19469">
        <ele>1974</ele>
        <time>2019-03-20T16:21:02Z</time>
      </trkpt>
      <trkpt lat="42.84768" lon="0.19473">
        <ele>1974</ele>
        <time>2019-03-20T16:21:23Z</time>
      </trkpt>
      <trkpt lat="42.84763" lon="0.1947">
        <ele>1973</ele>
        <time>2019-03-20T16:21:49Z</time>
      </trkpt>
      <trkpt lat="42.8476" lon="0.19467">
        <ele>1973</ele>
        <time>2019-03-20T16:21:51Z</time>
      </trkpt>
      <trkpt lat="42.84758" lon="0.19463">
        <ele>1973</ele>
        <time>2019-03-20T16:21:53Z</time>
      </trkpt>
      <trkpt lat="42.84755" lon="0.19458">
        <ele>1972</ele>
        <time>2019-03-20T16:21:56Z</time>
      </trkpt>
      <trkpt lat="42.84751" lon="0.19459">
        <ele>1972</ele>
        <time>2019-03-20T16:22:03Z</time>
      </trkpt>
      <trkpt lat="42.84747" lon="0.19461">
        <ele>1972</ele>
        <time>2019-03-20T16:22:39Z</time>
      </trkpt>
      <trkpt lat="42.84743" lon="0.1946">
        <ele>1971</ele>
        <time>2019-03-20T16:22:42Z</time>
      </trkpt>
      <trkpt lat="42.84736" lon="0.19442">
        <ele>1971</ele>
        <time>2019-03-20T16:22:49Z</time>
      </trkpt>
      <trkpt lat="42.84733" lon="0.1944">
        <ele>1970</ele>
        <time>2019-03-20T16:22:53Z</time>
      </trkpt>
      <trkpt lat="42.84729" lon="0.19441">
        <ele>1970</ele>
        <time>2019-03-20T16:22:57Z</time>
      </trkpt>
      <trkpt lat="42.84726" lon="0.19438">
        <ele>1970</ele>
        <time>2019-03-20T16:23:02Z</time>
      </trkpt>
      <trkpt lat="42.84721" lon="0.19437">
        <ele>1970</ele>
        <time>2019-03-20T16:23:07Z</time>
      </trkpt>
      <trkpt lat="42.84717" lon="0.19438">
        <ele>1969</ele>
        <time>2019-03-20T16:23:11Z</time>
      </trkpt>
      <trkpt lat="42.84711" lon="0.19447">
        <ele>1969</ele>
        <time>2019-03-20T16:23:23Z</time>
      </trkpt>
      <trkpt lat="42.84707" lon="0.19446">
        <ele>1969</ele>
        <time>2019-03-20T16:23:56Z</time>
      </trkpt>
      <trkpt lat="42.84704" lon="0.19446">
        <ele>1968</ele>
        <time>2019-03-20T16:24:12Z</time>
      </trkpt>
      <trkpt lat="42.84701" lon="0.19446">
        <ele>1967</ele>
        <time>2019-03-20T16:24:45Z</time>
      </trkpt>
      <trkpt lat="42.84697" lon="0.19449">
        <ele>1967</ele>
        <time>2019-03-20T16:25:00Z</time>
      </trkpt>
      <trkpt lat="42.84694" lon="0.19451">
        <ele>1966</ele>
        <time>2019-03-20T16:25:13Z</time>
      </trkpt>
      <trkpt lat="42.84691" lon="0.19453">
        <ele>1966</ele>
        <time>2019-03-20T16:25:42Z</time>
      </trkpt>
      <trkpt lat="42.84689" lon="0.19459">
        <ele>1965</ele>
        <time>2019-03-20T16:25:56Z</time>
      </trkpt>
      <trkpt lat="42.84685" lon="0.19464">
        <ele>1965</ele>
        <time>2019-03-20T16:26:03Z</time>
      </trkpt>
      <trkpt lat="42.84675" lon="0.19462">
        <ele>1965</ele>
        <time>2019-03-20T16:26:08Z</time>
      </trkpt>
      <trkpt lat="42.84669" lon="0.19462">
        <ele>1964</ele>
        <time>2019-03-20T16:26:10Z</time>
      </trkpt>
      <trkpt lat="42.84661" lon="0.19469">
        <ele>1964</ele>
        <time>2019-03-20T16:26:22Z</time>
      </trkpt>
      <trkpt lat="42.84653" lon="0.1948">
        <ele>1964</ele>
        <time>2019-03-20T16:26:56Z</time>
      </trkpt>
      <trkpt lat="42.84648" lon="0.19475">
        <ele>1963</ele>
        <time>2019-03-20T16:27:10Z</time>
      </trkpt>
      <trkpt lat="42.84644" lon="0.19474">
        <ele>1963</ele>
        <time>2019-03-20T16:27:17Z</time>
      </trkpt>
      <trkpt lat="42.84638" lon="0.19476">
        <ele>1963</ele>
        <time>2019-03-20T16:27:31Z</time>
      </trkpt>
      <trkpt lat="42.84632" lon="0.19482">
        <ele>1962</ele>
        <time>2019-03-20T16:27:36Z</time>
      </trkpt>
      <trkpt lat="42.84629" lon="0.19487">
        <ele>1962</ele>
        <time>2019-03-20T16:27:40Z</time>
      </trkpt>
      <trkpt lat="42.84628" lon="0.19492">
        <ele>1962</ele>
        <time>2019-03-20T16:27:45Z</time>
      </trkpt>
      <trkpt lat="42.84623" lon="0.19495">
        <ele>1962</ele>
        <time>2019-03-20T16:27:59Z</time>
      </trkpt>
      <trkpt lat="42.84618" lon="0.19498">
        <ele>1962</ele>
        <time>2019-03-20T16:28:03Z</time>
      </trkpt>
      <trkpt lat="42.84594" lon="0.19506">
        <ele>1961</ele>
        <time>2019-03-20T16:28:17Z</time>
      </trkpt>
      <trkpt lat="42.84585" lon="0.19516">
        <ele>1960</ele>
        <time>2019-03-20T16:28:25Z</time>
      </trkpt>
      <trkpt lat="42.84586" lon="0.19525">
        <ele>1960</ele>
        <time>2019-03-20T16:28:28Z</time>
      </trkpt>
      <trkpt lat="42.84582" lon="0.19535">
        <ele>1960</ele>
        <time>2019-03-20T16:28:30Z</time>
      </trkpt>
      <trkpt lat="42.84578" lon="0.19542">
        <ele>1960</ele>
        <time>2019-03-20T16:28:33Z</time>
      </trkpt>
      <trkpt lat="42.84577" lon="0.19551">
        <ele>1960</ele>
        <time>2019-03-20T16:28:35Z</time>
      </trkpt>
      <trkpt lat="42.84575" lon="0.19562">
        <ele>1960</ele>
        <time>2019-03-20T16:28:38Z</time>
      </trkpt>
      <trkpt lat="42.84571" lon="0.19569">
        <ele>1959</ele>
        <time>2019-03-20T16:28:42Z</time>
      </trkpt>
      <trkpt lat="42.84565" lon="0.19574">
        <ele>1959</ele>
        <time>2019-03-20T16:28:45Z</time>
      </trkpt>
      <trkpt lat="42.84561" lon="0.19577">
        <ele>1959</ele>
        <time>2019-03-20T16:28:49Z</time>
      </trkpt>
      <trkpt lat="42.84557" lon="0.1958">
        <ele>1959</ele>
        <time>2019-03-20T16:28:51Z</time>
      </trkpt>
      <trkpt lat="42.8455" lon="0.19581">
        <ele>1959</ele>
        <time>2019-03-20T16:28:54Z</time>
      </trkpt>
      <trkpt lat="42.84547" lon="0.19584">
        <ele>1958</ele>
        <time>2019-03-20T16:29:01Z</time>
      </trkpt>
      <trkpt lat="42.84539" lon="0.19583">
        <ele>1958</ele>
        <time>2019-03-20T16:29:27Z</time>
      </trkpt>
      <trkpt lat="42.84535" lon="0.19585">
        <ele>1958</ele>
        <time>2019-03-20T16:29:31Z</time>
      </trkpt>
      <trkpt lat="42.84529" lon="0.19592">
        <ele>1957</ele>
        <time>2019-03-20T16:29:36Z</time>
      </trkpt>
      <trkpt lat="42.84527" lon="0.19598">
        <ele>1957</ele>
        <time>2019-03-20T16:29:38Z</time>
      </trkpt>
      <trkpt lat="42.84525" lon="0.19604">
        <ele>1957</ele>
        <time>2019-03-20T16:29:40Z</time>
      </trkpt>
      <trkpt lat="42.84521" lon="0.19612">
        <ele>1957</ele>
        <time>2019-03-20T16:29:43Z</time>
      </trkpt>
      <trkpt lat="42.84516" lon="0.19616">
        <ele>1957</ele>
        <time>2019-03-20T16:29:47Z</time>
      </trkpt>
      <trkpt lat="42.84511" lon="0.19618">
        <ele>1957</ele>
        <time>2019-03-20T16:29:50Z</time>
      </trkpt>
      <trkpt lat="42.84508" lon="0.19623">
        <ele>1957</ele>
        <time>2019-03-20T16:29:54Z</time>
      </trkpt>
      <trkpt lat="42.84489" lon="0.19626">
        <ele>1956</ele>
        <time>2019-03-20T16:30:03Z</time>
      </trkpt>
      <trkpt lat="42.84485" lon="0.19626">
        <ele>1956</ele>
        <time>2019-03-20T16:30:05Z</time>
      </trkpt>
      <trkpt lat="42.8448" lon="0.19627">
        <ele>1955</ele>
        <time>2019-03-20T16:30:08Z</time>
      </trkpt>
      <trkpt lat="42.84476" lon="0.19627">
        <ele>1955</ele>
        <time>2019-03-20T16:30:11Z</time>
      </trkpt>
      <trkpt lat="42.84472" lon="0.19629">
        <ele>1955</ele>
        <time>2019-03-20T16:30:18Z</time>
      </trkpt>
      <trkpt lat="42.84468" lon="0.19628">
        <ele>1954</ele>
        <time>2019-03-20T16:30:59Z</time>
      </trkpt>
      <trkpt lat="42.84465" lon="0.19628">
        <ele>1952</ele>
        <time>2019-03-20T16:31:21Z</time>
      </trkpt>
      <trkpt lat="42.84461" lon="0.19631">
        <ele>1951</ele>
        <time>2019-03-20T16:31:26Z</time>
      </trkpt>
      <trkpt lat="42.84452" lon="0.19637">
        <ele>1949</ele>
        <time>2019-03-20T16:31:38Z</time>
      </trkpt>
      <trkpt lat="42.84447" lon="0.19645">
        <ele>1948</ele>
        <time>2019-03-20T16:31:58Z</time>
      </trkpt>
      <trkpt lat="42.84447" lon="0.1965">
        <ele>1947</ele>
        <time>2019-03-20T16:32:08Z</time>
      </trkpt>
      <trkpt lat="42.84448" lon="0.19655">
        <ele>1946</ele>
        <time>2019-03-20T16:32:23Z</time>
      </trkpt>
      <trkpt lat="42.84446" lon="0.1966">
        <ele>1945</ele>
        <time>2019-03-20T16:32:35Z</time>
      </trkpt>
      <trkpt lat="42.84443" lon="0.19663">
        <ele>1944</ele>
        <time>2019-03-20T16:32:45Z</time>
      </trkpt>
      <trkpt lat="42.84442" lon="0.19668">
        <ele>1941</ele>
        <time>2019-03-20T16:33:32Z</time>
      </trkpt>
      <trkpt lat="42.84439" lon="0.19669">
        <ele>1940</ele>
        <time>2019-03-20T16:34:20Z</time>
      </trkpt>
      <trkpt lat="42.84435" lon="0.19669">
        <ele>1936</ele>
        <time>2019-03-20T16:34:30Z</time>
      </trkpt>
      <trkpt lat="42.84433" lon="0.19674">
        <ele>1936</ele>
        <time>2019-03-20T16:34:34Z</time>
      </trkpt>
      <trkpt lat="42.8443" lon="0.19676">
        <ele>1935</ele>
        <time>2019-03-20T16:34:50Z</time>
      </trkpt>
      <trkpt lat="42.84426" lon="0.19674">
        <ele>1935</ele>
        <time>2019-03-20T16:35:00Z</time>
      </trkpt>
      <trkpt lat="42.84422" lon="0.19673">
        <ele>1934</ele>
        <time>2019-03-20T16:35:11Z</time>
      </trkpt>
      <trkpt lat="42.84424" lon="0.19668">
        <ele>1933</ele>
        <time>2019-03-20T16:35:29Z</time>
      </trkpt>
      <trkpt lat="42.84423" lon="0.19663">
        <ele>1932</ele>
        <time>2019-03-20T16:35:41Z</time>
      </trkpt>
      <trkpt lat="42.8442" lon="0.19654">
        <ele>1931</ele>
        <time>2019-03-20T16:35:52Z</time>
      </trkpt>
      <trkpt lat="42.84418" lon="0.19649">
        <ele>1931</ele>
        <time>2019-03-20T16:35:57Z</time>
      </trkpt>
      <trkpt lat="42.84417" lon="0.19644">
        <ele>1929</ele>
        <time>2019-03-20T16:36:15Z</time>
      </trkpt>
      <trkpt lat="42.84416" lon="0.19638">
        <ele>1929</ele>
        <time>2019-03-20T16:36:41Z</time>
      </trkpt>
      <trkpt lat="42.84413" lon="0.19638">
        <ele>1928</ele>
        <time>2019-03-20T16:36:53Z</time>
      </trkpt>
      <trkpt lat="42.84409" lon="0.19642">
        <ele>1927</ele>
        <time>2019-03-20T16:37:08Z</time>
      </trkpt>
      <trkpt lat="42.84405" lon="0.19645">
        <ele>1926</ele>
        <time>2019-03-20T16:37:12Z</time>
      </trkpt>
      <trkpt lat="42.84401" lon="0.19647">
        <ele>1925</ele>
        <time>2019-03-20T16:37:14Z</time>
      </trkpt>
      <trkpt lat="42.84397" lon="0.19649">
        <ele>1924</ele>
        <time>2019-03-20T16:37:18Z</time>
      </trkpt>
      <trkpt lat="42.84387" lon="0.19657">
        <ele>1923</ele>
        <time>2019-03-20T16:37:33Z</time>
      </trkpt>
      <trkpt lat="42.84387" lon="0.19664">
        <ele>1922</ele>
        <time>2019-03-20T16:37:41Z</time>
      </trkpt>
      <trkpt lat="42.8438" lon="0.19679">
        <ele>1920</ele>
        <time>2019-03-20T16:37:52Z</time>
      </trkpt>
      <trkpt lat="42.84381" lon="0.19695">
        <ele>1919</ele>
        <time>2019-03-20T16:38:04Z</time>
      </trkpt>
      <trkpt lat="42.84384" lon="0.19699">
        <ele>1918</ele>
        <time>2019-03-20T16:38:09Z</time>
      </trkpt>
      <trkpt lat="42.84383" lon="0.19705">
        <ele>1918</ele>
        <time>2019-03-20T16:38:16Z</time>
      </trkpt>
      <trkpt lat="42.84379" lon="0.19703">
        <ele>1917</ele>
        <time>2019-03-20T16:38:26Z</time>
      </trkpt>
      <trkpt lat="42.84375" lon="0.19704">
        <ele>1916</ele>
        <time>2019-03-20T16:38:41Z</time>
      </trkpt>
      <trkpt lat="42.84375" lon="0.19699">
        <ele>1915</ele>
        <time>2019-03-20T16:39:06Z</time>
      </trkpt>
      <trkpt lat="42.8437" lon="0.19691">
        <ele>1913</ele>
        <time>2019-03-20T16:39:14Z</time>
      </trkpt>
      <trkpt lat="42.84366" lon="0.19681">
        <ele>1912</ele>
        <time>2019-03-20T16:39:21Z</time>
      </trkpt>
      <trkpt lat="42.84369" lon="0.19679">
        <ele>1912</ele>
        <time>2019-03-20T16:39:35Z</time>
      </trkpt>
      <trkpt lat="42.84377" lon="0.19673">
        <ele>1910</ele>
        <time>2019-03-20T16:39:51Z</time>
      </trkpt>
      <trkpt lat="42.8438" lon="0.1967">
        <ele>1909</ele>
        <time>2019-03-20T16:40:14Z</time>
      </trkpt>
      <trkpt lat="42.84377" lon="0.19667">
        <ele>1909</ele>
        <time>2019-03-20T16:40:23Z</time>
      </trkpt>
      <trkpt lat="42.84376" lon="0.19663">
        <ele>1907</ele>
        <time>2019-03-20T16:40:41Z</time>
      </trkpt>
      <trkpt lat="42.84373" lon="0.19659">
        <ele>1907</ele>
        <time>2019-03-20T16:40:47Z</time>
      </trkpt>
      <trkpt lat="42.84368" lon="0.1966">
        <ele>1906</ele>
        <time>2019-03-20T16:40:51Z</time>
      </trkpt>
      <trkpt lat="42.84364" lon="0.1966">
        <ele>1906</ele>
        <time>2019-03-20T16:41:09Z</time>
      </trkpt>
      <trkpt lat="42.84361" lon="0.19657">
        <ele>1904</ele>
        <time>2019-03-20T16:41:25Z</time>
      </trkpt>
      <trkpt lat="42.8436" lon="0.19662">
        <ele>1904</ele>
        <time>2019-03-20T16:41:39Z</time>
      </trkpt>
      <trkpt lat="42.84355" lon="0.19661">
        <ele>1903</ele>
        <time>2019-03-20T16:41:55Z</time>
      </trkpt>
      <trkpt lat="42.84351" lon="0.19663">
        <ele>1902</ele>
        <time>2019-03-20T16:41:58Z</time>
      </trkpt>
      <trkpt lat="42.84347" lon="0.19662">
        <ele>1902</ele>
        <time>2019-03-20T16:42:01Z</time>
      </trkpt>
      <trkpt lat="42.84344" lon="0.1966">
        <ele>1902</ele>
        <time>2019-03-20T16:42:07Z</time>
      </trkpt>
      <trkpt lat="42.84339" lon="0.19659">
        <ele>1901</ele>
        <time>2019-03-20T16:42:14Z</time>
      </trkpt>
      <trkpt lat="42.84334" lon="0.19662">
        <ele>1901</ele>
        <time>2019-03-20T16:42:24Z</time>
      </trkpt>
      <trkpt lat="42.84331" lon="0.19663">
        <ele>1900</ele>
        <time>2019-03-20T16:42:47Z</time>
      </trkpt>
      <trkpt lat="42.84325" lon="0.1967">
        <ele>1899</ele>
        <time>2019-03-20T16:43:04Z</time>
      </trkpt>
      <trkpt lat="42.84327" lon="0.19671">
        <ele>1899</ele>
        <time>2019-03-20T16:43:56Z</time>
      </trkpt>
      <trkpt lat="42.84324" lon="0.19674">
        <ele>1898</ele>
        <time>2019-03-20T16:43:58Z</time>
      </trkpt>
      <trkpt lat="42.84323" lon="0.19678">
        <ele>1898</ele>
        <time>2019-03-20T16:44:02Z</time>
      </trkpt>
      <trkpt lat="42.8432" lon="0.19679">
        <ele>1897</ele>
        <time>2019-03-20T16:44:09Z</time>
      </trkpt>
      <trkpt lat="42.84316" lon="0.19681">
        <ele>1897</ele>
        <time>2019-03-20T16:44:13Z</time>
      </trkpt>
      <trkpt lat="42.84312" lon="0.19683">
        <ele>1897</ele>
        <time>2019-03-20T16:44:15Z</time>
      </trkpt>
      <trkpt lat="42.84309" lon="0.19689">
        <ele>1897</ele>
        <time>2019-03-20T16:44:17Z</time>
      </trkpt>
      <trkpt lat="42.84305" lon="0.19695">
        <ele>1897</ele>
        <time>2019-03-20T16:44:20Z</time>
      </trkpt>
      <trkpt lat="42.843" lon="0.19698">
        <ele>1897</ele>
        <time>2019-03-20T16:44:23Z</time>
      </trkpt>
      <trkpt lat="42.84296" lon="0.19696">
        <ele>1897</ele>
        <time>2019-03-20T16:44:27Z</time>
      </trkpt>
      <trkpt lat="42.84292" lon="0.19697">
        <ele>1897</ele>
        <time>2019-03-20T16:44:29Z</time>
      </trkpt>
      <trkpt lat="42.84289" lon="0.197">
        <ele>1897</ele>
        <time>2019-03-20T16:44:32Z</time>
      </trkpt>
      <trkpt lat="42.8428" lon="0.19708">
        <ele>1897</ele>
        <time>2019-03-20T16:44:36Z</time>
      </trkpt>
      <trkpt lat="42.84275" lon="0.19711">
        <ele>1897</ele>
        <time>2019-03-20T16:44:38Z</time>
      </trkpt>
      <trkpt lat="42.84271" lon="0.19718">
        <ele>1896</ele>
        <time>2019-03-20T16:44:43Z</time>
      </trkpt>
      <trkpt lat="42.84271" lon="0.19725">
        <ele>1896</ele>
        <time>2019-03-20T16:44:47Z</time>
      </trkpt>
      <trkpt lat="42.84269" lon="0.19737">
        <ele>1896</ele>
        <time>2019-03-20T16:44:57Z</time>
      </trkpt>
      <trkpt lat="42.84268" lon="0.19741">
        <ele>1896</ele>
        <time>2019-03-20T16:45:02Z</time>
      </trkpt>
      <trkpt lat="42.84269" lon="0.19746">
        <ele>1895</ele>
        <time>2019-03-20T16:45:20Z</time>
      </trkpt>
      <trkpt lat="42.84266" lon="0.19752">
        <ele>1895</ele>
        <time>2019-03-20T16:45:30Z</time>
      </trkpt>
      <trkpt lat="42.84263" lon="0.19754">
        <ele>1895</ele>
        <time>2019-03-20T16:45:33Z</time>
      </trkpt>
      <trkpt lat="42.8426" lon="0.19758">
        <ele>1894</ele>
        <time>2019-03-20T16:45:39Z</time>
      </trkpt>
      <trkpt lat="42.84256" lon="0.19758">
        <ele>1893</ele>
        <time>2019-03-20T16:45:58Z</time>
      </trkpt>
      <trkpt lat="42.8425" lon="0.19756">
        <ele>1893</ele>
        <time>2019-03-20T16:46:06Z</time>
      </trkpt>
      <trkpt lat="42.84247" lon="0.19756">
        <ele>1892</ele>
        <time>2019-03-20T16:46:11Z</time>
      </trkpt>
      <trkpt lat="42.84243" lon="0.19758">
        <ele>1891</ele>
        <time>2019-03-20T16:46:17Z</time>
      </trkpt>
      <trkpt lat="42.8424" lon="0.19761">
        <ele>1891</ele>
        <time>2019-03-20T16:46:19Z</time>
      </trkpt>
      <trkpt lat="42.84237" lon="0.19761">
        <ele>1891</ele>
        <time>2019-03-20T16:46:21Z</time>
      </trkpt>
      <trkpt lat="42.84233" lon="0.19764">
        <ele>1890</ele>
        <time>2019-03-20T16:46:23Z</time>
      </trkpt>
      <trkpt lat="42.84229" lon="0.19769">
        <ele>1889</ele>
        <time>2019-03-20T16:46:31Z</time>
      </trkpt>
      <trkpt lat="42.84225" lon="0.19772">
        <ele>1889</ele>
        <time>2019-03-20T16:46:34Z</time>
      </trkpt>
      <trkpt lat="42.84219" lon="0.19778">
        <ele>1888</ele>
        <time>2019-03-20T16:46:39Z</time>
      </trkpt>
      <trkpt lat="42.84216" lon="0.19778">
        <ele>1888</ele>
        <time>2019-03-20T16:46:44Z</time>
      </trkpt>
      <trkpt lat="42.84213" lon="0.19781">
        <ele>1887</ele>
        <time>2019-03-20T16:46:47Z</time>
      </trkpt>
      <trkpt lat="42.84204" lon="0.19787">
        <ele>1886</ele>
        <time>2019-03-20T16:46:58Z</time>
      </trkpt>
      <trkpt lat="42.84201" lon="0.19788">
        <ele>1886</ele>
        <time>2019-03-20T16:47:02Z</time>
      </trkpt>
      <trkpt lat="42.84198" lon="0.19788">
        <ele>1885</ele>
        <time>2019-03-20T16:47:09Z</time>
      </trkpt>
      <trkpt lat="42.84197" lon="0.19792">
        <ele>1885</ele>
        <time>2019-03-20T16:47:20Z</time>
      </trkpt>
      <trkpt lat="42.84193" lon="0.19792">
        <ele>1885</ele>
        <time>2019-03-20T16:47:38Z</time>
      </trkpt>
      <trkpt lat="42.8419" lon="0.19796">
        <ele>1883</ele>
        <time>2019-03-20T16:47:48Z</time>
      </trkpt>
      <trkpt lat="42.84187" lon="0.19794">
        <ele>1883</ele>
        <time>2019-03-20T16:47:58Z</time>
      </trkpt>
      <trkpt lat="42.84184" lon="0.19793">
        <ele>1882</ele>
        <time>2019-03-20T16:48:06Z</time>
      </trkpt>
      <trkpt lat="42.84185" lon="0.19798">
        <ele>1881</ele>
        <time>2019-03-20T16:48:20Z</time>
      </trkpt>
      <trkpt lat="42.84181" lon="0.19798">
        <ele>1881</ele>
        <time>2019-03-20T16:48:31Z</time>
      </trkpt>
      <trkpt lat="42.8418" lon="0.19803">
        <ele>1880</ele>
        <time>2019-03-20T16:48:35Z</time>
      </trkpt>
      <trkpt lat="42.84173" lon="0.19801">
        <ele>1880</ele>
        <time>2019-03-20T16:48:45Z</time>
      </trkpt>
      <trkpt lat="42.8417" lon="0.19804">
        <ele>1879</ele>
        <time>2019-03-20T16:49:02Z</time>
      </trkpt>
      <trkpt lat="42.84169" lon="0.19807">
        <ele>1879</ele>
        <time>2019-03-20T16:49:10Z</time>
      </trkpt>
      <trkpt lat="42.8417" lon="0.19811">
        <ele>1879</ele>
        <time>2019-03-20T16:49:24Z</time>
      </trkpt>
      <trkpt lat="42.84174" lon="0.19813">
        <ele>1878</ele>
        <time>2019-03-20T16:50:09Z</time>
      </trkpt>
      <trkpt lat="42.84173" lon="0.19817">
        <ele>1878</ele>
        <time>2019-03-20T16:50:21Z</time>
      </trkpt>
      <trkpt lat="42.84172" lon="0.19821">
        <ele>1878</ele>
        <time>2019-03-20T16:50:26Z</time>
      </trkpt>
      <trkpt lat="42.84171" lon="0.19825">
        <ele>1877</ele>
        <time>2019-03-20T16:50:30Z</time>
      </trkpt>
      <trkpt lat="42.84168" lon="0.19821">
        <ele>1877</ele>
        <time>2019-03-20T16:50:39Z</time>
      </trkpt>
      <trkpt lat="42.84159" lon="0.19822">
        <ele>1877</ele>
        <time>2019-03-20T16:50:45Z</time>
      </trkpt>
      <trkpt lat="42.84151" lon="0.19828">
        <ele>1877</ele>
        <time>2019-03-20T16:50:56Z</time>
      </trkpt>
      <trkpt lat="42.84144" lon="0.19835">
        <ele>1876</ele>
        <time>2019-03-20T16:51:09Z</time>
      </trkpt>
      <trkpt lat="42.84141" lon="0.19837">
        <ele>1876</ele>
        <time>2019-03-20T16:51:23Z</time>
      </trkpt>
      <trkpt lat="42.84139" lon="0.1984">
        <ele>1876</ele>
        <time>2019-03-20T16:51:28Z</time>
      </trkpt>
      <trkpt lat="42.84136" lon="0.1984">
        <ele>1876</ele>
        <time>2019-03-20T16:51:32Z</time>
      </trkpt>
      <trkpt lat="42.84133" lon="0.19842">
        <ele>1876</ele>
        <time>2019-03-20T16:51:35Z</time>
      </trkpt>
      <trkpt lat="42.84126" lon="0.19845">
        <ele>1876</ele>
        <time>2019-03-20T16:51:45Z</time>
      </trkpt>
      <trkpt lat="42.84117" lon="0.19844">
        <ele>1876</ele>
        <time>2019-03-20T16:51:54Z</time>
      </trkpt>
      <trkpt lat="42.84113" lon="0.19848">
        <ele>1875</ele>
        <time>2019-03-20T16:52:01Z</time>
      </trkpt>
      <trkpt lat="42.8411" lon="0.19852">
        <ele>1875</ele>
        <time>2019-03-20T16:52:09Z</time>
      </trkpt>
      <trkpt lat="42.84107" lon="0.19853">
        <ele>1875</ele>
        <time>2019-03-20T16:52:16Z</time>
      </trkpt>
      <trkpt lat="42.84102" lon="0.19845">
        <ele>1875</ele>
        <time>2019-03-20T16:52:26Z</time>
      </trkpt>
      <trkpt lat="42.84101" lon="0.19841">
        <ele>1875</ele>
        <time>2019-03-20T16:52:30Z</time>
      </trkpt>
      <trkpt lat="42.84098" lon="0.19839">
        <ele>1875</ele>
        <time>2019-03-20T16:52:38Z</time>
      </trkpt>
      <trkpt lat="42.84096" lon="0.1984">
        <ele>1875</ele>
        <time>2019-03-20T16:52:43Z</time>
      </trkpt>
      <trkpt lat="42.84092" lon="0.19842">
        <ele>1875</ele>
        <time>2019-03-20T16:52:46Z</time>
      </trkpt>
      <trkpt lat="42.84079" lon="0.19833">
        <ele>1874</ele>
        <time>2019-03-20T16:53:05Z</time>
      </trkpt>
      <trkpt lat="42.84076" lon="0.19831">
        <ele>1874</ele>
        <time>2019-03-20T16:53:11Z</time>
      </trkpt>
      <trkpt lat="42.84073" lon="0.19831">
        <ele>1874</ele>
        <time>2019-03-20T16:53:20Z</time>
      </trkpt>
      <trkpt lat="42.84073" lon="0.19835">
        <ele>1874</ele>
        <time>2019-03-20T16:53:44Z</time>
      </trkpt>
      <trkpt lat="42.84072" lon="0.19838">
        <ele>1874</ele>
        <time>2019-03-20T16:53:48Z</time>
      </trkpt>
      <trkpt lat="42.8407" lon="0.19841">
        <ele>1874</ele>
        <time>2019-03-20T16:53:54Z</time>
      </trkpt>
      <trkpt lat="42.84066" lon="0.19843">
        <ele>1873</ele>
        <time>2019-03-20T16:53:57Z</time>
      </trkpt>
      <trkpt lat="42.84061" lon="0.19849">
        <ele>1873</ele>
        <time>2019-03-20T16:54:05Z</time>
      </trkpt>
      <trkpt lat="42.84057" lon="0.19851">
        <ele>1873</ele>
        <time>2019-03-20T16:54:08Z</time>
      </trkpt>
      <trkpt lat="42.84054" lon="0.19852">
        <ele>1873</ele>
        <time>2019-03-20T16:54:13Z</time>
      </trkpt>
      <trkpt lat="42.84052" lon="0.19854">
        <ele>1873</ele>
        <time>2019-03-20T16:54:19Z</time>
      </trkpt>
      <trkpt lat="42.84049" lon="0.19855">
        <ele>1873</ele>
        <time>2019-03-20T16:54:24Z</time>
      </trkpt>
      <trkpt lat="42.84044" lon="0.19861">
        <ele>1873</ele>
        <time>2019-03-20T16:54:31Z</time>
      </trkpt>
      <trkpt lat="42.84041" lon="0.19861">
        <ele>1873</ele>
        <time>2019-03-20T16:54:34Z</time>
      </trkpt>
      <trkpt lat="42.84038" lon="0.19862">
        <ele>1873</ele>
        <time>2019-03-20T16:54:37Z</time>
      </trkpt>
      <trkpt lat="42.84033" lon="0.19862">
        <ele>1873</ele>
        <time>2019-03-20T16:54:45Z</time>
      </trkpt>
      <trkpt lat="42.8403" lon="0.19863">
        <ele>1872</ele>
        <time>2019-03-20T16:54:48Z</time>
      </trkpt>
      <trkpt lat="42.84028" lon="0.19867">
        <ele>1872</ele>
        <time>2019-03-20T16:54:50Z</time>
      </trkpt>
      <trkpt lat="42.84026" lon="0.1987">
        <ele>1872</ele>
        <time>2019-03-20T16:54:52Z</time>
      </trkpt>
      <trkpt lat="42.84025" lon="0.19878">
        <ele>1872</ele>
        <time>2019-03-20T16:54:57Z</time>
      </trkpt>
      <trkpt lat="42.84022" lon="0.19877">
        <ele>1872</ele>
        <time>2019-03-20T16:55:07Z</time>
      </trkpt>
      <trkpt lat="42.84018" lon="0.1988">
        <ele>1872</ele>
        <time>2019-03-20T16:55:10Z</time>
      </trkpt>
      <trkpt lat="42.84011" lon="0.19887">
        <ele>1871</ele>
        <time>2019-03-20T16:55:19Z</time>
      </trkpt>
      <trkpt lat="42.8401" lon="0.1989">
        <ele>1871</ele>
        <time>2019-03-20T16:55:29Z</time>
      </trkpt>
      <trkpt lat="42.84009" lon="0.19894">
        <ele>1870</ele>
        <time>2019-03-20T16:55:32Z</time>
      </trkpt>
      <trkpt lat="42.84007" lon="0.19895">
        <ele>1870</ele>
        <time>2019-03-20T16:55:35Z</time>
      </trkpt>
      <trkpt lat="42.84004" lon="0.19897">
        <ele>1870</ele>
        <time>2019-03-20T16:55:39Z</time>
      </trkpt>
      <trkpt lat="42.83999" lon="0.19901">
        <ele>1870</ele>
        <time>2019-03-20T16:55:48Z</time>
      </trkpt>
      <trkpt lat="42.83998" lon="0.19904">
        <ele>1869</ele>
        <time>2019-03-20T16:55:50Z</time>
      </trkpt>
      <trkpt lat="42.83998" lon="0.19912">
        <ele>1869</ele>
        <time>2019-03-20T16:56:02Z</time>
      </trkpt>
      <trkpt lat="42.83999" lon="0.19914">
        <ele>1869</ele>
        <time>2019-03-20T16:56:06Z</time>
      </trkpt>
      <trkpt lat="42.84002" lon="0.19917">
        <ele>1869</ele>
        <time>2019-03-20T16:56:13Z</time>
      </trkpt>
      <trkpt lat="42.84003" lon="0.19925">
        <ele>1868</ele>
        <time>2019-03-20T16:56:23Z</time>
      </trkpt>
      <trkpt lat="42.84004" lon="0.19928">
        <ele>1868</ele>
        <time>2019-03-20T16:56:26Z</time>
      </trkpt>
      <trkpt lat="42.84005" lon="0.19933">
        <ele>1868</ele>
        <time>2019-03-20T16:56:29Z</time>
      </trkpt>
      <trkpt lat="42.84005" lon="0.19937">
        <ele>1868</ele>
        <time>2019-03-20T16:56:31Z</time>
      </trkpt>
      <trkpt lat="42.84004" lon="0.19942">
        <ele>1868</ele>
        <time>2019-03-20T16:56:35Z</time>
      </trkpt>
      <trkpt lat="42.84003" lon="0.19946">
        <ele>1868</ele>
        <time>2019-03-20T16:56:38Z</time>
      </trkpt>
      <trkpt lat="42.84001" lon="0.19954">
        <ele>1868</ele>
        <time>2019-03-20T16:56:43Z</time>
      </trkpt>
      <trkpt lat="42.84" lon="0.19958">
        <ele>1867</ele>
        <time>2019-03-20T16:56:55Z</time>
      </trkpt>
      <trkpt lat="42.83997" lon="0.1996">
        <ele>1867</ele>
        <time>2019-03-20T16:57:17Z</time>
      </trkpt>
      <trkpt lat="42.83996" lon="0.19955">
        <ele>1867</ele>
        <time>2019-03-20T16:58:31Z</time>
      </trkpt>
      <trkpt lat="42.83992" lon="0.19955">
        <ele>1866</ele>
        <time>2019-03-20T17:00:06Z</time>
      </trkpt>
      <trkpt lat="42.83991" lon="0.19961">
        <ele>1866</ele>
        <time>2019-03-20T17:00:10Z</time>
      </trkpt>
      <trkpt lat="42.83994" lon="0.19965">
        <ele>1866</ele>
        <time>2019-03-20T17:00:58Z</time>
      </trkpt>
      <trkpt lat="42.8399" lon="0.19968">
        <ele>1865</ele>
        <time>2019-03-20T17:01:31Z</time>
      </trkpt>
      <trkpt lat="42.83985" lon="0.19971">
        <ele>1865</ele>
        <time>2019-03-20T17:01:35Z</time>
      </trkpt>
      <trkpt lat="42.83976" lon="0.19973">
        <ele>1865</ele>
        <time>2019-03-20T17:01:40Z</time>
      </trkpt>
      <trkpt lat="42.8397" lon="0.19975">
        <ele>1865</ele>
        <time>2019-03-20T17:01:45Z</time>
      </trkpt>
      <trkpt lat="42.83965" lon="0.19976">
        <ele>1865</ele>
        <time>2019-03-20T17:01:49Z</time>
      </trkpt>
      <trkpt lat="42.83958" lon="0.19974">
        <ele>1865</ele>
        <time>2019-03-20T17:01:53Z</time>
      </trkpt>
      <trkpt lat="42.83951" lon="0.19975">
        <ele>1865</ele>
        <time>2019-03-20T17:01:57Z</time>
      </trkpt>
      <trkpt lat="42.83941" lon="0.19973">
        <ele>1865</ele>
        <time>2019-03-20T17:02:05Z</time>
      </trkpt>
      <trkpt lat="42.83937" lon="0.19972">
        <ele>1865</ele>
        <time>2019-03-20T17:02:11Z</time>
      </trkpt>
      <trkpt lat="42.83926" lon="0.19963">
        <ele>1865</ele>
        <time>2019-03-20T17:02:22Z</time>
      </trkpt>
      <trkpt lat="42.83879" lon="0.19969">
        <ele>1865</ele>
        <time>2019-03-20T17:02:50Z</time>
      </trkpt>
      <trkpt lat="42.83872" lon="0.1997">
        <ele>1865</ele>
        <time>2019-03-20T17:02:53Z</time>
      </trkpt>
      <trkpt lat="42.83866" lon="0.19974">
        <ele>1865</ele>
        <time>2019-03-20T17:02:56Z</time>
      </trkpt>
      <trkpt lat="42.83865" lon="0.19978">
        <ele>1865</ele>
        <time>2019-03-20T17:03:00Z</time>
      </trkpt>
      <trkpt lat="42.83864" lon="0.19983">
        <ele>1865</ele>
        <time>2019-03-20T17:03:06Z</time>
      </trkpt>
      <trkpt lat="42.83862" lon="0.19988">
        <ele>1865</ele>
        <time>2019-03-20T17:03:42Z</time>
      </trkpt>
      <trkpt lat="42.83858" lon="0.19987">
        <ele>1865</ele>
        <time>2019-03-20T17:04:17Z</time>
      </trkpt>
      <trkpt lat="42.83855" lon="0.19991">
        <ele>1864</ele>
        <time>2019-03-20T17:04:22Z</time>
      </trkpt>
      <trkpt lat="42.83851" lon="0.19994">
        <ele>1864</ele>
        <time>2019-03-20T17:04:26Z</time>
      </trkpt>
      <trkpt lat="42.83847" lon="0.19995">
        <ele>1864</ele>
        <time>2019-03-20T17:04:30Z</time>
      </trkpt>
      <trkpt lat="42.83843" lon="0.19995">
        <ele>1864</ele>
        <time>2019-03-20T17:04:34Z</time>
      </trkpt>
      <trkpt lat="42.83833" lon="0.19996">
        <ele>1864</ele>
        <time>2019-03-20T17:04:40Z</time>
      </trkpt>
      <trkpt lat="42.83827" lon="0.19993">
        <ele>1864</ele>
        <time>2019-03-20T17:04:42Z</time>
      </trkpt>
      <trkpt lat="42.83822" lon="0.19992">
        <ele>1864</ele>
        <time>2019-03-20T17:04:43Z</time>
      </trkpt>
      <trkpt lat="42.83817" lon="0.19994">
        <ele>1864</ele>
        <time>2019-03-20T17:04:44Z</time>
      </trkpt>
      <trkpt lat="42.83807" lon="0.19996">
        <ele>1864</ele>
        <time>2019-03-20T17:04:49Z</time>
      </trkpt>
      <trkpt lat="42.83795" lon="0.19997">
        <ele>1863</ele>
        <time>2019-03-20T17:05:09Z</time>
      </trkpt>
      <trkpt lat="42.83787" lon="0.19998">
        <ele>1862</ele>
        <time>2019-03-20T17:05:18Z</time>
      </trkpt>
      <trkpt lat="42.83766" lon="0.20002">
        <ele>1861</ele>
        <time>2019-03-20T17:05:29Z</time>
      </trkpt>
      <trkpt lat="42.83762" lon="0.20004">
        <ele>1860</ele>
        <time>2019-03-20T17:05:31Z</time>
      </trkpt>
      <trkpt lat="42.83758" lon="0.20004">
        <ele>1860</ele>
        <time>2019-03-20T17:05:33Z</time>
      </trkpt>
      <trkpt lat="42.83754" lon="0.20008">
        <ele>1860</ele>
        <time>2019-03-20T17:05:38Z</time>
      </trkpt>
      <trkpt lat="42.83745" lon="0.20013">
        <ele>1859</ele>
        <time>2019-03-20T17:05:46Z</time>
      </trkpt>
      <trkpt lat="42.83726" lon="0.20018">
        <ele>1858</ele>
        <time>2019-03-20T17:05:58Z</time>
      </trkpt>
      <trkpt lat="42.83722" lon="0.20024">
        <ele>1857</ele>
        <time>2019-03-20T17:06:02Z</time>
      </trkpt>
      <trkpt lat="42.8372" lon="0.20029">
        <ele>1857</ele>
        <time>2019-03-20T17:06:08Z</time>
      </trkpt>
      <trkpt lat="42.83718" lon="0.20034">
        <ele>1857</ele>
        <time>2019-03-20T17:06:17Z</time>
      </trkpt>
      <trkpt lat="42.83714" lon="0.20035">
        <ele>1856</ele>
        <time>2019-03-20T17:06:20Z</time>
      </trkpt>
      <trkpt lat="42.83707" lon="0.20036">
        <ele>1856</ele>
        <time>2019-03-20T17:06:24Z</time>
      </trkpt>
      <trkpt lat="42.83703" lon="0.20035">
        <ele>1856</ele>
        <time>2019-03-20T17:06:26Z</time>
      </trkpt>
      <trkpt lat="42.83693" lon="0.20043">
        <ele>1856</ele>
        <time>2019-03-20T17:06:41Z</time>
      </trkpt>
      <trkpt lat="42.8369" lon="0.20042">
        <ele>1855</ele>
        <time>2019-03-20T17:07:48Z</time>
      </trkpt>
      <trkpt lat="42.83686" lon="0.20045">
        <ele>1855</ele>
        <time>2019-03-20T17:07:53Z</time>
      </trkpt>
      <trkpt lat="42.83684" lon="0.20047">
        <ele>1854</ele>
        <time>2019-03-20T17:07:55Z</time>
      </trkpt>
      <trkpt lat="42.83681" lon="0.2005">
        <ele>1853</ele>
        <time>2019-03-20T17:07:58Z</time>
      </trkpt>
      <trkpt lat="42.83678" lon="0.20051">
        <ele>1853</ele>
        <time>2019-03-20T17:08:03Z</time>
      </trkpt>
      <trkpt lat="42.83675" lon="0.20052">
        <ele>1853</ele>
        <time>2019-03-20T17:08:06Z</time>
      </trkpt>
      <trkpt lat="42.83673" lon="0.20055">
        <ele>1852</ele>
        <time>2019-03-20T17:08:33Z</time>
      </trkpt>
      <trkpt lat="42.83668" lon="0.20059">
        <ele>1852</ele>
        <time>2019-03-20T17:08:37Z</time>
      </trkpt>
      <trkpt lat="42.83665" lon="0.20062">
        <ele>1851</ele>
        <time>2019-03-20T17:08:52Z</time>
      </trkpt>
      <trkpt lat="42.83662" lon="0.20065">
        <ele>1851</ele>
        <time>2019-03-20T17:08:58Z</time>
      </trkpt>
      <trkpt lat="42.83654" lon="0.2007">
        <ele>1850</ele>
        <time>2019-03-20T17:09:09Z</time>
      </trkpt>
      <trkpt lat="42.83647" lon="0.20075">
        <ele>1849</ele>
        <time>2019-03-20T17:09:17Z</time>
      </trkpt>
      <trkpt lat="42.83644" lon="0.20077">
        <ele>1849</ele>
        <time>2019-03-20T17:09:20Z</time>
      </trkpt>
      <trkpt lat="42.8364" lon="0.2008">
        <ele>1849</ele>
        <time>2019-03-20T17:09:24Z</time>
      </trkpt>
      <trkpt lat="42.83638" lon="0.20083">
        <ele>1849</ele>
        <time>2019-03-20T17:09:27Z</time>
      </trkpt>
      <trkpt lat="42.83635" lon="0.20087">
        <ele>1849</ele>
        <time>2019-03-20T17:09:30Z</time>
      </trkpt>
      <trkpt lat="42.83633" lon="0.20091">
        <ele>1849</ele>
        <time>2019-03-20T17:09:33Z</time>
      </trkpt>
      <trkpt lat="42.83626" lon="0.20099">
        <ele>1848</ele>
        <time>2019-03-20T17:09:42Z</time>
      </trkpt>
      <trkpt lat="42.83622" lon="0.20101">
        <ele>1848</ele>
        <time>2019-03-20T17:09:47Z</time>
      </trkpt>
      <trkpt lat="42.83618" lon="0.20104">
        <ele>1848</ele>
        <time>2019-03-20T17:09:52Z</time>
      </trkpt>
      <trkpt lat="42.83606" lon="0.20112">
        <ele>1847</ele>
        <time>2019-03-20T17:10:08Z</time>
      </trkpt>
      <trkpt lat="42.83599" lon="0.20119">
        <ele>1847</ele>
        <time>2019-03-20T17:10:17Z</time>
      </trkpt>
      <trkpt lat="42.83596" lon="0.20123">
        <ele>1847</ele>
        <time>2019-03-20T17:10:19Z</time>
      </trkpt>
      <trkpt lat="42.83594" lon="0.20129">
        <ele>1847</ele>
        <time>2019-03-20T17:10:22Z</time>
      </trkpt>
      <trkpt lat="42.83589" lon="0.20137">
        <ele>1847</ele>
        <time>2019-03-20T17:10:30Z</time>
      </trkpt>
      <trkpt lat="42.83585" lon="0.20146">
        <ele>1847</ele>
        <time>2019-03-20T17:10:37Z</time>
      </trkpt>
      <trkpt lat="42.83583" lon="0.20151">
        <ele>1847</ele>
        <time>2019-03-20T17:10:41Z</time>
      </trkpt>
      <trkpt lat="42.83574" lon="0.20164">
        <ele>1846</ele>
        <time>2019-03-20T17:10:52Z</time>
      </trkpt>
      <trkpt lat="42.83568" lon="0.20171">
        <ele>1846</ele>
        <time>2019-03-20T17:10:59Z</time>
      </trkpt>
      <trkpt lat="42.8356" lon="0.20176">
        <ele>1846</ele>
        <time>2019-03-20T17:11:06Z</time>
      </trkpt>
      <trkpt lat="42.83553" lon="0.2018">
        <ele>1846</ele>
        <time>2019-03-20T17:11:14Z</time>
      </trkpt>
      <trkpt lat="42.83551" lon="0.20185">
        <ele>1846</ele>
        <time>2019-03-20T17:11:16Z</time>
      </trkpt>
      <trkpt lat="42.83548" lon="0.20189">
        <ele>1846</ele>
        <time>2019-03-20T17:11:20Z</time>
      </trkpt>
      <trkpt lat="42.83537" lon="0.20195">
        <ele>1846</ele>
        <time>2019-03-20T17:11:30Z</time>
      </trkpt>
      <trkpt lat="42.83529" lon="0.20199">
        <ele>1846</ele>
        <time>2019-03-20T17:11:39Z</time>
      </trkpt>
      <trkpt lat="42.83526" lon="0.20202">
        <ele>1846</ele>
        <time>2019-03-20T17:11:44Z</time>
      </trkpt>
      <trkpt lat="42.83506" lon="0.20212">
        <ele>1846</ele>
        <time>2019-03-20T17:12:07Z</time>
      </trkpt>
      <trkpt lat="42.835" lon="0.20214">
        <ele>1846</ele>
        <time>2019-03-20T17:12:12Z</time>
      </trkpt>
      <trkpt lat="42.83497" lon="0.20212">
        <ele>1846</ele>
        <time>2019-03-20T17:12:16Z</time>
      </trkpt>
      <trkpt lat="42.83492" lon="0.20218">
        <ele>1846</ele>
        <time>2019-03-20T17:12:21Z</time>
      </trkpt>
      <trkpt lat="42.8349" lon="0.20222">
        <ele>1846</ele>
        <time>2019-03-20T17:12:23Z</time>
      </trkpt>
      <trkpt lat="42.83488" lon="0.20225">
        <ele>1846</ele>
        <time>2019-03-20T17:12:26Z</time>
      </trkpt>
      <trkpt lat="42.83477" lon="0.2024">
        <ele>1845</ele>
        <time>2019-03-20T17:12:39Z</time>
      </trkpt>
      <trkpt lat="42.83473" lon="0.20248">
        <ele>1845</ele>
        <time>2019-03-20T17:12:46Z</time>
      </trkpt>
      <trkpt lat="42.83468" lon="0.20253">
        <ele>1845</ele>
        <time>2019-03-20T17:12:51Z</time>
      </trkpt>
      <trkpt lat="42.83465" lon="0.20255">
        <ele>1845</ele>
        <time>2019-03-20T17:12:54Z</time>
      </trkpt>
      <trkpt lat="42.83457" lon="0.20263">
        <ele>1845</ele>
        <time>2019-03-20T17:13:03Z</time>
      </trkpt>
      <trkpt lat="42.83452" lon="0.20269">
        <ele>1845</ele>
        <time>2019-03-20T17:13:08Z</time>
      </trkpt>
      <trkpt lat="42.83449" lon="0.20271">
        <ele>1845</ele>
        <time>2019-03-20T17:13:11Z</time>
      </trkpt>
      <trkpt lat="42.83443" lon="0.20275">
        <ele>1845</ele>
        <time>2019-03-20T17:13:18Z</time>
      </trkpt>
      <trkpt lat="42.8343" lon="0.20281">
        <ele>1844</ele>
        <time>2019-03-20T17:13:30Z</time>
      </trkpt>
      <trkpt lat="42.83428" lon="0.20282">
        <ele>1844</ele>
        <time>2019-03-20T17:13:33Z</time>
      </trkpt>
      <trkpt lat="42.83402" lon="0.20295">
        <ele>1844</ele>
        <time>2019-03-20T17:13:58Z</time>
      </trkpt>
      <trkpt lat="42.834" lon="0.20298">
        <ele>1844</ele>
        <time>2019-03-20T17:14:01Z</time>
      </trkpt>
      <trkpt lat="42.83397" lon="0.20306">
        <ele>1844</ele>
        <time>2019-03-20T17:14:06Z</time>
      </trkpt>
      <trkpt lat="42.83395" lon="0.2031">
        <ele>1844</ele>
        <time>2019-03-20T17:14:09Z</time>
      </trkpt>
      <trkpt lat="42.83384" lon="0.20326">
        <ele>1844</ele>
        <time>2019-03-20T17:14:24Z</time>
      </trkpt>
      <trkpt lat="42.83383" lon="0.20327">
        <ele>1844</ele>
        <time>2019-03-20T17:14:26Z</time>
      </trkpt>
      <trkpt lat="42.83381" lon="0.20329">
        <ele>1844</ele>
        <time>2019-03-20T17:14:29Z</time>
      </trkpt>
      <trkpt lat="42.83379" lon="0.2033">
        <ele>1844</ele>
        <time>2019-03-20T17:14:32Z</time>
      </trkpt>
      <trkpt lat="42.83376" lon="0.20332">
        <ele>1844</ele>
        <time>2019-03-20T17:14:35Z</time>
      </trkpt>
      <trkpt lat="42.83364" lon="0.20341">
        <ele>1844</ele>
        <time>2019-03-20T17:14:49Z</time>
      </trkpt>
      <trkpt lat="42.83361" lon="0.20344">
        <ele>1844</ele>
        <time>2019-03-20T17:14:51Z</time>
      </trkpt>
      <trkpt lat="42.83349" lon="0.20355">
        <ele>1844</ele>
        <time>2019-03-20T17:15:04Z</time>
      </trkpt>
      <trkpt lat="42.83345" lon="0.20356">
        <ele>1844</ele>
        <time>2019-03-20T17:15:07Z</time>
      </trkpt>
      <trkpt lat="42.83334" lon="0.20369">
        <ele>1844</ele>
        <time>2019-03-20T17:15:20Z</time>
      </trkpt>
      <trkpt lat="42.83328" lon="0.20377">
        <ele>1844</ele>
        <time>2019-03-20T17:15:25Z</time>
      </trkpt>
      <trkpt lat="42.83323" lon="0.20379">
        <ele>1844</ele>
        <time>2019-03-20T17:15:29Z</time>
      </trkpt>
      <trkpt lat="42.83318" lon="0.20386">
        <ele>1844</ele>
        <time>2019-03-20T17:15:35Z</time>
      </trkpt>
      <trkpt lat="42.83315" lon="0.2039">
        <ele>1844</ele>
        <time>2019-03-20T17:15:41Z</time>
      </trkpt>
      <trkpt lat="42.83312" lon="0.20392">
        <ele>1844</ele>
        <time>2019-03-20T17:15:44Z</time>
      </trkpt>
      <trkpt lat="42.83295" lon="0.20413">
        <ele>1843</ele>
        <time>2019-03-20T17:16:01Z</time>
      </trkpt>
      <trkpt lat="42.83289" lon="0.20419">
        <ele>1843</ele>
        <time>2019-03-20T17:16:04Z</time>
      </trkpt>
      <trkpt lat="42.83275" lon="0.20428">
        <ele>1843</ele>
        <time>2019-03-20T17:16:21Z</time>
      </trkpt>
      <trkpt lat="42.83264" lon="0.20438">
        <ele>1843</ele>
        <time>2019-03-20T17:16:36Z</time>
      </trkpt>
      <trkpt lat="42.83261" lon="0.20441">
        <ele>1843</ele>
        <time>2019-03-20T17:16:39Z</time>
      </trkpt>
      <trkpt lat="42.83253" lon="0.20444">
        <ele>1843</ele>
        <time>2019-03-20T17:16:47Z</time>
      </trkpt>
      <trkpt lat="42.83249" lon="0.20446">
        <ele>1843</ele>
        <time>2019-03-20T17:16:53Z</time>
      </trkpt>
      <trkpt lat="42.83245" lon="0.20447">
        <ele>1843</ele>
        <time>2019-03-20T17:16:59Z</time>
      </trkpt>
      <trkpt lat="42.83241" lon="0.2045">
        <ele>1843</ele>
        <time>2019-03-20T17:17:27Z</time>
      </trkpt>
      <trkpt lat="42.83236" lon="0.20451">
        <ele>1843</ele>
        <time>2019-03-20T17:17:30Z</time>
      </trkpt>
      <trkpt lat="42.83232" lon="0.20457">
        <ele>1843</ele>
        <time>2019-03-20T17:17:35Z</time>
      </trkpt>
      <trkpt lat="42.83227" lon="0.20462">
        <ele>1843</ele>
        <time>2019-03-20T17:17:42Z</time>
      </trkpt>
      <trkpt lat="42.83219" lon="0.20471">
        <ele>1843</ele>
        <time>2019-03-20T17:17:55Z</time>
      </trkpt>
      <trkpt lat="42.83213" lon="0.20472">
        <ele>1843</ele>
        <time>2019-03-20T17:18:01Z</time>
      </trkpt>
      <trkpt lat="42.83207" lon="0.20471">
        <ele>1843</ele>
        <time>2019-03-20T17:18:05Z</time>
      </trkpt>
      <trkpt lat="42.83207" lon="0.20479">
        <ele>1843</ele>
        <time>2019-03-20T17:18:22Z</time>
      </trkpt>
      <trkpt lat="42.83203" lon="0.20483">
        <ele>1843</ele>
        <time>2019-03-20T17:18:39Z</time>
      </trkpt>
      <trkpt lat="42.83197" lon="0.20486">
        <ele>1843</ele>
        <time>2019-03-20T17:18:46Z</time>
      </trkpt>
      <trkpt lat="42.83193" lon="0.20488">
        <ele>1843</ele>
        <time>2019-03-20T17:18:51Z</time>
      </trkpt>
      <trkpt lat="42.8319" lon="0.20493">
        <ele>1843</ele>
        <time>2019-03-20T17:18:55Z</time>
      </trkpt>
      <trkpt lat="42.83179" lon="0.20498">
        <ele>1843</ele>
        <time>2019-03-20T17:19:05Z</time>
      </trkpt>
      <trkpt lat="42.83174" lon="0.20501">
        <ele>1843</ele>
        <time>2019-03-20T17:19:13Z</time>
      </trkpt>
      <trkpt lat="42.83168" lon="0.20502">
        <ele>1843</ele>
        <time>2019-03-20T17:19:20Z</time>
      </trkpt>
      <trkpt lat="42.83162" lon="0.20504">
        <ele>1843</ele>
        <time>2019-03-20T17:19:25Z</time>
      </trkpt>
      <trkpt lat="42.8315" lon="0.20502">
        <ele>1843</ele>
        <time>2019-03-20T17:19:35Z</time>
      </trkpt>
      <trkpt lat="42.83144" lon="0.20508">
        <ele>1843</ele>
        <time>2019-03-20T17:19:40Z</time>
      </trkpt>
      <trkpt lat="42.83139" lon="0.20511">
        <ele>1843</ele>
        <time>2019-03-20T17:19:46Z</time>
      </trkpt>
      <trkpt lat="42.83133" lon="0.20511">
        <ele>1843</ele>
        <time>2019-03-20T17:19:51Z</time>
      </trkpt>
      <trkpt lat="42.83128" lon="0.20515">
        <ele>1843</ele>
        <time>2019-03-20T17:19:58Z</time>
      </trkpt>
      <trkpt lat="42.83124" lon="0.20519">
        <ele>1843</ele>
        <time>2019-03-20T17:20:08Z</time>
      </trkpt>
      <trkpt lat="42.83118" lon="0.20522">
        <ele>1843</ele>
        <time>2019-03-20T17:20:14Z</time>
      </trkpt>
      <trkpt lat="42.83112" lon="0.20523">
        <ele>1843</ele>
        <time>2019-03-20T17:20:17Z</time>
      </trkpt>
      <trkpt lat="42.83107" lon="0.20522">
        <ele>1843</ele>
        <time>2019-03-20T17:20:22Z</time>
      </trkpt>
      <trkpt lat="42.83102" lon="0.20521">
        <ele>1843</ele>
        <time>2019-03-20T17:20:33Z</time>
      </trkpt>
      <trkpt lat="42.83096" lon="0.20523">
        <ele>1843</ele>
        <time>2019-03-20T17:20:39Z</time>
      </trkpt>
      <trkpt lat="42.83092" lon="0.20527">
        <ele>1843</ele>
        <time>2019-03-20T17:20:43Z</time>
      </trkpt>
      <trkpt lat="42.83085" lon="0.20529">
        <ele>1843</ele>
        <time>2019-03-20T17:20:47Z</time>
      </trkpt>
      <trkpt lat="42.8308" lon="0.20532">
        <ele>1843</ele>
        <time>2019-03-20T17:20:51Z</time>
      </trkpt>
      <trkpt lat="42.83077" lon="0.20538">
        <ele>1843</ele>
        <time>2019-03-20T17:20:56Z</time>
      </trkpt>
      <trkpt lat="42.83074" lon="0.20541">
        <ele>1843</ele>
        <time>2019-03-20T17:21:01Z</time>
      </trkpt>
      <trkpt lat="42.83072" lon="0.20546">
        <ele>1843</ele>
        <time>2019-03-20T17:21:06Z</time>
      </trkpt>
      <trkpt lat="42.8306" lon="0.20544">
        <ele>1843</ele>
        <time>2019-03-20T17:21:16Z</time>
      </trkpt>
      <trkpt lat="42.8305" lon="0.20553">
        <ele>1843</ele>
        <time>2019-03-20T17:21:30Z</time>
      </trkpt>
      <trkpt lat="42.83044" lon="0.20554">
        <ele>1843</ele>
        <time>2019-03-20T17:21:37Z</time>
      </trkpt>
      <trkpt lat="42.83039" lon="0.20558">
        <ele>1843</ele>
        <time>2019-03-20T17:21:43Z</time>
      </trkpt>
      <trkpt lat="42.83032" lon="0.20559">
        <ele>1843</ele>
        <time>2019-03-20T17:21:51Z</time>
      </trkpt>
      <trkpt lat="42.83026" lon="0.20559">
        <ele>1843</ele>
        <time>2019-03-20T17:21:55Z</time>
      </trkpt>
      <trkpt lat="42.83019" lon="0.2056">
        <ele>1843</ele>
        <time>2019-03-20T17:21:59Z</time>
      </trkpt>
      <trkpt lat="42.83007" lon="0.20566">
        <ele>1843</ele>
        <time>2019-03-20T17:22:09Z</time>
      </trkpt>
      <trkpt lat="42.83001" lon="0.20568">
        <ele>1843</ele>
        <time>2019-03-20T17:22:15Z</time>
      </trkpt>
      <trkpt lat="42.82995" lon="0.20567">
        <ele>1843</ele>
        <time>2019-03-20T17:22:20Z</time>
      </trkpt>
      <trkpt lat="42.82983" lon="0.2057">
        <ele>1844</ele>
        <time>2019-03-20T17:22:33Z</time>
      </trkpt>
      <trkpt lat="42.82977" lon="0.20574">
        <ele>1844</ele>
        <time>2019-03-20T17:22:39Z</time>
      </trkpt>
      <trkpt lat="42.82971" lon="0.20574">
        <ele>1844</ele>
        <time>2019-03-20T17:22:45Z</time>
      </trkpt>
      <trkpt lat="42.82965" lon="0.20573">
        <ele>1844</ele>
        <time>2019-03-20T17:22:49Z</time>
      </trkpt>
      <trkpt lat="42.82959" lon="0.20572">
        <ele>1844</ele>
        <time>2019-03-20T17:22:56Z</time>
      </trkpt>
      <trkpt lat="42.82953" lon="0.20574">
        <ele>1844</ele>
        <time>2019-03-20T17:23:03Z</time>
      </trkpt>
      <trkpt lat="42.82936" lon="0.20572">
        <ele>1844</ele>
        <time>2019-03-20T17:23:27Z</time>
      </trkpt>
      <trkpt lat="42.82928" lon="0.20583">
        <ele>1844</ele>
        <time>2019-03-20T17:23:41Z</time>
      </trkpt>
      <trkpt lat="42.82925" lon="0.20583">
        <ele>1844</ele>
        <time>2019-03-20T17:23:45Z</time>
      </trkpt>
      <trkpt lat="42.82908" lon="0.20579">
        <ele>1844</ele>
        <time>2019-03-20T17:23:58Z</time>
      </trkpt>
      <trkpt lat="42.82902" lon="0.20582">
        <ele>1844</ele>
        <time>2019-03-20T17:24:03Z</time>
      </trkpt>
      <trkpt lat="42.82898" lon="0.20582">
        <ele>1844</ele>
        <time>2019-03-20T17:24:08Z</time>
      </trkpt>
      <trkpt lat="42.82893" lon="0.20583">
        <ele>1844</ele>
        <time>2019-03-20T17:24:15Z</time>
      </trkpt>
      <trkpt lat="42.82881" lon="0.20579">
        <ele>1845</ele>
        <time>2019-03-20T17:24:30Z</time>
      </trkpt>
      <trkpt lat="42.82876" lon="0.20576">
        <ele>1845</ele>
        <time>2019-03-20T17:24:35Z</time>
      </trkpt>
      <trkpt lat="42.8287" lon="0.20573">
        <ele>1845</ele>
        <time>2019-03-20T17:24:42Z</time>
      </trkpt>
      <trkpt lat="42.82858" lon="0.20571">
        <ele>1845</ele>
        <time>2019-03-20T17:24:56Z</time>
      </trkpt>
      <trkpt lat="42.82853" lon="0.20566">
        <ele>1845</ele>
        <time>2019-03-20T17:25:01Z</time>
      </trkpt>
      <trkpt lat="42.82848" lon="0.20565">
        <ele>1845</ele>
        <time>2019-03-20T17:25:09Z</time>
      </trkpt>
      <trkpt lat="42.82842" lon="0.20563">
        <ele>1845</ele>
        <time>2019-03-20T17:25:16Z</time>
      </trkpt>
      <trkpt lat="42.82818" lon="0.20561">
        <ele>1845</ele>
        <time>2019-03-20T17:25:39Z</time>
      </trkpt>
      <trkpt lat="42.82815" lon="0.20557">
        <ele>1845</ele>
        <time>2019-03-20T17:25:50Z</time>
      </trkpt>
      <trkpt lat="42.8281" lon="0.20557">
        <ele>1845</ele>
        <time>2019-03-20T17:25:55Z</time>
      </trkpt>
      <trkpt lat="42.82807" lon="0.20558">
        <ele>1845</ele>
        <time>2019-03-20T17:26:00Z</time>
      </trkpt>
      <trkpt lat="42.82798" lon="0.20561">
        <ele>1845</ele>
        <time>2019-03-20T17:26:12Z</time>
      </trkpt>
      <trkpt lat="42.82793" lon="0.20561">
        <ele>1845</ele>
        <time>2019-03-20T17:26:17Z</time>
      </trkpt>
      <trkpt lat="42.82789" lon="0.20555">
        <ele>1845</ele>
        <time>2019-03-20T17:26:26Z</time>
      </trkpt>
      <trkpt lat="42.82766" lon="0.20549">
        <ele>1845</ele>
        <time>2019-03-20T17:26:44Z</time>
      </trkpt>
      <trkpt lat="42.8276" lon="0.20548">
        <ele>1845</ele>
        <time>2019-03-20T17:26:51Z</time>
      </trkpt>
      <trkpt lat="42.82754" lon="0.20551">
        <ele>1845</ele>
        <time>2019-03-20T17:26:58Z</time>
      </trkpt>
      <trkpt lat="42.82749" lon="0.20555">
        <ele>1845</ele>
        <time>2019-03-20T17:27:04Z</time>
      </trkpt>
      <trkpt lat="42.82742" lon="0.20553">
        <ele>1845</ele>
        <time>2019-03-20T17:27:10Z</time>
      </trkpt>
      <trkpt lat="42.82736" lon="0.20557">
        <ele>1845</ele>
        <time>2019-03-20T17:27:17Z</time>
      </trkpt>
      <trkpt lat="42.82731" lon="0.2056">
        <ele>1845</ele>
        <time>2019-03-20T17:27:22Z</time>
      </trkpt>
      <trkpt lat="42.82726" lon="0.20563">
        <ele>1845</ele>
        <time>2019-03-20T17:27:27Z</time>
      </trkpt>
      <trkpt lat="42.82723" lon="0.2057">
        <ele>1845</ele>
        <time>2019-03-20T17:27:32Z</time>
      </trkpt>
      <trkpt lat="42.82716" lon="0.20582">
        <ele>1845</ele>
        <time>2019-03-20T17:27:43Z</time>
      </trkpt>
      <trkpt lat="42.82703" lon="0.20597">
        <ele>1845</ele>
        <time>2019-03-20T17:27:58Z</time>
      </trkpt>
      <trkpt lat="42.82699" lon="0.206">
        <ele>1845</ele>
        <time>2019-03-20T17:28:03Z</time>
      </trkpt>
      <trkpt lat="42.82692" lon="0.20603">
        <ele>1844</ele>
        <time>2019-03-20T17:28:11Z</time>
      </trkpt>
      <trkpt lat="42.82686" lon="0.20602">
        <ele>1844</ele>
        <time>2019-03-20T17:28:16Z</time>
      </trkpt>
      <trkpt lat="42.82679" lon="0.20604">
        <ele>1844</ele>
        <time>2019-03-20T17:28:22Z</time>
      </trkpt>
      <trkpt lat="42.82674" lon="0.20608">
        <ele>1844</ele>
        <time>2019-03-20T17:28:24Z</time>
      </trkpt>
      <trkpt lat="42.82668" lon="0.20613">
        <ele>1844</ele>
        <time>2019-03-20T17:28:27Z</time>
      </trkpt>
      <trkpt lat="42.82658" lon="0.20621">
        <ele>1844</ele>
        <time>2019-03-20T17:28:35Z</time>
      </trkpt>
      <trkpt lat="42.82653" lon="0.20625">
        <ele>1844</ele>
        <time>2019-03-20T17:28:42Z</time>
      </trkpt>
      <trkpt lat="42.82648" lon="0.20628">
        <ele>1844</ele>
        <time>2019-03-20T17:28:46Z</time>
      </trkpt>
      <trkpt lat="42.82642" lon="0.2063">
        <ele>1844</ele>
        <time>2019-03-20T17:28:51Z</time>
      </trkpt>
      <trkpt lat="42.82638" lon="0.20635">
        <ele>1844</ele>
        <time>2019-03-20T17:28:56Z</time>
      </trkpt>
      <trkpt lat="42.82632" lon="0.20638">
        <ele>1844</ele>
        <time>2019-03-20T17:29:00Z</time>
      </trkpt>
      <trkpt lat="42.82626" lon="0.20641">
        <ele>1844</ele>
        <time>2019-03-20T17:29:07Z</time>
      </trkpt>
      <trkpt lat="42.8262" lon="0.20643">
        <ele>1844</ele>
        <time>2019-03-20T17:29:14Z</time>
      </trkpt>
      <trkpt lat="42.82617" lon="0.20645">
        <ele>1844</ele>
        <time>2019-03-20T17:29:19Z</time>
      </trkpt>
      <trkpt lat="42.82613" lon="0.20646">
        <ele>1844</ele>
        <time>2019-03-20T17:29:22Z</time>
      </trkpt>
      <trkpt lat="42.82602" lon="0.20655">
        <ele>1844</ele>
        <time>2019-03-20T17:29:35Z</time>
      </trkpt>
      <trkpt lat="42.82593" lon="0.20664">
        <ele>1845</ele>
        <time>2019-03-20T17:29:47Z</time>
      </trkpt>
      <trkpt lat="42.82585" lon="0.2067">
        <ele>1845</ele>
        <time>2019-03-20T17:29:56Z</time>
      </trkpt>
      <trkpt lat="42.82579" lon="0.20674">
        <ele>1845</ele>
        <time>2019-03-20T17:30:01Z</time>
      </trkpt>
      <trkpt lat="42.82574" lon="0.20681">
        <ele>1845</ele>
        <time>2019-03-20T17:30:07Z</time>
      </trkpt>
      <trkpt lat="42.82569" lon="0.20685">
        <ele>1845</ele>
        <time>2019-03-20T17:30:12Z</time>
      </trkpt>
      <trkpt lat="42.82564" lon="0.20689">
        <ele>1845</ele>
        <time>2019-03-20T17:30:21Z</time>
      </trkpt>
      <trkpt lat="42.8256" lon="0.20694">
        <ele>1845</ele>
        <time>2019-03-20T17:30:27Z</time>
      </trkpt>
      <trkpt lat="42.82557" lon="0.20697">
        <ele>1845</ele>
        <time>2019-03-20T17:30:29Z</time>
      </trkpt>
      <trkpt lat="42.82554" lon="0.20704">
        <ele>1845</ele>
        <time>2019-03-20T17:30:34Z</time>
      </trkpt>
      <trkpt lat="42.82545" lon="0.20716">
        <ele>1845</ele>
        <time>2019-03-20T17:30:45Z</time>
      </trkpt>
      <trkpt lat="42.82541" lon="0.20719">
        <ele>1845</ele>
        <time>2019-03-20T17:30:48Z</time>
      </trkpt>
      <trkpt lat="42.82537" lon="0.20719">
        <ele>1845</ele>
        <time>2019-03-20T17:30:51Z</time>
      </trkpt>
      <trkpt lat="42.82527" lon="0.20726">
        <ele>1845</ele>
        <time>2019-03-20T17:31:00Z</time>
      </trkpt>
      <trkpt lat="42.8252" lon="0.20738">
        <ele>1845</ele>
        <time>2019-03-20T17:31:12Z</time>
      </trkpt>
      <trkpt lat="42.82517" lon="0.20744">
        <ele>1845</ele>
        <time>2019-03-20T17:31:18Z</time>
      </trkpt>
      <trkpt lat="42.82513" lon="0.20748">
        <ele>1845</ele>
        <time>2019-03-20T17:31:23Z</time>
      </trkpt>
      <trkpt lat="42.8251" lon="0.20752">
        <ele>1845</ele>
        <time>2019-03-20T17:31:30Z</time>
      </trkpt>
      <trkpt lat="42.82506" lon="0.20753">
        <ele>1845</ele>
        <time>2019-03-20T17:31:35Z</time>
      </trkpt>
      <trkpt lat="42.82501" lon="0.2075">
        <ele>1845</ele>
        <time>2019-03-20T17:31:38Z</time>
      </trkpt>
      <trkpt lat="42.82495" lon="0.20749">
        <ele>1845</ele>
        <time>2019-03-20T17:31:49Z</time>
      </trkpt>
      <trkpt lat="42.8249" lon="0.20747">
        <ele>1845</ele>
        <time>2019-03-20T17:32:13Z</time>
      </trkpt>
      <trkpt lat="42.82485" lon="0.20746">
        <ele>1844</ele>
        <time>2019-03-20T17:32:32Z</time>
      </trkpt>
      <trkpt lat="42.82483" lon="0.20753">
        <ele>1844</ele>
        <time>2019-03-20T17:32:36Z</time>
      </trkpt>
      <trkpt lat="42.82479" lon="0.20759">
        <ele>1844</ele>
        <time>2019-03-20T17:32:47Z</time>
      </trkpt>
      <trkpt lat="42.82475" lon="0.20753">
        <ele>1844</ele>
        <time>2019-03-20T17:32:54Z</time>
      </trkpt>
      <trkpt lat="42.82477" lon="0.20743">
        <ele>1844</ele>
        <time>2019-03-20T17:33:02Z</time>
      </trkpt>
      <trkpt lat="42.82473" lon="0.20737">
        <ele>1844</ele>
        <time>2019-03-20T17:33:07Z</time>
      </trkpt>
      <trkpt lat="42.82474" lon="0.20732">
        <ele>1844</ele>
        <time>2019-03-20T17:33:16Z</time>
      </trkpt>
      <trkpt lat="42.8247" lon="0.2073">
        <ele>1843</ele>
        <time>2019-03-20T17:33:27Z</time>
      </trkpt>
      <trkpt lat="42.82465" lon="0.2073">
        <ele>1842</ele>
        <time>2019-03-20T17:33:33Z</time>
      </trkpt>
      <trkpt lat="42.82462" lon="0.20726">
        <ele>1842</ele>
        <time>2019-03-20T17:33:37Z</time>
      </trkpt>
      <trkpt lat="42.82457" lon="0.20721">
        <ele>1842</ele>
        <time>2019-03-20T17:33:46Z</time>
      </trkpt>
      <trkpt lat="42.82453" lon="0.20716">
        <ele>1842</ele>
        <time>2019-03-20T17:33:50Z</time>
      </trkpt>
      <trkpt lat="42.82446" lon="0.20704">
        <ele>1841</ele>
        <time>2019-03-20T17:34:00Z</time>
      </trkpt>
      <trkpt lat="42.82439" lon="0.20682">
        <ele>1841</ele>
        <time>2019-03-20T17:34:07Z</time>
      </trkpt>
      <trkpt lat="42.82441" lon="0.20681">
        <ele>1840</ele>
        <time>2019-03-20T17:34:31Z</time>
      </trkpt>
      <trkpt lat="42.82444" lon="0.20671">
        <ele>1839</ele>
        <time>2019-03-20T17:34:45Z</time>
      </trkpt>
    </trkseg>
  </trk>
</gpx>